# Wetter Temperatur Luftdruck Luftfeuchtigkeit Sichtweite Windgeschwindigkeit Windrichtung Zeit
1 Clear 17 1027 55 10000 2.1 130 11:23 08.04.2020
2 Clear 16 1027 54 10000 2.1 120 10:58 08.04.2020
3 Clear 16 1027 54 10000 2.1 120 10:40 08.04.2020
4 Clear 15 1027 58 10000 2.6 110 10:21 08.04.2020
5 Clear 13 1028 58 10000 2.6 110 09:59 08.04.2020
6 Clear 12 1028 58 10000 2.6 110 09:41 08.04.2020
7 Clear 11 1028 62 10000 2.6 120 09:19 08.04.2020
8 Clear 10 1028 66 10000 2.1 90 08:58 08.04.2020
9 Clear 10 1028 66 10000 2.1 90 08:39 08.04.2020
10 Clear 9 1028 70 10000 2.6 100 08:20 08.04.2020
11 Clouds 8 1028 79 10000 4.1 90 07:43 08.04.2020
12 Clouds 7 1028 79 10000 4.1 90 07:21 08.04.2020
13 Clear 7 1029 86 10000 3.1 70 06:29 08.04.2020
14 Clear 8 1030 86 10000 4.1 80 04:59 08.04.2020
15 Clouds 8 1031 78 10000 4.1 80 02:51 08.04.2020
16 Clouds 9 1031 75 10000 3.6 80 02:22 08.04.2020
17 Clouds 9 1031 75 10000 3.6 80 01:56 08.04.2020
18 Clouds 10 1031 50 10000 3.1 70 01:28 08.04.2020
19 Clouds 11 1031 50 10000 3.1 70 00:49 08.04.2020
20 Clouds 11 1031 50 10000 3.1 80 00:31 08.04.2020
21 Clouds 11 1031 50 10000 3.1 80 23:57 07.04.2020
22 Clouds 12 1031 58 10000 3.6 90 23:38 07.04.2020
23 Clouds 12 1031 50 10000 2.6 70 23:19 07.04.2020
24 Clouds 12 1031 50 10000 2.6 70 22:56 07.04.2020
25 Clouds 12 1031 47 10000 3.1 70 22:38 07.04.2020
26 Clouds 13 1031 47 10000 3.1 70 22:18 07.04.2020
27 Clouds 13 1031 47 10000 3.1 70 21:43 07.04.2020
28 Clouds 14 1031 41 10000 3.1 70 21:23 07.04.2020
29 Clouds 14 1031 54 10000 4.1 90 20:59 07.04.2020
30 Clouds 15 1031 36 10000 5.1 70 20:41 07.04.2020
31 Clouds 16 1031 36 10000 5.1 70 20:21 07.04.2020
32 Clouds 17 1031 36 10000 5.1 70 19:58 07.04.2020
33 Clouds 18 1031 37 10000 4.1 90 19:38 07.04.2020
34 Clouds 18 1031 37 10000 4.1 90 19:20 07.04.2020
35 Clouds 19 1031 37 10000 4.1 90 18:59 07.04.2020
36 Clouds 19 1031 34 10000 3.1 80 18:41 07.04.2020
37 Clouds 19 1031 34 10000 3.1 80 18:21 07.04.2020
38 Clouds 19 1031 34 10000 3.1 80 17:56 07.04.2020
39 Clouds 19 1031 34 10000 3.1 80 17:37 07.04.2020
40 Clouds 19 1031 37 10000 2.1 140 17:19 07.04.2020
41 Clouds 19 1031 34 10000 2.1 20 16:44 07.04.2020
42 Clouds 18 1032 39 10000 1.5 0 16:26 07.04.2020
43 Clouds 18 1032 39 10000 1.5 0 16:26 07.04.2020
44 Clouds 18 1032 39 10000 1.5 0 15:46 07.04.2020
45 Clouds 18 1032 39 10000 1.5 0 15:27 07.04.2020
46 Clouds 18 1032 39 10000 2.1 0 14:57 07.04.2020
47 Clouds 18 1032 39 10000 2.1 0 14:38 07.04.2020
48 Clouds 18 1032 39 10000 2.6 0 14:20 07.04.2020
49 Clouds 17 1032 45 10000 3.1 0 13:43 07.04.2020
50 Clouds 17 1032 45 10000 2.6 0 13:20 07.04.2020
51 Clouds 16 1032 48 10000 2.6 0 12:58 07.04.2020
52 Clouds 16 1032 48 10000 2.6 0 12:39 07.04.2020
53 Clouds 16 1032 48 10000 2.6 10 12:21 07.04.2020
54 Clouds 15 1032 58 10000 2.6 360 11:59 07.04.2020
55 Clouds 14 1032 58 10000 2.6 360 11:41 07.04.2020
56 Clouds 14 1031 71 10000 2.6 340 11:21 07.04.2020
57 Clouds 14 1031 71 10000 2.6 340 10:55 07.04.2020
58 Clouds 13 1031 71 10000 2.6 340 10:36 07.04.2020
59 Clouds 13 1031 76 10000 2.6 340 10:18 07.04.2020
60 Clouds 12 1031 81 10000 3.1 310 09:44 07.04.2020
61 Clouds 11 1030 81 9000 3.6 310 09:18 07.04.2020
62 Clouds 11 1030 81 9000 3.6 310 08:42 07.04.2020
63 Clouds 11 1029 81 8000 2.1 290 08:24 07.04.2020
64 Clouds 10 1029 81 8000 2.1 290 07:59 07.04.2020
65 Clouds 10 1029 87 9000 2.1 270 07:40 07.04.2020
66 Clouds 10 1029 87 9000 2.1 270 07:21 07.04.2020
67 Clouds 10 1029 87 9000 2.1 270 06:49 07.04.2020
68 Clear 9 1028 81 8000 1.5 250 06:21 07.04.2020
69 Clear 9 1027 81 10000 2.1 250 05:38 07.04.2020
70 Clear 9 1027 81 10000 2.1 250 04:46 07.04.2020
71 Clear 10 1025 66 10000 1.5 240 03:26 07.04.2020
72 Clear 11 1025 66 10000 1.5 240 02:54 07.04.2020
73 Clear 11 1025 53 10000 2.1 240 01:48 07.04.2020
74 Clear 12 1023 54 10000 3.6 270 01:25 07.04.2020
75 Clear 12 1022 66 6000 0.5 250 00:29 07.04.2020
76 Clear 12 1022 66 6000 0.5 250 23:56 06.04.2020
77 Clear 12 1022 54 10000 0.5 220 23:36 06.04.2020
78 Clear 13 1022 54 10000 0.5 220 23:18 06.04.2020
79 Clear 13 1022 54 10000 0.5 220 22:40 06.04.2020
80 Clear 13 1022 54 10000 0.5 220 22:40 06.04.2020
81 Clear 14 1021 44 10000 0.5 140 22:21 06.04.2020
82 Clear 15 1021 44 10000 0.5 140 21:58 06.04.2020
83 Clear 15 1021 44 10000 0.5 140 21:39 06.04.2020
84 Clear 16 1021 34 10000 1 70 21:19 06.04.2020
85 Clear 17 1021 34 10000 1 70 20:56 06.04.2020
86 Clear 18 1020 28 10000 1.5 130 20:38 06.04.2020
87 Clear 19 1020 28 10000 1.5 130 20:19 06.04.2020
88 Clear 21 1020 28 10000 1.5 130 19:54 06.04.2020
89 Clear 21 1020 23 10000 3.1 200 19:36 06.04.2020
90 Clear 22 1020 23 10000 3.1 200 19:18 06.04.2020
91 Clear 23 1020 23 10000 3.6 180 18:41 06.04.2020
92 Clear 23 1020 23 10000 3.6 180 18:41 06.04.2020
93 Clear 23 1020 23 10000 3.6 180 18:23 06.04.2020
94 Clear 23 1020 23 10000 3.6 180 17:55 06.04.2020
95 Clear 22 1020 25 10000 4.6 200 17:37 06.04.2020
96 Clear 23 1020 25 10000 4.6 200 17:18 06.04.2020
97 Clear 23 1020 25 10000 4.1 170 16:47 06.04.2020
98 Clear 22 1021 26 10000 3.6 160 16:29 06.04.2020
99 Clear 21 1021 37 10000 3.1 180 14:46 06.04.2020
100 Clear 21 1021 37 10000 3.1 180 14:46 06.04.2020
101 Clear 21 1021 37 10000 3.1 180 14:46 06.04.2020
102 Clear 21 1021 37 10000 3.1 180 14:46 06.04.2020
103 Clear 20 1021 32 10000 3.1 160 13:44 06.04.2020
104 Clear 20 1021 29 10000 3.1 170 13:21 06.04.2020
105 Clear 19 1021 31 10000 4.1 180 12:41 06.04.2020
106 Clear 19 1021 31 10000 4.1 180 12:41 06.04.2020
107 Clear 17 1021 33 10000 3.6 160 12:18 06.04.2020
108 Clear 17 1021 33 10000 3.6 160 12:18 06.04.2020
109 Clear 16 1021 45 10000 3.6 180 11:40 06.04.2020
110 Clear 16 1021 45 10000 3.6 180 11:40 06.04.2020
111 Clear 16 1021 45 10000 3.6 180 11:40 06.04.2020
112 Clear 16 1021 45 10000 3.6 180 11:40 06.04.2020
113 Clear 16 1021 45 10000 3.6 180 11:40 06.04.2020
114 Clear 15 1021 45 10000 3.6 130 10:53 06.04.2020
115 Clear 16 1021 45 10000 3.1 170 10:53 06.04.2020
116 Clear 15 1021 45 10000 3.6 130 10:53 06.04.2020
117 Clear 14 1021 45 10000 3.6 130 10:23 06.04.2020
118 Clear 14 1021 45 10000 3.6 160 10:03 06.04.2020
119 Clear 12 1021 45 10000 3.1 120 09:37 06.04.2020
120 Clear 8 1021 53 10000 3.1 120 09:18 06.04.2020
121 Clear 8 1021 65 10000 3.1 110 08:41 06.04.2020
122 Clear 8 1021 65 10000 3.1 110 08:41 06.04.2020
123 Clear 8 1021 65 10000 3.1 110 08:41 06.04.2020
124 Clear 7 1021 65 10000 3.1 110 08:41 06.04.2020
125 Clear 8 1021 65 10000 3.1 110 08:41 06.04.2020
126 Clear 6 1021 69 10000 2.6 120 07:56 06.04.2020
127 Clear 6 1021 69 10000 2.6 120 07:56 06.04.2020
128 Clear 5 1020 65 10000 2.6 90 07:20 06.04.2020
129 Clear 5 1021 60 10000 1.5 70 06:26 06.04.2020
130 Clear 5 1021 60 10000 1.5 70 05:43 06.04.2020
131 Clear 5 1021 60 10000 1.5 70 05:43 06.04.2020
132 Clear 7 1021 56 10000 2.1 70 03:33 06.04.2020
133 Clear 7 1021 52 10000 2.6 80 02:49 06.04.2020
134 Clear 9 1021 49 10000 2.6 90 01:53 06.04.2020
135 Clear 9 1022 46 10000 4.1 100 00:52 06.04.2020
136 Clear 9 1022 43 10000 4.6 100 00:27 06.04.2020
137 Clear 10 1022 43 10000 4.6 100 23:51 05.04.2020
138 Clear 10 1022 43 10000 4.6 100 23:33 05.04.2020
139 Clear 11 1022 37 10000 3.6 90 22:57 05.04.2020
140 Clear 11 1022 37 10000 3.6 90 22:39 05.04.2020
141 Clear 11 1023 35 10000 4.6 100 22:21 05.04.2020
142 Clear 11 1023 35 10000 4.6 100 21:59 05.04.2020
143 Clear 12 1023 35 10000 4.6 100 21:41 05.04.2020
144 Clear 12 1023 35 10000 4.6 100 21:41 05.04.2020
145 Clear 12 1023 33 10000 5.7 110 21:22 05.04.2020
146 Clear 12 1023 33 10000 5.7 110 21:22 05.04.2020
147 Clear 14 1023 31 10000 6.7 110 20:22 05.04.2020
148 Clear 15 1023 31 10000 6.7 110 19:43 05.04.2020
149 Clear 16 1023 29 10000 7.2 100 19:22 05.04.2020
150 Clear 17 1023 29 10000 7.2 100 18:48 05.04.2020
151 Clear 17 1023 29 10000 7.2 100 18:48 05.04.2020
152 Clear 17 1023 50 10000 8.2 110 18:18 05.04.2020
153 Clear 17 1023 50 10000 8.2 110 17:46 05.04.2020
154 Clear 17 1023 50 10000 8.2 110 17:46 05.04.2020
155 Clear 17 1023 50 10000 8.2 110 17:46 05.04.2020
156 Clear 17 1023 50 10000 8.2 110 17:46 05.04.2020
157 Clear 17 1023 50 10000 8.2 110 17:46 05.04.2020
158 Clear 17 1024 50 10000 7.2 110 17:22 05.04.2020
159 Clear 17 1026 36 10000 7.2 120 16:47 05.04.2020
160 Clear 17 1026 36 10000 7.2 120 16:19 05.04.2020
161 Clear 17 1026 36 10000 7.2 120 15:45 05.04.2020
162 Clear 17 1026 36 10000 7.2 120 15:45 05.04.2020
163 Clear 17 1026 36 10000 7.2 120 15:25 05.04.2020
164 Clear 17 1026 36 10000 7.2 120 15:25 05.04.2020
165 Clear 17 1026 36 10000 6.7 130 14:48 05.04.2020
166 Clear 17 1026 36 10000 6.7 130 14:48 05.04.2020
167 Clear 17 1026 36 10000 6.7 130 14:48 05.04.2020
168 Clear 17 1026 36 10000 6.7 130 14:48 05.04.2020
169 Clear 17 1026 36 10000 6.7 130 14:48 05.04.2020
170 Clear 16 1027 31 10000 7.2 140 13:59 05.04.2020
171 Clear 16 1027 49 10000 7.2 130 13:40 05.04.2020
172 Clear 16 1027 49 10000 7.2 130 13:40 05.04.2020
173 Clear 16 1027 49 10000 7.2 130 13:40 05.04.2020
174 Clear 16 1027 49 10000 7.2 130 13:40 05.04.2020
175 Clear 16 1027 49 10000 7.2 130 13:40 05.04.2020
176 Clear 14 1028 44 10000 4.6 130 12:20 05.04.2020
177 Clear 14 1028 44 10000 4.6 130 12:20 05.04.2020
178 Clear 14 1028 44 10000 4.6 130 12:20 05.04.2020
179 Clear 13 1028 47 10000 5.1 100 11:39 05.04.2020
180 Clear 13 1028 46 10000 4.6 110 11:19 05.04.2020
181 Clear 12 1028 50 10000 4.1 100 10:47 05.04.2020
182 Clear 11 1028 53 10000 4.6 100 10:23 05.04.2020
183 Clear 10 1028 53 10000 4.6 100 09:53 05.04.2020
184 Clear 8 1028 65 10000 2.6 90 09:27 05.04.2020
185 Clear 8 1028 65 10000 2.6 90 09:27 05.04.2020
186 Clear 5 1028 65 10000 2.6 90 08:32 05.04.2020
187 Clear 5 1028 65 10000 3.1 110 08:32 05.04.2020
188 Clear 5 1028 65 10000 2.6 90 08:32 05.04.2020
189 Clear 5 1028 65 10000 2.6 90 08:31 05.04.2020
190 Clear 2 1027 69 10000 1.5 70 07:05 05.04.2020
191 Clear 2 1027 69 10000 1.5 70 07:05 05.04.2020
192 Clear 2 1027 69 10000 1.5 70 07:05 05.04.2020
193 Clear 2 1027 69 10000 1.5 70 07:05 05.04.2020
194 Clear 3 1027 69 10000 2.1 70 04:31 05.04.2020
195 Clear 3 1028 64 10000 2.1 70 03:28 05.04.2020
196 Clouds 4 1028 60 10000 1.5 80 02:27 05.04.2020
197 Clouds 4 1028 60 10000 1.5 80 01:44 05.04.2020
198 Clouds 4 1027 56 10000 1.5 90 01:22 05.04.2020
199 Clouds 5 1027 56 10000 1.5 90 00:37 05.04.2020
200 Clouds 5 1027 60 10000 1.5 80 00:19 05.04.2020
201 Clouds 5 1027 60 10000 1.5 80 23:42 04.04.2020
202 Clouds 6 1027 49 10000 2.1 110 23:22 04.04.2020
203 Clouds 6 1027 49 10000 2.1 110 22:57 04.04.2020
204 Clouds 7 1027 49 10000 2.1 110 22:39 04.04.2020
205 Clouds 7 1027 49 10000 1 120 22:20 04.04.2020
206 Clouds 7 1027 49 10000 1 120 21:57 04.04.2020
207 Clouds 7 1027 49 10000 1 120 21:57 04.04.2020
208 Clouds 8 1027 49 10000 1 120 21:39 04.04.2020
209 Clear 9 1026 43 10000 1.5 120 21:19 04.04.2020
210 Clear 9 1026 43 10000 1.5 120 20:56 04.04.2020
211 Clear 10 1026 43 10000 1.5 120 20:37 04.04.2020
212 Clear 10 1026 34 10000 2.6 110 20:19 04.04.2020
213 Clear 11 1026 34 10000 2.6 110 19:55 04.04.2020
214 Clear 12 1026 34 10000 2.6 110 19:36 04.04.2020
215 Clear 12 1026 34 10000 2.6 110 19:36 04.04.2020
216 Clear 13 1025 35 10000 2.6 160 19:18 04.04.2020
217 Clear 13 1025 35 10000 2.6 160 18:55 04.04.2020
218 Clear 13 1025 35 10000 2.6 160 18:37 04.04.2020
219 Clear 13 1025 32 10000 2.1 110 18:18 04.04.2020
220 Clear 13 1025 32 10000 2.1 110 17:40 04.04.2020
221 Clear 14 1025 32 10000 2.6 270 17:20 04.04.2020
222 Clear 14 1025 32 10000 2.6 270 16:55 04.04.2020
223 Clear 13 1026 34 10000 3.1 100 16:37 04.04.2020
224 Clear 13 1026 34 10000 3.1 100 16:37 04.04.2020
225 Clear 13 1026 34 10000 3.1 100 16:19 04.04.2020
226 Clear 13 1026 34 10000 3.1 100 15:40 04.04.2020
227 Clear 13 1026 34 10000 3.1 100 15:22 04.04.2020
228 Clear 12 1026 34 10000 1.5 0 14:57 04.04.2020
229 Clear 12 1026 40 10000 2.6 0 14:39 04.04.2020
230 Clear 11 1026 40 10000 1 0 14:21 04.04.2020
231 Clear 12 1026 40 10000 1 0 13:55 04.04.2020
232 Clear 11 1025 37 10000 2.6 270 13:37 04.04.2020
233 Clear 11 1026 37 10000 1.5 0 13:19 04.04.2020
234 Clear 11 1026 46 10000 2.1 0 12:44 04.04.2020
235 Clear 11 1026 46 10000 2.1 0 12:44 04.04.2020
236 Clouds 10 1026 42 10000 2.1 270 12:23 04.04.2020
237 Clouds 9 1026 42 10000 2.1 270 11:59 04.04.2020
238 Clear 9 1026 49 10000 2.1 0 11:38 04.04.2020
239 Clear 8 1025 52 10000 2.6 250 11:19 04.04.2020
240 Clear 8 1025 52 10000 2.6 250 10:56 04.04.2020
241 Clear 8 1025 49 10000 2.6 290 10:37 04.04.2020
242 Clear 7 1025 56 10000 2.1 250 10:19 04.04.2020
243 Clear 7 1025 56 10000 2.1 250 09:54 04.04.2020
244 Clear 6 1025 56 5000 2.1 230 09:36 04.04.2020
245 Clouds 5 1024 75 10000 1.5 250 09:18 04.04.2020
246 Clouds 4 1024 74 6000 1.43 264 08:41 04.04.2020
247 Clouds 3 1024 86 10000 1 0 08:21 04.04.2020
248 Clouds 2 1023 86 10000 1.43 264 07:46 04.04.2020
249 Clouds 2 1022 86 10000 1 220 07:26 04.04.2020
250 Clouds 2 1022 86 10000 1 220 06:53 04.04.2020
251 Clouds 3 1022 74 10000 1 240 06:20 04.04.2020
252 Clouds 3 1022 74 10000 1 240 05:43 04.04.2020
253 Clouds 3 1022 74 10000 1 240 05:43 04.04.2020
254 Clouds 4 1021 69 10000 1 250 05:24 04.04.2020
255 Clouds 4 1021 69 10000 1 250 04:31 04.04.2020
256 Clouds 4 1021 65 10000 1 220 03:53 04.04.2020
257 Clouds 4 1021 65 10000 1 230 03:22 04.04.2020
258 Rain 5 1021 65 10000 1 230 02:38 04.04.2020
259 Rain 5 1020 60 10000 1 300 02:20 04.04.2020
260 Rain 5 1020 60 10000 1.5 260 01:26 04.04.2020
261 Rain 6 1020 60 10000 1.5 260 00:52 04.04.2020
262 Rain 6 1019 56 10000 1 280 00:30 04.04.2020
263 Rain 7 1019 56 10000 1 280 23:55 03.04.2020
264 Rain 7 1019 56 10000 1 280 23:36 03.04.2020
265 Rain 7 1018 56 10000 1.5 240 23:18 03.04.2020
266 Rain 7 1018 56 10000 1.5 240 22:40 03.04.2020
267 Rain 7 1018 56 10000 1 310 22:19 03.04.2020
268 Rain 7 1018 56 10000 1 310 21:56 03.04.2020
269 Rain 7 1018 56 10000 1 310 21:37 03.04.2020
270 Clouds 8 1017 49 10000 1.5 290 21:19 03.04.2020
271 Rain 8 1017 49 10000 1.5 290 20:55 03.04.2020
272 Rain 8 1017 49 10000 1.5 290 20:36 03.04.2020
273 Rain 8 1016 42 10000 4.6 290 20:18 03.04.2020
274 Rain 8 1016 42 10000 4.6 290 19:54 03.04.2020
275 Rain 8 1016 42 10000 4.6 290 19:36 03.04.2020
276 Rain 9 1016 42 10000 4.6 290 19:18 03.04.2020
277 Rain 9 1015 42 10000 3.1 290 18:56 03.04.2020
278 Rain 9 1015 42 10000 3.1 290 18:38 03.04.2020
279 Clouds 10 1015 39 10000 3.1 290 18:19 03.04.2020
280 Clouds 10 1015 39 10000 6.2 300 17:40 03.04.2020
281 Clouds 10 1015 39 10000 6.2 300 17:19 03.04.2020
282 Clouds 10 1015 39 10000 6.2 300 17:19 03.04.2020
283 Clouds 10 1015 39 10000 6.2 300 16:55 03.04.2020
284 Clouds 10 1015 39 10000 6.2 300 16:36 03.04.2020
285 Clouds 10 1014 39 10000 7.2 300 16:18 03.04.2020
286 Clouds 10 1014 39 10000 7.2 300 15:41 03.04.2020
287 Clouds 10 1014 39 10000 7.2 300 15:22 03.04.2020
288 Clouds 10 1014 42 10000 4.6 290 14:58 03.04.2020
289 Clouds 9 1014 42 10000 6.7 300 14:40 03.04.2020
290 Clouds 9 1014 42 10000 6.7 300 14:22 03.04.2020
291 Clouds 9 1014 42 10000 6.7 300 13:46 03.04.2020
292 Clouds 9 1014 39 10000 8.2 280 13:27 03.04.2020
293 Clouds 9 1014 39 10000 8.2 280 12:58 03.04.2020
294 Clouds 9 1014 52 10000 6.7 270 12:40 03.04.2020
295 Clouds 8 1013 52 10000 5.7 280 12:19 03.04.2020
296 Clouds 8 1013 52 10000 5.7 280 11:56 03.04.2020
297 Clouds 8 1013 57 10000 5.1 290 11:37 03.04.2020
298 Clouds 8 1013 56 10000 6.2 280 11:18 03.04.2020
299 Clouds 7 1013 56 10000 6.2 280 10:57 03.04.2020
300 Clouds 7 1013 56 10000 6.7 290 10:38 03.04.2020
301 Clouds 7 1012 60 10000 6.2 280 10:20 03.04.2020
302 Clouds 7 1012 60 10000 5.7 280 09:57 03.04.2020
303 Clouds 6 1012 60 10000 5.7 280 09:39 03.04.2020
304 Clouds 5 1011 80 10000 3.6 250 09:21 03.04.2020
305 Clouds 5 1011 80 10000 3.6 250 08:55 03.04.2020
306 Clouds 5 1011 80 10000 3.6 250 08:36 03.04.2020
307 Clouds 5 1010 80 10000 2.6 240 08:18 03.04.2020
308 Clouds 5 1010 80 10000 2.6 240 07:41 03.04.2020
309 Clouds 5 1010 80 10000 3.1 250 07:23 03.04.2020
310 Clouds 5 1009 75 10000 2.6 260 06:38 03.04.2020
311 Rain 5 1009 75 10000 2.6 260 06:20 03.04.2020
312 Rain 5 1009 75 10000 2.6 260 05:34 03.04.2020
313 Rain 6 1008 93 10000 3.1 260 03:40 03.04.2020
314 Rain 6 1008 86 5000 5.1 300 02:53 03.04.2020
315 Rain 7 1007 70 10000 6.2 250 01:53 03.04.2020
316 Rain 7 1007 65 10000 7.7 240 01:18 03.04.2020
317 Rain 7 1007 65 10000 7.7 240 00:34 03.04.2020
318 Clouds 8 1007 65 10000 8.7 250 23:57 02.04.2020
319 Clouds 8 1007 65 10000 8.7 250 23:39 02.04.2020
320 Clouds 8 1007 61 9000 7.2 240 23:21 02.04.2020
321 Clouds 8 1007 61 9000 7.2 240 22:43 02.04.2020
322 Clouds 8 1007 69 10000 6.2 230 22:25 02.04.2020
323 Clouds 8 1007 69 10000 6.2 230 21:59 02.04.2020
324 Clouds 8 1007 69 10000 6.2 230 21:38 02.04.2020
325 Clouds 8 1007 69 10000 6.2 230 21:38 02.04.2020
326 Clouds 8 1007 66 10000 6.2 230 21:19 02.04.2020
327 Clouds 8 1007 66 10000 6.2 230 21:19 02.04.2020
328 Clouds 8 1007 66 10000 6.2 230 20:57 02.04.2020
329 Clouds 8 1007 66 10000 6.2 230 20:39 02.04.2020
330 Clouds 8 1007 49 10000 7.2 240 20:19 02.04.2020
331 Clouds 8 1007 49 10000 7.2 240 19:43 02.04.2020
332 Clouds 8 1008 49 10000 6.7 240 19:21 02.04.2020
333 Clouds 8 1009 52 10000 7.7 260 18:58 02.04.2020
334 Clouds 9 1009 52 10000 7.7 260 18:39 02.04.2020
335 Clouds 9 1009 52 10000 7.7 260 18:20 02.04.2020
336 Clouds 9 1009 52 10000 7.7 260 17:56 02.04.2020
337 -273 0 0 0 0 0 17:38 02.04.2020
338 Clouds 9 1009 52 10000 8.7 260 17:18 02.04.2020
339 Clouds 9 1009 52 10000 8.7 260 16:55 02.04.2020
340 Clouds 9 1010 49 10000 8.2 260 16:37 02.04.2020
341 Clouds 9 1010 45 10000 7.7 270 16:18 02.04.2020
342 Clouds 8 1010 49 10000 7.2 270 15:44 02.04.2020
343 Clouds 8 1011 52 10000 6.7 260 15:21 02.04.2020
344 Clouds 8 1011 52 10000 6.7 260 14:59 02.04.2020
345 Clouds 8 1011 52 10000 6.7 260 14:40 02.04.2020
346 Clouds 8 1011 49 10000 5.1 260 14:20 02.04.2020
347 Clouds 8 1011 49 10000 5.1 260 13:58 02.04.2020
348 Clouds 8 1011 49 10000 5.1 260 13:39 02.04.2020
349 Clouds 8 1012 49 10000 6.2 270 13:20 02.04.2020
350 Clouds 8 1012 49 10000 6.2 270 12:56 02.04.2020
351 Clouds 8 1012 49 10000 6.2 270 12:56 02.04.2020
352 Clouds 8 1012 52 10000 5.1 250 12:37 02.04.2020
353 Clouds 8 1012 52 10000 6.2 270 12:19 02.04.2020
354 Clouds 8 1012 52 10000 6.2 270 11:57 02.04.2020
355 Clouds 8 1012 52 10000 5.7 260 11:38 02.04.2020
356 Clouds 7 1013 60 10000 4.6 250 11:19 02.04.2020
357 Clouds 7 1013 60 10000 4.6 250 10:55 02.04.2020
358 Clouds 7 1013 60 10000 4.6 240 10:37 02.04.2020
359 Clouds 7 1013 60 10000 4.6 240 10:37 02.04.2020
360 Clouds 6 1013 60 10000 4.6 250 10:19 02.04.2020
361 Clouds 6 1013 60 10000 4.6 250 09:55 02.04.2020
362 Clouds 5 1013 60 10000 4.1 250 09:37 02.04.2020
363 Clouds 4 1013 85 10000 3.6 260 09:18 02.04.2020
364 Clouds 3 1013 85 10000 3.1 250 08:45 02.04.2020
365 Clouds 3 1013 85 10000 3.1 250 08:26 02.04.2020
366 Clouds 3 1013 85 10000 2.6 260 07:45 02.04.2020
367 Clouds 3 1013 85 10000 2.6 270 07:20 02.04.2020
368 Clouds 2 1013 85 10000 2.6 270 06:58 02.04.2020
369 Clouds 1 1014 80 10000 2.1 240 06:21 02.04.2020
370 Clouds 1 1014 80 10000 2.1 240 05:45 02.04.2020
371 Clouds 1 1014 80 10000 2.1 240 04:35 02.04.2020
372 Clouds 1 1015 75 10000 2.1 250 01:52 02.04.2020
373 Clouds 2 1016 75 10000 2.6 240 00:50 02.04.2020
374 Clouds 2 1016 75 10000 2.6 240 00:50 02.04.2020
375 Clouds 3 1016 70 10000 1.5 250 00:28 02.04.2020
376 Clouds 4 1016 70 10000 1.5 250 23:57 01.04.2020
377 Clouds 2 1016 70 10000 1.5 250 23:37 01.04.2020
378 Clouds 2 1016 70 10000 1.5 250 23:37 01.04.2020
379 Clouds 3 1017 70 10000 2.1 270 23:18 01.04.2020
380 Clouds 3 1017 70 10000 2.1 270 22:41 01.04.2020
381 Clouds 4 1017 70 10000 2.1 260 22:22 01.04.2020
382 Clouds 5 1017 70 10000 2.1 260 21:57 01.04.2020
383 Clouds 4 1017 70 10000 2.1 260 21:39 01.04.2020
384 Clouds 6 1017 79 10000 2.1 240 21:19 01.04.2020
385 Clouds 6 1017 79 10000 2.1 240 20:55 01.04.2020
386 Clouds 5 1017 79 10000 2.1 240 20:37 01.04.2020
387 Clouds 7 1017 65 10000 3.1 270 20:18 01.04.2020
388 Clouds 7 1017 65 10000 3.1 270 19:55 01.04.2020
389 Clouds 7 1017 79 10000 2.6 250 19:37 01.04.2020
390 Clouds 8 1017 49 10000 4.1 300 19:19 01.04.2020
391 Clouds 8 1017 49 10000 4.1 300 18:41 01.04.2020
392 Clouds 8 1017 49 10000 4.1 300 18:21 01.04.2020
393 Clouds 9 1018 45 10000 4.6 290 17:57 01.04.2020
394 Clouds 9 1018 45 10000 4.6 290 17:37 01.04.2020
395 Clouds 9 1018 45 10000 4.6 290 17:18 01.04.2020
396 Clouds 9 1018 45 10000 4.6 290 16:56 01.04.2020
397 Clouds 9 1019 49 10000 5.1 290 16:38 01.04.2020
398 Clouds 9 1019 49 10000 5.1 290 16:20 01.04.2020
399 Clouds 8 1019 49 10000 5.1 290 15:56 01.04.2020
400 Clouds 9 1019 39 10000 4.6 280 15:37 01.04.2020
401 Clouds 9 1019 39 10000 4.6 280 15:18 01.04.2020
402 Clouds 8 1019 36 10000 5.7 270 14:40 01.04.2020
403 Clouds 8 1019 36 10000 5.7 270 14:22 01.04.2020
404 Clouds 8 1020 36 10000 4.1 0 13:59 01.04.2020
405 Clouds 8 1020 42 10000 5.7 260 13:40 01.04.2020
406 Clouds 8 1021 42 10000 5.1 280 13:20 01.04.2020
407 Clouds 8 1021 42 10000 5.1 280 12:59 01.04.2020
408 Clouds 8 1021 42 10000 6.2 270 12:41 01.04.2020
409 Clouds 7 1021 45 10000 5.1 280 12:22 01.04.2020
410 Clouds 6 1021 45 10000 5.1 280 11:57 01.04.2020
411 Clouds 6 1022 48 10000 4.6 270 11:38 01.04.2020
412 Clouds 6 1022 48 10000 5.1 270 11:20 01.04.2020
413 Clouds 5 1022 48 10000 4.1 270 10:41 01.04.2020
414 Clouds 4 1022 51 10000 4.1 250 10:22 01.04.2020
415 Clouds 4 1022 51 10000 4.1 250 09:59 01.04.2020
416 Clouds 3 1022 55 10000 3.1 250 09:40 01.04.2020
417 Clear 1 1023 59 10000 3.1 260 09:21 01.04.2020
418 Clouds 0 1023 74 10000 1.5 220 08:57 01.04.2020
419 Clouds -1 1023 74 10000 1.5 220 08:38 01.04.2020
420 Clouds -1 1023 85 10000 0.5 300 08:18 01.04.2020
421 Clouds -3 1023 85 10000 0.5 300 07:41 01.04.2020
422 Clouds -3 1023 74 10000 1.5 220 07:19 01.04.2020
423 Clouds -3 1023 74 10000 1.5 220 06:47 01.04.2020
424 Clear -3 1024 79 10000 1 240 06:21 01.04.2020
425 Clear -3 1024 79 10000 1 240 05:53 01.04.2020
426 Clear -3 1025 79 10000 1 230 04:30 01.04.2020
427 Clear -3 1025 79 10000 0.5 190 03:27 01.04.2020
428 Clear -3 1025 79 10000 0.5 190 02:46 01.04.2020
429 Clear -2 1026 79 10000 0.5 310 01:54 01.04.2020
430 Clear -2 1027 79 10000 1.93 224 01:29 01.04.2020
431 Clear -2 1027 79 10000 1.93 224 00:58 01.04.2020
432 Clear -2 1027 79 10000 1.93 224 00:40 01.04.2020
433 Clear -2 1027 68 10000 0.5 210 00:18 01.04.2020
434 Clear -1 1027 68 10000 0.5 210 23:41 31.03.2020
435 Clear -1 1027 68 10000 0.5 210 23:41 31.03.2020
436 Clear -1 1028 90 10000 0.5 200 23:23 31.03.2020
437 Clear -1 1028 90 10000 0.5 200 23:23 31.03.2020
438 Clear 0 1028 90 10000 0.5 200 22:57 31.03.2020
439 Clear 0 1028 64 10000 0.5 230 22:36 31.03.2020
440 Clear 0 1028 64 10000 0.5 230 22:18 31.03.2020
441 Clear 1 1028 64 10000 0.5 230 21:55 31.03.2020
442 Clear 1 1028 55 10000 0.5 230 21:37 31.03.2020
443 Clouds 2 1028 55 10000 0.5 230 21:19 31.03.2020
444 Clouds 2 1028 64 10000 0.5 280 20:54 31.03.2020
445 Clouds 2 1028 44 10000 2.1 230 20:36 31.03.2020
446 Clouds 3 1028 44 10000 2.1 230 20:18 31.03.2020
447 Clouds 5 1028 44 10000 2.1 230 19:41 31.03.2020
448 Clouds 5 1029 38 10000 1 210 19:22 31.03.2020
449 Clouds 6 1029 38 10000 1 210 18:56 31.03.2020
450 Clouds 6 1029 35 10000 2.6 90 18:37 31.03.2020
451 Clouds 6 1029 35 10000 2.6 90 18:18 31.03.2020
452 Clouds 6 1029 35 10000 2.6 90 17:54 31.03.2020
453 Clouds 6 1029 35 10000 2.6 90 17:36 31.03.2020
454 Clouds 6 1029 35 10000 3.1 110 17:18 31.03.2020
455 Clouds 6 1030 33 10000 2.1 0 16:39 31.03.2020
456 Clouds 6 1030 33 10000 2.1 0 16:19 31.03.2020
457 Clouds 6 1030 33 10000 2.1 0 15:57 31.03.2020
458 Clouds 6 1030 36 10000 1.5 0 15:39 31.03.2020
459 Clouds 6 1031 35 10000 1.5 0 15:20 31.03.2020
460 -273 0 0 0 0 0 15:20 31.03.2020
461 Clouds 6 1031 35 10000 1.5 0 14:57 31.03.2020
462 Clouds 5 1031 38 10000 1.5 0 14:38 31.03.2020
463 Clouds 6 1031 38 10000 2.6 100 14:20 31.03.2020
464 Clouds 5 1031 32 10000 3.1 0 13:43 31.03.2020
465 Clouds 5 1031 55 10000 2.1 160 13:20 31.03.2020
466 Clouds 5 1031 55 10000 2.1 160 13:20 31.03.2020
467 Clouds 5 1031 55 10000 2.1 160 12:57 31.03.2020
468 Clouds 4 1031 55 10000 2.1 160 12:39 31.03.2020
469 Clouds 4 1031 74 10000 2.6 110 12:19 31.03.2020
470 Clouds 2 1032 72 10000 1.5 0 11:40 31.03.2020
471 Clouds 2 1032 72 10000 1.5 0 11:20 31.03.2020
472 Clouds 2 1032 72 10000 1.5 0 10:59 31.03.2020
473 Clouds 1 1032 100 10000 1 0 10:40 31.03.2020
474 Clouds 1 1031 92 7000 1 0 10:22 31.03.2020
475 Clouds 0 1031 92 7000 1 0 09:59 31.03.2020
476 Mist 0 1031 92 2400 2.89 93 09:40 31.03.2020
477 Clouds 0 1031 92 9000 1.58 76 09:22 31.03.2020
478 Clouds 0 1031 92 9000 1.41 95 08:57 31.03.2020
479 Clouds 0 1031 92 9000 1.41 95 08:38 31.03.2020
480 Clear -1 1031 92 10000 1.41 95 08:19 31.03.2020
481 Clear -1 1031 92 10000 1.41 95 07:56 31.03.2020
482 Fog -2 1030 100 10000 1.41 95 07:38 31.03.2020
483 Fog -2 1030 92 10000 1 20 07:19 31.03.2020
484 Fog -2 1030 92 10000 1 20 06:47 31.03.2020
485 Clear -2 1029 92 450 0.5 350 06:22 31.03.2020
486 Clear -2 1029 92 450 0.5 350 05:39 31.03.2020
487 Clear -1 1029 92 10000 1 20 03:34 31.03.2020
488 Clouds 0 1028 97 10000 2.1 10 02:19 31.03.2020
489 Clouds 0 1028 97 10000 2.1 10 01:45 31.03.2020
490 Clouds 0 1028 97 10000 2.6 10 00:51 31.03.2020
491 Clouds 0 1027 97 10000 1 340 00:25 31.03.2020
492 Clouds 1 1027 94 10000 1 340 23:58 30.03.2020
493 Clouds 1 1027 94 10000 1 340 23:38 30.03.2020
494 Clouds 1 1027 93 10000 1.5 320 23:18 30.03.2020
495 Clouds 2 1027 93 10000 1.5 320 22:55 30.03.2020
496 Clouds 2 1027 93 10000 1.5 320 22:36 30.03.2020
497 Clouds 2 1027 86 10000 4.6 10 22:18 30.03.2020
498 Clouds 2 1027 86 10000 4.6 10 21:55 30.03.2020
499 Clouds 2 1027 86 10000 4.6 10 21:36 30.03.2020
500 Rain 2 1026 93 10000 1 330 21:18 30.03.2020
501 Rain 3 1026 93 10000 1 330 20:42 30.03.2020
502 Rain 3 1025 86 10000 1.5 270 20:24 30.03.2020
503 Rain 3 1025 86 10000 1.5 270 20:24 30.03.2020
504 Rain 3 1025 86 10000 1.5 270 19:59 30.03.2020
505 Rain 4 1025 86 10000 1.5 270 19:40 30.03.2020
506 Clouds 4 1025 86 10000 1.5 0 19:21 30.03.2020
507 Clouds 4 1025 86 10000 1.5 0 18:57 30.03.2020
508 Clouds 4 1025 86 10000 1.5 0 18:38 30.03.2020
509 Clouds 4 1025 86 10000 2.6 240 18:20 30.03.2020
510 Clouds 4 1025 86 10000 2.6 240 17:57 30.03.2020
511 Clouds 4 1025 86 10000 2.6 240 17:38 30.03.2020
512 Clouds 4 1025 93 10000 2.6 230 17:19 30.03.2020
513 Clouds 3 1025 86 10000 3.1 250 16:55 30.03.2020
514 Clouds 3 1025 86 10000 3.1 250 16:37 30.03.2020
515 Snow 3 1025 88 3000 4.6 240 16:19 30.03.2020
516 Snow 2 1025 88 3000 4.6 240 15:54 30.03.2020
517 Snow 2 1025 88 3000 4.6 240 15:36 30.03.2020
518 Rain 3 1026 93 8000 4.6 240 15:18 30.03.2020
519 Rain 3 1026 93 8000 4.6 240 14:54 30.03.2020
520 Snow 2 1026 86 2400 5.1 240 14:36 30.03.2020
521 Snow 2 1026 86 3800 5.7 240 14:18 30.03.2020
522 Snow 2 1026 74 4500 6.7 260 13:43 30.03.2020
523 Clouds 2 1027 64 10000 7.2 260 13:21 30.03.2020
524 Clouds 2 1027 64 10000 7.2 260 12:58 30.03.2020
525 Clouds 2 1027 64 10000 6.7 260 12:40 30.03.2020
526 Clouds 2 1027 64 10000 6.7 260 12:19 30.03.2020
527 Clouds 2 1028 55 10000 5.7 260 11:56 30.03.2020
528 Clouds 2 1028 55 10000 5.7 260 11:38 30.03.2020
529 Snow 2 1028 55 10000 5.7 260 11:20 30.03.2020
530 Clouds 2 1028 55 10000 4.1 260 10:40 30.03.2020
531 Clouds 1 1028 55 10000 4.1 260 10:22 30.03.2020
532 Clouds 0 1028 78 10000 4.1 260 09:56 30.03.2020
533 Clouds 0 1028 78 10000 4.1 260 09:38 30.03.2020
534 Clouds -1 1029 63 10000 3.6 260 09:19 30.03.2020
535 Clouds -2 1029 63 10000 2.6 240 08:42 30.03.2020
536 Clouds -2 1029 63 10000 2.6 240 08:22 30.03.2020
537 Clouds -4 1029 73 10000 2.1 250 07:49 30.03.2020
538 Clouds -5 1030 73 10000 2.6 230 07:31 30.03.2020
539 Clouds -5 1030 73 10000 2.6 230 06:57 30.03.2020
540 Clouds -5 1030 67 10000 1.5 220 06:33 30.03.2020
541 Clear -5 1030 67 10000 1.5 220 05:54 30.03.2020
542 Clear -5 1031 73 10000 1.5 250 05:22 30.03.2020
543 Clear -4 1032 62 10000 1 0 04:23 30.03.2020
544 Clear -4 1032 62 10000 1 0 03:44 30.03.2020
545 Clouds -4 1032 63 10000 2.1 300 02:42 30.03.2020
546 Clear -3 1032 62 10000 0.5 0 01:44 30.03.2020
547 Clear -3 1032 58 10000 1 310 00:55 30.03.2020
548 Clear -2 1032 58 10000 1.5 300 00:24 30.03.2020
549 Clear -2 1032 58 10000 1.5 300 23:43 29.03.2020
550 Clear -1 1032 86 10000 2.1 340 23:24 29.03.2020
551 Clear 0 1032 86 10000 2.1 340 22:59 29.03.2020
552 Clear 0 1032 86 10000 2.1 340 22:39 29.03.2020
553 Clear 0 1032 40 10000 2.6 350 22:19 29.03.2020
554 Clear 1 1032 40 10000 2.6 350 21:58 29.03.2020
555 Clear 1 1032 40 10000 2.6 350 21:37 29.03.2020
556 Snow 1 1031 34 10000 3.6 10 21:18 29.03.2020
557 Snow 2 1031 34 10000 3.6 10 20:55 29.03.2020
558 Snow 2 1031 34 10000 3.6 10 20:37 29.03.2020
559 Snow 2 1031 34 10000 3.6 10 20:37 29.03.2020
560 Snow 2 1031 34 10000 3.6 10 20:37 29.03.2020
561 Snow 3 1030 38 10000 5.1 30 20:18 29.03.2020
562 Snow 3 1030 38 10000 5.1 30 19:55 29.03.2020
563 Snow 3 1030 38 10000 8.2 30 19:37 29.03.2020
564 Snow 3 1030 38 10000 8.2 30 19:18 29.03.2020
565 Snow 4 1030 38 10000 8.2 30 18:55 29.03.2020
566 Snow 4 1029 44 10000 7.2 20 18:36 29.03.2020
567 Snow 4 1029 44 10000 7.2 20 18:18 29.03.2020
568 Snow 4 1029 55 10000 7.7 10 17:42 29.03.2020
569 Snow 4 1029 55 10000 7.7 10 17:23 29.03.2020
570 Snow 4 1029 55 10000 7.7 10 16:59 29.03.2020
571 Snow 4 1029 55 10000 7.7 10 16:40 29.03.2020
572 Rain 4 1026 73 10000 5.1 40 16:21 29.03.2020
573 Rain 4 1026 73 10000 5.1 40 15:59 29.03.2020
574 Rain 4 1026 73 10000 5.1 40 15:59 29.03.2020
575 Rain 4 1026 73 10000 5.1 40 15:40 29.03.2020
576 Rain 4 1026 73 10000 5.1 40 15:21 29.03.2020
577 Rain 4 1026 78 10000 5.1 40 15:21 29.03.2020
578 Rain 4 1026 78 10000 5.1 40 14:57 29.03.2020
579 Clouds 3 1026 78 10000 5.7 40 14:38 29.03.2020
580 Rain 3 1025 86 10000 4.6 40 14:19 29.03.2020
581 Rain 3 1025 80 10000 4.6 40 13:56 29.03.2020
582 Rain 3 1025 80 10000 4.6 40 13:37 29.03.2020
583 Rain 3 1025 86 10000 4.6 30 13:19 29.03.2020
584 Clouds 3 1024 86 10000 4.6 30 12:55 29.03.2020
585 Clouds 3 1024 86 10000 4.6 30 12:37 29.03.2020
586 Clouds 3 1023 86 10000 2.6 10 12:18 29.03.2020
587 Clouds 3 1023 86 10000 2.6 10 12:18 29.03.2020
588 Drizzle 3 1023 93 10000 4.1 340 11:39 29.03.2020
589 Snow 3 1023 90 10000 4.6 340 11:21 29.03.2020
590 Snow 3 1023 90 10000 4.6 340 10:59 29.03.2020
591 Drizzle 3 1022 69 10000 5.1 330 10:37 29.03.2020
592 Clouds 4 1022 69 10000 4.6 320 10:18 29.03.2020
593 Clouds 4 1022 69 10000 4.6 320 10:18 29.03.2020
594 Snow 4 1023 90 10000 4.6 340 09:40 29.03.2020
595 Snow 3 1022 69 10000 4.1 310 09:20 29.03.2020
596 Clouds 4 1022 69 10000 4.1 310 08:54 29.03.2020
597 Clouds 3 1022 64 10000 3.6 320 08:30 29.03.2020
598 Clouds 3 1022 64 10000 3.6 320 07:59 29.03.2020
599 Clouds 3 1022 64 10000 3.6 320 07:41 29.03.2020
600 Clouds 4 1021 60 10000 3.1 330 07:20 29.03.2020
601 Clouds 4 1021 80 10000 3.1 310 05:46 29.03.2020
602 Clouds 4 1021 80 10000 2.6 280 04:27 29.03.2020
603 Clouds 4 1021 80 10000 2.6 270 03:31 29.03.2020
604 Clouds 4 1021 80 10000 2.6 270 01:51 29.03.2020
605 Clouds 4 1021 80 10000 2.1 290 01:23 29.03.2020
606 Clouds 4 1021 80 10000 2.1 290 00:56 29.03.2020
607 Clouds 5 1021 75 10000 2.6 270 00:33 29.03.2020
608 Clouds 4 1021 75 10000 2.6 270 23:57 28.03.2020
609 Clouds 4 1021 75 10000 2.6 270 23:39 28.03.2020
610 Clouds 5 1021 76 10000 3.1 300 23:19 28.03.2020
611 Clouds 5 1021 76 10000 3.1 300 22:41 28.03.2020
612 Clouds 5 1021 76 10000 4.6 310 22:22 28.03.2020
613 Clouds 5 1021 76 10000 4.6 310 22:22 28.03.2020
614 Clouds 6 1021 76 10000 4.6 310 21:56 28.03.2020
615 Clouds 6 1021 76 10000 4.6 310 21:38 28.03.2020
616 Clouds 6 1021 65 10000 4.6 310 21:19 28.03.2020
617 Clouds 7 1021 65 10000 4.6 310 20:54 28.03.2020
618 Clouds 7 1021 65 10000 4.6 310 20:36 28.03.2020
619 Clear 7 1021 61 10000 4.6 320 20:18 28.03.2020
620 Clear 7 1021 61 10000 4.6 320 19:54 28.03.2020
621 Clouds 8 1021 70 10000 5.1 310 19:36 28.03.2020
622 Clear 8 1020 43 10000 4.1 330 19:18 28.03.2020
623 Clear 8 1020 43 10000 4.1 330 19:18 28.03.2020
624 Clear 10 1019 30 10000 4.6 320 18:39 28.03.2020
625 Clear 11 1019 30 10000 4.6 320 18:20 28.03.2020
626 Clear 12 1019 30 10000 4.6 320 17:41 28.03.2020
627 Clear 13 1020 28 10000 4.6 300 17:22 28.03.2020
628 Clear 13 1020 28 10000 4.6 300 16:59 28.03.2020
629 Clear 13 1019 35 10000 3.6 330 16:38 28.03.2020
630 Clear 13 1019 35 10000 3.6 330 16:18 28.03.2020
631 Clear 13 1019 35 10000 3.6 330 16:18 28.03.2020
632 Clear 13 1019 35 10000 3.6 330 15:40 28.03.2020
633 Clear 14 1020 35 10000 3.6 340 15:19 28.03.2020
634 Clear 14 1020 35 10000 3.6 340 14:58 28.03.2020
635 Clear 13 1020 35 10000 3.1 330 14:40 28.03.2020
636 Clear 13 1020 35 10000 5.1 330 14:21 28.03.2020
637 Clear 13 1021 35 10000 4.1 330 13:43 28.03.2020
638 Clear 13 1021 32 10000 3.6 0 13:23 28.03.2020
639 Clear 13 1021 30 10000 2.1 0 12:41 28.03.2020
640 Clear 12 1021 34 10000 2.1 330 12:23 28.03.2020
641 Clear 12 1021 34 10000 2.1 330 11:59 28.03.2020
642 Clear 12 1022 43 10000 2.1 310 11:41 28.03.2020
643 Clear 10 1022 45 10000 2.1 0 11:20 28.03.2020
644 Clear 10 1022 43 6000 4.1 30 10:40 28.03.2020
645 Clear 9 1022 56 10000 2.6 20 10:22 28.03.2020
646 Clear 8 1023 56 5000 2.6 20 09:56 28.03.2020
647 Clear 8 1023 56 5000 2.6 20 09:37 28.03.2020
648 Clear 7 1023 56 7000 2.6 20 09:19 28.03.2020
649 Clear 5 1023 56 7000 2.6 20 08:42 28.03.2020
650 Clear 4 1023 56 10000 1 0 08:22 28.03.2020
651 Clouds 3 1023 80 5000 1 340 07:49 28.03.2020
652 Clouds 3 1022 86 6000 1 340 07:31 28.03.2020
653 Clouds 1 1022 86 6000 1 340 06:42 28.03.2020
654 Clouds 1 1022 80 9000 3.1 20 06:19 28.03.2020
655 Clear 2 1022 74 10000 2.6 10 05:24 28.03.2020
656 Clear 3 1022 74 10000 2.6 10 04:48 28.03.2020
657 Clear 3 1022 74 10000 2.1 20 04:28 28.03.2020
658 Clear 4 1022 69 10000 2.1 10 02:50 28.03.2020
659 Clear 5 1022 65 10000 1.5 360 01:47 28.03.2020
660 Clear 6 1022 56 10000 2.1 30 01:23 28.03.2020
661 Clear 6 1022 56 10000 2.1 30 00:49 28.03.2020
662 Clear 6 1022 83 10000 3.1 30 00:24 28.03.2020
663 Clear 7 1022 83 10000 3.1 30 23:44 27.03.2020
664 Clear 7 1022 65 10000 4.1 50 23:26 27.03.2020
665 Clear 8 1022 81 10000 2.6 30 22:57 27.03.2020
666 Clear 8 1022 81 10000 2.6 30 22:39 27.03.2020
667 Clear 9 1022 46 10000 2.6 10 22:20 27.03.2020
668 Clear 9 1022 46 10000 2.6 10 21:58 27.03.2020
669 Clear 9 1022 81 10000 3.1 50 21:40 27.03.2020
670 Clear 9 1021 81 10000 3.6 60 21:22 27.03.2020
671 Clear 9 1021 81 10000 3.6 60 20:57 27.03.2020
672 Clear 10 1021 53 10000 4.1 60 20:38 27.03.2020
673 Clouds 11 1021 37 10000 2.1 50 20:19 27.03.2020
674 Clouds 11 1021 37 10000 2.1 50 20:19 27.03.2020
675 Clouds 11 1021 37 10000 2.1 50 19:55 27.03.2020
676 Clouds 12 1021 37 10000 2.1 50 19:36 27.03.2020
677 Clouds 12 1021 35 10000 4.1 60 19:18 27.03.2020
678 Clouds 13 1021 35 10000 4.1 60 18:42 27.03.2020
679 Clouds 14 1020 33 10000 6.2 70 18:23 27.03.2020
680 Clouds 15 1020 33 10000 6.2 70 17:54 27.03.2020
681 Clouds 15 1021 31 10000 6.7 70 17:36 27.03.2020
682 Clouds 16 1021 31 10000 6.7 70 17:18 27.03.2020
683 Clouds 16 1021 31 10000 6.7 70 16:43 27.03.2020
684 Clouds 16 1021 31 10000 6.7 50 16:24 27.03.2020
685 Clouds 16 1021 29 10000 5.7 80 15:44 27.03.2020
686 Clouds 16 1021 29 10000 5.7 80 15:26 27.03.2020
687 Clouds 16 1021 29 10000 5.7 80 14:56 27.03.2020
688 Clouds 16 1021 29 10000 4.6 70 14:37 27.03.2020
689 Clear 15 1021 30 10000 5.1 80 14:18 27.03.2020
690 Clear 15 1021 30 10000 5.1 80 13:43 27.03.2020
691 Clear 14 1022 33 10000 4.6 80 13:22 27.03.2020
692 Clear 14 1022 33 10000 4.6 80 12:59 27.03.2020
693 Clear 13 1022 35 10000 5.7 100 12:39 27.03.2020
694 Clear 14 1022 37 10000 5.7 80 12:19 27.03.2020
695 Clear 13 1023 37 10000 5.1 90 11:43 27.03.2020
696 Clear 13 1023 39 10000 5.7 100 11:25 27.03.2020
697 Clouds 9 1023 42 10000 4.6 110 10:57 27.03.2020
698 Clouds 9 1023 42 10000 4.6 110 10:39 27.03.2020
699 Clouds 7 1023 48 10000 4.1 90 10:20 27.03.2020
700 Clouds 7 1023 48 10000 4.1 90 09:58 27.03.2020
701 Clouds 7 1023 48 10000 4.1 90 09:58 27.03.2020
702 Clouds 9 1020 58 0 0.45 110 09:39 27.03.2020
703 Clouds 8 1020 64 0 1.79 109 09:21 27.03.2020
704 Clouds 6 1020 77 0 5.04 86 08:58 27.03.2020
705 Clouds 4 1021 80 0 5.04 86 08:39 27.03.2020
706 Clouds 2 1021 84 0 5.04 86 08:21 27.03.2020
707 Clouds 1 1021 84 0 3.87 81 07:53 27.03.2020
708 Clouds 1 1021 85 0 3.87 81 07:28 27.03.2020
709 Clouds 0 1021 84 0 3.87 81 06:59 27.03.2020
710 Clouds 0 1021 83 0 3.87 81 06:37 27.03.2020
711 Clouds -1 1020 82 0 0.45 55 05:44 27.03.2020
712 Clouds 1 1021 77 0 3.46 83 02:52 27.03.2020
713 Clear 2 1020 74 0 3.33 78 01:54 27.03.2020
714 Clear 2 1021 68 0 3.5 72 00:58 27.03.2020
715 Clear 3 1021 66 0 3.5 72 00:37 27.03.2020
716 Clear 4 1021 63 0 3.5 72 00:18 27.03.2020
717 Clear 4 1021 61 0 3.5 72 23:37 26.03.2020
718 Clear 5 1021 60 0 0.45 62 23:18 26.03.2020
719 Clear 3 1025 76 0 3.54 76 22:56 26.03.2020
720 Clear 3 1025 76 0 3.54 76 22:36 26.03.2020
721 Clear 6 1021 58 0 0.45 65 22:18 26.03.2020
722 Clear 3 1025 76 0 3.54 76 21:40 26.03.2020
723 Clear 6 1022 55 0 0.45 70 21:21 26.03.2020
724 Clear 3 1025 76 0 3.54 76 20:58 26.03.2020
725 Clear 3 1025 76 0 3.54 76 20:39 26.03.2020
726 Clear 7 1022 53 0 0.45 72 20:21 26.03.2020
727 Clear 7 1022 52 0 0.45 72 19:58 26.03.2020
728 Clear 7 1022 52 0 0.89 72 19:58 26.03.2020
729 Clear 7 1022 52 0 0.45 72 19:39 26.03.2020
730 Clear 8 1022 49 0 0.89 73 19:20 26.03.2020
731 Clear 8 1022 19 0 1.34 110 18:58 26.03.2020
732 Clear 9 1022 48 0 0.89 73 18:40 26.03.2020
733 Clear 10 1022 47 0 0.89 86 18:21 26.03.2020
734 Clear 10 1022 45 0 1.34 93 17:44 26.03.2020
735 Clear 11 1022 45 0 1.79 82 17:20 26.03.2020
736 Clear 11 1021 43 0 2.24 89 16:57 26.03.2020
737 Clear 11 1024 29 10000 6.7 90 16:38 26.03.2020
738 Clear 11 1024 29 10000 6.7 90 16:18 26.03.2020
739 Clear 11 1024 29 10000 6.7 90 15:54 26.03.2020
740 Clear 11 1024 29 10000 6.7 90 15:36 26.03.2020
741 Clear 11 1025 29 10000 7.2 100 15:18 26.03.2020
742 Clear 11 1025 31 10000 6.2 100 14:42 26.03.2020
743 Clear 11 1025 31 10000 6.2 100 14:24 26.03.2020
744 Clear 10 1025 29 10000 7.2 90 13:55 26.03.2020
745 Clear 10 1025 29 10000 7.2 90 13:37 26.03.2020
746 Clear 10 1026 31 10000 7.2 100 13:19 26.03.2020
747 Clear 9 1026 34 10000 6.2 100 12:38 26.03.2020
748 Clear 8 1026 36 10000 6.2 90 12:20 26.03.2020
749 Clear 8 1026 36 10000 5.1 80 11:46 26.03.2020
750 Clear 6 1027 35 10000 4.6 90 11:23 26.03.2020
751 Clear 6 1027 35 10000 4.6 90 10:59 26.03.2020
752 Clear 5 1027 38 10000 4.6 90 10:41 26.03.2020
753 Clear 4 1027 41 10000 4.6 90 10:20 26.03.2020
754 Clear 5 1027 40 10000 4.6 100 09:45 26.03.2020
755 Clear 4 1027 40 10000 4.6 100 09:24 26.03.2020
756 Clear 3 1025 56 0 1.79 104 08:58 26.03.2020
757 Clear 3 1025 55 0 0.45 82 08:40 26.03.2020
758 Clear 2 1025 56 0 0.89 82 08:22 26.03.2020
759 Clear -2 1027 91 0 3.71 87 07:56 26.03.2020
760 Clear -2 1027 91 0 3.71 87 07:38 26.03.2020
761 Clear -2 1027 91 0 3.71 87 07:19 26.03.2020
762 Clear -2 1024 70 0 3.71 87 06:33 26.03.2020
763 Clear -2 1024 74 0 3.71 87 05:48 26.03.2020
764 Clear -2 1024 68 0 3.22 91 03:46 26.03.2020
765 Clear 0 1024 62 0 3.22 91 02:58 26.03.2020
766 Clear -1 1028 91 0 3.22 88 01:51 26.03.2020
767 Clear -1 1028 89 0 3.26 86 01:18 26.03.2020
768 Clear -1 1028 89 0 3.26 86 00:32 26.03.2020
769 Clear -1 1028 89 0 3.26 86 23:44 25.03.2020
770 Clear -1 1028 89 0 3.26 86 23:26 25.03.2020
771 Clear 2 1025 22 0 1.79 97 22:55 25.03.2020
772 Clear 2 1025 22 0 1.79 97 22:37 25.03.2020
773 Clear 3 1025 22 0 1.79 110 22:18 25.03.2020
774 Clear 1 1029 81 0 4.31 96 21:43 25.03.2020
775 Clear 1 1029 81 0 4.31 96 21:24 25.03.2020
776 Clear 5 1027 32 10000 3.6 80 20:59 25.03.2020
777 Clear 5 1027 32 10000 3.6 80 20:39 25.03.2020
778 Clouds 5 1027 32 10000 3.6 80 20:19 25.03.2020
779 Clouds 5 1027 32 10000 3.6 80 19:56 25.03.2020
780 Clouds 5 1027 32 10000 3.1 90 19:38 25.03.2020
781 Clouds 6 1027 33 10000 3.1 90 19:19 25.03.2020
782 Clouds 7 1027 28 10000 4.1 90 18:43 25.03.2020
783 Clouds 7 1027 33 0 0.45 121 18:25 25.03.2020
784 Clouds 8 1025 36 0 1.79 99 17:59 25.03.2020
785 Clouds 9 1028 25 10000 5.1 90 17:41 25.03.2020
786 Clouds 9 1028 25 10000 5.1 90 17:22 25.03.2020
787 Clouds 10 1028 25 10000 5.1 90 16:58 25.03.2020
788 Clouds 10 1028 25 10000 5.1 90 16:39 25.03.2020
789 Clouds 9 1028 24 10000 5.1 110 16:20 25.03.2020
790 Clouds 9 1029 19 10000 5.7 90 15:43 25.03.2020
791 Clouds 10 1029 19 10000 5.7 90 15:21 25.03.2020
792 Clouds 10 1029 19 10000 5.7 90 14:59 25.03.2020
793 Clouds 9 1029 23 10000 5.7 100 14:40 25.03.2020
794 Clouds 8 1030 24 10000 6.7 90 14:20 25.03.2020
795 Clouds 8 1030 28 10000 6.2 100 13:45 25.03.2020
796 Clouds 8 1030 28 10000 6.2 100 13:25 25.03.2020
797 Clouds 8 1031 28 10000 4.6 90 12:54 25.03.2020
798 Clouds 8 1031 28 10000 4.6 90 12:36 25.03.2020
799 Clouds 7 1031 26 10000 5.7 80 12:18 25.03.2020
800 Clouds 7 1031 28 10000 4.1 100 11:41 25.03.2020
801 Clouds 6 1031 33 10000 4.6 110 11:21 25.03.2020
802 Clouds 6 1031 33 10000 4.6 110 10:59 25.03.2020
803 Clouds 6 1031 33 10000 4.6 110 10:59 25.03.2020
804 Clouds 5 1032 35 10000 5.1 100 10:40 25.03.2020
805 Clouds 5 1032 38 10000 5.7 100 10:19 25.03.2020
806 Clouds 5 1032 38 10000 5.7 100 09:59 25.03.2020
807 Clouds 4 1029 52 0 2.24 113 09:40 25.03.2020
808 Clouds 3 1029 59 0 1.79 104 09:21 25.03.2020
809 Clouds 1 1030 61 0 0.45 103 08:43 25.03.2020
810 Clouds 1 1030 63 0 0.89 103 08:25 25.03.2020
811 Clear -1 1030 68 0 0.45 103 07:59 25.03.2020
812 Clear -1 1030 72 0 0.45 103 07:39 25.03.2020
813 Clear -3 1029 74 0 3.29 106 07:19 25.03.2020
814 Clear -3 1029 72 0 0.45 103 06:45 25.03.2020
815 Clear -3 1029 70 0 0.45 103 06:25 25.03.2020
816 Clear -2 1029 65 0 0.45 103 05:48 25.03.2020
817 Clear -1 1029 60 0 0.45 103 04:46 25.03.2020
818 Clear -1 1030 62 0 0.45 103 03:58 25.03.2020
819 Clear -1 1030 64 0 2.38 108 03:34 25.03.2020
820 Clear -2 1030 70 0 0.45 103 01:55 25.03.2020
821 Clear -2 1030 69 0 3.01 118 01:20 25.03.2020
822 Clear -1 1030 69 0 0.89 104 00:43 25.03.2020
823 Clear -1 1030 68 0 0.45 104 00:19 25.03.2020
824 Clear -1 1031 66 0 3.01 118 23:44 24.03.2020
825 Clear -1 1031 65 0 3.01 118 23:25 24.03.2020
826 Clear 0 1031 61 0 3.13 118 22:55 24.03.2020
827 Clear 1 1031 60 0 0.45 104 22:37 24.03.2020
828 Clear 1 1031 60 0 0.89 104 22:19 24.03.2020
829 Clear 2 1031 58 0 0.89 104 21:55 24.03.2020
830 Clear 2 1031 58 0 0.45 104 21:36 24.03.2020
831 Clear 1 1031 58 0 3.13 118 21:18 24.03.2020
832 Clear 2 1031 56 0 3.13 118 20:43 24.03.2020
833 Clear 2 1031 53 0 3.13 118 20:24 24.03.2020
834 Clear 1 1033 77 0 3 108 19:57 24.03.2020
835 Clear 1 1033 77 0 3 108 19:39 24.03.2020
836 Clear 6 1031 42 0 1.34 104 19:18 24.03.2020
837 Clear 6 1031 41 0 0.89 104 18:55 24.03.2020
838 Clear 6 1031 41 0 0.89 104 18:55 24.03.2020
839 Clear 6 1031 40 0 0.89 104 18:36 24.03.2020
840 Clear 7 1031 38 0 1.34 104 18:18 24.03.2020
841 Clear 7 1033 26 10000 6.7 110 17:42 24.03.2020
842 Clear 7 1033 26 10000 6.7 110 17:23 24.03.2020
843 Clear 8 1033 26 10000 6.7 110 16:58 24.03.2020
844 Clear 8 1033 26 10000 6.7 110 16:40 24.03.2020
845 Clear 8 1033 26 10000 6.7 110 16:22 24.03.2020
846 Clear 9 1033 24 10000 6.2 110 15:58 24.03.2020
847 Clear 9 1033 22 10000 5.1 140 15:38 24.03.2020
848 Clear 8 1034 30 10000 5.7 110 15:20 24.03.2020
849 Clear 8 1034 28 10000 6.2 110 14:43 24.03.2020
850 Clear 8 1034 28 10000 6.2 110 14:20 24.03.2020
851 Clear 8 1035 33 10000 6.2 110 13:55 24.03.2020
852 Clear 8 1035 33 10000 6.2 110 13:36 24.03.2020
853 Clear 8 1035 30 10000 5.7 110 13:18 24.03.2020
854 Clear 7 1035 33 10000 6.7 100 12:41 24.03.2020
855 Clear 7 1035 33 10000 6.7 100 12:41 24.03.2020
856 Clear 7 1036 32 10000 6.2 110 12:22 24.03.2020
857 Clear 6 1036 30 10000 5.7 140 11:41 24.03.2020
858 Clear 5 1036 30 10000 5.1 140 11:20 24.03.2020
859 Clear 5 1036 30 10000 5.1 140 10:57 24.03.2020
860 Clear 5 1036 32 10000 5.1 140 10:38 24.03.2020
861 Clear 4 1036 38 10000 4.6 110 10:18 24.03.2020
862 Clouds 3 1036 40 10000 4.1 110 09:43 24.03.2020
863 Clear 2 1036 47 10000 2.6 120 09:25 24.03.2020
864 Clear 1 1036 47 10000 2.6 120 08:57 24.03.2020
865 Clouds 1 1036 47 10000 4.1 110 08:37 24.03.2020
866 Clear 0 1036 52 10000 3.6 80 08:18 24.03.2020
867 Clouds -1 1036 54 10000 2.1 80 07:44 24.03.2020
868 Clear -2 1036 68 10000 3.6 90 07:22 24.03.2020
869 Clear -3 1036 73 10000 2.6 70 06:40 24.03.2020
870 Clear -3 1036 68 10000 2.6 80 06:18 24.03.2020
871 Clear -3 1036 58 10000 2.6 80 04:51 24.03.2020
872 Clear -3 1035 63 10000 3.1 90 03:32 24.03.2020
873 Clear -2 1035 54 10000 2.1 80 02:43 24.03.2020
874 Clear -1 1035 59 10000 3.1 110 00:57 24.03.2020
875 Clear -1 1035 59 10000 2.6 110 00:28 24.03.2020
876 Clear -1 1035 59 10000 2.6 110 00:28 24.03.2020
877 Clear -1 1036 50 10000 3.6 110 23:59 23.03.2020
878 Clear -1 1036 50 10000 2.1 110 23:38 23.03.2020
879 Clear 0 1036 47 10000 2.1 110 23:19 23.03.2020
880 Clear 0 1036 47 10000 2.1 60 22:45 23.03.2020
881 Clear 0 1036 47 10000 2.1 120 22:23 23.03.2020
882 Clear 1 1036 47 10000 2.6 130 21:57 23.03.2020
883 Clear 1 1036 40 10000 1.5 100 21:38 23.03.2020
884 Clear 1 1036 40 10000 2.6 110 21:20 23.03.2020
885 Clear 2 1036 40 10000 2.6 110 20:56 23.03.2020
886 Clear 2 1036 37 10000 3.1 110 20:38 23.03.2020
887 Clear 2 1036 38 10000 3.1 110 20:19 23.03.2020
888 Clear 3 1036 35 10000 3.1 110 19:44 23.03.2020
889 Clear 3 1035 35 10000 3.6 120 19:24 23.03.2020
890 Clear 4 1036 30 10000 3.6 110 18:57 23.03.2020
891 Clear 4 1035 35 10000 4.1 110 18:39 23.03.2020
892 Clear 5 1035 33 10000 4.1 120 18:20 23.03.2020
893 Clear 6 1035 30 10000 4.6 120 17:42 23.03.2020
894 Clear 6 1035 30 10000 4.6 130 17:21 23.03.2020
895 Clear 7 1036 24 10000 5.1 120 16:57 23.03.2020
896 Clear 7 1036 28 10000 5.1 130 16:39 23.03.2020
897 Clear 7 1036 28 10000 4.6 120 16:20 23.03.2020
898 Clear 7 1036 24 10000 6.2 110 15:42 23.03.2020
899 Clear 7 1037 30 10000 5.7 120 15:20 23.03.2020
900 Clear 7 1037 30 10000 5.7 120 15:20 23.03.2020
901 Clear 7 1037 30 10000 6.7 120 14:55 23.03.2020
902 Clear 7 1037 30 10000 6.7 120 14:36 23.03.2020
903 Clear 6 1037 30 10000 6.7 100 14:18 23.03.2020
904 Clear 6 1037 32 10000 6.2 100 13:40 23.03.2020
905 Clear 6 1038 32 10000 4.6 130 13:21 23.03.2020
906 Clear 5 1038 32 10000 5.7 110 12:46 23.03.2020
907 Clear 5 1038 32 10000 7.2 110 12:26 23.03.2020
908 Clear 5 1038 32 10000 7.2 110 11:59 23.03.2020
909 Clear 5 1038 29 10000 7.2 110 11:40 23.03.2020
910 Clear 4 1038 32 10000 7.2 100 11:21 23.03.2020
911 Clear 4 1039 32 10000 5.1 120 10:58 23.03.2020
912 Clear 4 1039 32 10000 5.1 120 10:39 23.03.2020
913 Clear 3 1039 32 10000 4.6 140 10:21 23.03.2020
914 Clear 3 1039 32 10000 4.6 140 09:57 23.03.2020
915 Clear 2 1039 37 10000 6.2 110 09:37 23.03.2020
916 Clear 2 1038 40 10000 4.6 110 09:18 23.03.2020
917 Clear 1 1039 35 10000 4.1 110 08:37 23.03.2020
918 Clear 0 1038 50 10000 3.6 110 08:19 23.03.2020
919 Clear -1 1039 54 10000 2.1 80 07:50 23.03.2020
920 Clear -2 1038 58 10000 2.1 100 07:31 23.03.2020
921 Clear -3 1038 58 10000 2.1 80 06:53 23.03.2020
922 Clear -3 1038 68 10000 3.6 90 06:25 23.03.2020
923 Clear -3 1038 68 10000 2.6 100 05:42 23.03.2020
924 Clear -2 1038 54 10000 1.5 80 03:45 23.03.2020
925 Clear -1 1038 46 10000 2.1 110 02:43 23.03.2020
926 Clear -1 1037 55 10000 3.1 100 01:38 23.03.2020
927 Clear -1 1037 49 10000 3.1 100 00:44 23.03.2020
928 Clear 0 1037 63 10000 3.6 90 23:58 22.03.2020
929 Clear 0 1037 50 10000 2.1 100 23:40 22.03.2020
930 Clear 0 1037 50 10000 3.1 100 23:22 22.03.2020
931 Clear 1 1037 55 10000 3.6 90 22:40 22.03.2020
932 Clear 1 1037 51 10000 3.1 100 22:20 22.03.2020
933 Clear 2 1037 43 10000 3.6 80 21:40 22.03.2020
934 Clear 2 1036 44 10000 4.1 100 21:21 22.03.2020
935 Clear 2 1036 44 10000 4.1 100 20:58 22.03.2020
936 Clear 2 1036 40 10000 3.6 70 20:40 22.03.2020
937 Clear 2 1036 44 10000 4.1 90 20:22 22.03.2020
938 Clear 3 1036 44 10000 4.1 90 19:56 22.03.2020
939 Clear 3 1036 38 10000 3.6 70 19:38 22.03.2020
940 Clear 4 1035 38 10000 4.1 100 19:19 22.03.2020
941 Clear 4 1035 30 10000 4.6 80 18:57 22.03.2020
942 Clear 5 1035 30 10000 4.6 80 18:39 22.03.2020
943 Clear 5 1035 32 10000 5.1 100 18:19 22.03.2020
944 Clear 6 1035 33 10000 5.7 100 17:56 22.03.2020
945 Clear 6 1035 33 10000 5.7 100 17:37 22.03.2020
946 Clear 6 1035 33 10000 5.7 110 17:19 22.03.2020
947 Clear 7 1035 33 10000 5.7 110 16:57 22.03.2020
948 Clear 7 1035 33 10000 6.7 110 16:39 22.03.2020
949 Clear 7 1035 33 10000 5.7 90 16:20 22.03.2020
950 Clear 7 1035 38 10000 6.2 110 15:40 22.03.2020
951 Clear 7 1035 35 10000 7.7 110 15:19 22.03.2020
952 Clear 6 1035 38 10000 6.2 110 14:46 22.03.2020
953 Clear 6 1035 38 10000 5.1 90 14:18 22.03.2020
954 Clear 6 1035 38 10000 6.7 100 13:43 22.03.2020
955 Clear 6 1035 41 10000 6.2 100 13:20 22.03.2020
956 Clear 6 1035 41 10000 6.2 100 12:58 22.03.2020
957 Clear 5 1036 41 10000 6.2 90 12:39 22.03.2020
958 Clear 5 1036 41 10000 6.7 100 12:19 22.03.2020
959 Clear 5 1036 38 10000 7.7 90 11:43 22.03.2020
960 Clear 4 1036 41 10000 6.7 100 11:25 22.03.2020
961 Clear 4 1036 41 10000 6.7 100 10:58 22.03.2020
962 Clear 4 1036 41 10000 7.7 90 10:40 22.03.2020
963 Clear 3 1036 44 10000 7.7 100 10:22 22.03.2020
964 Clear 3 1036 55 10000 6.2 90 09:46 22.03.2020
965 Clear 2 1036 55 10000 6.2 90 09:27 22.03.2020
966 Clear 1 1035 64 10000 4.6 90 08:48 22.03.2020
967 Clear 1 1035 64 10000 4.6 90 08:48 22.03.2020
968 Clear 1 1035 64 10000 4.6 90 08:30 22.03.2020
969 Clear 0 1035 66 10000 4.1 100 07:56 22.03.2020
970 Clear 0 1035 66 10000 4.1 70 07:38 22.03.2020
971 Clear -1 1035 68 10000 3.6 80 06:48 22.03.2020
972 Clear -1 1034 68 10000 5.1 80 05:52 22.03.2020
973 Clear -1 1034 70 10000 5.1 80 04:39 22.03.2020
974 Clear 0 1033 69 10000 3.1 60 01:49 22.03.2020
975 Clear 0 1033 55 10000 4.1 70 00:51 22.03.2020
976 Clear 1 1033 59 10000 6.2 80 00:32 22.03.2020
977 Clear 1 1033 51 10000 5.1 60 23:47 21.03.2020
978 Clear 1 1033 59 10000 5.1 80 23:23 21.03.2020
979 Clear 1 1033 59 10000 5.1 80 22:59 21.03.2020
980 Clear 1 1033 51 10000 4.6 60 22:38 21.03.2020
981 Clear 1 1032 64 10000 4.6 70 22:20 21.03.2020
982 Clear 2 1032 64 10000 4.6 70 21:59 21.03.2020
983 Clear 2 1032 55 10000 4.1 50 21:39 21.03.2020
984 Clouds 2 1032 69 10000 3.6 70 21:20 21.03.2020
985 Clear 2 1032 51 10000 2.6 60 20:45 21.03.2020
986 Clouds 3 1032 59 10000 5.1 70 20:22 21.03.2020
987 Clouds 3 1032 59 10000 5.1 70 19:57 21.03.2020
988 Clouds 3 1032 48 10000 4.1 60 19:38 21.03.2020
989 Clouds 4 1031 55 10000 6.7 70 19:19 21.03.2020
990 Clouds 4 1031 44 10000 7.2 70 18:54 21.03.2020
991 Clouds 5 1030 44 10000 4.6 70 18:36 21.03.2020
992 Clouds 5 1030 44 10000 4.6 70 18:18 21.03.2020
993 Clouds 5 1030 41 10000 5.1 90 17:42 21.03.2020
994 Clouds 6 1030 45 10000 5.7 90 17:23 21.03.2020
995 Clouds 6 1030 41 10000 5.7 70 16:57 21.03.2020
996 Clouds 6 1030 41 10000 5.7 70 16:38 21.03.2020
997 Clouds 6 1030 45 10000 5.1 80 16:18 21.03.2020
998 Clouds 6 1030 45 10000 5.1 80 16:18 21.03.2020
999 Clouds 6 1030 45 10000 6.7 90 15:42 21.03.2020
1000 Clouds 6 1030 45 10000 6.7 90 15:23 21.03.2020
1001 Clouds 6 1031 41 10000 6.7 90 14:58 21.03.2020
1002 Clouds 6 1031 41 10000 5.1 70 14:40 21.03.2020
1003 Clouds 6 1031 45 10000 5.1 70 14:20 21.03.2020
1004 Clouds 6 1031 45 10000 5.1 70 13:59 21.03.2020
1005 Clouds 6 1031 45 10000 5.7 80 13:40 21.03.2020
1006 Clouds 6 1031 52 10000 4.1 70 13:22 21.03.2020
1007 Clouds 6 1031 52 10000 4.1 70 12:59 21.03.2020
1008 Clouds 6 1031 52 10000 5.1 70 12:38 21.03.2020
1009 Clouds 6 1031 48 10000 5.7 70 12:19 21.03.2020
1010 Clouds 6 1031 52 10000 4.1 0 11:57 21.03.2020
1011 Clouds 6 1031 52 10000 4.1 0 11:38 21.03.2020
1012 Clouds 6 1031 48 10000 6.2 80 11:19 21.03.2020
1013 Clouds 5 1031 55 10000 6.7 80 10:57 21.03.2020
1014 Clouds 5 1031 55 10000 6.7 80 10:38 21.03.2020
1015 Clouds 5 1031 56 10000 6.2 80 10:20 21.03.2020
1016 Clouds 5 1031 56 10000 6.2 80 09:57 21.03.2020
1017 Clouds 5 1030 65 10000 6.7 80 09:37 21.03.2020
1018 Clouds 5 1030 65 10000 6.7 80 09:37 21.03.2020
1019 Clouds 4 1030 69 10000 6.2 90 09:19 21.03.2020
1020 Clouds 4 1030 69 10000 6.2 90 08:55 21.03.2020
1021 Clouds 4 1031 58 10000 6.2 70 08:37 21.03.2020
1022 Clouds 2 1030 87 10000 3.6 70 08:18 21.03.2020
1023 Clouds 2 1030 87 10000 3.6 60 07:32 21.03.2020
1024 Clear 1 1030 80 10000 4.1 40 06:49 21.03.2020
1025 Clouds 0 1030 86 10000 2.6 60 06:29 21.03.2020
1026 Clear 0 1029 87 10000 3.1 20 05:50 21.03.2020
1027 Clear 0 1029 87 10000 3.1 40 05:23 21.03.2020
1028 Clear 2 1029 80 10000 3.1 20 03:38 21.03.2020
1029 Clear 3 1029 80 10000 3.1 20 02:36 21.03.2020
1030 Clouds 4 1029 74 10000 4.1 20 01:42 21.03.2020
1031 Clouds 4 1029 80 10000 4.6 30 01:21 21.03.2020
1032 Clouds 5 1029 86 10000 3.6 30 00:38 21.03.2020
1033 Clouds 5 1029 80 10000 3.1 30 00:20 21.03.2020
1034 Clouds 5 1029 80 10000 3.6 20 23:41 20.03.2020
1035 Clouds 5 1029 80 10000 3.6 50 23:20 20.03.2020
1036 Clouds 6 1029 75 10000 3.1 20 22:44 20.03.2020
1037 Clouds 6 1028 70 10000 2.1 40 22:25 20.03.2020
1038 Clouds 6 1028 70 10000 2.1 40 21:58 20.03.2020
1039 Clouds 6 1028 70 10000 2.6 40 21:40 20.03.2020
1040 Clouds 7 1027 65 10000 2.6 30 21:20 20.03.2020
1041 Clouds 7 1027 65 10000 2.6 30 20:58 20.03.2020
1042 Clouds 7 1027 65 10000 2.1 30 20:40 20.03.2020
1043 Clouds 7 1027 61 10000 1.5 0 20:19 20.03.2020
1044 Clouds 7 1027 61 10000 1.5 0 19:48 20.03.2020
1045 Clouds 7 1026 64 10000 1.5 0 19:21 20.03.2020
1046 Clouds 7 1026 64 10000 1.5 0 18:58 20.03.2020
1047 Clouds 8 1026 42 10000 3.6 70 18:38 20.03.2020
1048 Clouds 8 1026 39 10000 3.1 40 18:20 20.03.2020
1049 Clouds 8 1026 39 10000 3.1 40 18:20 20.03.2020
1050 Clouds 8 1026 45 10000 2.1 0 17:56 20.03.2020
1051 Clouds 8 1026 45 10000 2.1 0 17:37 20.03.2020
1052 Rain 8 1026 49 10000 2.6 40 17:19 20.03.2020
1053 Clouds 8 1026 57 10000 2.6 10 16:42 20.03.2020
1054 Clouds 8 1026 61 10000 2.6 10 16:21 20.03.2020
1055 Rain 8 1027 57 10000 6.2 20 15:56 20.03.2020
1056 Rain 8 1027 57 10000 6.2 20 15:37 20.03.2020
1057 Clouds 9 1026 61 10000 2.1 50 15:19 20.03.2020
1058 Rain 8 1026 61 10000 1.5 0 14:42 20.03.2020
1059 Clouds 8 1026 65 10000 1.5 0 14:21 20.03.2020
1060 Clouds 8 1027 61 10000 4.6 10 13:50 20.03.2020
1061 Clouds 8 1026 70 10000 1 0 13:26 20.03.2020
1062 Clouds 8 1026 70 10000 1 0 12:59 20.03.2020
1063 Clouds 7 1026 70 10000 1.5 0 12:38 20.03.2020
1064 Clouds 7 1026 65 10000 2.1 40 12:20 20.03.2020
1065 Clouds 7 1026 70 10000 1.5 0 11:41 20.03.2020
1066 Clouds 7 1026 70 10000 1 0 11:21 20.03.2020
1067 Clouds 7 1026 75 10000 1 0 10:58 20.03.2020
1068 Clouds 7 1026 75 10000 1 0 10:40 20.03.2020
1069 Clouds 7 1026 81 10000 1 0 10:20 20.03.2020
1070 Clouds 7 1026 81 10000 3.1 100 09:47 20.03.2020
1071 Clouds 6 1026 81 10000 3.1 100 09:22 20.03.2020
1072 Clouds 6 1026 81 10000 2.1 80 08:59 20.03.2020
1073 Clouds 6 1026 87 10000 2.1 40 08:40 20.03.2020
1074 Clouds 6 1026 81 10000 2.1 30 08:20 20.03.2020
1075 Clouds 6 1025 75 10000 1.5 0 07:48 20.03.2020
1076 Clouds 6 1025 75 10000 1.5 0 07:26 20.03.2020
1077 Clouds 7 1026 87 9000 2.6 40 06:51 20.03.2020
1078 Clouds 7 1025 100 10000 3.1 50 06:32 20.03.2020
1079 Clouds 7 1025 87 10000 3.1 20 04:51 20.03.2020
1080 Clouds 7 1025 93 10000 2.1 30 03:20 20.03.2020
1081 Clouds 7 1025 93 10000 3.1 40 01:57 20.03.2020
1082 Clouds 8 1026 87 10000 2.6 20 00:51 20.03.2020
1083 Clouds 8 1026 93 10000 2.1 60 00:29 20.03.2020
1084 Clouds 8 1026 81 10000 2.1 20 23:47 19.03.2020
1085 Clouds 8 1026 87 10000 1.5 50 23:28 19.03.2020
1086 Clouds 8 1026 81 10000 1.5 70 22:56 19.03.2020
1087 Clouds 8 1026 81 10000 1.5 70 22:56 19.03.2020
1088 Clouds 8 1026 81 10000 1.5 70 22:38 19.03.2020
1089 Clouds 8 1026 81 10000 1.5 0 22:19 19.03.2020
1090 Clouds 8 1026 81 10000 1.5 0 21:42 19.03.2020
1091 Clouds 8 1026 87 10000 2.1 90 21:20 19.03.2020
1092 Clouds 8 1026 87 10000 2.1 90 20:59 19.03.2020
1093 Clouds 9 1026 87 10000 1.5 60 20:41 19.03.2020
1094 Clouds 9 1026 81 10000 2.1 50 20:22 19.03.2020
1095 Clouds 9 1026 81 10000 2.1 50 19:55 19.03.2020
1096 Clouds 9 1026 81 10000 2.6 0 19:37 19.03.2020
1097 Clouds 9 1025 81 10000 2.6 50 19:19 19.03.2020
1098 Clouds 9 1025 81 10000 2.6 50 18:56 19.03.2020
1099 Clouds 10 1025 81 10000 2.1 0 18:38 19.03.2020
1100 Clouds 10 1025 76 10000 3.1 350 18:19 19.03.2020
1101 Clouds 11 1025 76 10000 3.1 350 17:41 19.03.2020
1102 Clouds 11 1025 71 10000 3.1 360 17:19 19.03.2020
1103 Clouds 12 1025 66 10000 3.1 360 16:45 19.03.2020
1104 Clouds 12 1025 66 10000 3.1 360 16:24 19.03.2020
1105 Clouds 12 1025 67 10000 3.6 360 15:55 19.03.2020
1106 Clouds 13 1025 67 10000 3.6 360 15:36 19.03.2020
1107 Clouds 13 1025 71 10000 3.1 360 15:18 19.03.2020
1108 Clouds 14 1025 67 10000 3.6 360 14:43 19.03.2020
1109 Clouds 14 1025 62 10000 3.1 310 14:21 19.03.2020
1110 Clouds 13 1025 67 10000 3.1 300 13:41 19.03.2020
1111 Clouds 13 1025 62 10000 3.6 300 13:20 19.03.2020
1112 Clouds 13 1025 62 10000 4.1 280 12:58 19.03.2020
1113 Clouds 13 1025 62 10000 4.1 280 12:40 19.03.2020
1114 Clouds 14 1025 62 10000 3.1 290 12:21 19.03.2020
1115 Clouds 13 1025 62 10000 2.6 300 11:43 19.03.2020
1116 Clouds 12 1025 62 10000 3.1 310 11:24 19.03.2020
1117 Clouds 12 1025 66 10000 3.1 280 10:58 19.03.2020
1118 Clouds 12 1025 66 10000 3.1 280 10:38 19.03.2020
1119 Clouds 12 1025 66 10000 3.1 260 10:19 19.03.2020
1120 Clouds 12 1025 62 10000 3.1 250 09:55 19.03.2020
1121 Clouds 11 1025 62 10000 3.1 250 09:37 19.03.2020
1122 Clouds 11 1025 66 10000 3.1 240 09:18 19.03.2020
1123 Clouds 10 1024 66 10000 2.6 240 08:41 19.03.2020
1124 Clouds 10 1024 71 10000 2.1 270 08:20 19.03.2020
1125 Clouds 9 1024 66 10000 2.1 290 07:45 19.03.2020
1126 Clouds 9 1024 66 10000 2.6 240 07:25 19.03.2020
1127 Clouds 10 1024 66 10000 2.6 220 06:43 19.03.2020
1128 Clouds 9 1023 71 10000 1 210 05:48 19.03.2020
1129 Clouds 9 1023 71 10000 2.6 240 04:57 19.03.2020
1130 Clouds 9 1023 71 10000 2.6 240 04:39 19.03.2020
1131 Clouds 10 1023 66 10000 2.1 240 02:50 19.03.2020
1132 Clouds 11 1024 76 10000 1 210 01:21 19.03.2020
1133 Clouds 10 1024 76 10000 1 0 00:28 19.03.2020
1134 Clouds 11 1023 66 10000 2.1 250 23:51 18.03.2020
1135 Clouds 11 1024 71 10000 1.5 230 23:30 18.03.2020
1136 Clouds 11 1024 71 10000 1.5 230 23:30 18.03.2020
1137 Clouds 11 1024 71 10000 1.5 230 23:30 18.03.2020
1138 Clouds 12 1024 71 10000 1 250 22:58 18.03.2020
1139 Clouds 12 1024 66 10000 2.6 250 22:39 18.03.2020
1140 Clouds 11 1024 62 10000 2.1 260 22:21 18.03.2020
1141 Clouds 12 1024 62 10000 2.1 280 21:42 18.03.2020
1142 Clouds 12 1024 66 10000 2.6 270 21:22 18.03.2020
1143 Clouds 12 1024 66 10000 2.6 270 20:59 18.03.2020
1144 Clouds 13 1024 62 10000 3.1 270 20:40 18.03.2020
1145 Clouds 13 1024 62 10000 3.1 270 20:40 18.03.2020
1146 Clouds 13 1024 62 10000 3.6 260 20:20 18.03.2020
1147 Clouds 13 1024 62 10000 3.6 260 19:58 18.03.2020
1148 Clouds 13 1024 58 10000 4.1 250 19:39 18.03.2020
1149 Clouds 14 1024 54 10000 4.1 240 19:20 18.03.2020
1150 Clouds 14 1024 54 10000 4.1 270 18:42 18.03.2020
1151 Clouds 15 1024 54 10000 5.1 270 18:21 18.03.2020
1152 Clouds 15 1024 51 10000 6.2 280 17:59 18.03.2020
1153 Clouds 15 1024 51 10000 6.2 280 17:59 18.03.2020
1154 Clouds 16 1024 51 10000 6.2 280 17:41 18.03.2020
1155 Clouds 16 1024 51 10000 5.1 280 17:22 18.03.2020
1156 Clouds 16 1024 51 10000 5.1 280 16:59 18.03.2020
1157 Clouds 16 1024 48 10000 5.7 270 16:40 18.03.2020
1158 Clouds 16 1024 48 10000 6.2 250 16:20 18.03.2020
1159 Clouds 17 1024 45 10000 7.2 260 15:46 18.03.2020
1160 Clouds 17 1024 45 10000 7.2 260 15:27 18.03.2020
1161 Clouds 16 1024 42 10000 6.2 260 14:58 18.03.2020
1162 Clouds 16 1024 42 10000 6.7 270 14:40 18.03.2020
1163 Clouds 16 1025 42 10000 6.2 260 14:21 18.03.2020
1164 Clouds 16 1025 41 10000 7.2 250 13:40 18.03.2020
1165 Clouds 15 1025 44 10000 6.7 260 13:19 18.03.2020
1166 Clouds 15 1025 47 10000 5.7 230 12:43 18.03.2020
1167 Clouds 15 1026 54 10000 5.7 240 12:21 18.03.2020
1168 Clouds 14 1026 54 10000 5.7 240 11:59 18.03.2020
1169 Clouds 14 1026 54 10000 5.7 240 11:37 18.03.2020
1170 Clouds 14 1026 54 10000 5.7 240 11:37 18.03.2020
1171 Clouds 13 1026 58 10000 6.7 250 11:18 18.03.2020
1172 Clouds 13 1026 58 10000 6.7 250 10:56 18.03.2020
1173 Clouds 12 1026 58 10000 6.7 250 10:37 18.03.2020
1174 Clouds 12 1026 57 10000 6.7 240 10:18 18.03.2020
1175 Clouds 12 1026 57 10000 6.7 240 10:18 18.03.2020
1176 Clouds 12 1026 57 10000 6.7 240 10:18 18.03.2020
1177 Clouds 11 1026 53 10000 5.7 230 09:42 18.03.2020
1178 Clouds 10 1026 57 10000 4.6 220 09:23 18.03.2020
1179 Clouds 10 1026 57 10000 4.6 220 08:55 18.03.2020
1180 Clouds 9 1026 57 10000 5.1 220 08:37 18.03.2020
1181 Clouds 8 1026 79 10000 4.1 220 08:19 18.03.2020
1182 Clouds 8 1026 79 10000 3.1 220 07:41 18.03.2020
1183 Clouds 7 1026 79 10000 3.6 220 07:23 18.03.2020
1184 Clouds 8 1026 79 10000 3.1 220 06:43 18.03.2020
1185 Clouds 8 1026 52 10000 3.1 200 05:53 18.03.2020
1186 Clouds 8 1026 79 10000 3.1 210 05:33 18.03.2020
1187 Clouds 7 1026 75 10000 1.5 230 03:56 18.03.2020
1188 Clouds 7 1026 75 10000 2.1 180 02:40 18.03.2020
1189 Clouds 7 1027 69 10000 2.6 210 01:46 18.03.2020
1190 Clouds 7 1027 68 10000 2.1 210 01:21 18.03.2020
1191 Clouds 7 1027 70 10000 1 220 00:23 18.03.2020
1192 Clouds 7 1028 75 10000 0.5 200 23:47 17.03.2020
1193 Clouds 8 1028 75 10000 0.5 200 23:26 17.03.2020
1194 Clouds 8 1028 57 10000 1.5 210 22:48 17.03.2020
1195 Clouds 9 1028 57 10000 2.1 190 22:29 17.03.2020
1196 Clouds 9 1028 57 10000 2.1 190 21:59 17.03.2020
1197 Clouds 10 1028 53 10000 2.1 230 21:39 17.03.2020
1198 Clouds 10 1028 53 10000 2.1 250 21:21 17.03.2020
1199 Clouds 10 1028 53 10000 2.1 250 21:20 17.03.2020
1200 Clouds 10 1028 53 10000 2.1 230 20:40 17.03.2020
1201 Clouds 10 1028 57 10000 2.6 280 20:21 17.03.2020
1202 Clouds 11 1028 57 10000 2.6 280 19:58 17.03.2020
1203 Clouds 11 1028 57 10000 2.6 270 19:39 17.03.2020
1204 Clouds 11 1028 50 10000 2.6 260 19:18 17.03.2020
1205 Clouds 12 1027 46 10000 3.1 260 18:56 17.03.2020
1206 Clouds 12 1027 46 10000 3.1 260 18:37 17.03.2020
1207 Clouds 13 1027 62 10000 4.6 270 18:19 17.03.2020
1208 Clouds 13 1027 62 10000 5.1 270 17:40 17.03.2020
1209 Clouds 14 1027 62 10000 5.7 260 17:21 17.03.2020
1210 Clouds 14 1028 48 10000 5.7 260 16:55 17.03.2020
1211 Clouds 14 1028 48 10000 5.7 260 16:36 17.03.2020
1212 Clouds 14 1028 41 10000 5.7 250 16:18 17.03.2020
1213 Clouds 14 1028 41 10000 5.7 250 15:43 17.03.2020
1214 Clouds 14 1028 48 10000 5.7 260 15:20 17.03.2020
1215 Clouds 14 1028 44 10000 4.6 290 14:42 17.03.2020
1216 Clouds 14 1028 44 10000 5.1 260 14:21 17.03.2020
1217 Clouds 13 1028 43 10000 5.7 270 13:45 17.03.2020
1218 Clouds 13 1028 43 10000 5.7 270 13:27 17.03.2020
1219 Clouds 13 1028 45 10000 6.2 270 12:59 17.03.2020
1220 Clouds 13 1028 47 10000 5.7 260 12:40 17.03.2020
1221 Clouds 12 1028 50 10000 5.7 270 12:22 17.03.2020
1222 Clouds 12 1028 50 10000 5.7 270 11:47 17.03.2020
1223 Clouds 11 1028 58 10000 5.1 270 11:29 17.03.2020
1224 Clouds 11 1028 54 10000 5.7 260 10:58 17.03.2020
1225 Clouds 11 1028 54 10000 5.7 260 10:39 17.03.2020
1226 Clouds 11 1028 66 10000 4.6 280 10:21 17.03.2020
1227 Clouds 10 1028 66 10000 4.6 280 09:59 17.03.2020
1228 Clouds 10 1028 71 10000 3.1 290 09:40 17.03.2020
1229 Clouds 9 1028 76 10000 4.6 290 09:19 17.03.2020
1230 Clouds 9 1027 81 10000 3.6 280 08:48 17.03.2020
1231 Clouds 8 1027 81 10000 3.1 280 08:23 17.03.2020
1232 Clouds 8 1027 81 10000 3.1 280 07:57 17.03.2020
1233 Clouds 8 1026 87 10000 2.1 280 07:38 17.03.2020
1234 Clouds 8 1026 87 10000 1.5 270 07:19 17.03.2020
1235 Clouds 8 1026 93 10000 2.6 260 06:39 17.03.2020
1236 Clouds 8 1025 100 10000 1 230 05:58 17.03.2020
1237 Clouds 7 1025 93 10000 1.5 240 03:58 17.03.2020
1238 Clouds 7 1025 81 10000 0.5 10 02:56 17.03.2020
1239 Clouds 7 1024 81 10000 1 340 01:49 17.03.2020
1240 Clear 7 1024 87 10000 1 0 01:28 17.03.2020
1241 Clouds 7 1024 81 10000 2.1 130 00:48 17.03.2020
1242 Clouds 7 1024 81 10000 1.5 90 23:51 16.03.2020
1243 Clear 8 1024 81 10000 1 120 23:33 16.03.2020
1244 Clouds 8 1024 81 10000 0.25 210 22:55 16.03.2020
1245 Clouds 8 1024 81 10000 0.25 210 22:36 16.03.2020
1246 Clear 8 1024 75 10000 0.25 210 22:18 16.03.2020
1247 Clear 8 1023 75 10000 0.25 210 21:41 16.03.2020
1248 Clear 8 1023 75 10000 0.25 210 21:23 16.03.2020
1249 Clear 9 1023 66 10000 0.25 210 20:58 16.03.2020
1250 Clear 9 1023 66 10000 0.25 210 20:38 16.03.2020
1251 Clouds 10 1022 66 10000 1.5 320 20:20 16.03.2020
1252 Clouds 10 1022 66 10000 2.16 299 19:44 16.03.2020
1253 Clouds 11 1022 62 10000 2.16 299 19:23 16.03.2020
1254 Clouds 12 1021 54 10000 2.1 310 18:57 16.03.2020
1255 Clouds 12 1021 54 10000 2.1 310 18:38 16.03.2020
1256 Clouds 14 1021 51 10000 3.1 300 18:18 16.03.2020
1257 Clouds 15 1021 51 10000 3.6 300 17:45 16.03.2020
1258 Clouds 15 1020 51 10000 4.1 290 17:24 16.03.2020
1259 Clouds 15 1020 54 10000 3.6 300 16:54 16.03.2020
1260 Clouds 16 1020 54 10000 3.6 300 16:36 16.03.2020
1261 Clouds 16 1020 51 10000 3.6 300 16:18 16.03.2020
1262 Clouds 16 1020 51 10000 4.1 300 15:42 16.03.2020
1263 Clouds 16 1020 51 10000 4.1 300 15:22 16.03.2020
1264 Clouds 16 1019 51 10000 4.1 300 14:45 16.03.2020
1265 Clouds 16 1019 48 10000 3.1 270 14:20 16.03.2020
1266 Clouds 15 1019 47 10000 4.1 270 13:45 16.03.2020
1267 Clouds 16 1019 47 10000 4.6 280 13:26 16.03.2020
1268 Clouds 15 1018 47 10000 4.1 280 12:57 16.03.2020
1269 Clouds 15 1018 47 10000 4.1 280 12:38 16.03.2020
1270 Clouds 15 1018 47 10000 4.1 290 12:19 16.03.2020
1271 Clouds 14 1018 47 10000 4.1 270 11:42 16.03.2020
1272 Clouds 13 1018 47 10000 4.1 260 11:23 16.03.2020
1273 Clouds 13 1018 47 10000 4.6 240 10:43 16.03.2020
1274 Clouds 13 1018 47 10000 4.6 240 10:24 16.03.2020
1275 Clouds 11 1017 50 10000 3.6 250 09:49 16.03.2020
1276 Clouds 11 1017 50 10000 3.6 250 09:30 16.03.2020
1277 Clouds 9 1017 70 10000 2.1 230 08:59 16.03.2020
1278 Clouds 9 1016 70 10000 2.1 210 08:39 16.03.2020
1279 Clouds 7 1016 56 10000 2.1 190 08:20 16.03.2020
1280 Clouds 6 1015 60 10000 2.6 160 07:41 16.03.2020
1281 Clouds 6 1015 60 10000 2.6 170 07:18 16.03.2020
1282 Clouds 5 1014 75 10000 3.1 150 06:28 16.03.2020
1283 Clouds 5 1014 85 10000 1.5 190 05:55 16.03.2020
1284 Clouds 6 1014 70 10000 2.1 150 03:54 16.03.2020
1285 Clouds 7 1013 76 10000 1.5 200 01:46 16.03.2020
1286 Clouds 7 1013 74 10000 2.1 180 00:45 16.03.2020
1287 Clouds 8 1013 61 10000 3.6 170 00:25 16.03.2020
1288 Clouds 8 1013 74 10000 2.1 190 23:39 15.03.2020
1289 Clouds 8 1013 57 10000 3.6 180 23:18 15.03.2020
1290 Clouds 8 1013 57 10000 2.6 170 22:42 15.03.2020
1291 Clouds 8 1013 57 10000 4.1 180 22:20 15.03.2020
1292 Clouds 8 1013 57 10000 2.6 160 21:39 15.03.2020
1293 Clouds 8 1014 52 10000 2.1 150 21:21 15.03.2020
1294 Clouds 9 1014 52 10000 2.1 150 20:58 15.03.2020
1295 Clouds 9 1014 69 10000 2.1 130 20:39 15.03.2020
1296 Clouds 9 1014 67 10000 2.1 120 20:19 15.03.2020
1297 Clouds 10 1014 65 10000 2.1 120 19:55 15.03.2020
1298 Clouds 10 1013 61 10000 2.1 160 19:37 15.03.2020
1299 Clouds 11 1013 50 10000 2.6 180 19:18 15.03.2020
1300 Clouds 12 1013 46 10000 3.1 180 18:42 15.03.2020
1301 Clouds 12 1014 37 10000 4.6 190 18:24 15.03.2020
1302 Clouds 13 1014 37 10000 4.6 190 17:59 15.03.2020
1303 Clouds 13 1014 65 10000 3.6 190 17:39 15.03.2020
1304 Clouds 14 1014 52 10000 5.7 190 17:20 15.03.2020
1305 Clouds 14 1014 35 10000 6.2 190 16:55 15.03.2020
1306 Clouds 14 1014 35 10000 6.2 190 16:37 15.03.2020
1307 Clouds 14 1014 52 10000 6.7 200 16:18 15.03.2020
1308 Clouds 14 1015 52 10000 6.2 210 15:42 15.03.2020
1309 Clouds 14 1015 52 10000 6.2 210 15:22 15.03.2020
1310 Clouds 14 1015 52 10000 7.2 200 14:47 15.03.2020
1311 Clouds 14 1015 52 10000 7.2 200 14:28 15.03.2020
1312 Clouds 14 1016 52 10000 6.7 200 13:59 15.03.2020
1313 Clouds 14 1016 41 10000 6.2 210 13:39 15.03.2020
1314 Clouds 13 1017 43 10000 7.2 200 13:21 15.03.2020
1315 Clouds 13 1017 43 10000 7.2 200 12:58 15.03.2020
1316 Clouds 13 1017 53 10000 7.7 200 12:38 15.03.2020
1317 Clouds 12 1017 53 10000 6.2 200 12:20 15.03.2020
1318 Clouds 12 1017 46 10000 5.1 210 11:42 15.03.2020
1319 Clouds 11 1018 60 10000 6.2 200 11:22 15.03.2020
1320 Clouds 11 1018 60 10000 5.1 200 10:57 15.03.2020
1321 Clouds 10 1018 60 10000 5.1 200 10:38 15.03.2020
1322 Clouds 10 1018 60 10000 4.6 170 10:20 15.03.2020
1323 Clouds 8 1018 60 10000 3.6 180 09:42 15.03.2020
1324 Clouds 8 1018 56 10000 3.6 170 09:22 15.03.2020
1325 Clouds 7 1018 56 10000 3.6 170 08:58 15.03.2020
1326 Clouds 7 1018 56 10000 4.1 170 08:39 15.03.2020
1327 Clouds 6 1017 70 10000 4.1 180 08:18 15.03.2020
1328 Clouds 5 1017 76 10000 3.6 170 07:44 15.03.2020
1329 Clouds 5 1017 76 10000 4.1 160 06:55 15.03.2020
1330 Clouds 5 1017 76 10000 4.1 160 06:35 15.03.2020
1331 Clouds 5 1018 76 10000 4.6 160 05:46 15.03.2020
1332 Clouds 5 1018 74 10000 4.1 140 04:49 15.03.2020
1333 Clouds 4 1018 74 10000 4.6 170 04:29 15.03.2020
1334 Clouds 4 1018 74 10000 4.1 160 03:59 15.03.2020
1335 Clouds 4 1020 69 10000 2.6 120 02:48 15.03.2020
1336 Clear 3 1019 65 10000 4.6 150 01:56 15.03.2020
1337 Clear 4 1020 66 10000 4.1 160 00:57 15.03.2020
1338 Clear 4 1020 66 10000 3.6 150 00:38 15.03.2020
1339 Clear 4 1020 66 10000 2.1 140 00:18 15.03.2020
1340 Clouds 4 1021 69 10000 3.6 120 23:38 14.03.2020
1341 Clear 4 1021 66 10000 3.1 140 23:19 14.03.2020
1342 Clouds 4 1021 65 10000 3.1 110 22:55 14.03.2020
1343 Clouds 4 1021 65 10000 3.1 110 22:37 14.03.2020
1344 Clear 4 1021 66 10000 2.1 120 22:19 14.03.2020
1345 Clear 5 1021 66 10000 2.1 120 21:54 14.03.2020
1346 Clear 5 1021 66 10000 2.6 120 21:36 14.03.2020
1347 Clear 5 1021 70 10000 2.6 130 21:18 14.03.2020
1348 Clouds 5 1022 66 10000 3.6 120 20:55 14.03.2020
1349 Clear 5 1021 70 10000 3.1 120 20:36 14.03.2020
1350 Clouds 5 1021 70 10000 3.1 120 20:18 14.03.2020
1351 Clouds 6 1022 67 10000 3.6 110 19:40 14.03.2020
1352 Clouds 7 1021 70 10000 4.1 120 19:20 14.03.2020
1353 Clouds 7 1022 67 10000 3.6 110 18:39 14.03.2020
1354 Clouds 8 1022 67 10000 3.6 110 18:20 14.03.2020
1355 Clouds 8 1022 67 10000 5.1 110 17:41 14.03.2020
1356 Clouds 9 1022 61 10000 4.1 110 17:21 14.03.2020
1357 Clouds 9 1022 54 10000 3.6 140 16:58 14.03.2020
1358 Clouds 10 1022 54 10000 3.6 140 16:38 14.03.2020
1359 Clouds 9 1022 54 10000 3.6 140 16:18 14.03.2020
1360 Clouds 9 1023 54 10000 3.6 150 15:44 14.03.2020
1361 Clouds 9 1023 54 10000 3.1 160 15:22 14.03.2020
1362 Clouds 9 1023 52 10000 3.6 160 14:40 14.03.2020
1363 Clouds 9 1023 52 10000 3.1 170 14:21 14.03.2020
1364 Clear 8 1023 52 10000 3.1 170 13:57 14.03.2020
1365 Clear 9 1023 56 10000 3.1 150 13:38 14.03.2020
1366 Clear 8 1024 56 10000 3.1 110 13:20 14.03.2020
1367 Clear 8 1024 56 10000 3.1 110 12:44 14.03.2020
1368 Clear 7 1024 60 10000 3.6 130 12:26 14.03.2020
1369 Clear 7 1024 60 10000 3.1 140 11:46 14.03.2020
1370 Clouds 6 1024 60 10000 2.6 120 11:26 14.03.2020
1371 Clouds 5 1024 65 10000 3.1 120 10:59 14.03.2020
1372 Clouds 6 1024 65 10000 3.1 120 10:40 14.03.2020
1373 Clear 5 1024 64 10000 2.6 150 10:22 14.03.2020
1374 Clear 4 1023 74 10000 1.5 120 09:43 14.03.2020
1375 Clouds 3 1023 69 10000 1.5 0 09:24 14.03.2020
1376 Clear 2 1023 69 9000 1 70 08:47 14.03.2020
1377 Clear 1 1023 80 10000 1 0 08:28 14.03.2020
1378 Clear 0 1023 91 10000 0.5 0 07:55 14.03.2020
1379 Clear -1 1023 100 7000 1.33 145 07:37 14.03.2020
1380 Clear -2 1022 100 10000 0.5 0 07:18 14.03.2020
1381 Clear -2 1022 92 8000 1 60 06:40 14.03.2020
1382 Clouds -1 1022 100 10000 0.5 90 05:19 14.03.2020
1383 Clouds -1 1022 92 10000 1.5 240 03:46 14.03.2020
1384 Clear -1 1022 100 10000 0.5 0 03:24 14.03.2020
1385 Clear 0 1022 91 10000 1 220 02:22 14.03.2020
1386 Clouds 2 1021 89 10000 1.5 240 00:46 14.03.2020
1387 Clouds 3 1020 80 10000 1 0 23:50 13.03.2020
1388 Clouds 3 1021 89 10000 1.5 290 23:30 13.03.2020
1389 Clear 4 1020 84 10000 1 240 22:52 13.03.2020
1390 Clouds 4 1019 80 10000 3.1 310 22:26 13.03.2020
1391 Clouds 4 1018 80 10000 3.6 300 21:44 13.03.2020
1392 Clouds 5 1018 80 10000 4.6 280 21:22 13.03.2020
1393 Clouds 5 1018 80 10000 4.6 280 20:59 13.03.2020
1394 Clouds 5 1017 86 10000 4.1 280 20:41 13.03.2020
1395 Clouds 5 1017 86 10000 4.6 280 20:21 13.03.2020
1396 Rain 5 1016 81 10000 5.7 270 19:48 13.03.2020
1397 Rain 6 1016 81 10000 5.7 270 19:30 13.03.2020
1398 Clouds 6 1015 81 10000 5.1 270 18:49 13.03.2020
1399 Clouds 6 1015 81 10000 5.1 270 18:31 13.03.2020
1400 Rain 6 1015 75 10000 7.2 280 17:59 13.03.2020
1401 Rain 6 1014 81 10000 6.7 290 17:41 13.03.2020
1402 Rain 7 1014 65 10000 8.7 280 17:20 13.03.2020
1403 Rain 7 1013 70 10000 8.7 270 16:55 13.03.2020
1404 Rain 7 1013 70 10000 8.7 270 16:36 13.03.2020
1405 Clouds 7 1013 75 10000 8.2 270 16:18 13.03.2020
1406 Clouds 7 1013 75 10000 8.7 270 15:41 13.03.2020
1407 Clouds 7 1013 86 10000 8.2 280 15:21 13.03.2020
1408 Rain 7 1012 81 10000 8.7 290 14:44 13.03.2020
1409 Rain 7 1012 81 10000 8.7 290 14:23 13.03.2020
1410 Rain 7 1012 81 10000 7.7 290 13:59 13.03.2020
1411 Rain 7 1011 75 5000 10.8 270 13:40 13.03.2020
1412 Rain 7 1011 87 10000 7.2 280 13:21 13.03.2020
1413 Rain 7 1011 87 10000 7.2 280 12:57 13.03.2020
1414 Rain 7 1011 87 10000 7.2 280 12:38 13.03.2020
1415 Rain 7 1010 81 10000 6.2 280 12:19 13.03.2020
1416 Clouds 7 1010 70 10000 10.3 260 11:55 13.03.2020
1417 Clouds 7 1010 70 10000 10.3 260 11:36 13.03.2020
1418 Clouds 7 1009 75 10000 10.3 250 11:18 13.03.2020
1419 Clouds 7 1009 65 10000 10.3 250 10:42 13.03.2020
1420 Clouds 7 1009 65 10000 10.3 250 10:24 13.03.2020
1421 Clouds 6 1009 70 10000 9.8 250 09:46 13.03.2020
1422 Clouds 6 1009 70 10000 9.8 250 09:27 13.03.2020
1423 Clouds 6 1008 84 10000 9.3 240 08:57 13.03.2020
1424 Clouds 6 1008 84 10000 8.2 240 08:38 13.03.2020
1425 Clouds 6 1008 77 10000 8.7 240 08:19 13.03.2020
1426 Clouds 6 1008 77 10000 8.2 240 07:44 13.03.2020
1427 Clouds 6 1008 77 10000 7.2 240 07:23 13.03.2020
1428 Rain 6 1007 70 8000 9.3 240 06:46 13.03.2020
1429 Clouds 6 1007 65 10000 8.7 230 06:21 13.03.2020
1430 Rain 6 1007 75 10000 8.7 240 05:44 13.03.2020
1431 Clouds 6 1007 65 10000 7.2 230 04:57 13.03.2020
1432 Clouds 6 1008 75 10000 7.2 230 04:25 13.03.2020
1433 Clouds 6 1008 70 10000 7.2 230 02:42 13.03.2020
1434 Clouds 5 1008 70 10000 6.2 220 01:37 13.03.2020
1435 Clouds 5 1008 70 10000 7.2 240 01:18 13.03.2020
1436 Clouds 5 1008 70 10000 6.7 220 00:41 13.03.2020
1437 Rain 5 1008 70 10000 6.2 240 00:19 13.03.2020
1438 Rain 5 1009 70 10000 6.2 240 23:39 12.03.2020
1439 Rain 5 1008 70 10000 6.7 240 23:19 12.03.2020
1440 Clouds 5 1008 75 10000 4.1 210 22:47 12.03.2020
1441 Rain 5 1009 74 10000 6.2 250 22:28 12.03.2020
1442 Rain 5 1009 74 10000 6.2 250 21:57 12.03.2020
1443 Clouds 5 1009 74 10000 6.2 240 21:39 12.03.2020
1444 Rain 6 1009 56 10000 11.3 270 21:20 12.03.2020
1445 Rain 7 1008 48 10000 2.6 220 20:42 12.03.2020
1446 Rain 7 1008 48 10000 2.6 220 20:42 12.03.2020
1447 Clouds 7 1008 48 10000 3.1 250 20:20 12.03.2020
1448 Clouds 7 1008 48 10000 3.1 250 20:20 12.03.2020
1449 Clouds 7 1008 48 10000 3.1 250 19:56 12.03.2020
1450 Clouds 8 1008 48 10000 3.1 260 19:37 12.03.2020
1451 Clouds 8 1008 48 10000 3.1 260 19:37 12.03.2020
1452 Clouds 8 1008 48 10000 3.6 270 19:18 12.03.2020
1453 Clouds 8 1009 42 10000 5.1 270 18:42 12.03.2020
1454 Clouds 9 1009 39 10000 6.2 270 18:22 12.03.2020
1455 Clouds 9 1008 37 10000 8.7 270 17:56 12.03.2020
1456 Clouds 10 1008 37 10000 8.7 270 17:37 12.03.2020
1457 Clouds 10 1008 39 10000 7.7 270 17:18 12.03.2020
1458 Clouds 10 1008 37 10000 9.8 270 16:43 12.03.2020
1459 Clouds 10 1008 37 10000 9.8 270 16:23 12.03.2020
1460 Clouds 10 1008 37 10000 9.8 270 15:59 12.03.2020
1461 Clouds 10 1008 43 10000 7.7 280 15:39 12.03.2020
1462 Clouds 10 1008 45 10000 8.7 280 15:21 12.03.2020
1463 Clouds 10 1008 45 10000 9.3 290 14:38 12.03.2020
1464 Clouds 10 1008 45 10000 9.3 290 14:38 12.03.2020
1465 Clouds 10 1007 40 10000 11.3 270 14:19 12.03.2020
1466 Clouds 10 1007 43 10000 10.8 270 13:40 12.03.2020
1467 Clouds 10 1007 42 10000 13.4 280 13:22 12.03.2020
1468 Clouds 10 1007 42 10000 11.8 280 12:55 12.03.2020
1469 Clouds 10 1007 42 10000 11.8 280 12:37 12.03.2020
1470 Clouds 10 1007 42 10000 11.8 280 12:37 12.03.2020
1471 Clouds 10 1006 47 10000 10.8 280 12:18 12.03.2020
1472 Clouds 9 1006 52 10000 10.8 280 11:56 12.03.2020
1473 Clouds 9 1006 52 10000 10.8 280 11:37 12.03.2020
1474 Rain 9 1005 66 10000 11.8 270 11:19 12.03.2020
1475 Rain 9 1004 61 10000 12.9 270 10:56 12.03.2020
1476 Rain 9 1004 61 10000 12.9 270 10:38 12.03.2020
1477 Clouds 8 1004 75 10000 9.8 270 10:19 12.03.2020
1478 Clouds 10 1003 81 10000 11.8 290 09:43 12.03.2020
1479 Clouds 10 1002 71 10000 11.3 250 09:24 12.03.2020
1480 Clouds 10 1002 76 10000 8.7 260 08:41 12.03.2020
1481 Clouds 10 1002 76 10000 10.3 260 08:19 12.03.2020
1482 Drizzle 10 1001 81 10000 9.8 280 07:53 12.03.2020
1483 Drizzle 11 1000 71 10000 8.2 240 07:23 12.03.2020
1484 Clouds 11 1001 71 10000 8.2 240 06:44 12.03.2020
1485 Rain 12 1001 76 10000 8.7 240 05:40 12.03.2020
1486 Rain 12 1001 76 10000 9.3 230 04:29 12.03.2020
1487 Rain 12 1003 82 10000 7.7 220 02:36 12.03.2020
1488 Rain 12 1004 87 10000 7.2 230 01:30 12.03.2020
1489 Rain 11 1005 93 10000 3.1 220 00:44 12.03.2020
1490 Rain 11 1005 87 10000 5.1 220 00:26 12.03.2020
1491 Clouds 11 1006 81 10000 5.1 220 23:45 11.03.2020
1492 Clouds 11 1007 81 10000 4.1 220 23:24 11.03.2020
1493 Clouds 11 1007 76 10000 2.6 200 22:48 11.03.2020
1494 Clouds 11 1008 76 10000 3.6 220 22:29 11.03.2020
1495 Clouds 11 1008 76 10000 3.6 220 21:59 11.03.2020
1496 Clouds 11 1009 76 10000 5.1 240 21:41 11.03.2020
1497 Clouds 11 1009 76 10000 5.1 230 21:22 11.03.2020
1498 Clouds 11 1009 76 10000 5.1 230 21:22 11.03.2020
1499 Clouds 11 1009 76 10000 5.1 230 20:58 11.03.2020
1500 Clouds 11 1009 76 10000 4.1 230 20:39 11.03.2020
1501 Clouds 11 1010 76 10000 4.6 230 20:19 11.03.2020
1502 Clouds 11 1010 76 10000 3.1 220 19:44 11.03.2020
1503 Clouds 11 1010 76 10000 3.1 220 19:25 11.03.2020
1504 Clouds 11 1010 71 10000 3.6 230 18:59 11.03.2020
1505 Rain 11 1010 71 10000 3.1 230 18:40 11.03.2020
1506 Rain 12 1010 71 10000 4.6 240 18:22 11.03.2020
1507 Clouds 12 1010 66 10000 6.2 240 17:58 11.03.2020
1508 Clouds 12 1010 66 10000 6.2 240 17:39 11.03.2020
1509 Clouds 12 1010 62 10000 5.7 260 17:20 11.03.2020
1510 Clouds 12 1010 62 10000 6.2 280 16:47 11.03.2020
1511 Clouds 12 1010 62 10000 6.2 280 16:23 11.03.2020
1512 Clouds 12 1010 62 10000 5.7 270 15:59 11.03.2020
1513 Clouds 13 1010 62 10000 6.2 270 15:40 11.03.2020
1514 Clouds 12 1010 71 10000 5.7 270 15:22 11.03.2020
1515 Clouds 12 1010 76 10000 5.1 270 14:42 11.03.2020
1516 Clouds 12 1010 76 10000 6.7 270 14:23 11.03.2020
1517 Clouds 12 1010 76 10000 6.7 270 13:57 11.03.2020
1518 Clouds 11 1010 71 10000 7.2 270 13:38 11.03.2020
1519 Clouds 11 1010 66 10000 7.7 270 13:20 11.03.2020
1520 Clouds 11 1010 66 10000 8.2 260 12:40 11.03.2020
1521 Clouds 11 1009 66 10000 7.7 250 12:21 11.03.2020
1522 Clouds 11 1009 66 10000 7.7 250 11:57 11.03.2020
1523 Clouds 11 1009 66 10000 7.7 250 11:57 11.03.2020
1524 Clouds 11 1009 66 10000 7.2 260 11:38 11.03.2020
1525 Clouds 10 1009 66 10000 7.2 260 11:19 11.03.2020
1526 Clouds 10 1009 66 10000 6.7 240 10:43 11.03.2020
1527 Clouds 10 1009 71 10000 6.2 260 10:19 11.03.2020
1528 Clouds 9 1009 76 10000 4.6 260 09:54 11.03.2020
1529 Clouds 10 1009 76 10000 4.6 260 09:36 11.03.2020
1530 Clouds 10 1008 76 10000 4.6 260 09:18 11.03.2020
1531 Clouds 9 1008 76 10000 5.1 250 08:40 11.03.2020
1532 Clouds 9 1008 76 10000 5.1 250 08:22 11.03.2020
1533 Clouds 8 1007 81 10000 4.6 270 07:45 11.03.2020
1534 Clouds 8 1007 81 10000 4.6 270 07:19 11.03.2020
1535 Clouds 8 1007 75 10000 3.1 250 06:48 11.03.2020
1536 Clouds 8 1006 75 10000 3.6 260 05:43 11.03.2020
1537 Clouds 9 1006 76 10000 4.6 280 05:23 11.03.2020
1538 Rain 9 1003 81 10000 5.1 260 02:36 11.03.2020
1539 Rain 9 1002 93 10000 5.1 260 01:44 11.03.2020
1540 Rain 10 1001 87 7000 5.7 270 00:53 11.03.2020
1541 Rain 11 1002 87 8000 10.3 290 00:31 11.03.2020
1542 Rain 11 1000 93 1500 8.7 280 23:47 10.03.2020
1543 Rain 12 1000 93 6000 8.2 260 23:22 10.03.2020
1544 Rain 12 999 93 1900 9.3 240 22:55 10.03.2020
1545 Rain 12 999 93 1900 9.3 240 22:37 10.03.2020
1546 Rain 12 1000 93 10000 8.2 250 22:18 10.03.2020
1547 Rain 12 1000 93 10000 8.2 250 21:56 10.03.2020
1548 Rain 12 999 93 10000 9.3 240 21:37 10.03.2020
1549 Drizzle 11 1000 93 10000 7.2 250 21:18 10.03.2020
1550 Rain 11 1000 87 4200 5.7 230 20:42 10.03.2020
1551 Rain 10 1000 87 4200 5.7 230 20:20 10.03.2020
1552 Rain 10 1000 87 4200 5.7 230 19:59 10.03.2020
1553 Drizzle 10 1000 87 10000 6.2 240 19:40 10.03.2020
1554 Drizzle 10 1000 87 10000 6.2 230 19:22 10.03.2020
1555 Drizzle 10 1000 93 10000 5.7 230 18:56 10.03.2020
1556 Drizzle 10 1000 93 10000 5.7 230 18:37 10.03.2020
1557 Drizzle 10 1000 93 10000 5.7 220 18:19 10.03.2020
1558 Rain 10 1001 87 10000 6.2 230 17:55 10.03.2020
1559 Rain 10 1001 87 10000 6.2 230 17:37 10.03.2020
1560 Rain 10 1001 87 10000 5.1 230 17:18 10.03.2020
1561 Rain 9 1001 87 10000 5.7 220 16:37 10.03.2020
1562 Rain 9 1001 93 10000 5.7 220 16:18 10.03.2020
1563 Rain 9 1001 87 10000 5.7 220 15:43 10.03.2020
1564 Rain 9 1002 87 10000 5.7 230 15:20 10.03.2020
1565 Rain 9 1002 87 10000 5.7 230 14:59 10.03.2020
1566 Drizzle 9 1002 81 8000 6.2 220 14:40 10.03.2020
1567 Clouds 9 1002 76 10000 6.2 230 14:19 10.03.2020
1568 Clouds 9 1001 87 10000 6.7 220 13:45 10.03.2020
1569 Clouds 9 1002 81 10000 7.2 230 13:26 10.03.2020
1570 Clouds 8 1002 81 10000 7.2 230 12:59 10.03.2020
1571 Clouds 8 1003 81 10000 6.7 230 12:39 10.03.2020
1572 Rain 8 1002 81 9000 6.2 230 12:18 10.03.2020
1573 Rain 8 1002 81 9000 6.2 230 11:43 10.03.2020
1574 Rain 7 1002 87 8000 6.7 230 11:24 10.03.2020
1575 Rain 7 1002 87 8000 6.7 230 10:58 10.03.2020
1576 Rain 6 1002 81 10000 7.2 220 10:40 10.03.2020
1577 Clouds 6 1003 81 10000 6.7 220 10:21 10.03.2020
1578 Clouds 6 1003 81 10000 6.7 220 09:56 10.03.2020
1579 Rain 6 1003 81 10000 7.7 220 09:37 10.03.2020
1580 Rain 6 1004 81 10000 6.7 210 09:18 10.03.2020
1581 Rain 5 1004 81 10000 5.1 200 08:45 10.03.2020
1582 Rain 5 1004 81 10000 5.1 200 08:26 10.03.2020
1583 Rain 5 1005 81 10000 4.1 190 07:49 10.03.2020
1584 Rain 5 1005 81 10000 4.1 190 07:30 10.03.2020
1585 Drizzle 5 1004 86 6000 4.6 160 06:44 10.03.2020
1586 Rain 6 1005 81 10000 5.7 190 06:25 10.03.2020
1587 Rain 6 1005 81 10000 5.1 180 05:41 10.03.2020
1588 Clouds 6 1007 75 10000 3.6 180 04:38 10.03.2020
1589 Clouds 6 1008 75 10000 3.1 170 03:37 10.03.2020
1590 Clouds 5 1009 81 10000 4.1 190 02:26 10.03.2020
1591 Clouds 5 1010 75 10000 4.1 200 01:22 10.03.2020
1592 Clouds 5 1011 81 10000 2.6 200 00:42 10.03.2020
1593 Clouds 5 1012 81 10000 3.1 200 00:22 10.03.2020
1594 Clouds 5 1012 80 10000 2.6 190 23:40 09.03.2020
1595 Clear 6 1013 81 10000 3.1 210 23:21 09.03.2020
1596 Clouds 6 1013 81 10000 3.6 210 22:41 09.03.2020
1597 Clear 6 1013 70 10000 3.1 230 22:22 09.03.2020
1598 Clear 6 1013 70 10000 3.1 230 21:57 09.03.2020
1599 Clouds 6 1013 70 10000 3.6 240 21:39 09.03.2020
1600 Clouds 6 1013 70 10000 3.1 260 21:20 09.03.2020
1601 Clouds 6 1013 70 10000 3.1 260 20:56 09.03.2020
1602 Clouds 6 1013 75 10000 4.1 240 20:38 09.03.2020
1603 Clouds 6 1013 75 10000 3.1 240 20:20 09.03.2020
1604 Clouds 7 1013 75 10000 4.1 240 19:44 09.03.2020
1605 Clouds 7 1013 75 10000 2.6 250 19:25 09.03.2020
1606 Clouds 7 1013 75 10000 2.6 250 18:58 09.03.2020
1607 Clouds 7 1013 75 10000 2.6 250 18:58 09.03.2020
1608 Clouds 8 1013 65 10000 2.6 260 18:38 09.03.2020
1609 Clouds 8 1012 70 10000 3.6 260 18:20 09.03.2020
1610 Clouds 9 1012 66 10000 4.6 270 17:57 09.03.2020
1611 Clouds 9 1012 66 10000 4.6 270 17:38 09.03.2020
1612 Clouds 9 1012 66 10000 4.1 280 17:20 09.03.2020
1613 Clouds 9 1012 70 10000 5.1 270 16:58 09.03.2020
1614 Clouds 10 1012 70 10000 5.1 270 16:40 09.03.2020
1615 Clouds 10 1011 61 10000 7.2 260 16:22 09.03.2020
1616 Clouds 10 1011 61 10000 7.2 260 16:22 09.03.2020
1617 Clouds 9 1011 61 10000 7.2 260 15:58 09.03.2020
1618 Clouds 9 1011 61 10000 7.2 260 15:38 09.03.2020
1619 Clouds 10 1011 53 10000 5.7 260 15:20 09.03.2020
1620 Clouds 10 1011 53 10000 5.7 260 15:20 09.03.2020
1621 Clouds 10 1011 57 10000 5.7 270 14:55 09.03.2020
1622 Clouds 10 1011 57 10000 5.7 270 14:37 09.03.2020
1623 Clouds 10 1011 61 10000 5.1 280 14:18 09.03.2020
1624 Clouds 10 1011 62 10000 6.2 260 13:55 09.03.2020
1625 Clouds 10 1011 61 10000 5.1 270 13:37 09.03.2020
1626 Clouds 10 1011 61 10000 5.1 270 13:18 09.03.2020
1627 Clouds 10 1011 61 10000 6.2 270 12:43 09.03.2020
1628 Clouds 10 1010 66 10000 6.7 260 12:22 09.03.2020
1629 Clouds 10 1010 71 10000 6.2 270 11:55 09.03.2020
1630 Clouds 9 1010 70 10000 7.2 270 11:37 09.03.2020
1631 Clouds 9 1010 70 10000 7.2 270 11:19 09.03.2020
1632 Clouds 9 1010 70 10000 5.7 260 10:55 09.03.2020
1633 Clouds 9 1010 70 10000 5.7 260 10:36 09.03.2020
1634 Clouds 9 1010 70 10000 5.7 260 10:18 09.03.2020
1635 Clouds 8 1009 75 10000 3.6 250 09:39 09.03.2020
1636 Clouds 8 1009 75 10000 3.6 250 09:39 09.03.2020
1637 Clouds 8 1009 75 10000 3.6 250 09:21 09.03.2020
1638 Clouds 8 1009 75 10000 3.1 270 08:44 09.03.2020
1639 Clouds 8 1009 81 10000 4.1 250 08:26 09.03.2020
1640 Clouds 7 1008 87 10000 2.6 240 07:42 09.03.2020
1641 Clouds 7 1008 81 10000 3.1 260 07:22 09.03.2020
1642 Clouds 7 1008 75 10000 2.6 220 06:46 09.03.2020
1643 Clouds 7 1008 81 10000 3.1 230 06:27 09.03.2020
1644 Clouds 8 1007 81 10000 4.1 240 05:58 09.03.2020
1645 Clouds 8 1007 81 10000 4.1 240 05:39 09.03.2020
1646 Clouds 8 1007 76 10000 3.1 230 04:46 09.03.2020
1647 Rain 8 1007 76 10000 4.6 250 04:23 09.03.2020
1648 Clouds 9 1007 76 10000 5.7 240 03:29 09.03.2020
1649 Clouds 9 1007 81 10000 1.5 170 01:58 09.03.2020
1650 Clouds 9 1007 75 10000 2.1 160 00:42 09.03.2020
1651 Clouds 9 1008 76 10000 2.1 140 00:24 09.03.2020
1652 Clouds 9 1008 81 10000 1 170 23:55 08.03.2020
1653 Clouds 9 1008 76 10000 2.1 170 23:28 08.03.2020
1654 Clouds 9 1009 76 10000 2.1 150 22:58 08.03.2020
1655 Clouds 9 1009 76 10000 2.6 180 22:40 08.03.2020
1656 Clouds 9 1009 71 10000 3.6 190 22:21 08.03.2020
1657 Clouds 9 1009 76 10000 2.1 180 21:57 08.03.2020
1658 Clouds 9 1009 76 10000 2.1 180 21:39 08.03.2020
1659 Clouds 9 1009 76 10000 2.6 200 21:19 08.03.2020
1660 Clouds 9 1009 71 10000 3.1 200 20:56 08.03.2020
1661 Clouds 10 1010 76 10000 3.1 200 20:37 08.03.2020
1662 Clouds 10 1010 76 10000 3.1 200 20:19 08.03.2020
1663 Clouds 10 1010 71 10000 3.6 200 19:38 08.03.2020
1664 Clouds 9 1011 61 10000 5.7 220 19:19 08.03.2020
1665 Clouds 10 1011 61 10000 4.6 220 18:43 08.03.2020
1666 Clouds 10 1010 61 10000 5.7 230 18:24 08.03.2020
1667 Clouds 10 1010 61 10000 5.7 230 18:24 08.03.2020
1668 Clouds 10 1010 57 10000 5.7 210 17:58 08.03.2020
1669 Clouds 10 1011 57 10000 4.1 200 17:39 08.03.2020
1670 Clouds 11 1011 57 10000 4.1 200 17:20 08.03.2020
1671 Clouds 11 1011 57 10000 4.1 200 17:20 08.03.2020
1672 Clouds 11 1011 57 10000 4.1 200 16:57 08.03.2020
1673 Clouds 11 1011 57 10000 4.1 200 16:39 08.03.2020
1674 Clouds 11 1011 57 10000 4.1 200 16:20 08.03.2020
1675 Clouds 11 1010 57 10000 5.7 200 15:41 08.03.2020
1676 Clouds 11 1010 57 10000 5.7 200 15:21 08.03.2020
1677 Clouds 11 1011 57 10000 5.7 200 14:56 08.03.2020
1678 Clouds 11 1010 62 10000 5.1 180 14:37 08.03.2020
1679 Clouds 11 1012 57 10000 5.7 220 14:19 08.03.2020
1680 Clouds 11 1011 62 10000 5.7 190 13:41 08.03.2020
1681 Clouds 11 1013 61 10000 5.1 200 13:20 08.03.2020
1682 Clouds 10 1013 61 10000 5.1 200 12:49 08.03.2020
1683 Clouds 11 1012 66 10000 5.7 190 12:30 08.03.2020
1684 Clouds 10 1014 61 10000 6.7 210 11:59 08.03.2020
1685 Clouds 10 1013 66 10000 6.2 180 11:41 08.03.2020
1686 Clouds 9 1014 61 10000 6.7 210 11:21 08.03.2020
1687 Clouds 9 1013 66 10000 4.6 190 10:57 08.03.2020
1688 Clouds 9 1013 66 10000 4.6 190 10:39 08.03.2020
1689 Clouds 9 1015 65 10000 4.6 200 10:20 08.03.2020
1690 Clouds 8 1015 65 10000 3.1 190 09:38 08.03.2020
1691 Clouds 7 1015 65 10000 3.1 190 09:20 08.03.2020
1692 Clouds 6 1015 70 10000 2.6 160 08:43 08.03.2020
1693 Clouds 6 1015 70 10000 2.6 190 08:21 08.03.2020
1694 Clouds 6 1014 75 10000 3.1 180 07:49 08.03.2020
1695 Clouds 6 1014 75 10000 3.1 180 07:28 08.03.2020
1696 Clouds 5 1014 75 10000 3.1 190 06:45 08.03.2020
1697 Clouds 5 1014 70 10000 3.6 190 06:27 08.03.2020
1698 Clouds 5 1015 87 10000 2.6 160 05:43 08.03.2020
1699 Clouds 5 1016 70 10000 3.6 190 03:52 08.03.2020
1700 Clouds 5 1016 81 10000 3.1 180 02:59 08.03.2020
1701 Clouds 4 1017 84 10000 3.1 180 01:38 08.03.2020
1702 Clouds 4 1017 85 10000 3.1 180 01:19 08.03.2020
1703 Clouds 4 1017 85 10000 2.6 180 00:32 08.03.2020
1704 Clouds 3 1018 85 10000 2.1 180 23:59 07.03.2020
1705 Clouds 3 1018 85 10000 3.1 180 23:41 07.03.2020
1706 Clear 3 1018 83 10000 3.1 180 23:19 07.03.2020
1707 Clear 3 1018 83 10000 3.1 190 22:38 07.03.2020
1708 Clear 3 1018 83 10000 3.1 190 22:19 07.03.2020
1709 Clear 3 1018 83 10000 1 190 21:45 07.03.2020
1710 Clear 3 1018 83 10000 3.1 200 21:24 07.03.2020
1711 Clear 4 1018 86 10000 0.5 0 20:41 07.03.2020
1712 Clear 4 1018 83 10000 2.6 200 20:22 07.03.2020
1713 Clouds 4 1018 77 10000 1 200 19:55 07.03.2020
1714 Clouds 5 1018 70 10000 2.1 210 19:37 07.03.2020
1715 Clouds 5 1018 77 10000 1.5 220 19:18 07.03.2020
1716 Clouds 6 1018 77 10000 1.5 240 18:40 07.03.2020
1717 Clouds 6 1018 77 10000 3.1 290 18:21 07.03.2020
1718 Clouds 7 1017 77 10000 4.1 280 17:43 07.03.2020
1719 Clouds 7 1017 77 10000 5.1 280 17:21 07.03.2020
1720 Clouds 7 1017 65 10000 5.1 280 16:59 07.03.2020
1721 Clouds 7 1017 65 10000 5.1 280 16:41 07.03.2020
1722 Rain 7 1017 65 10000 5.1 280 16:22 07.03.2020
1723 Clouds 7 1016 65 10000 5.7 280 15:57 07.03.2020
1724 Clouds 7 1016 65 10000 5.7 280 15:39 07.03.2020
1725 Clouds 7 1016 65 10000 5.1 280 15:20 07.03.2020
1726 Clouds 7 1016 65 10000 4.6 280 14:54 07.03.2020
1727 Clouds 7 1015 70 10000 6.2 280 14:36 07.03.2020
1728 Clouds 7 1015 70 10000 6.2 280 14:18 07.03.2020
1729 Clouds 7 1015 63 10000 6.2 290 13:39 07.03.2020
1730 Clouds 7 1015 63 10000 6.2 290 13:20 07.03.2020
1731 Clouds 6 1015 75 10000 5.7 290 12:43 07.03.2020
1732 Clouds 6 1015 75 10000 5.7 290 12:21 07.03.2020
1733 Clouds 5 1015 75 10000 6.2 300 11:58 07.03.2020
1734 Clouds 5 1015 75 10000 6.2 300 11:58 07.03.2020
1735 Clouds 5 1015 75 10000 6.2 300 11:39 07.03.2020
1736 Clouds 5 1014 75 10000 5.7 300 11:21 07.03.2020
1737 Clouds 5 1013 80 10000 5.7 290 10:42 07.03.2020
1738 Clouds 5 1013 80 10000 5.1 290 10:21 07.03.2020
1739 Clouds 5 1013 80 10000 5.1 300 09:58 07.03.2020
1740 Clouds 5 1013 80 10000 5.1 300 09:39 07.03.2020
1741 Clouds 4 1012 86 9000 5.7 300 09:19 07.03.2020
1742 Clouds 4 1012 93 8000 3.6 280 08:44 07.03.2020
1743 Clouds 4 1012 93 9000 4.1 280 08:21 07.03.2020
1744 Clouds 4 1011 93 6000 3.1 280 07:55 07.03.2020
1745 Clouds 4 1011 93 8000 4.6 290 07:37 07.03.2020
1746 Clouds 4 1011 93 8000 5.7 290 07:19 07.03.2020
1747 Clouds 4 1007 97 0 1.79 314 06:37 07.03.2020
1748 Clouds 4 1007 97 0 1.79 307 05:57 07.03.2020
1749 Clouds 4 1008 93 9000 4.1 290 05:33 07.03.2020
1750 Clouds 4 1006 93 10000 6.2 300 02:58 07.03.2020
1751 Clouds 4 1006 93 10000 6.2 300 02:39 07.03.2020
1752 Clouds 4 1005 93 10000 3.1 300 01:47 07.03.2020
1753 Rain 4 1004 93 10000 5.1 310 00:43 07.03.2020
1754 Clouds 4 1004 93 10000 5.1 310 00:23 07.03.2020
1755 Clouds 4 1002 93 7000 3.6 310 23:58 06.03.2020
1756 Clouds 4 1003 93 10000 5.1 310 23:38 06.03.2020
1757 Clouds 4 1003 93 10000 5.1 310 23:38 06.03.2020
1758 Clouds 4 1002 93 10000 4.6 310 23:20 06.03.2020
1759 Drizzle 3 1000 93 8000 5.1 310 22:44 06.03.2020
1760 Drizzle 3 1000 93 8000 5.1 310 22:19 06.03.2020
1761 Drizzle 3 1000 93 9000 4.6 300 21:46 06.03.2020
1762 Drizzle 3 999 86 8000 3.6 300 21:20 06.03.2020
1763 Drizzle 3 999 93 8000 4.1 300 20:43 06.03.2020
1764 Drizzle 3 998 93 9000 4.6 300 20:22 06.03.2020
1765 Drizzle 3 997 93 10000 5.1 300 19:57 06.03.2020
1766 Drizzle 3 997 93 10000 5.1 300 19:39 06.03.2020
1767 Drizzle 3 997 93 10000 5.1 300 19:20 06.03.2020
1768 Drizzle 3 996 86 10000 5.1 300 18:42 06.03.2020
1769 Drizzle 3 995 86 10000 4.1 320 18:20 06.03.2020
1770 Drizzle 3 994 86 8000 4.1 340 17:56 06.03.2020
1771 Drizzle 3 994 86 8000 4.1 340 17:38 06.03.2020
1772 Drizzle 4 994 93 10000 4.1 350 17:20 06.03.2020
1773 Drizzle 4 993 93 10000 2.6 10 16:54 06.03.2020
1774 Drizzle 4 993 93 10000 2.6 10 16:36 06.03.2020
1775 Drizzle 4 993 93 10000 2.6 10 16:18 06.03.2020
1776 Rain 5 992 87 8000 2.1 30 15:41 06.03.2020
1777 Rain 5 992 93 8000 2.1 20 15:22 06.03.2020
1778 Rain 6 991 93 8000 2.1 30 14:40 06.03.2020
1779 Rain 6 991 93 10000 2.1 90 14:22 06.03.2020
1780 Rain 6 991 93 10000 2.6 80 13:55 06.03.2020
1781 Rain 6 991 93 10000 2.6 80 13:37 06.03.2020
1782 Rain 6 990 93 10000 2.6 80 13:18 06.03.2020
1783 Rain 6 990 93 10000 3.1 80 12:54 06.03.2020
1784 Rain 6 990 93 9000 2.6 80 12:36 06.03.2020
1785 Rain 6 990 93 9000 2.6 80 12:18 06.03.2020
1786 Clouds 6 990 93 9000 3.1 80 11:42 06.03.2020
1787 Rain 6 989 93 10000 3.6 90 11:20 06.03.2020
1788 Rain 6 989 93 7000 3.6 90 10:56 06.03.2020
1789 Rain 5 989 93 7000 2.6 80 10:36 06.03.2020
1790 Rain 5 989 93 7000 2.6 80 10:18 06.03.2020
1791 Rain 5 989 93 7000 2.6 70 09:42 06.03.2020
1792 Drizzle 5 988 93 5000 2.6 90 09:23 06.03.2020
1793 Drizzle 5 988 93 5000 2.6 90 09:23 06.03.2020
1794 Drizzle 5 988 93 5000 4.1 90 08:56 06.03.2020
1795 Drizzle 5 988 93 5000 4.1 90 08:38 06.03.2020
1796 Drizzle 5 988 93 3500 4.6 90 08:19 06.03.2020
1797 Drizzle 4 988 93 3100 4.1 90 07:45 06.03.2020
1798 Drizzle 4 988 93 5000 4.6 90 07:24 06.03.2020
1799 Drizzle 4 988 93 5000 4.1 90 06:47 06.03.2020
1800 Clouds 4 988 93 8000 4.1 90 06:28 06.03.2020
1801 Clouds 4 987 93 10000 6.7 80 05:39 06.03.2020
1802 Clouds 4 987 93 10000 6.2 70 05:20 06.03.2020
1803 Drizzle 4 988 93 10000 4.6 60 04:41 06.03.2020
1804 Rain 5 990 80 10000 4.1 80 01:45 06.03.2020
1805 Rain 5 989 86 10000 5.1 100 01:26 06.03.2020
1806 Rain 5 990 87 10000 6.2 100 00:59 06.03.2020
1807 Rain 6 990 65 10000 7.2 100 00:31 06.03.2020
1808 Clouds 6 990 56 10000 6.2 80 23:44 05.03.2020
1809 Clouds 6 990 87 10000 5.7 110 23:25 05.03.2020
1810 Clouds 6 991 52 10000 7.2 90 22:56 05.03.2020
1811 Clouds 6 990 65 10000 6.2 100 22:37 05.03.2020
1812 Clouds 7 992 68 10000 5.7 100 22:18 05.03.2020
1813 Clouds 7 992 68 10000 5.7 100 21:56 05.03.2020
1814 Clouds 7 992 68 10000 5.7 100 21:37 05.03.2020
1815 Clouds 7 993 68 10000 5.7 90 21:19 05.03.2020
1816 Clouds 7 993 68 10000 5.7 100 20:55 05.03.2020
1817 Clouds 8 994 52 10000 5.7 100 20:36 05.03.2020
1818 Clouds 8 994 52 10000 5.7 100 20:18 05.03.2020
1819 Clouds 8 994 69 10000 6.7 100 19:55 05.03.2020
1820 Clouds 8 994 69 10000 6.7 100 19:37 05.03.2020
1821 Clouds 8 994 61 10000 5.1 90 19:18 05.03.2020
1822 Clouds 8 994 69 10000 6.7 100 18:38 05.03.2020
1823 Clouds 8 994 61 10000 6.7 100 18:20 05.03.2020
1824 Clouds 8 995 61 10000 6.7 110 17:59 05.03.2020
1825 Clouds 8 995 61 10000 6.2 110 17:40 05.03.2020
1826 Clouds 8 995 61 10000 6.2 110 17:22 05.03.2020
1827 Clouds 8 996 61 10000 6.7 110 16:54 05.03.2020
1828 Clouds 9 996 65 10000 5.7 110 16:36 05.03.2020
1829 Clouds 9 996 65 10000 5.7 110 16:18 05.03.2020
1830 Clouds 9 997 61 10000 6.2 110 15:44 05.03.2020
1831 Clouds 9 998 61 10000 5.7 110 15:22 05.03.2020
1832 Clouds 9 998 65 10000 6.2 110 14:58 05.03.2020
1833 Clouds 9 998 65 10000 6.2 110 14:39 05.03.2020
1834 Clouds 8 999 65 10000 5.7 100 14:21 05.03.2020
1835 Clouds 8 999 65 10000 4.1 100 13:55 05.03.2020
1836 Clouds 8 1000 61 10000 4.6 120 13:36 05.03.2020
1837 Clouds 8 1000 61 10000 4.6 120 13:36 05.03.2020
1838 Clouds 8 1000 61 10000 4.6 120 13:18 05.03.2020
1839 Clouds 8 1001 65 10000 3.1 140 12:41 05.03.2020
1840 Clouds 7 1001 65 10000 3.6 150 12:20 05.03.2020
1841 Clouds 7 1001 65 10000 3.6 160 11:57 05.03.2020
1842 Clouds 7 1002 65 10000 3.1 140 11:37 05.03.2020
1843 Clouds 7 1002 65 10000 3.1 140 11:19 05.03.2020
1844 Clouds 6 1002 70 10000 2.6 130 10:57 05.03.2020
1845 Clouds 6 1002 70 10000 2.6 130 10:39 05.03.2020
1846 Clouds 5 1003 75 10000 2.6 170 10:21 05.03.2020
1847 Clouds 4 1003 86 10000 2.1 110 09:46 05.03.2020
1848 Clouds 4 1004 86 10000 2.1 110 09:28 05.03.2020
1849 Clouds 3 1004 72 10000 2.1 110 08:59 05.03.2020
1850 Clouds 3 1004 72 10000 2.1 110 08:41 05.03.2020
1851 Clouds 2 1004 72 10000 2.1 110 08:21 05.03.2020
1852 Clouds 1 1005 89 10000 1.5 100 07:41 05.03.2020
1853 Clouds 1 1005 89 10000 1.5 100 07:19 05.03.2020
1854 Clouds 1 1004 100 10000 0.5 130 06:43 05.03.2020
1855 Clouds 1 1005 86 10000 2.1 150 06:19 05.03.2020
1856 Clouds 1 1005 86 10000 1.5 140 05:35 05.03.2020
1857 Clouds 1 1006 86 10000 1.5 140 04:23 05.03.2020
1858 Clouds 1 1006 86 10000 1.5 140 04:23 05.03.2020
1859 Fog 2 1006 100 10000 0.5 90 03:58 05.03.2020
1860 Clouds 2 1007 93 10000 1.5 150 02:32 05.03.2020
1861 Clouds 2 1008 86 10000 0.5 0 01:26 05.03.2020
1862 Fog 2 1008 100 10000 0.5 150 00:50 05.03.2020
1863 Fog 2 1008 93 10000 2.59 209 23:57 04.03.2020
1864 Fog 2 1008 93 10000 2.59 209 23:39 04.03.2020
1865 Clouds 2 1009 93 10000 2.1 170 23:21 04.03.2020
1866 Clouds 3 1009 100 10000 2.72 210 22:56 04.03.2020
1867 Clouds 3 1009 80 10000 2.1 200 22:37 04.03.2020
1868 Clouds 3 1009 80 10000 2.1 200 22:19 04.03.2020
1869 Clouds 3 1009 80 10000 2.1 210 21:55 04.03.2020
1870 Clouds 3 1009 80 10000 2.1 210 21:37 04.03.2020
1871 Clouds 4 1009 75 10000 2.6 230 21:18 04.03.2020
1872 Clouds 4 1009 80 10000 2.1 260 20:40 04.03.2020
1873 Clouds 4 1009 80 10000 2.1 260 20:40 04.03.2020
1874 Clouds 4 1009 75 10000 1 0 20:22 04.03.2020
1875 Clouds 4 1009 80 10000 3.6 230 19:58 04.03.2020
1876 Clouds 4 1009 80 10000 3.6 230 19:39 04.03.2020
1877 Clouds 4 1009 86 10000 3.1 210 19:21 04.03.2020
1878 Clouds 5 1009 80 10000 2.1 280 18:42 04.03.2020
1879 Clouds 5 1009 80 10000 2.1 280 18:42 04.03.2020
1880 Clouds 5 1009 75 10000 1.5 0 18:24 04.03.2020
1881 Rain 6 1009 75 10000 1.5 250 17:59 04.03.2020
1882 Rain 6 1009 75 10000 1.5 250 17:39 04.03.2020
1883 Clouds 6 1009 75 10000 3.1 260 17:20 04.03.2020
1884 Clouds 7 1009 70 10000 2.6 230 16:57 04.03.2020
1885 Clouds 7 1009 70 10000 2.6 230 16:38 04.03.2020
1886 Clouds 7 1009 75 10000 5.1 250 16:19 04.03.2020
1887 Clouds 7 1009 75 10000 6.2 260 15:45 04.03.2020
1888 Clouds 7 1009 75 10000 5.7 250 15:27 04.03.2020
1889 Clouds 7 1009 75 10000 4.1 240 14:59 04.03.2020
1890 Clouds 7 1009 75 10000 4.1 240 14:41 04.03.2020
1891 -273 0 0 0 0 0 14:21 04.03.2020
1892 Clouds 6 1009 75 10000 4.6 230 13:58 04.03.2020
1893 Clouds 6 1009 75 10000 4.6 230 13:58 04.03.2020
1894 Clouds 6 1009 75 10000 4.6 230 13:39 04.03.2020
1895 Clouds 6 1009 70 10000 4.6 240 13:21 04.03.2020
1896 Clouds 5 1009 70 10000 5.1 240 12:56 04.03.2020
1897 Clouds 6 1009 70 10000 5.1 240 12:38 04.03.2020
1898 Clouds 5 1009 70 10000 5.7 240 12:20 04.03.2020
1899 Clouds 5 1009 70 10000 5.7 240 11:55 04.03.2020
1900 Rain 5 1009 70 10000 4.6 240 11:37 04.03.2020
1901 Clouds 5 1009 70 10000 4.6 240 11:19 04.03.2020
1902 Clouds 5 1009 75 10000 4.6 220 10:42 04.03.2020
1903 Clouds 5 1009 75 10000 4.6 230 10:23 04.03.2020
1904 Clouds 5 1009 80 10000 3.6 220 09:56 04.03.2020
1905 Clouds 4 1009 80 10000 3.6 220 09:38 04.03.2020
1906 Clouds 4 1009 86 10000 2.6 220 09:18 04.03.2020
1907 Clouds 4 1009 81 10000 3.6 220 08:41 04.03.2020
1908 Clouds 3 1009 91 10000 3.6 230 08:23 04.03.2020
1909 Clouds 2 1009 93 10000 4.1 220 07:48 04.03.2020
1910 Drizzle 2 1009 93 10000 3.6 220 07:29 04.03.2020
1911 Clouds 2 1008 93 10000 2.1 210 06:53 04.03.2020
1912 Clouds 2 1008 86 10000 2.6 200 06:26 04.03.2020
1913 Clouds 2 1008 86 10000 2.6 200 06:26 04.03.2020
1914 Clouds 2 1008 93 10000 1 220 05:58 04.03.2020
1915 Clouds 2 1008 93 10000 1.5 210 05:28 04.03.2020
1916 Clouds 2 1008 90 10000 2.1 220 03:57 04.03.2020
1917 Clouds 2 1008 90 10000 1.5 230 03:35 04.03.2020
1918 Clouds 2 1008 93 10000 2.6 240 02:58 04.03.2020
1919 Clear 1 1007 90 0 1.5 260 02:30 04.03.2020
1920 Clouds 1 1007 87 10000 1 210 01:56 04.03.2020
1921 Clouds 1 1007 87 10000 2.6 230 01:37 04.03.2020
1922 Clouds 2 1007 93 10000 2.1 240 00:42 04.03.2020
1923 Clouds 2 1007 93 10000 2.1 220 00:24 04.03.2020
1924 Clouds 2 1006 86 10000 2.6 230 23:44 03.03.2020
1925 Clouds 2 1006 86 10000 1.5 230 23:24 03.03.2020
1926 Clouds 3 1006 80 10000 1.5 240 22:56 03.03.2020
1927 Clouds 3 1006 80 10000 3.1 270 22:38 03.03.2020
1928 Clouds 3 1006 80 10000 3.1 270 22:19 03.03.2020
1929 Clouds 3 1006 82 10000 3.1 270 21:56 03.03.2020
1930 Clouds 4 1005 82 10000 2.1 250 21:36 03.03.2020
1931 Clouds 4 1005 82 10000 2.1 250 21:18 03.03.2020
1932 Clouds 4 1005 82 10000 2.1 250 21:18 03.03.2020
1933 Clouds 4 1005 82 10000 3.1 240 20:40 03.03.2020
1934 Clouds 4 1004 74 10000 2.6 240 20:20 03.03.2020
1935 Clouds 4 1004 74 10000 2.6 240 20:20 03.03.2020
1936 Clouds 4 1004 75 10000 3.1 240 19:59 03.03.2020
1937 Clouds 4 1004 75 10000 3.1 240 19:37 03.03.2020
1938 Clouds 4 1004 75 10000 3.1 240 19:37 03.03.2020
1939 Clouds 4 1004 75 10000 3.1 220 19:19 03.03.2020
1940 Clouds 5 1003 75 10000 5.1 240 18:58 03.03.2020
1941 Clouds 5 1003 74 10000 5.1 240 18:40 03.03.2020
1942 Clouds 5 1003 74 10000 5.1 240 18:40 03.03.2020
1943 Clouds 6 1002 56 10000 3.6 290 18:21 03.03.2020
1944 Clouds 6 1002 52 10000 3.6 300 17:57 03.03.2020
1945 Clouds 7 1002 52 10000 3.6 300 17:39 03.03.2020
1946 Clouds 7 1002 52 10000 4.6 290 17:21 03.03.2020
1947 Clouds 8 1001 49 10000 4.1 270 16:57 03.03.2020
1948 Clouds 8 1001 49 10000 4.1 270 16:37 03.03.2020
1949 Clouds 8 1001 61 10000 3.6 290 16:19 03.03.2020
1950 Clouds 8 1001 59 10000 5.1 280 15:44 03.03.2020
1951 Clouds 8 1000 52 10000 6.2 300 15:22 03.03.2020
1952 Clouds 8 1000 61 10000 5.1 300 14:57 03.03.2020
1953 Clouds 8 1000 61 10000 5.1 300 14:38 03.03.2020
1954 Clouds 8 1000 61 10000 6.2 300 14:19 03.03.2020
1955 Clouds 8 1000 61 10000 5.7 290 13:56 03.03.2020
1956 Clouds 8 1000 65 10000 7.2 290 13:38 03.03.2020
1957 Clouds 8 1000 65 10000 7.2 290 13:19 03.03.2020
1958 Clouds 8 1000 65 10000 6.7 290 12:46 03.03.2020
1959 Clouds 7 999 75 10000 6.2 300 12:25 03.03.2020
1960 Clouds 7 999 81 10000 6.7 290 11:57 03.03.2020
1961 Clouds 7 999 81 10000 6.7 290 11:37 03.03.2020
1962 Clouds 6 999 81 10000 6.2 280 11:18 03.03.2020
1963 Clouds 6 999 86 10000 6.7 280 10:55 03.03.2020
1964 Clouds 6 999 86 10000 6.7 280 10:37 03.03.2020
1965 Rain 5 998 86 10000 6.2 290 10:18 03.03.2020
1966 Rain 5 998 93 4500 4.6 290 09:44 03.03.2020
1967 Rain 5 998 93 7000 4.1 280 09:22 03.03.2020
1968 Rain 5 997 86 7000 4.1 280 08:57 03.03.2020
1969 Rain 5 997 86 10000 4.6 280 08:39 03.03.2020
1970 Rain 5 997 86 10000 4.6 280 08:20 03.03.2020
1971 Rain 5 996 93 10000 4.1 280 07:43 03.03.2020
1972 Rain 5 996 93 9000 3.1 250 07:20 03.03.2020
1973 Rain 5 996 100 6000 3.1 250 06:43 03.03.2020
1974 Rain 5 996 93 9000 3.6 270 06:23 03.03.2020
1975 Rain 5 995 93 4000 1.5 240 05:47 03.03.2020
1976 Rain 5 995 93 8000 5.1 260 05:18 03.03.2020
1977 Rain 5 994 93 10000 2.1 240 04:25 03.03.2020
1978 Rain 6 993 87 10000 1 120 01:40 03.03.2020
1979 Rain 6 993 75 10000 3.1 120 00:49 03.03.2020
1980 Rain 6 992 75 10000 2.1 150 00:27 03.03.2020
1981 Clouds 6 992 75 10000 2.1 100 23:59 02.03.2020
1982 Clouds 6 992 75 10000 2.1 100 23:40 02.03.2020
1983 Clouds 6 992 70 10000 2.1 120 23:22 02.03.2020
1984 Clouds 6 992 70 10000 2.6 90 22:55 02.03.2020
1985 Clouds 6 992 70 10000 2.6 100 22:37 02.03.2020
1986 Clouds 7 992 70 10000 2.6 100 22:18 02.03.2020
1987 Clouds 7 992 70 10000 3.1 110 21:42 02.03.2020
1988 Clouds 7 992 75 10000 2.6 110 21:24 02.03.2020
1989 Clouds 7 992 70 10000 3.1 110 20:59 02.03.2020
1990 Clouds 7 992 70 10000 3.1 110 20:41 02.03.2020
1991 Clouds 7 992 70 10000 2.1 100 20:21 02.03.2020
1992 Clouds 7 992 65 10000 2.1 100 19:57 02.03.2020
1993 Clouds 7 992 65 10000 2.1 100 19:39 02.03.2020
1994 Clouds 8 992 65 10000 3.1 130 19:20 02.03.2020
1995 Clouds 8 991 61 10000 4.1 120 18:55 02.03.2020
1996 Clouds 8 991 61 10000 3.6 120 18:37 02.03.2020
1997 Clouds 8 991 61 10000 3.6 120 18:18 02.03.2020
1998 Clouds 9 991 73 10000 4.6 130 17:55 02.03.2020
1999 Clouds 9 991 73 10000 4.6 130 17:37 02.03.2020
2000 Clouds 9 991 57 10000 4.6 120 17:18 02.03.2020
2001 Clouds 10 991 57 10000 5.1 120 16:41 02.03.2020
2002 Clouds 10 991 57 10000 5.1 120 16:22 02.03.2020
2003 Clouds 10 991 60 10000 4.6 120 15:45 02.03.2020
2004 Clouds 10 991 53 10000 3.1 110 15:22 02.03.2020
2005 Clouds 10 991 60 10000 3.6 130 14:57 02.03.2020
2006 Clouds 10 992 57 10000 3.6 130 14:37 02.03.2020
2007 Clouds 10 992 57 10000 3.6 130 14:19 02.03.2020
2008 Clouds 9 993 57 10000 3.6 200 13:44 02.03.2020
2009 Clouds 9 993 57 10000 3.6 200 13:20 02.03.2020
2010 Clouds 9 993 57 10000 3.1 170 12:59 02.03.2020
2011 Clouds 9 993 57 10000 3.1 170 12:41 02.03.2020
2012 Clouds 8 994 61 10000 4.1 200 12:19 02.03.2020
2013 Clouds 8 994 70 10000 5.1 230 11:39 02.03.2020
2014 Clouds 8 994 70 10000 4.1 220 11:19 02.03.2020
2015 Clouds 7 994 75 10000 4.6 230 10:56 02.03.2020
2016 Clouds 7 994 75 10000 4.6 230 10:37 02.03.2020
2017 Clouds 6 994 81 10000 4.6 220 10:19 02.03.2020
2018 Clouds 6 994 81 10000 3.1 230 09:49 02.03.2020
2019 Clouds 5 993 86 10000 2.6 240 09:31 02.03.2020
2020 Clouds 5 993 86 10000 2.1 260 08:49 02.03.2020
2021 Clouds 4 993 86 10000 3.1 260 08:23 02.03.2020
2022 Clouds 4 993 93 10000 4.1 260 07:52 02.03.2020
2023 Drizzle 4 993 93 10000 4.1 250 07:33 02.03.2020
2024 Clouds 4 993 93 10000 4.1 250 06:53 02.03.2020
2025 Clouds 4 993 86 10000 4.6 240 06:28 02.03.2020
2026 Clouds 5 992 93 10000 3.1 250 05:27 02.03.2020
2027 Drizzle 5 991 93 10000 1 230 03:59 02.03.2020
2028 Rain 5 991 93 10000 2.1 260 03:19 02.03.2020
2029 Rain 5 991 93 10000 1 0 02:36 02.03.2020
2030 Rain 5 991 93 10000 1.5 230 01:41 02.03.2020
2031 Rain 5 991 93 10000 3.1 170 01:22 02.03.2020
2032 Rain 6 991 70 10000 3.1 180 00:23 02.03.2020
2033 Rain 6 992 70 10000 1 150 23:56 01.03.2020
2034 Rain 6 992 96 10000 3.1 130 23:38 01.03.2020
2035 Clouds 6 992 80 10000 3.1 130 23:19 01.03.2020
2036 Clouds 6 993 80 10000 2.6 130 22:42 01.03.2020
2037 Clouds 6 993 56 10000 2.6 140 22:19 01.03.2020
2038 Clouds 6 993 56 10000 3.1 140 21:55 01.03.2020
2039 Clouds 6 993 56 10000 3.1 150 21:37 01.03.2020
2040 Clouds 6 993 56 10000 3.1 150 21:18 01.03.2020
2041 Clouds 6 993 80 10000 2.1 160 20:43 01.03.2020
2042 Clouds 7 993 73 10000 2.6 160 20:24 01.03.2020
2043 Clouds 7 994 56 10000 2.1 170 19:54 01.03.2020
2044 Clouds 7 994 49 10000 2.1 180 19:36 01.03.2020
2045 Clouds 7 994 49 10000 2.1 180 19:18 01.03.2020
2046 Clouds 8 994 52 10000 3.1 220 18:40 01.03.2020
2047 Clouds 8 994 49 10000 4.1 230 18:20 01.03.2020
2048 Clouds 9 994 49 10000 3.6 230 17:58 01.03.2020
2049 Clouds 9 994 49 10000 3.6 230 17:40 01.03.2020
2050 Rain 9 994 59 10000 4.6 240 17:21 01.03.2020
2051 Clouds 9 994 49 10000 7.2 240 16:57 01.03.2020
2052 Clouds 10 994 49 10000 7.2 240 16:39 01.03.2020
2053 Clouds 10 994 59 10000 6.2 240 16:18 01.03.2020
2054 Clouds 10 994 59 10000 6.2 240 16:18 01.03.2020
2055 Clouds 10 994 59 10000 6.7 240 15:57 01.03.2020
2056 Clouds 10 994 59 10000 6.7 240 15:39 01.03.2020
2057 Clouds 10 994 59 10000 7.7 240 15:20 01.03.2020
2058 Clouds 10 994 57 10000 6.7 240 14:57 01.03.2020
2059 Clouds 9 994 61 10000 6.7 230 14:38 01.03.2020
2060 Clouds 9 994 61 10000 6.7 230 14:20 01.03.2020
2061 Clouds 9 994 57 10000 6.7 230 13:56 01.03.2020
2062 Clouds 9 994 57 10000 6.7 230 13:37 01.03.2020
2063 Clouds 9 994 61 10000 7.7 230 13:19 01.03.2020
2064 Clouds 9 993 58 10000 9.3 220 12:43 01.03.2020
2065 Clouds 9 993 58 10000 9.3 220 12:43 01.03.2020
2066 Clouds 9 994 61 10000 8.7 230 12:22 01.03.2020
2067 Clouds 8 994 57 10000 8.2 220 11:58 01.03.2020
2068 Clouds 8 994 57 10000 8.2 220 11:39 01.03.2020
2069 Clouds 8 994 57 10000 7.7 220 11:19 01.03.2020
2070 Clouds 8 993 68 10000 6.7 210 10:55 01.03.2020
2071 Rain 8 994 65 10000 6.2 220 10:36 01.03.2020
2072 Clouds 8 994 65 10000 6.2 220 10:18 01.03.2020
2073 Clouds 7 994 68 10000 6.2 220 09:41 01.03.2020
2074 Clouds 7 994 71 10000 6.2 220 09:22 01.03.2020
2075 Clouds 6 993 56 10000 6.2 210 08:46 01.03.2020
2076 Clouds 6 993 71 10000 7.2 230 08:27 01.03.2020
2077 Clouds 5 993 60 10000 5.7 210 07:56 01.03.2020
2078 Clouds 5 993 80 10000 6.2 220 07:38 01.03.2020
2079 Clouds 5 993 80 10000 7.2 220 07:19 01.03.2020
2080 Clouds 5 993 80 10000 6.7 220 06:41 01.03.2020
2081 Clouds 5 993 80 10000 6.2 220 05:35 01.03.2020
2082 Clouds 5 994 60 10000 6.2 210 02:59 01.03.2020
2083 Clouds 6 994 78 10000 7.2 220 02:23 01.03.2020
2084 Clouds 6 993 56 10000 6.7 210 01:45 01.03.2020
2085 Clouds 6 993 75 10000 6.2 210 00:59 01.03.2020
2086 Clouds 6 993 75 10000 7.2 230 00:39 01.03.2020
2087 Clouds 6 993 70 10000 7.2 220 00:18 01.03.2020
2088 Clouds 6 993 65 10000 6.2 210 23:40 29.02.2020
2089 Clouds 6 993 70 10000 6.2 230 23:22 29.02.2020
2090 Clouds 7 993 79 10000 4.6 230 22:39 29.02.2020
2091 Clouds 7 993 70 10000 4.1 230 22:21 29.02.2020
2092 Clouds 7 992 65 10000 6.7 230 21:41 29.02.2020
2093 Rain 7 992 65 10000 8.7 250 21:21 29.02.2020
2094 Clouds 7 991 65 10000 8.2 240 20:42 29.02.2020
2095 Rain 8 991 65 10000 6.2 250 20:21 29.02.2020
2096 Clouds 8 990 70 10000 8.7 240 19:56 29.02.2020
2097 Clouds 8 990 70 10000 8.7 240 19:56 29.02.2020
2098 Clouds 8 990 75 10000 8.2 260 19:37 29.02.2020
2099 Rain 8 989 70 10000 7.7 250 19:19 29.02.2020
2100 Rain 9 989 76 10000 11.3 230 18:42 29.02.2020
2101 Rain 11 988 62 10000 4.6 160 18:23 29.02.2020
2102 Rain 12 986 58 10000 5.7 180 17:57 29.02.2020
2103 Rain 12 988 54 10000 6.2 180 17:39 29.02.2020
2104 Clouds 12 988 54 10000 6.2 180 17:20 29.02.2020
2105 Clouds 13 989 54 10000 6.2 200 16:45 29.02.2020
2106 Clouds 13 989 54 10000 6.2 200 16:21 29.02.2020
2107 Clouds 13 990 54 10000 5.7 190 15:58 29.02.2020
2108 Clouds 13 990 54 10000 5.7 190 15:40 29.02.2020
2109 Clouds 13 990 54 10000 5.7 190 15:40 29.02.2020
2110 Clouds 13 990 62 10000 4.1 160 15:21 29.02.2020
2111 Clouds 13 991 66 10000 6.2 150 14:41 29.02.2020
2112 Clouds 13 991 58 10000 6.2 170 14:22 29.02.2020
2113 Clouds 13 992 58 10000 4.1 170 13:56 29.02.2020
2114 Clouds 12 993 58 10000 5.7 180 13:37 29.02.2020
2115 Clouds 12 993 58 10000 5.7 180 13:18 29.02.2020
2116 Clouds 12 994 62 10000 5.7 200 12:42 29.02.2020
2117 Clouds 11 994 66 10000 6.7 210 12:21 29.02.2020
2118 Clouds 10 995 66 10000 6.2 200 11:56 29.02.2020
2119 Clouds 10 995 66 10000 6.2 200 11:38 29.02.2020
2120 Clouds 10 995 66 10000 4.6 200 11:20 29.02.2020
2121 Clouds 9 996 70 10000 7.2 210 10:46 29.02.2020
2122 Clouds 9 996 75 10000 6.2 210 10:28 29.02.2020
2123 Clouds 8 996 75 10000 6.2 210 09:48 29.02.2020
2124 Clouds 7 996 81 10000 4.6 210 09:25 29.02.2020
2125 Clouds 7 995 87 10000 3.6 180 08:42 29.02.2020
2126 Clouds 7 995 87 10000 5.7 200 08:23 29.02.2020
2127 Rain 6 996 87 10000 3.6 180 07:59 29.02.2020
2128 Rain 6 996 87 10000 3.6 180 07:41 29.02.2020
2129 Clouds 6 996 87 10000 5.1 190 07:18 29.02.2020
2130 Rain 6 997 93 10000 3.1 180 06:45 29.02.2020
2131 Clouds 6 997 87 10000 4.6 190 06:25 29.02.2020
2132 Clouds 5 998 93 8000 4.6 180 05:47 29.02.2020
2133 Rain 4 999 93 7000 4.1 180 04:46 29.02.2020
2134 Snow 4 999 93 6000 3.6 170 03:43 29.02.2020
2135 Rain 3 1000 93 10000 5.1 190 03:22 29.02.2020
2136 Rain 3 1000 93 10000 4.6 180 02:38 29.02.2020
2137 Snow 2 1002 93 10000 4.6 150 01:23 29.02.2020
2138 Snow 2 1003 100 10000 5.7 160 00:37 29.02.2020
2139 Snow 2 1005 93 6000 6.2 140 23:56 28.02.2020
2140 Rain 2 1009 56 10000 4.6 180 23:36 28.02.2020
2141 Clouds 3 1009 56 10000 4.6 180 23:18 28.02.2020
2142 Clouds 4 1009 64 10000 3.1 170 22:41 28.02.2020
2143 Clouds 4 1009 64 10000 3.1 170 22:19 28.02.2020
2144 Clouds 5 1009 64 10000 3.1 170 21:41 28.02.2020
2145 Clouds 4 1010 64 10000 4.1 170 21:21 28.02.2020
2146 Clouds 4 1010 64 10000 3.1 170 20:56 28.02.2020
2147 Clouds 4 1011 64 10000 3.1 170 20:37 28.02.2020
2148 Clouds 4 1011 64 10000 3.1 170 20:19 28.02.2020
2149 Clouds 4 1011 64 10000 3.1 170 20:19 28.02.2020
2150 Clouds 4 1012 64 10000 2.6 170 19:56 28.02.2020
2151 Clouds 5 1012 64 10000 2.6 170 19:37 28.02.2020
2152 Clouds 5 1012 60 10000 2.6 180 19:19 28.02.2020
2153 Clouds 5 1013 60 10000 3.1 230 18:46 28.02.2020
2154 Clouds 5 1013 56 10000 4.6 230 18:23 28.02.2020
2155 Clouds 5 1013 56 10000 4.1 230 17:41 28.02.2020
2156 Clouds 6 1013 52 10000 6.2 230 17:23 28.02.2020
2157 Clouds 6 1013 52 10000 6.2 230 17:23 28.02.2020
2158 Clouds 6 1014 52 10000 6.2 230 16:56 28.02.2020
2159 Clouds 6 1014 52 10000 6.2 230 16:37 28.02.2020
2160 Clouds 7 1014 56 10000 7.7 240 16:19 28.02.2020
2161 Clouds 7 1014 56 10000 6.7 260 15:55 28.02.2020
2162 Clouds 7 1014 56 10000 7.2 250 15:37 28.02.2020
2163 Clouds 7 1014 56 10000 7.2 250 15:18 28.02.2020
2164 Clouds 7 1014 65 10000 6.7 250 14:42 28.02.2020
2165 Clouds 7 1014 64 10000 7.2 260 14:19 28.02.2020
2166 Clouds 7 1014 64 10000 7.2 260 13:58 28.02.2020
2167 Clouds 7 1014 64 10000 7.2 260 13:40 28.02.2020
2168 Clouds 7 1014 64 10000 7.7 260 13:19 28.02.2020
2169 Clouds 7 1014 65 10000 8.2 270 12:45 28.02.2020
2170 Clouds 6 1014 70 10000 8.2 260 12:27 28.02.2020
2171 Clouds 6 1014 75 10000 7.2 270 11:56 28.02.2020
2172 Clouds 5 1014 75 10000 7.2 260 11:37 28.02.2020
2173 Clouds 5 1014 75 10000 7.2 260 11:19 28.02.2020
2174 Clouds 5 1013 75 10000 6.7 270 10:43 28.02.2020
2175 Clouds 4 1013 80 10000 6.7 260 10:24 28.02.2020
2176 Clouds 4 1013 80 10000 7.2 260 09:49 28.02.2020
2177 Clouds 4 1013 80 10000 7.2 260 09:49 28.02.2020
2178 Clouds 4 1013 80 10000 7.2 260 09:49 28.02.2020
2179 Clouds 4 1013 80 10000 7.2 260 09:49 28.02.2020
2180 Clouds 4 1013 80 10000 7.2 260 09:49 28.02.2020
2181 Clouds 3 1013 86 10000 6.2 270 09:22 28.02.2020
2182 Clouds 3 1012 77 10000 5.7 260 08:59 28.02.2020
2183 Clouds 3 1012 77 10000 5.7 260 08:41 28.02.2020
2184 Clouds 3 1012 88 10000 4.6 270 08:20 28.02.2020
2185 Clouds 2 1011 88 10000 5.1 270 07:45 28.02.2020
2186 Clouds 2 1011 88 10000 6.2 280 07:25 28.02.2020
2187 Clouds 2 1010 88 10000 6.2 280 06:50 28.02.2020
2188 Clouds 2 1010 88 10000 5.7 280 06:29 28.02.2020
2189 Drizzle 2 1009 88 10000 6.7 280 05:29 28.02.2020
2190 Clouds 2 1008 93 10000 6.7 270 04:31 28.02.2020
2191 Snow 2 1006 100 10000 4.1 250 02:48 28.02.2020
2192 Snow 2 1006 93 10000 4.1 250 02:28 28.02.2020
2193 Rain 2 1005 93 10000 3.1 250 01:46 28.02.2020
2194 Clouds 2 1003 84 10000 3.1 310 00:31 28.02.2020
2195 Clouds 2 1003 80 10000 3.6 300 23:47 27.02.2020
2196 Rain 2 1003 93 10000 2.1 270 23:22 27.02.2020
2197 Clouds 2 1002 93 10000 4.1 310 22:58 27.02.2020
2198 Rain 2 1002 93 10000 2.6 320 22:39 27.02.2020
2199 Clouds 2 999 74 10000 1 0 22:21 27.02.2020
2200 Clouds 2 999 74 10000 1 0 21:42 27.02.2020
2201 Clouds 2 999 64 10000 1.5 0 21:23 27.02.2020
2202 Clouds 3 998 69 10000 1 0 20:59 27.02.2020
2203 Clouds 3 998 69 10000 1 0 20:41 27.02.2020
2204 Clouds 3 998 74 10000 1 0 20:22 27.02.2020
2205 Clouds 3 998 74 10000 1 0 20:22 27.02.2020
2206 Snow 3 997 69 10000 1 0 19:57 27.02.2020
2207 Snow 4 997 69 10000 1 0 19:39 27.02.2020
2208 Snow 4 997 69 10000 0.5 0 19:20 27.02.2020
2209 Clouds 4 996 69 10000 1 350 18:55 27.02.2020
2210 Clouds 4 996 69 10000 0.5 0 18:37 27.02.2020
2211 Clouds 4 996 69 10000 0.5 0 18:18 27.02.2020
2212 Rain 5 996 60 10000 1 0 17:54 27.02.2020
2213 Rain 5 996 65 10000 2.1 100 17:36 27.02.2020
2214 Rain 5 996 65 10000 2.1 100 17:18 27.02.2020
2215 Clouds 5 997 65 10000 2.1 120 16:41 27.02.2020
2216 Clouds 5 997 60 10000 1 0 16:41 27.02.2020
2217 Clouds 5 997 60 10000 1 0 16:20 27.02.2020
2218 -273 0 0 0 0 0 15:59 27.02.2020
2219 Clouds 6 998 56 10000 2.1 210 15:38 27.02.2020
2220 Clouds 6 998 56 10000 2.1 210 15:20 27.02.2020
2221 Clouds 6 998 60 10000 3.6 210 14:59 27.02.2020
2222 Clouds 6 998 60 10000 3.6 210 14:38 27.02.2020
2223 Clouds 6 999 60 10000 2.6 230 14:20 27.02.2020
2224 Clouds 6 999 65 10000 3.6 230 13:43 27.02.2020
2225 Clouds 5 1000 65 10000 3.6 230 13:22 27.02.2020
2226 Clouds 5 1001 65 10000 4.6 220 12:57 27.02.2020
2227 Clouds 5 1001 65 10000 4.6 220 12:39 27.02.2020
2228 Clouds 5 1001 65 10000 4.6 240 12:19 27.02.2020
2229 Clouds 4 1001 69 10000 4.1 230 11:45 27.02.2020
2230 Clouds 5 1002 69 10000 4.6 260 11:22 27.02.2020
2231 Clouds 4 1002 69 10000 5.1 250 10:55 27.02.2020
2232 Clouds 4 1002 80 10000 5.1 240 10:37 27.02.2020
2233 Clouds 4 1002 80 10000 5.1 240 10:18 27.02.2020
2234 Clouds 4 1002 80 10000 4.6 240 09:40 27.02.2020
2235 Clouds 3 1002 80 10000 5.1 240 09:22 27.02.2020
2236 Clouds 3 1002 80 10000 4.1 240 08:44 27.02.2020
2237 Clouds 3 1002 81 10000 4.1 250 08:25 27.02.2020
2238 Clouds 2 1002 80 10000 5.1 240 07:51 27.02.2020
2239 Clouds 2 1002 91 10000 5.1 250 07:30 27.02.2020
2240 Clouds 2 1002 93 10000 5.7 240 06:59 27.02.2020
2241 Clouds 2 1003 93 10000 4.1 240 06:20 27.02.2020
2242 Clouds 3 1003 93 10000 3.6 240 04:24 27.02.2020
2243 Clouds 3 1002 93 10000 4.6 250 02:58 27.02.2020
2244 Clouds 3 1002 93 10000 4.6 260 01:28 27.02.2020
2245 Rain 2 1002 100 8000 3.1 250 00:41 27.02.2020
2246 Clouds 2 1001 93 5000 4.1 260 23:41 26.02.2020
2247 Clouds 3 1001 93 5000 4.1 260 23:21 26.02.2020
2248 Rain 3 1001 93 7000 3.6 250 22:59 26.02.2020
2249 Rain 3 1001 93 7000 3.6 250 22:40 26.02.2020
2250 Clouds 3 1001 86 10000 6.2 270 22:22 26.02.2020
2251 Clouds 2 1000 86 10000 5.1 270 21:59 26.02.2020
2252 Clouds 3 1000 86 10000 5.1 270 21:39 26.02.2020
2253 Clouds 3 1000 86 10000 4.6 280 21:20 26.02.2020
2254 Rain 3 1000 93 10000 4.6 270 20:56 26.02.2020
2255 Rain 3 1000 93 10000 4.6 270 20:56 26.02.2020
2256 Rain 3 1000 93 10000 4.6 270 20:38 26.02.2020
2257 Rain 3 1000 93 10000 7.2 260 20:19 26.02.2020
2258 Clouds 3 999 93 10000 4.1 260 19:56 26.02.2020
2259 Clouds 3 999 84 10000 4.1 270 19:37 26.02.2020
2260 Clouds 3 998 84 10000 4.6 260 19:19 26.02.2020
2261 Clouds 3 998 84 10000 4.6 260 18:56 26.02.2020
2262 Clouds 2 998 84 10000 4.6 270 18:37 26.02.2020
2263 Clouds 2 998 84 10000 4.6 270 18:19 26.02.2020
2264 Rain 3 997 93 10000 5.1 280 17:41 26.02.2020
2265 Rain 4 997 86 10000 6.2 300 17:19 26.02.2020
2266 Rain 4 996 75 10000 6.2 270 16:56 26.02.2020
2267 Clouds 4 996 75 10000 6.7 260 16:38 26.02.2020
2268 Clouds 4 996 75 10000 6.7 260 16:20 26.02.2020
2269 Clouds 5 995 75 10000 7.7 260 15:45 26.02.2020
2270 Clouds 5 995 75 10000 7.7 260 15:45 26.02.2020
2271 Clouds 5 995 75 10000 7.7 260 15:45 26.02.2020
2272 Clouds 5 995 75 10000 5.7 280 15:27 26.02.2020
2273 Clouds 5 995 75 10000 6.2 270 14:55 26.02.2020
2274 Clouds 5 994 75 10000 5.7 280 14:37 26.02.2020
2275 Clouds 5 994 75 10000 5.7 280 14:18 26.02.2020
2276 Clouds 4 994 86 10000 4.6 280 13:41 26.02.2020
2277 Clouds 4 994 86 10000 4.1 290 13:20 26.02.2020
2278 Clouds 4 994 93 10000 4.1 300 12:39 26.02.2020
2279 Clouds 3 993 93 10000 3.1 300 12:20 26.02.2020
2280 Drizzle 3 993 93 9000 3.6 300 11:57 26.02.2020
2281 Rain 3 992 93 10000 2.6 280 11:39 26.02.2020
2282 Rain 3 992 93 10000 2.6 280 11:21 26.02.2020
2283 Clouds 3 992 93 10000 4.49 261 10:42 26.02.2020
2284 Clouds 3 992 98 10000 4.49 261 10:23 26.02.2020
2285 Drizzle 3 992 93 8000 1 240 09:57 26.02.2020
2286 Rain 3 992 93 10000 2.6 280 09:39 26.02.2020
2287 Clouds 3 991 98 10000 1.5 290 09:20 26.02.2020
2288 Drizzle 2 991 98 10000 1.5 280 08:39 26.02.2020
2289 Drizzle 2 991 98 10000 1.5 260 08:20 26.02.2020
2290 Clouds 2 990 86 10000 1.5 0 07:51 26.02.2020
2291 Snow 2 991 100 10000 2.1 240 07:30 26.02.2020
2292 Rain 2 990 93 10000 3.6 220 06:59 26.02.2020
2293 Snow 2 991 100 10000 3.1 230 06:40 26.02.2020
2294 Clouds 3 990 93 10000 2.1 200 06:21 26.02.2020
2295 Clouds 2 990 93 10000 1.5 170 05:48 26.02.2020
2296 Rain 2 991 93 10000 4.1 220 05:18 26.02.2020
2297 Clouds 3 992 86 10000 1.5 210 03:20 26.02.2020
2298 Clouds 3 992 86 10000 2.6 200 01:58 26.02.2020
2299 Clouds 3 992 93 10000 3.6 220 01:25 26.02.2020
2300 Clouds 3 992 86 10000 3.1 220 00:44 26.02.2020
2301 Clouds 3 993 86 10000 3.6 230 00:20 26.02.2020
2302 Clouds 3 993 75 10000 4.1 220 23:42 25.02.2020
2303 Clouds 4 993 86 10000 3.6 240 23:24 25.02.2020
2304 Clouds 4 993 75 10000 3.6 230 22:57 25.02.2020
2305 Clouds 4 993 75 10000 1.5 0 22:37 25.02.2020
2306 Clouds 5 993 75 10000 1.5 0 22:18 25.02.2020
2307 Clouds 5 994 75 10000 2.1 250 21:38 25.02.2020
2308 Clouds 5 994 75 10000 3.1 260 21:20 25.02.2020
2309 Clouds 5 994 75 10000 4.1 260 20:57 25.02.2020
2310 Clouds 5 994 80 10000 3.6 240 20:39 25.02.2020
2311 Clouds 5 994 80 10000 3.6 240 20:20 25.02.2020
2312 Clouds 5 995 75 10000 5.1 250 19:56 25.02.2020
2313 Clouds 5 995 80 10000 5.7 250 19:38 25.02.2020
2314 Clouds 5 995 80 10000 5.7 250 19:19 25.02.2020
2315 Clouds 6 994 56 10000 5.1 250 18:41 25.02.2020
2316 Clouds 6 995 56 10000 6.2 250 18:21 25.02.2020
2317 Clouds 7 995 52 10000 7.2 250 17:56 25.02.2020
2318 Clouds 7 995 52 10000 7.2 250 17:37 25.02.2020
2319 Rain 8 995 52 10000 8.7 260 17:19 25.02.2020
2320 Rain 8 995 49 10000 8.2 270 16:57 25.02.2020
2321 Clouds 9 995 45 10000 10.8 260 16:39 25.02.2020
2322 Clouds 9 995 45 10000 10.8 260 16:20 25.02.2020
2323 Clouds 9 995 45 10000 10.3 260 15:55 25.02.2020
2324 Clouds 9 995 55 10000 10.8 270 15:37 25.02.2020
2325 Clouds 9 995 55 10000 10.8 270 15:18 25.02.2020
2326 Clouds 9 995 57 10000 10.8 260 14:54 25.02.2020
2327 Rain 9 996 61 10000 10.8 270 14:36 25.02.2020
2328 Rain 9 996 61 10000 10.8 270 14:18 25.02.2020
2329 Clouds 8 996 70 10000 10.8 280 13:54 25.02.2020
2330 Clouds 8 996 70 10000 10.8 280 13:54 25.02.2020
2331 Clouds 8 996 57 10000 9.3 270 13:36 25.02.2020
2332 Clouds 8 996 57 10000 9.3 270 13:18 25.02.2020
2333 Clouds 8 996 57 10000 9.3 250 12:40 25.02.2020
2334 Clouds 7 996 61 10000 8.7 260 12:20 25.02.2020
2335 Clouds 8 996 57 10000 10.3 260 11:56 25.02.2020
2336 Rain 8 997 61 10000 8.2 270 11:38 25.02.2020
2337 Clear 8 997 61 10000 8.2 270 11:19 25.02.2020
2338 Clear 8 997 61 10000 8.2 280 10:57 25.02.2020
2339 Clear 8 997 61 10000 8.2 280 10:57 25.02.2020
2340 Clear 8 997 61 10000 8.2 280 10:39 25.02.2020
2341 Clear 7 997 65 10000 7.7 290 10:21 25.02.2020
2342 Clouds 7 997 70 10000 6.7 290 09:41 25.02.2020
2343 Clouds 7 997 81 10000 4.1 270 09:21 25.02.2020
2344 Clear 7 997 81 10000 4.1 280 08:45 25.02.2020
2345 Clouds 7 997 75 10000 4.6 290 08:27 25.02.2020
2346 Clouds 7 997 81 10000 5.7 280 07:56 25.02.2020
2347 Clouds 7 998 81 10000 6.2 290 07:36 25.02.2020
2348 Clouds 7 997 75 10000 4.6 250 07:18 25.02.2020
2349 Rain 8 998 75 10000 8.2 280 06:28 25.02.2020
2350 Rain 9 997 81 8000 6.7 260 05:25 25.02.2020
2351 Rain 10 998 81 10000 8.2 240 03:30 25.02.2020
2352 Clouds 10 999 87 10000 7.7 250 01:31 25.02.2020
2353 Rain 9 999 93 10000 6.7 240 00:43 25.02.2020
2354 Rain 10 999 87 10000 7.7 240 00:22 25.02.2020
2355 Clouds 10 999 87 10000 8.2 230 23:40 24.02.2020
2356 Rain 9 1000 87 10000 8.7 240 23:20 24.02.2020
2357 Rain 9 1001 93 10000 5.7 230 22:41 24.02.2020
2358 Rain 9 1001 93 10000 5.7 230 22:20 24.02.2020
2359 Rain 9 1001 87 10000 5.1 230 21:57 24.02.2020
2360 Rain 9 1001 87 10000 5.1 230 21:39 24.02.2020
2361 Rain 8 1001 87 10000 4.6 230 21:19 24.02.2020
2362 Rain 8 1002 93 10000 5.7 220 20:58 24.02.2020
2363 Rain 8 1002 93 10000 5.7 220 20:39 24.02.2020
2364 Rain 8 1002 87 10000 5.7 220 20:19 24.02.2020
2365 Rain 7 1003 87 10000 5.7 210 19:56 24.02.2020
2366 Rain 7 1003 86 10000 1.5 0 19:38 24.02.2020
2367 Rain 6 1003 86 10000 1.5 0 19:20 24.02.2020
2368 Rain 6 1004 80 10000 1.5 0 18:54 24.02.2020
2369 Clouds 6 1004 75 10000 4.6 150 18:36 24.02.2020
2370 Clouds 6 1004 75 10000 4.6 150 18:18 24.02.2020
2371 Clouds 5 1006 75 10000 4.6 150 17:40 24.02.2020
2372 Clouds 5 1007 80 10000 4.6 140 17:20 24.02.2020
2373 Clouds 5 1008 75 10000 5.1 150 16:58 24.02.2020
2374 Clouds 5 1008 75 10000 5.1 150 16:39 24.02.2020
2375 Clouds 5 1010 95 10000 4.1 150 16:20 24.02.2020
2376 Clouds 5 1010 95 10000 4.1 150 16:20 24.02.2020
2377 Clouds 5 1012 75 10000 3.1 140 15:58 24.02.2020
2378 Clouds 5 1012 75 10000 3.1 140 15:39 24.02.2020
2379 Clouds 5 1012 95 10000 5.7 170 15:21 24.02.2020
2380 Clouds 5 1014 60 8000 4.6 190 14:58 24.02.2020
2381 Rain 5 1014 95 10000 4.1 200 14:39 24.02.2020
2382 Clouds 6 1014 73 10000 4.1 200 14:19 24.02.2020
2383 Clouds 6 1015 70 10000 3.6 210 13:56 24.02.2020
2384 Clouds 6 1016 70 10000 3.6 230 13:36 24.02.2020
2385 Clouds 6 1016 70 10000 3.6 230 13:18 24.02.2020
2386 Clouds 6 1016 70 10000 3.6 230 13:18 24.02.2020
2387 Clouds 6 1017 70 10000 4.6 240 12:54 24.02.2020
2388 Clouds 6 1018 70 10000 5.7 240 12:36 24.02.2020
2389 Clouds 6 1018 70 10000 5.7 240 12:18 24.02.2020
2390 Clouds 6 1018 70 10000 5.1 240 11:41 24.02.2020
2391 Clouds 6 1019 70 10000 6.2 240 11:23 24.02.2020
2392 Clouds 6 1019 75 10000 5.7 250 10:44 24.02.2020
2393 Clouds 5 1020 70 10000 6.7 250 10:24 24.02.2020
2394 Clouds 6 1020 70 10000 5.7 270 09:41 24.02.2020
2395 Clouds 5 1020 75 10000 6.2 260 09:19 24.02.2020
2396 Clouds 5 1020 80 10000 6.2 260 08:57 24.02.2020
2397 Clouds 5 1020 80 10000 6.2 260 08:37 24.02.2020
2398 Clouds 4 1020 87 10000 6.2 260 08:19 24.02.2020
2399 Clouds 4 1020 87 10000 5.1 260 07:41 24.02.2020
2400 Clouds 4 1020 87 10000 5.1 260 07:23 24.02.2020
2401 Clouds 4 1020 80 10000 5.7 260 06:34 24.02.2020
2402 Clouds 5 1019 80 10000 4.6 250 05:52 24.02.2020
2403 Clouds 4 1020 80 10000 5.7 260 05:28 24.02.2020
2404 Clouds 4 1019 80 10000 5.7 270 03:27 24.02.2020
2405 Clouds 4 1018 80 10000 5.1 260 02:51 24.02.2020
2406 Clouds 4 1018 80 10000 6.7 260 01:42 24.02.2020
2407 Clouds 4 1017 80 10000 5.1 260 00:52 24.02.2020
2408 Clouds 4 1017 80 10000 6.7 270 00:23 24.02.2020
2409 Clouds 4 1016 86 10000 4.6 260 23:59 23.02.2020
2410 Clouds 4 1016 86 10000 4.6 260 23:40 23.02.2020
2411 Clouds 4 1016 80 10000 8.2 280 23:18 23.02.2020
2412 Rain 5 1015 86 10000 7.7 280 22:56 23.02.2020
2413 Rain 5 1013 80 10000 8.2 290 22:37 23.02.2020
2414 Rain 5 1013 80 10000 8.2 290 22:18 23.02.2020
2415 Clouds 5 1012 75 10000 8.2 290 21:43 23.02.2020
2416 Clouds 5 1012 75 10000 8.2 290 21:43 23.02.2020
2417 Clouds 5 1011 80 10000 7.7 300 21:20 23.02.2020
2418 Clouds 5 1011 80 10000 5.1 280 20:57 23.02.2020
2419 Clouds 6 1007 75 10000 9.8 290 20:38 23.02.2020
2420 Clouds 6 1007 75 10000 9.8 290 20:20 23.02.2020
2421 Clouds 7 1007 75 10000 9.8 290 19:57 23.02.2020
2422 Clouds 7 1006 81 10000 8.7 300 19:38 23.02.2020
2423 Clouds 7 1006 81 10000 8.7 300 19:18 23.02.2020
2424 Clouds 8 1005 81 10000 10.3 310 18:56 23.02.2020
2425 Clouds 9 1004 87 10000 11.3 310 18:36 23.02.2020
2426 Clouds 9 1004 87 10000 11.3 310 18:18 23.02.2020
2427 Clouds 10 1001 76 10000 10.8 280 17:56 23.02.2020
2428 Clouds 10 1001 76 10000 10.8 280 17:37 23.02.2020
2429 Rain 11 1001 93 9000 10.8 280 17:19 23.02.2020
2430 Rain 11 1000 81 8000 13.4 260 16:46 23.02.2020
2431 Clouds 12 1000 81 10000 12.3 260 16:27 23.02.2020
2432 Rain 12 1000 81 10000 10.8 260 15:59 23.02.2020
2433 Rain 12 1000 81 10000 10.8 260 15:39 23.02.2020
2434 Rain 12 1000 81 10000 10.8 260 15:20 23.02.2020
2435 Clouds 11 1001 93 10000 6.2 250 14:58 23.02.2020
2436 Clouds 11 1001 93 10000 6.2 250 14:40 23.02.2020
2437 Rain 11 1001 93 10000 4.1 230 14:21 23.02.2020
2438 Clouds 9 1002 93 10000 1 0 13:57 23.02.2020
2439 Rain 8 1003 87 7000 1.5 0 13:38 23.02.2020
2440 Rain 8 1003 87 7000 1.5 0 13:20 23.02.2020
2441 Rain 7 1005 87 8000 3.1 230 12:43 23.02.2020
2442 Rain 7 1006 87 7000 2.6 200 12:22 23.02.2020
2443 Rain 7 1007 87 8000 3.6 210 11:57 23.02.2020
2444 Rain 7 1007 87 8000 3.6 210 11:37 23.02.2020
2445 Rain 7 1007 87 8000 3.6 210 11:37 23.02.2020
2446 Rain 7 1008 87 10000 3.6 220 11:18 23.02.2020
2447 Rain 7 1010 93 8000 2.6 200 10:55 23.02.2020
2448 Rain 7 1011 93 9000 2.1 170 10:37 23.02.2020
2449 Rain 7 1011 93 9000 2.1 170 10:19 23.02.2020
2450 Rain 7 1012 87 8000 2.6 200 09:40 23.02.2020
2451 Rain 6 1012 87 8000 2.1 230 09:21 23.02.2020
2452 Rain 6 1012 87 6000 4.1 230 08:56 23.02.2020
2453 Rain 6 1012 93 10000 4.1 240 08:38 23.02.2020
2454 Rain 6 1013 93 10000 2.1 220 08:19 23.02.2020
2455 Rain 6 1013 87 6000 4.6 250 07:40 23.02.2020
2456 Rain 6 1013 87 6000 4.6 250 07:40 23.02.2020
2457 Rain 7 1014 75 9000 6.7 250 06:54 23.02.2020
2458 Rain 7 1014 75 10000 6.7 240 05:54 23.02.2020
2459 Clouds 7 1014 70 10000 7.7 250 04:48 23.02.2020
2460 Clouds 8 1015 75 10000 5.7 250 03:35 23.02.2020
2461 Clouds 8 1016 70 10000 7.2 260 02:38 23.02.2020
2462 Clouds 8 1016 75 10000 6.7 260 02:38 23.02.2020
2463 Clouds 8 1016 81 10000 7.2 260 01:26 23.02.2020
2464 Rain 8 1015 75 10000 6.2 250 00:55 23.02.2020
2465 Rain 8 1016 81 10000 7.7 260 00:36 23.02.2020
2466 Rain 8 1016 81 10000 7.7 260 00:18 23.02.2020
2467 Rain 8 1015 81 10000 6.7 250 23:41 22.02.2020
2468 Clouds 7 1015 81 10000 5.7 260 23:19 22.02.2020
2469 Rain 7 1015 87 9000 5.7 250 22:44 22.02.2020
2470 Rain 7 1015 87 10000 12.3 270 22:19 22.02.2020
2471 Rain 8 1015 87 3800 9.3 240 21:43 22.02.2020
2472 Rain 7 1015 93 10000 6.7 250 21:24 22.02.2020
2473 Rain 7 1015 87 2700 9.3 240 20:57 22.02.2020
2474 Rain 7 1016 93 10000 6.7 260 20:38 22.02.2020
2475 Rain 7 1016 93 10000 6.7 260 20:38 22.02.2020
2476 Rain 8 1016 87 10000 7.2 270 20:20 22.02.2020
2477 Rain 8 1014 75 2100 8.2 250 19:42 22.02.2020
2478 Rain 9 1015 81 10000 9.3 270 19:23 22.02.2020
2479 Rain 9 1014 81 2700 7.7 260 18:55 22.02.2020
2480 Clouds 10 1013 62 10000 12.9 250 18:37 22.02.2020
2481 Clouds 10 1013 62 10000 12.9 250 18:18 22.02.2020
2482 Clouds 10 1012 57 10000 11.8 250 17:44 22.02.2020
2483 Clouds 10 1012 57 10000 11.8 250 17:25 22.02.2020
2484 Clouds 11 1013 62 10000 11.3 260 16:59 22.02.2020
2485 Clouds 11 1013 62 10000 11.3 260 16:40 22.02.2020
2486 Clouds 11 1013 57 10000 12.3 260 16:20 22.02.2020
2487 Clouds 11 1013 50 10000 10.8 250 15:56 22.02.2020
2488 Clouds 11 1013 46 10000 12.9 260 15:38 22.02.2020
2489 Clouds 11 1013 46 10000 12.9 260 15:20 22.02.2020
2490 Clouds 11 1013 46 10000 10.3 270 14:42 22.02.2020
2491 Clouds 11 1012 69 10000 9.8 260 14:21 22.02.2020
2492 Clouds 11 1013 40 10000 11.3 260 13:43 22.02.2020
2493 Clouds 10 1012 43 10000 8.2 240 13:20 22.02.2020
2494 Clouds 11 1012 43 10000 10.8 250 12:59 22.02.2020
2495 Clouds 11 1012 43 10000 10.8 250 12:39 22.02.2020
2496 Clouds 11 1012 43 10000 7.7 230 12:21 22.02.2020
2497 Clouds 10 1013 49 10000 8.2 220 11:44 22.02.2020
2498 Rain 10 1014 45 10000 7.7 220 11:26 22.02.2020
2499 Clouds 9 1014 42 10000 8.2 230 10:56 22.02.2020
2500 Clouds 9 1014 42 10000 8.2 230 10:38 22.02.2020
2501 Clouds 9 1014 45 10000 9.3 230 10:19 22.02.2020
2502 Clouds 8 1014 52 10000 8.2 240 09:56 22.02.2020
2503 Clouds 8 1015 60 10000 7.2 230 09:37 22.02.2020
2504 Clouds 8 1015 60 10000 7.2 230 09:18 22.02.2020
2505 Clouds 7 1014 49 10000 6.7 220 08:44 22.02.2020
2506 Clouds 6 1015 52 10000 6.7 240 08:26 22.02.2020
2507 Clouds 7 1015 49 10000 6.7 240 08:26 22.02.2020
2508 Clouds 6 1015 65 10000 6.7 230 07:43 22.02.2020
2509 Clouds 6 1015 70 10000 7.7 230 07:19 22.02.2020
2510 Clouds 6 1015 65 10000 9.3 220 06:46 22.02.2020
2511 Clouds 6 1016 65 10000 8.7 220 05:54 22.02.2020
2512 Clouds 7 1017 65 10000 7.7 230 04:29 22.02.2020
2513 Clouds 7 1019 65 10000 7.7 230 02:44 22.02.2020
2514 Clouds 7 1020 65 10000 8.2 230 02:21 22.02.2020
2515 Clouds 7 1019 65 10000 8.2 220 01:41 22.02.2020
2516 Clouds 7 1020 65 10000 8.2 230 01:22 22.02.2020
2517 Clouds 7 1020 65 10000 7.7 220 00:40 22.02.2020
2518 Clouds 7 1020 65 10000 6.7 230 00:19 22.02.2020
2519 Clouds 7 1020 65 10000 7.2 220 23:42 21.02.2020
2520 Clouds 7 1021 65 10000 7.2 230 23:21 21.02.2020
2521 Clouds 7 1021 70 10000 7.7 220 22:43 21.02.2020
2522 Clouds 7 1022 77 10000 4.6 220 22:25 21.02.2020
2523 Clouds 7 1022 77 10000 4.6 220 21:58 21.02.2020
2524 Clouds 7 1022 77 10000 4.6 220 21:40 21.02.2020
2525 Clouds 7 1023 65 10000 5.1 230 21:21 21.02.2020
2526 Clouds 7 1022 77 10000 4.6 230 20:48 21.02.2020
2527 Clouds 7 1023 65 10000 6.2 240 20:28 21.02.2020
2528 Clouds 7 1023 77 10000 6.7 240 19:41 21.02.2020
2529 Clouds 7 1023 77 10000 6.7 240 19:23 21.02.2020
2530 Clouds 7 1023 77 10000 6.2 240 18:55 21.02.2020
2531 Clouds 7 1023 77 10000 6.2 240 18:37 21.02.2020
2532 Clouds 7 1023 77 10000 6.2 250 18:19 21.02.2020
2533 Clouds 8 1023 77 10000 6.2 250 17:40 21.02.2020
2534 Clouds 8 1023 70 10000 7.2 250 17:21 21.02.2020
2535 Clouds 8 1023 70 10000 7.2 250 17:21 21.02.2020
2536 Clouds 8 1022 70 10000 7.7 260 16:57 21.02.2020
2537 Clouds 8 1022 70 10000 7.7 260 16:39 21.02.2020
2538 Clouds 8 1022 70 10000 8.2 260 16:20 21.02.2020
2539 Clouds 8 1022 70 10000 8.2 270 15:46 21.02.2020
2540 Clouds 8 1022 70 10000 7.7 260 15:19 21.02.2020
2541 Clouds 8 1022 61 10000 8.2 260 14:59 21.02.2020
2542 Clouds 8 1022 61 10000 8.2 260 14:41 21.02.2020
2543 Clouds 8 1022 65 10000 9.3 250 14:19 21.02.2020
2544 Clouds 8 1022 65 10000 7.2 250 13:43 21.02.2020
2545 Clouds 7 1022 65 10000 8.2 250 13:24 21.02.2020
2546 Clouds 7 1023 70 10000 7.7 260 12:55 21.02.2020
2547 Clouds 7 1023 70 10000 7.7 260 12:36 21.02.2020
2548 Clouds 7 1023 70 10000 7.7 260 12:18 21.02.2020
2549 Clouds 6 1022 70 10000 8.2 260 11:42 21.02.2020
2550 Clouds 6 1022 70 10000 7.2 260 11:22 21.02.2020
2551 Clouds 6 1021 73 10000 8.7 260 10:57 21.02.2020
2552 Clouds 5 1021 73 10000 8.7 260 10:39 21.02.2020
2553 Clouds 5 1021 73 10000 8.7 260 10:39 21.02.2020
2554 Clouds 6 1021 70 10000 8.7 260 10:19 21.02.2020
2555 Clouds 5 1021 75 10000 7.7 260 09:57 21.02.2020
2556 Clouds 5 1021 75 10000 7.7 260 09:57 21.02.2020
2557 Clouds 5 1021 75 10000 7.7 260 09:38 21.02.2020
2558 Clouds 5 1020 73 10000 6.7 250 09:19 21.02.2020
2559 Clouds 5 1020 73 10000 7.2 260 08:43 21.02.2020
2560 Clouds 5 1019 73 10000 7.2 260 08:22 21.02.2020
2561 Clouds 5 1018 78 10000 6.7 270 07:59 21.02.2020
2562 Clouds 5 1018 78 10000 6.7 270 07:59 21.02.2020
2563 Clouds 4 1018 78 10000 6.7 270 07:41 21.02.2020
2564 Clouds 4 1018 78 10000 7.7 270 07:19 21.02.2020
2565 Clouds 4 1017 80 10000 6.2 250 06:53 21.02.2020
2566 Clouds 4 1017 80 10000 6.7 260 06:31 21.02.2020
2567 Clouds 4 1016 80 10000 6.2 250 05:50 21.02.2020
2568 Rain 4 1016 80 10000 7.2 260 04:39 21.02.2020
2569 Clouds 4 1015 80 10000 7.2 270 04:20 21.02.2020
2570 Clouds 4 1014 86 10000 6.2 260 03:42 21.02.2020
2571 Clouds 4 1012 86 10000 6.2 260 02:58 21.02.2020
2572 Rain 5 1009 81 10000 9.3 280 01:28 21.02.2020
2573 Clouds 6 1007 87 10000 9.8 280 00:46 21.02.2020
2574 Clouds 6 1006 81 10000 8.7 230 00:24 21.02.2020
2575 Rain 6 1006 87 8000 11.3 230 23:57 20.02.2020
2576 Rain 7 1006 81 10000 8.2 230 23:39 20.02.2020
2577 Rain 7 1006 81 10000 8.2 230 23:20 20.02.2020
2578 Clouds 8 1007 70 10000 7.7 220 22:39 20.02.2020
2579 Clouds 8 1007 70 10000 7.7 220 22:21 20.02.2020
2580 Rain 8 1007 70 10000 5.7 220 21:57 20.02.2020
2581 Rain 8 1007 70 10000 5.7 220 21:39 20.02.2020
2582 Rain 8 1007 70 10000 5.7 220 21:39 20.02.2020
2583 Clouds 8 1008 70 10000 5.7 210 21:19 20.02.2020
2584 Clouds 8 1008 70 10000 5.7 210 21:19 20.02.2020
2585 Clouds 8 1007 66 10000 5.1 190 20:56 20.02.2020
2586 Clouds 8 1009 66 10000 6.2 220 20:38 20.02.2020
2587 Clouds 8 1009 66 10000 6.2 220 20:19 20.02.2020
2588 Clouds 8 1009 66 10000 5.7 210 19:58 20.02.2020
2589 Clouds 8 1009 66 10000 5.7 210 19:40 20.02.2020
2590 Clouds 8 1010 66 10000 5.1 210 19:22 20.02.2020
2591 Clouds 8 1010 66 10000 5.1 200 18:55 20.02.2020
2592 Clouds 9 1011 66 10000 4.6 210 18:36 20.02.2020
2593 Clouds 9 1011 66 10000 4.6 210 18:18 20.02.2020
2594 Clouds 8 1010 75 10000 4.6 180 17:39 20.02.2020
2595 Clouds 9 1012 66 10000 6.2 230 17:19 20.02.2020
2596 Clouds 9 1012 66 10000 5.1 210 16:56 20.02.2020
2597 Clouds 9 1012 66 10000 5.7 200 16:38 20.02.2020
2598 Clouds 9 1012 66 10000 5.7 200 16:19 20.02.2020
2599 Clouds 9 1013 70 10000 6.2 210 15:43 20.02.2020
2600 Clouds 9 1013 70 10000 4.6 200 15:24 20.02.2020
2601 Clouds 9 1014 66 10000 5.7 220 14:59 20.02.2020
2602 Clouds 9 1014 66 10000 5.7 220 14:41 20.02.2020
2603 Rain 9 1014 70 10000 6.7 220 14:23 20.02.2020
2604 Rain 9 1014 70 10000 6.7 220 14:23 20.02.2020
2605 Rain 9 1014 70 10000 6.2 220 13:56 20.02.2020
2606 Rain 9 1015 75 10000 6.7 220 13:38 20.02.2020
2607 Rain 8 1015 75 10000 6.7 220 13:19 20.02.2020
2608 Clouds 8 1016 81 10000 5.7 210 12:43 20.02.2020
2609 Clouds 7 1016 81 10000 5.7 210 12:21 20.02.2020
2610 Clouds 7 1016 81 10000 5.1 210 11:59 20.02.2020
2611 Clouds 7 1016 81 10000 5.1 210 11:41 20.02.2020
2612 Clouds 7 1016 81 10000 5.1 210 11:41 20.02.2020
2613 Clouds 6 1016 87 10000 4.1 200 11:22 20.02.2020
2614 Drizzle 6 1016 86 10000 3.6 210 10:56 20.02.2020
2615 Drizzle 6 1017 86 10000 4.6 210 10:38 20.02.2020
2616 Drizzle 6 1017 86 10000 4.6 210 10:20 20.02.2020
2617 Drizzle 5 1017 86 10000 2.6 180 09:42 20.02.2020
2618 Drizzle 5 1017 86 10000 2.6 180 09:23 20.02.2020
2619 Clouds 5 1017 80 10000 3.6 200 08:57 20.02.2020
2620 Clouds 5 1017 80 10000 3.6 200 08:57 20.02.2020
2621 Clouds 5 1017 80 10000 3.6 200 08:37 20.02.2020
2622 Clouds 4 1017 80 10000 3.1 180 08:19 20.02.2020
2623 Clouds 4 1017 80 10000 3.1 190 07:44 20.02.2020
2624 Clouds 4 1017 80 10000 2.6 190 07:21 20.02.2020
2625 Drizzle 4 1016 86 10000 3.6 170 06:44 20.02.2020
2626 Rain 4 1016 93 10000 3.6 210 06:25 20.02.2020
2627 Clouds 4 1016 86 10000 3.1 170 05:44 20.02.2020
2628 Clouds 3 1017 86 10000 3.1 180 04:51 20.02.2020
2629 Clouds 3 1017 85 10000 3.1 180 03:58 20.02.2020
2630 Rain 3 1018 85 10000 3.1 200 03:28 20.02.2020
2631 Clouds 2 1018 74 10000 3.1 200 02:23 20.02.2020
2632 Clouds 3 1019 80 10000 1.5 200 00:59 20.02.2020
2633 Clouds 3 1019 74 10000 4.1 230 00:32 20.02.2020
2634 Clouds 3 1019 87 10000 3.1 230 23:49 19.02.2020
2635 Clouds 3 1019 87 10000 3.1 230 23:49 19.02.2020
2636 Clouds 4 1019 87 10000 4.6 240 23:22 19.02.2020
2637 Clouds 4 1019 75 10000 3.6 220 22:47 19.02.2020
2638 Clouds 4 1019 75 10000 4.1 260 22:28 19.02.2020
2639 Clouds 4 1019 69 10000 4.1 260 21:59 19.02.2020
2640 Clouds 4 1019 69 10000 4.1 260 21:41 19.02.2020
2641 Clouds 5 1019 65 10000 5.1 270 21:19 19.02.2020
2642 Clouds 5 1019 60 10000 8.7 270 20:58 19.02.2020
2643 Clouds 5 1018 75 10000 6.2 270 20:39 19.02.2020
2644 Clouds 5 1018 73 10000 6.2 270 20:20 19.02.2020
2645 Rain 5 1018 73 10000 7.2 270 19:59 19.02.2020
2646 Clouds 6 1018 70 10000 7.7 280 19:39 19.02.2020
2647 Clouds 6 1018 70 10000 7.7 280 19:20 19.02.2020
2648 Clouds 6 1017 73 10000 10.3 270 18:59 19.02.2020
2649 Clouds 6 1017 73 10000 10.3 270 18:40 19.02.2020
2650 Clouds 6 1017 75 10000 6.7 270 18:22 19.02.2020
2651 Clouds 6 1016 80 10000 8.2 260 17:59 19.02.2020
2652 Clouds 6 1016 80 10000 8.2 260 17:41 19.02.2020
2653 Clouds 6 1016 80 10000 5.1 260 17:19 19.02.2020
2654 Clouds 6 1015 81 10000 5.7 250 16:43 19.02.2020
2655 Rain 6 1015 86 10000 7.7 310 16:19 19.02.2020
2656 Drizzle 6 1015 75 10000 8.7 270 15:58 19.02.2020
2657 Drizzle 5 1015 75 10000 8.7 270 15:39 19.02.2020
2658 Clouds 5 1015 75 10000 7.2 280 15:20 19.02.2020
2659 Rain 6 1014 80 10000 5.1 290 14:41 19.02.2020
2660 Rain 6 1014 75 10000 9.3 270 14:23 19.02.2020
2661 Clouds 6 1013 70 10000 9.3 270 13:59 19.02.2020
2662 Rain 6 1013 86 10000 6.2 280 13:39 19.02.2020
2663 Rain 6 1013 86 10000 6.2 280 13:19 19.02.2020
2664 Rain 6 1013 86 6000 5.1 260 12:40 19.02.2020
2665 Clouds 6 1013 64 10000 9.3 280 12:19 19.02.2020
2666 Clouds 6 1013 64 10000 9.3 280 12:19 19.02.2020
2667 Clouds 6 1012 70 10000 7.7 280 11:58 19.02.2020
2668 Clouds 6 1012 70 10000 7.7 280 11:37 19.02.2020
2669 Clouds 6 1012 75 10000 7.7 280 11:19 19.02.2020
2670 Clouds 6 1012 75 10000 7.7 280 11:19 19.02.2020
2671 Clouds 5 1012 75 10000 7.2 280 10:56 19.02.2020
2672 Clouds 5 1012 75 10000 7.2 280 10:38 19.02.2020
2673 Clouds 5 1011 80 10000 6.7 270 10:19 19.02.2020
2674 Clouds 5 1011 80 10000 6.2 270 09:57 19.02.2020
2675 Drizzle 4 1011 93 10000 5.7 270 09:37 19.02.2020
2676 Drizzle 4 1011 93 10000 5.7 270 09:18 19.02.2020
2677 Clouds 4 1010 93 10000 5.1 270 08:44 19.02.2020
2678 Drizzle 4 1010 86 10000 4.6 280 08:24 19.02.2020
2679 Drizzle 4 1010 86 10000 4.6 280 08:24 19.02.2020
2680 Rain 4 1009 86 10000 6.2 280 07:41 19.02.2020
2681 Rain 4 1009 86 10000 5.1 300 07:21 19.02.2020
2682 Rain 5 1009 93 10000 5.7 250 06:53 19.02.2020
2683 Rain 5 1009 93 10000 5.7 260 06:23 19.02.2020
2684 Clouds 6 1009 75 10000 6.2 220 04:21 19.02.2020
2685 Clouds 6 1011 70 10000 6.2 210 02:56 19.02.2020
2686 Rain 6 1012 70 10000 6.7 220 02:30 19.02.2020
2687 Rain 6 1013 70 10000 7.7 230 01:24 19.02.2020
2688 Clouds 6 1013 65 10000 6.7 210 00:50 19.02.2020
2689 Clouds 6 1014 70 10000 7.2 230 00:30 19.02.2020
2690 Clouds 6 1014 65 10000 8.2 220 23:44 18.02.2020
2691 Clouds 6 1015 70 10000 7.2 230 23:21 18.02.2020
2692 Clouds 6 1015 70 10000 7.2 220 22:59 18.02.2020
2693 Clouds 6 1015 70 10000 7.2 220 22:41 18.02.2020
2694 Clouds 6 1017 70 10000 5.1 230 22:19 18.02.2020
2695 Clouds 6 1017 70 10000 5.1 230 21:56 18.02.2020
2696 Clouds 6 1017 70 10000 5.1 230 21:38 18.02.2020
2697 Clouds 6 1017 70 10000 4.1 220 21:19 18.02.2020
2698 Clouds 6 1017 70 10000 5.1 230 20:57 18.02.2020
2699 Clouds 6 1018 65 10000 6.2 240 20:38 18.02.2020
2700 Clouds 6 1018 65 10000 6.2 240 20:20 18.02.2020
2701 Clouds 6 1018 70 10000 7.2 240 19:43 18.02.2020
2702 Clouds 6 1018 70 10000 7.2 240 19:43 18.02.2020
2703 Clouds 7 1018 70 10000 7.2 240 19:43 18.02.2020
2704 Clouds 6 1018 65 10000 6.7 250 19:20 18.02.2020
2705 Clouds 6 1018 65 10000 7.2 250 18:59 18.02.2020
2706 Clouds 6 1018 65 10000 7.2 250 18:41 18.02.2020
2707 Clouds 6 1018 65 10000 6.7 250 18:20 18.02.2020
2708 Clouds 7 1017 65 10000 7.7 250 17:56 18.02.2020
2709 Clouds 7 1018 77 10000 8.2 250 17:38 18.02.2020
2710 Clouds 7 1018 71 10000 8.2 250 17:18 18.02.2020
2711 Clouds 8 1017 71 10000 9.3 260 16:40 18.02.2020
2712 Clouds 8 1018 71 10000 9.3 260 16:20 18.02.2020
2713 Clouds 8 1018 71 10000 8.2 260 15:42 18.02.2020
2714 Clouds 8 1018 71 10000 9.8 260 15:21 18.02.2020
2715 Clouds 8 1018 71 10000 8.7 250 14:58 18.02.2020
2716 Clouds 8 1018 71 10000 8.7 250 14:40 18.02.2020
2717 Clouds 8 1018 57 10000 10.3 260 14:21 18.02.2020
2718 Clouds 8 1018 67 10000 10.8 260 13:59 18.02.2020
2719 Clouds 8 1018 67 10000 10.8 260 13:40 18.02.2020
2720 Clouds 8 1019 67 10000 9.8 260 13:21 18.02.2020
2721 Clouds 8 1019 66 10000 10.3 260 12:44 18.02.2020
2722 Clouds 7 1019 65 10000 8.7 260 12:25 18.02.2020
2723 Clouds 7 1018 65 10000 11.3 250 11:56 18.02.2020
2724 Clouds 7 1018 65 10000 11.3 250 11:38 18.02.2020
2725 Clouds 7 1018 65 10000 9.8 260 11:20 18.02.2020
2726 Clouds 7 1018 65 10000 9.8 260 10:44 18.02.2020
2727 Clouds 6 1018 75 10000 8.2 250 10:23 18.02.2020
2728 Clouds 6 1018 75 10000 7.7 250 09:57 18.02.2020
2729 Clouds 6 1018 75 10000 7.7 250 09:38 18.02.2020
2730 Clouds 5 1017 80 10000 6.2 250 09:20 18.02.2020
2731 Clouds 5 1017 80 10000 6.7 250 08:57 18.02.2020
2732 Clouds 5 1017 80 10000 6.7 250 08:38 18.02.2020
2733 Clouds 5 1017 80 10000 7.7 260 08:19 18.02.2020
2734 Rain 4 1016 80 10000 10.3 270 07:48 18.02.2020
2735 Rain 5 1015 81 10000 5.1 220 07:25 18.02.2020
2736 Rain 5 1015 86 10000 9.3 260 06:55 18.02.2020
2737 Rain 6 1015 87 10000 6.2 240 06:29 18.02.2020
2738 Clouds 6 1014 81 10000 7.2 230 05:49 18.02.2020
2739 Clouds 6 1015 81 10000 6.2 240 05:22 18.02.2020
2740 Clouds 6 1014 81 10000 7.2 230 03:54 18.02.2020
2741 Clouds 6 1013 81 10000 6.7 230 02:58 18.02.2020
2742 Clouds 6 1013 87 10000 7.2 240 01:27 18.02.2020
2743 Clouds 7 1013 81 10000 7.2 230 00:44 18.02.2020
2744 Rain 7 1013 81 10000 6.7 240 00:19 18.02.2020
2745 Clouds 6 1012 75 10000 6.7 230 23:44 17.02.2020
2746 Clouds 7 1012 81 10000 7.7 240 23:24 17.02.2020
2747 Clouds 7 1012 75 10000 7.2 220 22:58 17.02.2020
2748 Clouds 7 1012 75 10000 7.2 220 22:40 17.02.2020
2749 Rain 6 1013 75 10000 4.6 230 22:20 17.02.2020
2750 Clouds 6 1013 75 10000 5.7 240 21:39 17.02.2020
2751 Clouds 6 1013 81 10000 6.2 250 21:39 17.02.2020
2752 Clouds 6 1013 81 10000 6.2 250 21:19 17.02.2020
2753 Rain 6 1012 81 10000 4.6 230 20:57 17.02.2020
2754 Rain 6 1012 81 10000 4.6 230 20:38 17.02.2020
2755 Clouds 6 1012 81 10000 3.6 220 20:20 17.02.2020
2756 Clouds 6 1012 81 10000 4.6 230 19:54 17.02.2020
2757 Rain 6 1013 81 10000 9.8 290 19:36 17.02.2020
2758 Rain 6 1013 81 10000 9.8 290 19:18 17.02.2020
2759 Rain 7 1011 49 10000 4.6 220 18:37 17.02.2020
2760 Rain 7 1011 49 10000 4.6 220 18:37 17.02.2020
2761 Rain 8 1011 49 10000 3.6 220 18:19 17.02.2020
2762 Rain 9 1011 49 10000 4.1 220 17:55 17.02.2020
2763 Rain 9 1011 43 10000 5.7 230 17:36 17.02.2020
2764 Clouds 10 1011 43 10000 5.7 230 17:18 17.02.2020
2765 Clouds 10 1011 46 10000 6.7 260 16:43 17.02.2020
2766 Clouds 11 1011 57 10000 6.2 250 16:23 17.02.2020
2767 Clouds 11 1011 57 10000 7.7 240 15:59 17.02.2020
2768 Clouds 11 1011 50 10000 8.2 240 15:41 17.02.2020
2769 Clouds 11 1011 50 10000 8.2 240 15:22 17.02.2020
2770 Clouds 11 1011 53 10000 8.2 230 14:46 17.02.2020
2771 Clouds 11 1011 53 10000 6.7 230 14:27 17.02.2020
2772 Clouds 10 1012 57 10000 8.7 240 13:59 17.02.2020
2773 Clouds 10 1012 57 10000 8.7 240 13:40 17.02.2020
2774 Clouds 10 1012 53 10000 7.2 230 13:20 17.02.2020
2775 Clouds 10 1012 57 10000 7.2 220 12:56 17.02.2020
2776 Clouds 9 1012 57 10000 7.2 220 12:37 17.02.2020
2777 Clouds 9 1012 57 10000 6.7 240 12:19 17.02.2020
2778 Clouds 9 1012 54 10000 6.7 240 11:43 17.02.2020
2779 Clouds 9 1012 54 10000 6.7 240 11:24 17.02.2020
2780 Clouds 9 1013 62 10000 6.7 240 10:56 17.02.2020
2781 Clouds 9 1012 62 10000 6.2 240 10:38 17.02.2020
2782 Clouds 8 1012 62 10000 6.2 240 10:19 17.02.2020
2783 Clouds 8 1012 62 10000 6.7 250 09:56 17.02.2020
2784 Clouds 8 1012 61 10000 6.2 250 09:37 17.02.2020
2785 Clouds 8 1012 61 10000 6.2 250 09:18 17.02.2020
2786 Clouds 8 1011 61 10000 7.2 250 08:41 17.02.2020
2787 Clouds 8 1011 65 10000 7.2 250 08:23 17.02.2020
2788 Clouds 8 1010 65 10000 6.2 260 07:57 17.02.2020
2789 Clouds 8 1009 61 10000 9.8 250 07:27 17.02.2020
2790 Clouds 8 1009 65 10000 7.7 250 06:57 17.02.2020
2791 Clouds 9 1009 61 10000 8.7 250 06:39 17.02.2020
2792 Clouds 9 1009 61 10000 8.7 250 06:19 17.02.2020
2793 Clouds 9 1008 66 10000 10.3 240 05:40 17.02.2020
2794 Clouds 9 1007 70 10000 10.8 240 04:23 17.02.2020
2795 Clouds 8 1005 81 10000 8.2 220 02:44 17.02.2020
2796 Rain 8 1005 81 10000 9.3 240 01:22 17.02.2020
2797 Rain 8 1005 87 10000 6.7 240 00:39 17.02.2020
2798 Rain 8 1004 87 10000 10.3 250 00:19 17.02.2020
2799 Rain 9 1003 81 10000 10.8 230 23:48 16.02.2020
2800 Rain 10 1002 87 10000 9.3 240 23:27 16.02.2020
2801 Rain 10 1002 87 10000 9.3 240 22:56 16.02.2020
2802 Rain 11 1001 87 10000 9.3 280 22:38 16.02.2020
2803 Rain 13 1001 87 10000 9.3 280 22:19 16.02.2020
2804 Rain 14 999 81 10000 12.3 280 21:55 16.02.2020
2805 Rain 15 998 48 6000 13.9 230 21:36 16.02.2020
2806 Rain 16 998 48 6000 13.9 230 21:18 16.02.2020
2807 Clouds 16 996 45 10000 8.7 200 20:54 16.02.2020
2808 Clouds 16 996 48 10000 8.7 190 20:36 16.02.2020
2809 Clouds 16 996 45 10000 12.3 220 20:18 16.02.2020
2810 Clouds 16 996 48 10000 8.7 190 19:56 16.02.2020
2811 Clouds 16 999 44 10000 9.8 220 19:36 16.02.2020
2812 Clouds 16 999 44 10000 9.8 220 19:18 16.02.2020
2813 Clouds 16 999 48 10000 8.7 230 18:41 16.02.2020
2814 Clouds 16 1000 48 10000 7.7 220 18:23 16.02.2020
2815 Clouds 16 1000 48 10000 9.3 210 17:45 16.02.2020
2816 Clouds 16 1001 48 10000 9.8 220 17:21 16.02.2020
2817 Clouds 16 1001 48 10000 8.7 220 16:58 16.02.2020
2818 Clouds 16 1001 48 10000 8.7 220 16:39 16.02.2020
2819 Clouds 16 1001 48 10000 8.7 220 16:39 16.02.2020
2820 Clouds 16 1001 51 10000 8.2 220 16:21 16.02.2020
2821 Clouds 16 1001 51 10000 8.2 220 16:21 16.02.2020
2822 Clouds 16 1001 51 10000 8.2 220 16:21 16.02.2020
2823 Clouds 16 1002 51 10000 9.8 230 15:58 16.02.2020
2824 Clouds 16 1002 51 10000 9.8 230 15:38 16.02.2020
2825 Clouds 16 1002 54 10000 9.3 230 15:20 16.02.2020
2826 Clouds 16 1003 54 10000 9.3 220 14:41 16.02.2020
2827 Clouds 15 1003 54 10000 9.8 230 14:23 16.02.2020
2828 Clouds 15 1003 54 10000 9.3 230 13:48 16.02.2020
2829 Clouds 15 1003 54 10000 9.3 230 13:48 16.02.2020
2830 Clouds 15 1004 62 10000 8.2 220 13:25 16.02.2020
2831 Clouds 15 1004 62 10000 8.2 220 13:25 16.02.2020
2832 Clouds 15 1004 62 10000 8.2 220 12:58 16.02.2020
2833 Clouds 14 1004 62 10000 8.2 220 12:39 16.02.2020
2834 Clouds 14 1004 66 10000 10.3 220 12:19 16.02.2020
2835 Clouds 14 1004 66 10000 9.3 220 11:40 16.02.2020
2836 Clouds 13 1005 62 10000 9.8 220 11:19 16.02.2020
2837 Clouds 13 1005 62 10000 9.8 220 10:58 16.02.2020
2838 Clouds 13 1005 62 10000 9.8 220 10:40 16.02.2020
2839 Clouds 13 1005 62 10000 9.8 220 10:40 16.02.2020
2840 Rain 12 1005 66 10000 11.3 220 10:21 16.02.2020
2841 Rain 12 1005 66 10000 11.3 220 10:21 16.02.2020
2842 Rain 12 1005 66 10000 7.7 210 09:59 16.02.2020
2843 Rain 12 1005 66 10000 7.7 210 09:38 16.02.2020
2844 Rain 11 1006 76 10000 6.2 210 09:20 16.02.2020
2845 Rain 11 1004 76 10000 5.7 200 08:50 16.02.2020
2846 Rain 11 1005 71 10000 6.2 200 08:22 16.02.2020
2847 Clouds 12 1005 71 10000 4.1 180 07:59 16.02.2020
2848 Clouds 12 1005 66 10000 5.7 210 07:40 16.02.2020
2849 Clouds 12 1005 62 10000 5.7 180 06:54 16.02.2020
2850 Clouds 11 1006 66 10000 4.6 190 05:53 16.02.2020
2851 Clouds 11 1007 62 10000 5.7 200 04:37 16.02.2020
2852 Clouds 11 1008 62 10000 6.7 210 03:20 16.02.2020
2853 Clouds 10 1009 61 10000 4.6 190 01:58 16.02.2020
2854 Clouds 10 1008 62 10000 7.7 210 01:38 16.02.2020
2855 Clouds 10 1009 62 10000 7.7 190 01:19 16.02.2020
2856 Clouds 10 1009 57 10000 5.7 180 00:51 16.02.2020
2857 Clouds 10 1009 61 10000 7.7 200 00:27 16.02.2020
2858 Clouds 10 1010 61 10000 6.2 180 23:44 15.02.2020
2859 Clouds 9 1011 61 10000 7.7 200 23:25 15.02.2020
2860 Clouds 10 1011 66 10000 5.7 190 22:59 15.02.2020
2861 Clouds 10 1011 66 10000 5.7 190 22:40 15.02.2020
2862 Clouds 9 1012 66 10000 6.7 200 22:19 15.02.2020
2863 Clouds 9 1012 66 10000 5.7 190 21:56 15.02.2020
2864 Clouds 9 1014 57 10000 6.2 210 21:37 15.02.2020
2865 Clouds 9 1014 57 10000 6.2 210 21:19 15.02.2020
2866 Clouds 9 1014 57 10000 4.6 200 20:39 15.02.2020
2867 Clouds 9 1015 61 10000 3.1 180 20:39 15.02.2020
2868 Clouds 9 1015 61 10000 3.1 180 20:21 15.02.2020
2869 Clouds 9 1014 66 10000 5.1 180 19:44 15.02.2020
2870 Clouds 9 1014 66 10000 6.2 200 19:22 15.02.2020
2871 Clouds 9 1014 66 10000 6.2 200 19:22 15.02.2020
2872 Clouds 9 1014 70 10000 4.1 190 18:45 15.02.2020
2873 Clouds 9 1016 61 10000 3.1 200 18:24 15.02.2020
2874 Clouds 10 1016 57 10000 5.1 190 17:58 15.02.2020
2875 Clouds 10 1016 57 10000 5.1 190 17:58 15.02.2020
2876 Clouds 10 1016 57 10000 5.1 190 17:39 15.02.2020
2877 Clouds 10 1017 57 10000 4.6 210 17:21 15.02.2020
2878 Clouds 11 1017 57 10000 6.2 230 16:55 15.02.2020
2879 Clouds 11 1016 54 10000 5.7 240 16:36 15.02.2020
2880 Clouds 12 1016 54 10000 5.7 240 16:18 15.02.2020
2881 Clouds 12 1016 54 10000 5.7 210 15:41 15.02.2020
2882 Clouds 12 1016 54 10000 5.7 210 15:23 15.02.2020
2883 Clouds 12 1017 54 10000 6.2 220 14:45 15.02.2020
2884 Clouds 12 1017 58 10000 5.7 200 14:19 15.02.2020
2885 Clouds 11 1018 62 10000 6.2 220 13:56 15.02.2020
2886 Clouds 11 1018 62 10000 6.2 220 13:38 15.02.2020
2887 Clouds 11 1019 61 10000 4.1 210 13:20 15.02.2020
2888 Clouds 10 1019 70 10000 5.7 220 12:42 15.02.2020
2889 Clouds 10 1019 70 10000 4.1 210 12:24 15.02.2020
2890 Clouds 9 1020 66 10000 4.1 220 11:54 15.02.2020
2891 Clouds 9 1020 70 10000 6.2 220 11:36 15.02.2020
2892 Clouds 8 1020 70 10000 6.2 220 11:18 15.02.2020
2893 Clouds 8 1020 70 10000 4.6 210 10:39 15.02.2020
2894 Clouds 7 1020 70 10000 4.6 210 10:20 15.02.2020
2895 Clouds 7 1020 75 10000 3.6 200 09:44 15.02.2020
2896 Clouds 6 1020 80 10000 2.6 190 09:25 15.02.2020
2897 Clouds 6 1020 80 10000 3.6 170 08:58 15.02.2020
2898 Clouds 6 1020 81 10000 3.6 180 08:39 15.02.2020
2899 Clouds 5 1020 81 10000 2.6 180 08:19 15.02.2020
2900 Clouds 5 1020 80 10000 2.1 180 07:41 15.02.2020
2901 Clouds 5 1020 75 10000 3.6 180 07:22 15.02.2020
2902 Clouds 5 1020 75 10000 3.6 190 06:38 15.02.2020
2903 Clouds 5 1020 75 10000 4.1 190 06:20 15.02.2020
2904 Clouds 4 1021 80 10000 3.1 170 04:51 15.02.2020
2905 Clouds 4 1021 80 10000 2.6 170 04:26 15.02.2020
2906 Clouds 4 1022 80 10000 2.6 160 02:59 15.02.2020
2907 Clouds 4 1022 80 10000 2.1 170 02:28 15.02.2020
2908 Clouds 5 1022 80 10000 2.1 190 01:59 15.02.2020
2909 Clouds 5 1022 75 10000 3.6 170 01:36 15.02.2020
2910 Clouds 5 1023 75 10000 2.6 180 00:30 15.02.2020
2911 Clouds 6 1023 75 10000 2.6 180 23:59 14.02.2020
2912 Clouds 6 1023 75 10000 2.6 180 23:38 14.02.2020
2913 Clouds 6 1023 75 10000 3.6 200 23:18 14.02.2020
2914 Clouds 6 1023 86 10000 0.5 170 22:43 14.02.2020
2915 Clouds 6 1023 86 10000 0.5 170 22:22 14.02.2020
2916 Clouds 5 1023 86 10000 1 140 21:50 14.02.2020
2917 Clouds 5 1023 86 10000 2.65 208 21:31 14.02.2020
2918 Clouds 5 1023 86 10000 2.65 208 20:58 14.02.2020
2919 Clouds 5 1023 86 10000 2.65 208 20:38 14.02.2020
2920 Clouds 5 1023 86 10000 2.52 244 20:19 14.02.2020
2921 Clouds 5 1023 86 10000 2.52 244 19:42 14.02.2020
2922 Clouds 5 1022 80 10000 2.52 244 19:24 14.02.2020
2923 Clouds 5 1022 81 10000 2.1 320 18:59 14.02.2020
2924 Clouds 6 1022 81 10000 2.1 320 18:40 14.02.2020
2925 Clouds 6 1021 81 10000 2.6 300 18:21 14.02.2020
2926 Clouds 6 1021 75 10000 3.1 290 17:59 14.02.2020
2927 Clouds 6 1021 75 10000 3.1 290 17:39 14.02.2020
2928 Clouds 7 1020 75 10000 3.1 290 17:18 14.02.2020
2929 Clouds 7 1020 81 10000 3.6 290 16:42 14.02.2020
2930 Clouds 7 1020 81 10000 4.1 290 16:24 14.02.2020
2931 Clouds 7 1019 81 10000 4.1 280 15:58 14.02.2020
2932 Clouds 7 1019 81 10000 4.1 280 15:39 14.02.2020
2933 Rain 7 1019 87 10000 3.6 280 15:21 14.02.2020
2934 Rain 7 1019 81 10000 5.1 270 14:59 14.02.2020
2935 Rain 7 1019 81 10000 5.1 270 14:41 14.02.2020
2936 Rain 7 1019 81 10000 5.1 270 14:41 14.02.2020
2937 Clouds 7 1018 81 10000 4.1 270 14:22 14.02.2020
2938 Clouds 7 1018 81 10000 5.1 290 13:57 14.02.2020
2939 Clouds 7 1018 81 10000 5.1 290 13:39 14.02.2020
2940 Clouds 7 1017 81 10000 4.6 280 13:20 14.02.2020
2941 Clouds 7 1017 81 10000 5.1 280 12:57 14.02.2020
2942 Clouds 7 1017 81 10000 5.1 280 12:57 14.02.2020
2943 Clouds 7 1017 81 10000 4.6 280 12:38 14.02.2020
2944 Clouds 7 1017 81 10000 4.6 280 12:20 14.02.2020
2945 Clouds 7 1016 81 10000 4.6 290 11:57 14.02.2020
2946 Clouds 7 1016 81 10000 4.6 290 11:39 14.02.2020
2947 Clouds 7 1015 87 10000 5.1 280 11:19 14.02.2020
2948 Clouds 6 1015 87 10000 4.6 290 10:43 14.02.2020
2949 Clouds 6 1014 93 10000 4.6 280 10:23 14.02.2020
2950 Clouds 6 1014 93 7000 4.1 290 09:56 14.02.2020
2951 Mist 6 1013 93 4700 4.1 290 09:37 14.02.2020
2952 Mist 6 1013 93 4700 4.1 290 09:19 14.02.2020
2953 Rain 6 1012 93 4400 4.1 280 08:40 14.02.2020
2954 Rain 6 1011 93 3700 2.6 280 08:22 14.02.2020
2955 Rain 6 1011 93 3700 2.6 280 08:22 14.02.2020
2956 Rain 6 1011 93 3700 2.6 280 08:22 14.02.2020
2957 Rain 5 1011 93 4100 2.1 280 07:50 14.02.2020
2958 Drizzle 5 1010 93 4100 2.6 280 07:31 14.02.2020
2959 Drizzle 5 1010 100 3000 2.1 250 06:54 14.02.2020
2960 Rain 5 1009 100 3000 1.5 250 06:22 14.02.2020
2961 Rain 5 1008 93 3500 2.1 260 05:44 14.02.2020
2962 Clouds 5 1006 93 7000 1.5 240 03:52 14.02.2020
2963 Clouds 5 1005 93 6000 1 240 03:28 14.02.2020
2964 Rain 4 1004 86 10000 1.5 220 02:20 14.02.2020
2965 Clouds 4 1003 86 10000 1 240 01:22 14.02.2020
2966 Rain 4 1003 93 10000 1 0 00:42 14.02.2020
2967 Rain 4 1003 93 10000 1 0 00:42 14.02.2020
2968 Rain 4 1002 86 10000 2.1 180 00:42 14.02.2020
2969 Rain 4 1002 86 10000 2.1 180 00:21 14.02.2020
2970 Clouds 4 1002 93 10000 1.5 220 23:43 13.02.2020
2971 Rain 3 1001 86 10000 1 0 23:20 13.02.2020
2972 Clouds 3 1001 93 10000 1 160 22:43 13.02.2020
2973 Rain 3 1000 86 10000 2.6 190 22:20 13.02.2020
2974 Clouds 3 1000 93 10000 1.5 200 21:59 13.02.2020
2975 Clouds 3 1000 93 10000 1.5 200 21:40 13.02.2020
2976 Clouds 4 1000 75 10000 2.1 210 21:22 13.02.2020
2977 Clouds 4 1000 80 10000 2.6 180 20:56 13.02.2020
2978 Clouds 4 1000 80 10000 2.6 180 20:38 13.02.2020
2979 Clouds 4 1000 80 10000 3.6 170 20:20 13.02.2020
2980 Clouds 4 1000 80 10000 3.1 160 19:55 13.02.2020
2981 Clouds 4 1000 80 10000 3.6 160 19:36 13.02.2020
2982 Clouds 4 1000 80 10000 3.6 160 19:36 13.02.2020
2983 Clouds 4 1000 80 10000 3.6 160 19:36 13.02.2020
2984 Clouds 4 1000 80 10000 3.6 160 19:18 13.02.2020
2985 Clouds 4 1000 80 10000 5.1 150 18:43 13.02.2020
2986 Drizzle 4 1000 80 10000 5.7 160 18:24 13.02.2020
2987 Clouds 4 1000 80 10000 5.7 140 17:59 13.02.2020
2988 Clouds 4 1000 80 10000 5.7 140 17:40 13.02.2020
2989 Clouds 4 1000 80 10000 8.2 140 17:20 13.02.2020
2990 Clouds 4 1001 80 10000 7.7 140 16:58 13.02.2020
2991 Clouds 4 1001 80 10000 7.7 140 16:37 13.02.2020
2992 Rain 4 1001 80 10000 5.7 120 16:19 13.02.2020
2993 Clouds 4 1003 86 10000 5.7 130 15:56 13.02.2020
2994 Clouds 4 1003 86 10000 5.7 130 15:37 13.02.2020
2995 Rain 3 1004 86 10000 5.1 150 15:19 13.02.2020
2996 Rain 4 1005 80 10000 4.6 140 14:56 13.02.2020
2997 Rain 4 1005 80 10000 4.6 140 14:38 13.02.2020
2998 Rain 4 1005 80 10000 4.1 130 14:20 13.02.2020
2999 Rain 4 1006 63 9000 4.1 150 13:46 13.02.2020
3000 Clouds 4 1007 69 10000 5.7 150 13:18 13.02.2020
3001 Clouds 4 1007 69 10000 5.7 150 13:18 13.02.2020
3002 Clouds 4 1007 63 10000 4.1 140 12:56 13.02.2020
3003 Clouds 4 1008 63 10000 5.1 150 12:37 13.02.2020
3004 Clouds 4 1007 63 10000 4.1 140 12:37 13.02.2020
3005 Clouds 5 1008 63 10000 5.1 150 12:19 13.02.2020
3006 Clouds 5 1009 69 10000 4.6 150 11:43 13.02.2020
3007 Clouds 4 1009 69 10000 3.6 150 11:20 13.02.2020
3008 Clouds 4 1010 69 10000 3.6 160 10:55 13.02.2020
3009 Clouds 4 1010 74 10000 3.6 160 10:37 13.02.2020
3010 Clouds 3 1010 74 10000 3.6 160 10:19 13.02.2020
3011 Clouds 3 1011 74 10000 3.6 170 09:41 13.02.2020
3012 Clouds 3 1011 80 10000 3.6 170 09:22 13.02.2020
3013 Clouds 2 1012 74 10000 2.6 170 08:44 13.02.2020
3014 Clouds 1 1012 80 10000 3.1 170 08:19 13.02.2020
3015 Clouds 1 1012 74 10000 3.6 200 07:42 13.02.2020
3016 Clouds 1 1013 80 10000 4.1 210 07:22 13.02.2020
3017 Clouds 1 1013 80 10000 4.1 210 07:22 13.02.2020
3018 Clouds 1 1012 86 10000 2.1 180 06:52 13.02.2020
3019 Clouds 1 1012 89 10000 3.1 210 06:33 13.02.2020
3020 Clouds 2 1012 86 10000 2.6 200 05:43 13.02.2020
3021 Clear 2 1013 80 10000 4.1 220 04:39 13.02.2020
3022 Clear 2 1013 80 10000 3.1 210 04:18 13.02.2020
3023 Clear 2 1013 80 10000 3.6 230 03:30 13.02.2020
3024 Clear 2 1013 80 10000 4.1 230 02:56 13.02.2020
3025 Clouds 3 1014 74 10000 5.7 240 02:20 13.02.2020
3026 Clouds 3 1013 74 10000 6.2 250 01:41 13.02.2020
3027 Clouds 3 1013 74 10000 6.7 240 00:57 13.02.2020
3028 Clouds 3 1013 74 10000 6.7 250 00:27 13.02.2020
3029 Clouds 3 1013 74 10000 6.7 240 23:43 12.02.2020
3030 Clouds 3 1013 74 10000 6.2 250 23:23 12.02.2020
3031 Clouds 3 1013 74 10000 6.2 250 23:23 12.02.2020
3032 Clouds 3 1012 69 10000 6.2 230 22:59 12.02.2020
3033 Clouds 3 1012 69 10000 6.2 230 22:41 12.02.2020
3034 Clouds 3 1012 69 10000 6.2 260 22:22 12.02.2020
3035 Clouds 4 1012 69 10000 5.7 260 21:55 12.02.2020
3036 Clouds 4 1012 74 10000 4.1 260 21:37 12.02.2020
3037 Clouds 4 1012 74 10000 4.1 260 21:18 12.02.2020
3038 Clouds 4 1012 74 10000 5.1 260 20:43 12.02.2020
3039 Clouds 4 1012 74 10000 4.1 260 20:25 12.02.2020
3040 Clouds 4 1012 72 10000 4.1 270 20:00 12.02.2020
3041 Clouds 4 1012 72 10000 4.1 270 19:41 12.02.2020
3042 Clouds 4 1011 72 10000 4.6 270 19:22 12.02.2020
3043 Clouds 4 1011 69 10000 6.7 260 18:54 12.02.2020
3044 Clouds 4 1010 65 10000 7.7 270 18:36 12.02.2020
3045 Clouds 4 1010 65 10000 7.7 270 18:18 12.02.2020
3046 Clouds 5 1010 69 10000 5.1 270 17:40 12.02.2020
3047 Clouds 5 1009 63 10000 7.2 290 17:19 12.02.2020
3048 Clouds 5 1009 62 10000 5.1 270 16:57 12.02.2020
3049 Clouds 5 1009 62 10000 8.7 280 16:37 12.02.2020
3050 Clouds 5 1009 63 10000 8.7 280 16:18 12.02.2020
3051 Clouds 5 1008 52 10000 10.8 260 15:39 12.02.2020
3052 Clouds 6 1008 52 10000 10.8 260 15:20 12.02.2020
3053 Clouds 6 1008 52 10000 8.7 260 14:54 12.02.2020
3054 Clouds 6 1008 52 10000 10.3 260 14:36 12.02.2020
3055 Clouds 6 1008 52 10000 10.3 260 14:18 12.02.2020
3056 Clouds 6 1008 60 10000 11.8 270 13:55 12.02.2020
3057 Clouds 6 1008 52 10000 11.3 260 13:36 12.02.2020
3058 Clouds 6 1008 52 10000 11.3 260 13:18 12.02.2020
3059 Clouds 6 1008 60 10000 9.8 260 12:55 12.02.2020
3060 Clouds 6 1007 60 10000 9.3 260 12:36 12.02.2020
3061 Clouds 6 1007 60 10000 9.3 260 12:18 12.02.2020
3062 Clouds 6 1007 60 10000 10.8 260 11:41 12.02.2020
3063 Clouds 5 1007 60 10000 10.3 260 11:21 12.02.2020
3064 Clouds 5 1006 60 10000 9.8 260 10:59 12.02.2020
3065 Clouds 5 1006 60 10000 9.8 260 10:40 12.02.2020
3066 Clouds 4 1006 64 10000 10.8 260 10:21 12.02.2020
3067 Clouds 4 1006 64 10000 10.8 260 10:21 12.02.2020
3068 Clouds 4 1006 64 10000 9.3 260 09:57 12.02.2020
3069 Clouds 4 1006 64 10000 9.3 260 09:39 12.02.2020
3070 Clouds 4 1006 64 10000 9.8 260 09:19 12.02.2020
3071 Clouds 4 1005 69 10000 9.8 260 08:55 12.02.2020
3072 Clouds 4 1005 69 10000 10.3 260 08:37 12.02.2020
3073 Clouds 4 1005 69 10000 10.3 260 08:19 12.02.2020
3074 Clouds 3 1005 69 10000 9.3 260 07:43 12.02.2020
3075 Clouds 3 1005 60 10000 10.3 250 07:22 12.02.2020
3076 Clouds 3 1004 74 10000 9.3 230 06:52 12.02.2020
3077 Clouds 3 1004 74 10000 9.3 250 06:20 12.02.2020
3078 Clouds 3 1004 74 10000 9.8 250 05:36 12.02.2020
3079 Snow 3 1004 74 10000 8.7 240 04:57 12.02.2020
3080 Clouds 3 1004 74 10000 9.8 240 04:38 12.02.2020
3081 Clouds 3 1004 74 10000 8.2 240 03:32 12.02.2020
3082 Clouds 3 1003 74 10000 9.8 240 02:58 12.02.2020
3083 Clouds 3 1003 74 10000 11.3 240 02:28 12.02.2020
3084 Clouds 3 1003 74 10000 11.3 240 02:28 12.02.2020
3085 Clouds 3 1003 74 10000 10.8 240 01:49 12.02.2020
3086 Clouds 3 1002 67 10000 10.8 240 00:45 12.02.2020
3087 Snow 3 1003 74 10000 7.2 250 00:26 12.02.2020
3088 Clouds 2 1002 67 10000 10.8 240 23:55 11.02.2020
3089 Rain 2 1003 93 10000 5.7 240 23:37 11.02.2020
3090 Clouds 2 1002 69 10000 9.3 240 23:19 11.02.2020
3091 Rain 2 1002 69 9000 10.3 240 22:55 11.02.2020
3092 Clouds 2 1002 69 10000 6.7 270 22:37 11.02.2020
3093 Clouds 2 1002 69 10000 6.7 270 22:18 11.02.2020
3094 Clouds 2 1002 74 10000 6.7 260 21:55 11.02.2020
3095 Clouds 2 1002 80 10000 7.2 260 21:37 11.02.2020
3096 Clouds 2 1002 80 10000 7.2 260 21:18 11.02.2020
3097 Clouds 2 1002 80 10000 7.2 260 21:18 11.02.2020
3098 Clouds 2 1002 80 10000 7.2 260 21:18 11.02.2020
3099 Clouds 2 1002 74 10000 8.2 250 20:54 11.02.2020
3100 Rain 2 1002 67 10000 9.8 270 20:36 11.02.2020
3101 Rain 3 1002 66 10000 9.8 270 20:18 11.02.2020
3102 Clouds 3 1001 74 10000 7.7 260 19:42 11.02.2020
3103 Clouds 3 1001 67 10000 7.2 260 19:23 11.02.2020
3104 Clouds 3 1000 74 10000 6.7 250 18:56 11.02.2020
3105 Clouds 4 1000 74 10000 7.7 260 18:37 11.02.2020
3106 Clouds 4 1000 74 10000 7.7 260 18:19 11.02.2020
3107 Clouds 4 1000 69 10000 9.8 270 17:55 11.02.2020
3108 Clouds 4 999 67 10000 7.7 260 17:36 11.02.2020
3109 Clouds 4 999 74 10000 7.7 260 17:18 11.02.2020
3110 Clouds 4 999 80 10000 6.7 260 16:56 11.02.2020
3111 Thunderstorm 4 999 86 10000 9.3 280 16:37 11.02.2020
3112 Thunderstorm 4 999 86 10000 9.3 280 16:19 11.02.2020
3113 Rain 4 997 74 10000 9.3 260 15:44 11.02.2020
3114 Clouds 4 998 74 10000 12.3 260 15:26 11.02.2020
3115 Clouds 5 997 56 10000 11.3 250 14:55 11.02.2020
3116 Clouds 6 997 56 10000 11.8 250 14:36 11.02.2020
3117 Clouds 6 997 56 10000 11.8 250 14:18 11.02.2020
3118 Clouds 6 998 56 10000 10.3 250 13:41 11.02.2020
3119 Clouds 6 998 56 10000 9.3 250 13:21 11.02.2020
3120 Clouds 6 998 56 10000 9.3 250 13:21 11.02.2020
3121 Clouds 6 997 56 10000 11.3 250 12:58 11.02.2020
3122 Clouds 6 997 56 10000 11.3 250 12:40 11.02.2020
3123 Clouds 6 997 60 10000 10.3 260 12:20 11.02.2020
3124 Clouds 6 997 60 10000 10.8 260 11:55 11.02.2020
3125 Clouds 6 996 60 10000 10.8 250 11:36 11.02.2020
3126 Clouds 6 996 60 10000 10.8 250 11:18 11.02.2020
3127 Clouds 6 996 60 10000 11.3 260 10:39 11.02.2020
3128 Clouds 5 996 60 10000 11.3 260 10:20 11.02.2020
3129 Clouds 5 995 65 10000 11.8 260 09:57 11.02.2020
3130 Clouds 5 995 65 10000 11.8 260 09:39 11.02.2020
3131 Clouds 5 995 60 10000 11.3 260 09:20 11.02.2020
3132 Clouds 5 995 60 10000 12.3 260 08:48 11.02.2020
3133 Clouds 5 994 69 10000 11.3 260 08:25 11.02.2020
3134 Clouds 5 994 64 10000 11.8 260 07:51 11.02.2020
3135 Clouds 5 994 64 10000 10.8 250 07:32 11.02.2020
3136 Rain 4 993 69 10000 11.8 240 06:57 11.02.2020
3137 Rain 4 993 69 10000 12.9 240 06:38 11.02.2020
3138 Rain 4 993 69 10000 12.9 240 06:38 11.02.2020
3139 Rain 4 993 69 10000 12.9 240 06:20 11.02.2020
3140 Rain 4 993 69 10000 12.9 240 06:20 11.02.2020
3141 Clouds 4 994 69 10000 10.3 250 05:39 11.02.2020
3142 Clouds 4 993 69 10000 9.8 260 05:19 11.02.2020
3143 Clouds 4 992 74 10000 9.3 270 03:32 11.02.2020
3144 Snow 4 991 80 10000 6.7 260 02:37 11.02.2020
3145 Clouds 3 990 86 10000 6.2 250 01:52 11.02.2020
3146 Clouds 3 990 86 10000 6.7 260 01:30 11.02.2020
3147 Thunderstorm 3 989 93 1500 9.8 280 00:23 11.02.2020
3148 Thunderstorm 5 988 86 9000 7.7 230 23:47 10.02.2020
3149 Rain 6 988 86 9000 6.2 250 23:29 10.02.2020
3150 Clouds 6 988 86 10000 5.1 200 22:57 10.02.2020
3151 Clouds 5 991 75 10000 5.7 200 22:37 10.02.2020
3152 Clouds 5 991 75 10000 5.7 200 22:19 10.02.2020
3153 Clouds 5 992 75 10000 7.2 230 21:41 10.02.2020
3154 Clouds 5 992 95 10000 8.2 220 21:23 10.02.2020
3155 Rain 5 993 95 10000 5.7 220 20:56 10.02.2020
3156 Rain 6 993 95 10000 5.7 220 20:38 10.02.2020
3157 Rain 6 994 70 10000 4.6 220 20:19 10.02.2020
3158 Clouds 6 995 66 10000 5.1 230 19:58 10.02.2020
3159 Clouds 6 996 66 10000 5.1 250 19:37 10.02.2020
3160 Clouds 5 996 66 10000 5.1 250 19:18 10.02.2020
3161 Clouds 5 996 66 10000 7.2 240 18:58 10.02.2020
3162 Clouds 5 996 66 10000 7.2 240 18:58 10.02.2020
3163 Clouds 5 996 66 10000 7.2 240 18:39 10.02.2020
3164 Clouds 5 996 66 10000 8.7 260 18:20 10.02.2020
3165 Clouds 5 996 66 10000 10.8 260 17:55 10.02.2020
3166 Clouds 5 996 75 10000 8.2 260 17:37 10.02.2020
3167 Clouds 5 996 75 10000 8.2 260 17:37 10.02.2020
3168 Clouds 5 996 75 10000 8.2 260 17:18 10.02.2020
3169 Clouds 6 996 62 10000 9.8 260 16:58 10.02.2020
3170 Clouds 6 996 62 10000 9.8 260 16:38 10.02.2020
3171 Clouds 5 995 75 10000 13.4 270 16:18 10.02.2020
3172 Rain 5 995 70 10000 9.8 290 15:42 10.02.2020
3173 Rain 6 994 52 10000 11.8 270 15:23 10.02.2020
3174 Rain 7 994 70 10000 7.7 280 14:59 10.02.2020
3175 Rain 7 994 70 10000 7.7 280 14:41 10.02.2020
3176 Rain 7 994 70 10000 7.7 280 14:41 10.02.2020
3177 Rain 6 993 75 10000 9.8 280 14:19 10.02.2020
3178 Rain 6 993 75 10000 9.8 280 13:57 10.02.2020
3179 Rain 6 993 75 10000 9.8 280 13:39 10.02.2020
3180 Clouds 6 993 75 10000 11.8 280 13:21 10.02.2020
3181 Rain 5 993 80 7000 10.8 270 12:47 10.02.2020
3182 Rain 5 993 93 10000 12.3 270 12:26 10.02.2020
3183 Clouds 6 990 75 10000 9.8 260 11:56 10.02.2020
3184 Rain 6 990 81 10000 10.3 260 11:38 10.02.2020
3185 Rain 6 990 81 10000 10.3 260 11:19 10.02.2020
3186 Rain 6 989 86 10000 8.2 260 10:46 10.02.2020
3187 Rain 6 989 86 10000 9.3 270 10:27 10.02.2020
3188 Rain 6 987 87 7000 4.6 280 09:47 10.02.2020
3189 Rain 6 987 87 7000 4.6 280 09:47 10.02.2020
3190 Rain 6 987 81 8000 8.7 270 09:26 10.02.2020
3191 Rain 6 987 81 8000 8.7 270 09:26 10.02.2020
3192 Rain 6 987 75 10000 9.3 270 08:57 10.02.2020
3193 Rain 7 986 81 6000 10.3 280 08:37 10.02.2020
3194 Rain 7 986 81 6000 10.3 280 08:18 10.02.2020
3195 Rain 7 985 66 10000 8.7 270 07:49 10.02.2020
3196 Rain 8 985 66 10000 8.2 250 07:27 10.02.2020
3197 Rain 9 984 70 10000 12.3 240 06:20 10.02.2020
3198 Clouds 9 984 76 10000 9.3 250 04:42 10.02.2020
3199 Rain 9 984 87 10000 10.3 250 03:34 10.02.2020
3200 Rain 9 983 87 10000 7.7 230 02:55 10.02.2020
3201 Rain 9 983 87 6000 11.3 240 01:59 10.02.2020
3202 Rain 11 984 93 4000 9.8 250 00:52 10.02.2020
3203 Rain 11 984 87 7000 7.7 240 00:31 10.02.2020
3204 Rain 12 984 76 10000 8.7 210 23:58 09.02.2020
3205 Rain 12 985 76 10000 10.8 220 23:39 09.02.2020
3206 Rain 12 986 71 10000 13.4 220 23:21 09.02.2020
3207 Clouds 12 986 66 10000 11.8 210 22:41 09.02.2020
3208 Clouds 12 987 71 10000 14.9 220 22:21 09.02.2020
3209 Clouds 12 988 71 10000 8.7 200 21:45 09.02.2020
3210 Rain 12 989 76 10000 10.8 220 21:25 09.02.2020
3211 Clouds 13 990 58 10000 10.8 200 20:59 09.02.2020
3212 Clouds 13 990 58 10000 10.8 200 20:41 09.02.2020
3213 Rain 13 991 66 10000 9.3 210 20:19 09.02.2020
3214 Clouds 13 994 54 10000 11.8 210 19:40 09.02.2020
3215 Clouds 13 994 54 10000 11.8 210 19:40 09.02.2020
3216 Clouds 13 994 54 10000 11.8 210 19:21 09.02.2020
3217 Clouds 12 996 50 10000 11.3 210 18:59 09.02.2020
3218 Clouds 12 996 50 10000 11.3 210 18:40 09.02.2020
3219 Clouds 12 997 50 10000 10.3 220 18:22 09.02.2020
3220 Clouds 12 997 50 10000 10.8 220 17:43 09.02.2020
3221 Clouds 12 998 50 10000 8.7 210 17:23 09.02.2020
3222 Clouds 12 999 50 10000 9.3 210 16:57 09.02.2020
3223 Clouds 12 999 50 10000 9.3 210 16:39 09.02.2020
3224 Clouds 12 1001 50 10000 10.3 210 16:20 09.02.2020
3225 Clouds 12 1002 50 10000 8.7 210 15:57 09.02.2020
3226 Clouds 12 1002 50 10000 8.7 210 15:57 09.02.2020
3227 Clouds 12 1002 50 10000 9.8 210 15:39 09.02.2020
3228 Clouds 12 1002 50 10000 9.8 210 15:20 09.02.2020
3229 Clouds 12 1003 50 10000 8.2 210 14:55 09.02.2020
3230 Clouds 11 1004 50 10000 8.2 210 14:36 09.02.2020
3231 Clouds 11 1004 50 10000 8.2 210 14:18 09.02.2020
3232 Clouds 11 1005 50 10000 9.3 210 13:41 09.02.2020
3233 -273 0 0 0 0 0 13:21 09.02.2020
3234 Clouds 11 1008 57 10000 9.8 210 12:54 09.02.2020
3235 Clouds 11 1009 66 10000 8.7 210 12:36 09.02.2020
3236 Clouds 11 1009 66 10000 8.7 210 12:18 09.02.2020
3237 Clouds 10 1010 66 10000 8.7 220 11:39 09.02.2020
3238 Clouds 10 1011 61 10000 8.7 220 11:19 09.02.2020
3239 Clouds 9 1011 61 10000 5.7 200 10:43 09.02.2020
3240 Clouds 9 1012 61 10000 7.7 210 10:23 09.02.2020
3241 Clouds 9 1012 66 10000 7.2 210 09:58 09.02.2020
3242 Clouds 8 1012 66 10000 7.2 210 09:39 09.02.2020
3243 Clouds 8 1013 65 10000 5.1 200 09:20 09.02.2020
3244 Clouds 7 1012 70 10000 4.6 170 08:42 09.02.2020
3245 Clouds 6 1012 75 10000 6.2 190 08:23 09.02.2020
3246 Clouds 6 1013 75 10000 4.1 180 07:54 09.02.2020
3247 Clouds 6 1014 75 10000 7.2 190 07:34 09.02.2020
3248 Clouds 6 1015 75 10000 4.1 180 06:42 09.02.2020
3249 Clouds 6 1016 75 10000 3.6 170 05:56 09.02.2020
3250 Clouds 6 1016 75 10000 3.6 170 05:56 09.02.2020
3251 Clouds 6 1016 75 10000 3.6 180 05:34 09.02.2020
3252 Clouds 6 1017 75 10000 3.1 170 04:51 09.02.2020
3253 Clouds 7 1017 75 10000 3.6 200 03:30 09.02.2020
3254 Clouds 7 1017 75 10000 2.1 200 02:43 09.02.2020
3255 Clouds 7 1018 70 10000 2.6 180 01:45 09.02.2020
3256 Clouds 7 1018 70 10000 3.1 190 01:27 09.02.2020
3257 Clouds 7 1019 70 10000 2.6 190 00:40 09.02.2020
3258 Clouds 7 1019 70 10000 2.1 180 00:18 09.02.2020
3259 Clouds 7 1019 65 10000 3.1 200 23:42 08.02.2020
3260 Clouds 7 1019 75 10000 3.1 200 23:19 08.02.2020
3261 Clouds 7 1019 75 10000 2.1 190 22:41 08.02.2020
3262 Clouds 7 1019 70 10000 3.1 170 22:21 08.02.2020
3263 Clouds 7 1019 75 9000 3.1 200 21:58 08.02.2020
3264 Clouds 7 1019 70 10000 3.6 210 21:40 08.02.2020
3265 Clouds 7 1019 70 10000 3.6 210 21:19 08.02.2020
3266 Clouds 7 1019 75 9000 2.6 190 20:55 08.02.2020
3267 Clouds 7 1019 70 10000 3.6 190 20:37 08.02.2020
3268 Clouds 8 1019 70 10000 3.6 190 20:19 08.02.2020
3269 Clouds 8 1019 70 9000 3.1 180 19:54 08.02.2020
3270 Clouds 7 1019 70 10000 2.6 190 19:36 08.02.2020
3271 Clouds 7 1019 70 10000 2.6 190 19:18 08.02.2020
3272 Clouds 7 1019 70 9000 2.6 170 18:42 08.02.2020
3273 Clouds 7 1019 70 9000 2.6 170 18:42 08.02.2020
3274 Clouds 7 1020 57 10000 3.6 190 18:23 08.02.2020
3275 Clouds 8 1020 57 10000 3.6 190 17:43 08.02.2020
3276 Clouds 8 1020 57 10000 3.1 210 17:21 08.02.2020
3277 Clouds 8 1020 57 10000 3.1 210 17:21 08.02.2020
3278 Clouds 8 1020 57 10000 2.6 220 16:59 08.02.2020
3279 Clouds 8 1020 57 10000 2.6 220 16:39 08.02.2020
3280 Clouds 8 1020 57 10000 3.1 220 16:21 08.02.2020
3281 Clouds 8 1020 57 10000 3.1 220 16:21 08.02.2020
3282 Clouds 9 1020 57 10000 2.1 240 15:43 08.02.2020
3283 Clouds 9 1020 57 10000 2.1 220 15:19 08.02.2020
3284 Clouds 8 1020 57 10000 4.1 230 14:59 08.02.2020
3285 Clouds 8 1020 72 10000 3.1 210 14:40 08.02.2020
3286 Clouds 8 1020 66 10000 3.1 210 14:19 08.02.2020
3287 Clouds 8 1021 52 10000 3.6 220 13:43 08.02.2020
3288 Clouds 8 1021 66 10000 3.1 200 13:43 08.02.2020
3289 Clouds 8 1021 52 10000 3.6 220 13:23 08.02.2020
3290 Clouds 8 1021 52 10000 4.1 230 12:57 08.02.2020
3291 Clouds 8 1021 52 10000 2.6 230 12:37 08.02.2020
3292 Clouds 7 1021 52 10000 2.6 230 12:19 08.02.2020
3293 Clouds 7 1021 52 10000 2.6 190 11:43 08.02.2020
3294 Clouds 6 1021 52 10000 2.1 200 11:22 08.02.2020
3295 Clear 6 1021 60 10000 2.6 210 10:57 08.02.2020
3296 Clear 5 1021 60 10000 2.6 210 10:39 08.02.2020
3297 Clear 4 1021 64 10000 2.6 190 10:20 08.02.2020
3298 Clear 3 1021 74 10000 2.6 160 09:50 08.02.2020
3299 Clear 3 1022 64 10000 2.1 120 09:24 08.02.2020
3300 Clouds 2 1021 64 10000 3.6 150 08:47 08.02.2020
3301 Clear 1 1021 74 10000 3.1 170 08:27 08.02.2020
3302 Clouds 1 1021 92 10000 1.5 140 07:54 08.02.2020
3303 Clear 1 1021 69 10000 4.1 180 07:35 08.02.2020
3304 Clouds 1 1021 92 10000 1 160 06:55 08.02.2020
3305 Clear 1 1021 74 10000 2.1 140 06:23 08.02.2020
3306 Clear 1 1021 74 10000 3.1 150 05:39 08.02.2020
3307 Clear 1 1021 69 10000 2.1 120 05:21 08.02.2020
3308 Clear 1 1022 80 10000 3.1 150 04:31 08.02.2020
3309 Clear 1 1022 74 10000 3.1 140 03:39 08.02.2020
3310 Clear 1 1023 86 10000 2.1 120 02:43 08.02.2020
3311 Clear 1 1024 86 10000 5.7 160 01:37 08.02.2020
3312 Clear 2 1024 87 10000 3.1 120 00:59 08.02.2020
3313 Clear 2 1024 87 10000 4.6 150 00:38 08.02.2020
3314 Clear 2 1024 87 10000 2.6 120 00:20 08.02.2020
3315 Clouds 2 1025 87 10000 2.6 120 23:42 07.02.2020
3316 Clear 3 1024 87 10000 2.6 120 23:20 07.02.2020
3317 Clouds 3 1025 80 10000 3.1 130 22:56 07.02.2020
3318 Clouds 3 1026 87 10000 4.1 140 22:37 07.02.2020
3319 Clouds 3 1026 87 10000 4.1 140 22:19 07.02.2020
3320 Clouds 4 1026 75 10000 5.7 130 21:42 07.02.2020
3321 Clouds 4 1026 75 10000 5.7 150 21:22 07.02.2020
3322 Clouds 4 1026 75 10000 5.7 140 20:54 07.02.2020
3323 Clouds 4 1026 75 10000 4.6 130 20:36 07.02.2020
3324 Clouds 4 1026 75 10000 4.6 130 20:18 07.02.2020
3325 Clouds 4 1026 75 10000 4.6 130 19:40 07.02.2020
3326 Clouds 4 1027 75 10000 4.6 130 19:19 07.02.2020
3327 Clouds 4 1027 75 10000 5.7 130 18:55 07.02.2020
3328 Clouds 5 1027 75 10000 4.1 120 18:37 07.02.2020
3329 Clouds 5 1027 75 10000 4.1 120 18:18 07.02.2020
3330 Clouds 5 1027 80 10000 4.1 130 17:42 07.02.2020
3331 Clouds 5 1027 75 10000 5.1 120 17:21 07.02.2020
3332 Clouds 6 1027 80 10000 4.6 130 16:55 07.02.2020
3333 Clouds 6 1028 75 10000 3.6 140 16:37 07.02.2020
3334 Clouds 6 1028 75 10000 3.6 140 16:19 07.02.2020
3335 Clouds 6 1028 75 10000 4.1 130 15:44 07.02.2020
3336 Clouds 6 1028 70 10000 3.1 130 15:21 07.02.2020
3337 Clouds 6 1028 75 10000 3.6 150 14:44 07.02.2020
3338 Clouds 6 1028 75 10000 3.1 160 14:26 07.02.2020
3339 Clouds 6 1029 75 10000 2.6 150 13:58 07.02.2020
3340 Clouds 6 1029 75 10000 2.6 150 13:39 07.02.2020
3341 Clouds 6 1029 75 10000 2.1 140 13:21 07.02.2020
3342 Clouds 6 1029 75 10000 2.1 140 13:21 07.02.2020
3343 Clouds 6 1029 75 10000 1.5 0 12:56 07.02.2020
3344 Clouds 6 1030 75 10000 2.1 130 12:38 07.02.2020
3345 Clouds 6 1030 75 10000 2.1 130 12:20 07.02.2020
3346 Clouds 6 1030 75 10000 2.25 118 11:42 07.02.2020
3347 Clouds 6 1030 80 10000 0.5 140 11:21 07.02.2020
3348 Clouds 5 1030 80 10000 0.78 181 10:42 07.02.2020
3349 Clouds 5 1030 80 10000 1 0 10:24 07.02.2020
3350 Clouds 5 1030 86 10000 0.5 0 09:58 07.02.2020
3351 Clouds 4 1030 86 10000 0.5 0 09:39 07.02.2020
3352 Clouds 4 1030 86 10000 0.5 0 09:21 07.02.2020
3353 Clouds 4 1030 86 10000 0.78 181 08:43 07.02.2020
3354 Clouds 4 1030 86 10000 1.48 256 08:21 07.02.2020
3355 Clouds 4 1030 86 9000 1.48 256 07:49 07.02.2020
3356 Clouds 4 1029 86 9000 1 260 07:30 07.02.2020
3357 Clouds 4 1030 93 8000 1 0 06:47 07.02.2020
3358 Clouds 4 1030 93 8000 1 0 06:47 07.02.2020
3359 Clouds 4 1030 86 10000 0.5 140 06:27 07.02.2020
3360 Clouds 4 1030 93 6000 1 220 05:58 07.02.2020
3361 Clouds 4 1030 86 10000 1 310 05:36 07.02.2020
3362 Clouds 4 1030 86 10000 1 0 03:33 07.02.2020
3363 Clouds 4 1030 86 7000 2.1 240 01:51 07.02.2020
3364 Clouds 4 1030 86 7000 1 260 00:51 07.02.2020
3365 Clouds 4 1030 86 10000 2.1 290 00:26 07.02.2020
3366 Clouds 5 1030 86 9000 2.1 260 23:38 06.02.2020
3367 Clouds 5 1030 86 9000 2.6 280 23:19 06.02.2020
3368 Clouds 5 1030 86 8000 1.5 250 22:47 06.02.2020
3369 Clouds 5 1029 80 10000 2.1 270 22:26 06.02.2020
3370 Clouds 5 1029 80 10000 2.6 270 21:58 06.02.2020
3371 Clouds 5 1029 80 10000 3.1 270 21:36 06.02.2020
3372 Clouds 5 1029 80 10000 3.1 270 21:18 06.02.2020
3373 Clouds 5 1029 80 10000 3.1 280 20:55 06.02.2020
3374 Clouds 5 1029 80 10000 3.6 290 20:36 06.02.2020
3375 Clouds 5 1029 80 10000 3.6 290 20:18 06.02.2020
3376 Clouds 5 1029 80 10000 3.1 280 19:56 06.02.2020
3377 Clouds 5 1029 80 10000 3.1 280 19:37 06.02.2020
3378 Clouds 5 1029 80 10000 3.1 280 19:19 06.02.2020
3379 Clouds 5 1029 80 10000 3.6 270 18:42 06.02.2020
3380 Clouds 5 1029 75 10000 4.1 260 18:24 06.02.2020
3381 Clouds 5 1029 75 10000 4.6 270 17:59 06.02.2020
3382 Clouds 5 1029 75 10000 4.6 270 17:41 06.02.2020
3383 Clouds 5 1029 80 10000 4.6 260 17:20 06.02.2020
3384 Clouds 6 1029 70 10000 5.7 270 16:43 06.02.2020
3385 Clouds 6 1029 75 10000 5.7 270 16:25 06.02.2020
3386 Clouds 6 1029 75 10000 5.7 270 15:44 06.02.2020
3387 Clouds 6 1029 70 10000 5.7 270 15:24 06.02.2020
3388 Clouds 6 1029 70 10000 5.1 270 14:59 06.02.2020
3389 Clouds 6 1029 70 10000 5.1 270 14:41 06.02.2020
3390 Clouds 6 1029 70 10000 5.1 260 14:23 06.02.2020
3391 Drizzle 6 1029 70 10000 5.1 270 13:45 06.02.2020
3392 Clouds 5 1030 75 10000 4.6 270 13:26 06.02.2020
3393 Clouds 5 1030 75 10000 4.1 280 12:45 06.02.2020
3394 Clouds 5 1030 75 10000 5.7 280 12:20 06.02.2020
3395 Clouds 5 1030 75 10000 4.1 280 11:59 06.02.2020
3396 Clouds 5 1030 75 10000 4.1 280 11:41 06.02.2020
3397 Clouds 5 1030 75 10000 4.6 270 11:22 06.02.2020
3398 Clouds 5 1030 80 10000 4.1 270 10:58 06.02.2020
3399 Clouds 4 1030 80 10000 5.1 280 10:40 06.02.2020
3400 Clouds 4 1030 80 10000 5.1 280 10:21 06.02.2020
3401 Clouds 4 1030 80 10000 4.1 280 09:58 06.02.2020
3402 Clouds 4 1030 80 10000 4.1 280 09:40 06.02.2020
3403 Clouds 4 1029 86 10000 3.1 280 09:20 06.02.2020
3404 Clouds 4 1029 86 10000 4.1 270 08:43 06.02.2020
3405 Clouds 3 1029 86 10000 3.6 270 08:23 06.02.2020
3406 Clouds 3 1029 93 10000 3.1 270 07:55 06.02.2020
3407 Clouds 3 1029 93 10000 3.1 270 07:55 06.02.2020
3408 Clouds 3 1029 93 10000 3.1 270 07:29 06.02.2020
3409 Clouds 3 1029 86 10000 3.6 250 06:48 06.02.2020
3410 Clouds 3 1030 86 10000 5.1 260 06:19 06.02.2020
3411 Clouds 3 1031 86 10000 4.1 270 05:33 06.02.2020
3412 Clouds 3 1031 92 10000 3.6 250 04:18 06.02.2020
3413 Clouds 3 1031 92 10000 2.6 250 03:18 06.02.2020
3414 Clouds 3 1031 89 10000 3.1 240 01:57 06.02.2020
3415 Clouds 3 1032 89 10000 3.1 260 01:24 06.02.2020
3416 Clouds 3 1032 90 10000 3.6 240 00:41 06.02.2020
3417 Clouds 3 1033 90 10000 3.6 260 00:19 06.02.2020
3418 Clouds 3 1032 74 10000 3.1 240 23:42 05.02.2020
3419 Clouds 3 1033 79 10000 3.6 260 23:23 05.02.2020
3420 Clouds 3 1032 74 10000 3.1 240 22:56 05.02.2020
3421 Clouds 3 1033 74 10000 4.1 250 22:37 05.02.2020
3422 Clouds 3 1033 74 10000 4.1 250 22:19 05.02.2020
3423 Clouds 3 1033 74 10000 4.1 250 21:41 05.02.2020
3424 Clouds 2 1033 80 10000 3.6 260 21:22 05.02.2020
3425 Clouds 2 1033 74 10000 2.6 260 20:55 05.02.2020
3426 Clouds 2 1033 79 10000 3.1 260 20:37 05.02.2020
3427 Clouds 2 1033 75 10000 3.1 260 20:18 05.02.2020
3428 Clouds 1 1033 74 10000 3.1 280 19:55 05.02.2020
3429 Clouds 1 1033 74 10000 2.6 280 19:37 05.02.2020
3430 Clouds 1 1033 74 10000 2.6 280 19:18 05.02.2020
3431 Clouds 2 1033 74 10000 2.6 260 18:43 05.02.2020
3432 Clouds 2 1033 74 10000 3.1 270 18:21 05.02.2020
3433 Clouds 3 1033 69 10000 3.6 270 17:58 05.02.2020
3434 Clouds 3 1033 64 10000 4.1 260 17:37 05.02.2020
3435 Clear 4 1033 64 10000 4.1 260 17:18 05.02.2020
3436 Clear 5 1033 65 10000 4.1 260 16:44 05.02.2020
3437 Clear 5 1033 60 10000 4.6 280 16:25 05.02.2020
3438 Clear 5 1033 60 10000 4.1 260 15:59 05.02.2020
3439 Clear 5 1034 65 10000 4.1 280 15:40 05.02.2020
3440 Clear 5 1034 65 10000 4.1 280 15:19 05.02.2020
3441 Clear 5 1034 65 10000 4.1 280 14:55 05.02.2020
3442 Clouds 5 1034 69 10000 4.6 280 14:36 05.02.2020
3443 Clouds 5 1034 69 10000 4.6 280 14:18 05.02.2020
3444 Clouds 5 1034 69 10000 3.6 280 13:40 05.02.2020
3445 Clouds 4 1034 74 10000 3.6 300 13:22 05.02.2020
3446 Clouds 4 1034 74 10000 3.6 310 12:44 05.02.2020
3447 Clear 4 1034 74 10000 4.1 310 12:24 05.02.2020
3448 Clouds 3 1034 80 10000 3.6 300 11:57 05.02.2020
3449 Clouds 3 1034 80 10000 3.6 300 11:38 05.02.2020
3450 Clouds 2 1034 80 10000 3.1 290 11:20 05.02.2020
3451 Clouds 1 1033 80 10000 3.6 290 10:43 05.02.2020
3452 Clouds 1 1033 80 10000 3.1 290 10:25 05.02.2020
3453 Clouds 1 1032 80 10000 2.6 290 09:58 05.02.2020
3454 Clouds 0 1031 80 10000 2.6 290 09:38 05.02.2020
3455 Clouds 0 1031 80 10000 2.6 290 09:20 05.02.2020
3456 Clear 0 1031 80 10000 2.6 290 08:45 05.02.2020
3457 Clouds 0 1031 80 10000 3.6 300 08:24 05.02.2020
3458 Clouds 0 1030 80 10000 3.6 310 07:55 05.02.2020
3459 Clouds 0 1030 80 10000 4.1 310 07:34 05.02.2020
3460 Clear 1 1030 87 10000 2.1 290 06:50 05.02.2020
3461 Clouds 1 1030 87 10000 3.1 290 06:23 05.02.2020
3462 Clouds 1 1029 80 10000 2.6 280 05:58 05.02.2020
3463 Clouds 2 1029 80 10000 3.6 310 05:19 05.02.2020
3464 Clouds 2 1027 74 10000 3.1 310 04:54 05.02.2020
3465 Clouds 2 1026 74 10000 4.1 330 03:56 05.02.2020
3466 Clouds 3 1024 74 10000 4.6 320 02:28 05.02.2020
3467 Clouds 3 1023 69 10000 4.6 340 01:55 05.02.2020
3468 Clouds 4 1022 69 10000 5.1 340 00:53 05.02.2020
3469 Clouds 5 1020 82 10000 6.7 320 23:58 04.02.2020
3470 Clouds 5 1021 75 10000 8.7 320 23:39 04.02.2020
3471 Rain 5 1020 86 10000 6.7 310 23:18 04.02.2020
3472 Clouds 5 1019 86 10000 4.1 290 22:56 04.02.2020
3473 Clouds 5 1017 80 10000 6.2 290 22:38 04.02.2020
3474 Clouds 5 1017 80 10000 6.2 290 22:20 04.02.2020
3475 Clouds 5 1017 86 10000 5.7 290 21:54 04.02.2020
3476 Clouds 5 1016 80 10000 6.2 290 21:36 04.02.2020
3477 Clouds 4 1016 80 10000 6.2 290 21:18 04.02.2020
3478 Clouds 4 1015 80 10000 5.7 290 20:42 04.02.2020
3479 Clouds 4 1015 80 10000 5.7 290 20:21 04.02.2020
3480 Clouds 4 1015 80 10000 4.1 290 19:59 04.02.2020
3481 Clouds 4 1015 80 10000 4.1 290 19:40 04.02.2020
3482 Clouds 4 1014 80 10000 4.6 280 19:22 04.02.2020
3483 Clouds 4 1013 80 10000 5.1 280 18:56 04.02.2020
3484 Clouds 4 1013 80 10000 4.6 290 18:38 04.02.2020
3485 Clouds 4 1013 80 10000 4.6 290 18:38 04.02.2020
3486 Clouds 4 1013 80 10000 4.6 290 18:19 04.02.2020
3487 Clouds 4 1012 80 10000 4.1 280 17:43 04.02.2020
3488 Clouds 4 1012 80 10000 4.1 280 17:22 04.02.2020
3489 Rain 5 1011 80 10000 4.6 290 16:59 04.02.2020
3490 Clouds 5 1010 80 10000 5.7 300 16:38 04.02.2020
3491 Clouds 5 1010 80 10000 5.7 300 16:20 04.02.2020
3492 Rain 5 1010 75 7000 5.7 290 15:56 04.02.2020
3493 Rain 5 1010 75 7000 5.7 290 15:38 04.02.2020
3494 Clouds 5 1009 80 10000 4.6 290 15:19 04.02.2020
3495 Rain 5 1009 86 10000 5.7 310 14:44 04.02.2020
3496 Rain 5 1009 70 10000 7.2 280 14:23 04.02.2020
3497 Clouds 5 1009 70 10000 6.7 290 13:59 04.02.2020
3498 Clouds 5 1009 70 10000 6.7 290 13:40 04.02.2020
3499 Clouds 5 1009 75 10000 7.7 290 13:21 04.02.2020
3500 Clouds 6 1008 75 10000 6.7 280 12:54 04.02.2020
3501 Clouds 6 1008 70 10000 7.7 280 12:36 04.02.2020
3502 Clouds 6 1008 70 10000 7.7 280 12:18 04.02.2020
3503 Clouds 5 1008 75 10000 6.7 290 11:54 04.02.2020
3504 Clouds 5 1008 75 10000 6.7 290 11:54 04.02.2020
3505 Clouds 5 1007 75 10000 6.7 280 11:36 04.02.2020
3506 Clouds 5 1007 75 10000 6.7 280 11:18 04.02.2020
3507 Clouds 5 1007 75 10000 7.2 280 10:41 04.02.2020
3508 Clouds 5 1007 80 10000 6.7 280 10:22 04.02.2020
3509 Clouds 5 1006 80 10000 6.2 270 09:42 04.02.2020
3510 Clouds 4 1006 80 10000 5.7 280 09:23 04.02.2020
3511 Clouds 4 1005 80 10000 6.2 280 08:59 04.02.2020
3512 Clouds 4 1005 80 10000 6.2 280 08:40 04.02.2020
3513 Clouds 4 1004 86 10000 5.1 280 08:22 04.02.2020
3514 Clouds 4 1004 86 10000 6.7 280 07:46 04.02.2020
3515 Clouds 4 1003 86 10000 5.7 280 07:23 04.02.2020
3516 Clouds 4 1003 80 10000 4.1 250 06:44 04.02.2020
3517 Clouds 4 1004 93 10000 5.1 270 06:21 04.02.2020
3518 Clouds 4 1003 93 10000 5.1 280 05:29 04.02.2020
3519 Clouds 5 1001 81 10000 2.1 250 03:54 04.02.2020
3520 Clouds 5 1002 86 10000 3.6 270 03:34 04.02.2020
3521 Clouds 5 1002 81 10000 2.6 250 02:59 04.02.2020
3522 Rain 6 1002 100 10000 2.1 260 02:32 04.02.2020
3523 Clouds 6 1002 81 10000 1.5 240 01:55 04.02.2020
3524 Clouds 5 1003 93 10000 1.5 240 01:35 04.02.2020
3525 Clouds 6 1003 81 10000 2.1 250 00:49 04.02.2020
3526 Rain 6 1004 87 10000 4.6 280 00:22 04.02.2020
3527 Clouds 7 1004 70 10000 2.6 270 23:41 03.02.2020
3528 Clouds 7 1005 81 10000 2.1 270 23:22 03.02.2020
3529 Rain 7 1006 75 10000 4.6 260 22:40 03.02.2020
3530 Rain 8 1006 75 10000 4.6 260 22:21 03.02.2020
3531 Clouds 8 1007 75 10000 4.6 240 21:59 03.02.2020
3532 Clouds 8 1008 75 10000 5.7 270 21:39 03.02.2020
3533 Clouds 8 1008 75 10000 5.7 270 21:19 03.02.2020
3534 Clouds 8 1008 75 10000 5.7 270 21:19 03.02.2020
3535 Clouds 8 1008 81 10000 5.1 260 20:42 03.02.2020
3536 Clouds 8 1008 81 10000 4.1 260 20:20 03.02.2020
3537 Clouds 8 1008 75 10000 4.6 260 19:59 03.02.2020
3538 Clouds 8 1009 81 10000 5.7 260 19:40 03.02.2020
3539 Clouds 8 1009 81 10000 5.7 260 19:21 03.02.2020
3540 Clouds 8 1008 81 10000 6.2 270 18:57 03.02.2020
3541 Clouds 8 1008 81 10000 6.2 270 18:38 03.02.2020
3542 Clouds 8 1008 76 10000 6.2 270 18:20 03.02.2020
3543 Clouds 9 1008 81 10000 5.7 270 17:55 03.02.2020
3544 Clouds 8 1008 76 10000 6.7 260 17:36 03.02.2020
3545 Clouds 9 1008 76 10000 6.7 260 17:18 03.02.2020
3546 Clouds 9 1008 76 10000 6.7 270 16:40 03.02.2020
3547 Clouds 9 1008 76 10000 7.2 270 16:21 03.02.2020
3548 Clouds 9 1008 76 10000 6.7 270 15:56 03.02.2020
3549 Clouds 9 1008 76 10000 6.7 270 15:38 03.02.2020
3550 Clouds 9 1008 81 10000 6.7 270 15:19 03.02.2020
3551 Clouds 9 1008 81 10000 7.7 280 14:45 03.02.2020
3552 Clouds 9 1008 81 10000 6.2 270 14:27 03.02.2020
3553 Clouds 9 1008 87 10000 5.7 270 13:59 03.02.2020
3554 Clouds 9 1008 87 10000 5.7 270 13:41 03.02.2020
3555 Clouds 9 1008 93 10000 7.2 260 13:20 03.02.2020
3556 Rain 9 1009 87 7000 4.1 270 12:57 03.02.2020
3557 Rain 9 1009 87 7000 4.1 270 12:38 03.02.2020
3558 Rain 9 1009 87 8000 5.7 270 12:20 03.02.2020
3559 Rain 9 1008 81 10000 6.7 270 11:55 03.02.2020
3560 Rain 9 1008 81 10000 5.7 260 11:36 03.02.2020
3561 Rain 9 1008 81 10000 5.7 260 11:36 03.02.2020
3562 Rain 9 1008 81 10000 5.7 260 11:18 03.02.2020
3563 Clouds 9 1008 81 10000 5.1 280 10:40 03.02.2020
3564 Clouds 9 1008 87 10000 5.1 270 10:21 03.02.2020
3565 Rain 8 1008 87 10000 5.7 270 09:46 03.02.2020
3566 Clouds 8 1007 87 10000 5.7 270 09:23 03.02.2020
3567 Clouds 8 1007 87 10000 4.6 270 08:56 03.02.2020
3568 Clouds 8 1007 87 10000 4.6 270 08:56 03.02.2020
3569 Clouds 8 1006 87 10000 6.7 270 08:37 03.02.2020
3570 Clouds 8 1006 87 10000 6.7 270 08:19 03.02.2020
3571 Rain 8 1006 93 10000 4.1 270 07:40 03.02.2020
3572 Rain 8 1006 87 10000 5.1 280 07:21 03.02.2020
3573 Clouds 8 1006 93 8000 4.6 250 06:51 03.02.2020
3574 Rain 8 1006 93 10000 4.1 270 06:30 03.02.2020
3575 Rain 8 1006 87 10000 5.1 270 05:37 03.02.2020
3576 Rain 8 1006 87 10000 5.1 270 05:18 03.02.2020
3577 Clouds 8 1005 93 9000 1.5 230 03:51 03.02.2020
3578 Rain 8 1006 93 10000 4.6 280 02:37 03.02.2020
3579 Rain 8 1006 93 10000 4.6 280 02:18 03.02.2020
3580 Drizzle 8 1006 93 1200 4.1 260 00:48 03.02.2020
3581 Clouds 8 1006 87 10000 6.2 270 00:25 03.02.2020
3582 Clouds 8 1006 87 10000 7.2 280 23:39 02.02.2020
3583 Clouds 8 1006 93 10000 6.7 280 23:21 02.02.2020
3584 Drizzle 8 1005 100 1200 1.5 240 22:58 02.02.2020
3585 Drizzle 8 1006 93 4000 5.7 270 22:39 02.02.2020
3586 Drizzle 8 1006 100 2800 5.1 290 22:21 02.02.2020
3587 Drizzle 8 1005 100 1200 1.5 250 21:57 02.02.2020
3588 Drizzle 8 1005 100 3500 5.1 280 21:38 02.02.2020
3589 Drizzle 7 1005 100 2800 2.1 260 21:20 02.02.2020
3590 Drizzle 7 1005 100 2000 0.5 260 20:57 02.02.2020
3591 Drizzle 7 1005 100 2000 0.5 260 20:57 02.02.2020
3592 Drizzle 7 1005 100 2800 1 280 20:39 02.02.2020
3593 Drizzle 7 1005 100 3000 1 260 20:20 02.02.2020
3594 Drizzle 7 1005 100 3000 1.5 230 19:57 02.02.2020
3595 Clouds 7 1004 93 5000 2.6 250 19:38 02.02.2020
3596 Clouds 7 1004 93 5000 2.6 250 19:20 02.02.2020
3597 Rain 7 1004 93 4900 2.1 230 18:55 02.02.2020
3598 Rain 6 1004 93 6000 2.1 230 18:37 02.02.2020
3599 Rain 6 1004 93 6000 2.1 230 18:18 02.02.2020
3600 Clouds 6 1004 93 6000 2.6 250 17:57 02.02.2020
3601 Rain 6 1004 93 10000 2.6 220 17:37 02.02.2020
3602 Rain 6 1004 93 10000 2.6 220 17:18 02.02.2020
3603 Rain 6 1004 93 5000 2.1 220 16:56 02.02.2020
3604 Rain 6 1004 87 5000 2.1 230 16:37 02.02.2020
3605 Rain 6 1004 87 5000 2.1 230 16:18 02.02.2020
3606 Rain 7 1004 87 6000 1.5 0 15:55 02.02.2020
3607 Rain 7 1004 87 5000 2.6 230 15:36 02.02.2020
3608 Rain 7 1004 87 5000 2.6 230 15:18 02.02.2020
3609 Rain 7 1004 87 8000 3.6 250 14:43 02.02.2020
3610 Rain 7 1005 87 10000 3.6 230 14:19 02.02.2020
3611 Rain 7 1005 87 10000 3.6 230 14:19 02.02.2020
3612 Rain 7 1005 87 10000 4.1 250 13:58 02.02.2020
3613 Rain 7 1005 87 10000 4.1 250 13:39 02.02.2020
3614 Rain 7 1006 87 10000 3.6 250 13:20 02.02.2020
3615 Rain 7 1006 87 10000 4.1 250 12:56 02.02.2020
3616 Rain 7 1007 87 9000 4.6 260 12:38 02.02.2020
3617 Rain 7 1007 87 9000 4.6 260 12:18 02.02.2020
3618 Clouds 8 1007 75 10000 7.2 250 11:42 02.02.2020
3619 Clouds 8 1007 75 10000 7.7 250 11:19 02.02.2020
3620 Clouds 8 1007 75 10000 7.2 250 10:57 02.02.2020
3621 Clouds 8 1007 75 10000 7.7 250 10:39 02.02.2020
3622 Clouds 8 1007 75 10000 7.7 250 10:21 02.02.2020
3623 Clouds 8 1007 75 10000 7.7 260 09:57 02.02.2020
3624 Clouds 8 1007 75 10000 7.7 260 09:39 02.02.2020
3625 Clouds 8 1007 75 10000 7.7 260 09:39 02.02.2020
3626 Clouds 8 1007 75 10000 7.2 260 09:20 02.02.2020
3627 Clouds 8 1007 75 10000 7.7 260 08:45 02.02.2020
3628 Clouds 8 1007 81 10000 6.7 250 08:26 02.02.2020
3629 Clouds 8 1006 81 10000 7.7 240 07:48 02.02.2020
3630 Clouds 8 1007 81 10000 6.7 250 07:30 02.02.2020
3631 Clouds 8 1006 81 10000 7.7 240 06:56 02.02.2020
3632 Drizzle 8 1007 81 10000 8.2 250 06:37 02.02.2020
3633 Drizzle 8 1007 81 10000 8.2 250 06:18 02.02.2020
3634 Clouds 8 1006 81 10000 8.2 250 05:18 02.02.2020
3635 Rain 8 1005 75 10000 7.7 250 03:42 02.02.2020
3636 Drizzle 8 1006 75 10000 7.7 250 03:21 02.02.2020
3637 Drizzle 9 1005 70 10000 8.7 260 02:19 02.02.2020
3638 Clouds 9 1004 66 10000 9.3 250 01:49 02.02.2020
3639 Clouds 8 1003 66 10000 10.3 240 00:50 02.02.2020
3640 Drizzle 8 1004 75 10000 7.2 250 00:25 02.02.2020
3641 Clouds 8 1003 66 10000 7.7 250 23:57 01.02.2020
3642 Clouds 8 1004 70 10000 6.7 250 23:38 01.02.2020
3643 Rain 8 1004 70 10000 6.2 250 23:19 01.02.2020
3644 Clouds 8 1002 66 10000 7.7 250 22:43 01.02.2020
3645 Rain 8 1003 70 10000 7.7 260 22:18 01.02.2020
3646 Clouds 8 1002 66 10000 7.2 250 21:41 01.02.2020
3647 Rain 9 1002 70 10000 6.2 260 21:19 01.02.2020
3648 Clouds 9 1001 66 10000 6.2 250 20:56 01.02.2020
3649 Clouds 9 1002 70 10000 6.7 270 20:37 01.02.2020
3650 Clouds 9 1002 70 10000 5.1 260 20:18 01.02.2020
3651 Clouds 9 1001 61 10000 7.2 260 19:55 01.02.2020
3652 Clouds 9 1001 71 10000 8.2 270 19:37 01.02.2020
3653 Clouds 9 1001 71 10000 8.2 270 19:37 01.02.2020
3654 Clouds 10 1001 71 10000 8.2 270 19:18 01.02.2020
3655 Clouds 10 1000 66 10000 8.7 240 18:55 01.02.2020
3656 Rain 10 1000 76 10000 8.7 280 18:37 01.02.2020
3657 Rain 11 1000 76 10000 8.7 280 18:18 01.02.2020
3658 Clouds 11 1000 87 10000 5.1 270 17:54 01.02.2020
3659 Rain 11 999 87 10000 4.6 250 17:36 01.02.2020
3660 Rain 11 999 87 10000 4.6 250 17:18 01.02.2020
3661 Rain 11 999 93 10000 4.6 250 16:39 01.02.2020
3662 Rain 11 999 93 10000 4.6 250 16:21 01.02.2020
3663 Rain 11 1000 93 10000 5.1 260 15:47 01.02.2020
3664 Rain 11 999 93 10000 4.6 240 15:29 01.02.2020
3665 Clouds 11 999 93 10000 5.1 240 14:59 01.02.2020
3666 Clouds 11 999 93 10000 5.1 240 14:40 01.02.2020
3667 Clouds 11 999 93 10000 5.7 240 14:20 01.02.2020
3668 Rain 12 1000 87 10000 6.7 240 13:45 01.02.2020
3669 Rain 11 1000 87 4700 5.7 230 13:24 01.02.2020
3670 Rain 11 1000 87 4700 5.7 230 13:24 01.02.2020
3671 Rain 11 1000 87 10000 5.1 230 12:56 01.02.2020
3672 Clouds 11 1000 87 10000 4.6 230 12:38 01.02.2020
3673 Clouds 11 1000 87 10000 4.6 230 12:20 01.02.2020
3674 Rain 11 1001 81 10000 5.7 220 11:39 01.02.2020
3675 Clouds 11 1001 81 10000 5.1 220 11:21 01.02.2020
3676 Clouds 11 1001 81 10000 5.1 220 10:58 01.02.2020
3677 Clouds 11 1001 81 10000 5.1 220 10:39 01.02.2020
3678 Rain 11 1001 81 10000 4.1 220 10:21 01.02.2020
3679 Rain 11 1002 81 10000 5.1 230 09:58 01.02.2020
3680 Rain 11 1002 81 10000 5.1 230 09:40 01.02.2020
3681 Clouds 11 1002 71 10000 6.2 230 09:20 01.02.2020
3682 Rain 11 1001 87 4000 7.2 220 08:48 01.02.2020
3683 Clouds 11 1001 87 9000 5.7 220 07:51 01.02.2020
3684 Clouds 12 1002 76 10000 7.2 230 07:28 01.02.2020
3685 Clouds 12 1002 76 10000 7.2 230 07:28 01.02.2020
3686 Clouds 12 1002 76 4800 6.7 230 06:59 01.02.2020
3687 Rain 12 1002 76 10000 6.7 230 06:40 01.02.2020
3688 Clouds 12 1002 76 10000 6.2 230 05:53 01.02.2020
3689 Clouds 12 1003 76 10000 6.2 230 04:21 01.02.2020
3690 Rain 12 1004 76 10000 7.2 230 03:23 01.02.2020
3691 Clouds 12 1004 71 10000 7.2 220 02:48 01.02.2020
3692 Clouds 12 1004 76 10000 6.7 240 02:30 01.02.2020
3693 Clouds 12 1004 71 10000 8.7 220 01:56 01.02.2020
3694 Clouds 12 1005 71 10000 8.2 240 01:37 01.02.2020
3695 Clouds 12 1005 76 10000 8.2 240 00:38 01.02.2020
3696 Clouds 12 1005 76 10000 8.2 240 00:19 01.02.2020
3697 Clouds 12 1005 76 10000 6.7 240 23:38 31.01.2020
3698 Clouds 12 1005 76 10000 6.7 240 23:18 31.01.2020
3699 Clouds 12 1005 76 10000 6.7 240 23:18 31.01.2020
3700 Clouds 12 1005 81 10000 6.2 230 22:55 31.01.2020
3701 Clouds 12 1006 71 10000 7.2 260 22:37 31.01.2020
3702 Clouds 12 1006 71 10000 7.2 260 22:19 31.01.2020
3703 Clouds 13 1006 71 10000 8.2 250 21:39 31.01.2020
3704 Clouds 13 1006 71 10000 7.2 260 21:21 31.01.2020
3705 Clouds 13 1006 71 10000 7.2 260 21:21 31.01.2020
3706 Clouds 13 1006 71 10000 7.2 260 20:57 31.01.2020
3707 Clouds 13 1006 71 10000 7.2 260 20:39 31.01.2020
3708 Clouds 13 1005 76 10000 8.7 240 20:20 31.01.2020
3709 Clouds 12 1006 76 10000 6.7 250 19:56 31.01.2020
3710 Clouds 12 1006 71 10000 7.2 240 19:38 31.01.2020
3711 Clouds 12 1006 71 10000 7.2 240 19:19 31.01.2020
3712 Clouds 12 1006 71 10000 7.2 240 19:19 31.01.2020
3713 Clouds 12 1005 76 10000 9.8 240 18:54 31.01.2020
3714 Clouds 12 1006 71 10000 5.1 250 18:36 31.01.2020
3715 Clouds 12 1006 71 10000 5.1 250 18:18 31.01.2020
3716 Clouds 11 1006 71 10000 5.1 240 17:43 31.01.2020
3717 Clouds 11 1006 71 10000 5.1 240 17:24 31.01.2020
3718 Clouds 11 1006 66 10000 6.2 250 16:56 31.01.2020
3719 Clouds 12 1006 66 10000 6.2 250 16:38 31.01.2020
3720 Clouds 12 1006 62 10000 5.7 250 16:19 31.01.2020
3721 Clouds 12 1006 66 10000 7.2 260 15:57 31.01.2020
3722 Clouds 12 1006 62 10000 8.2 260 15:38 31.01.2020
3723 Clouds 12 1006 62 10000 8.2 260 15:19 31.01.2020
3724 Clouds 12 1006 66 10000 7.7 260 14:42 31.01.2020
3725 Clouds 12 1006 66 10000 7.2 270 14:23 31.01.2020
3726 Clouds 12 1006 62 10000 8.2 270 13:54 31.01.2020
3727 Clouds 12 1006 66 10000 6.7 270 13:34 31.01.2020
3728 Clouds 11 1006 71 10000 5.7 270 12:59 31.01.2020
3729 Clouds 11 1006 71 10000 5.7 270 12:41 31.01.2020
3730 Clouds 11 1006 71 10000 7.2 270 12:22 31.01.2020
3731 Clouds 11 1006 71 10000 7.2 270 12:22 31.01.2020
3732 Clouds 11 1006 71 10000 6.2 270 11:45 31.01.2020
3733 Clouds 11 1006 76 10000 6.7 270 11:26 31.01.2020
3734 Clouds 10 1005 76 10000 6.7 270 10:59 31.01.2020
3735 Clouds 10 1005 76 10000 6.7 270 10:41 31.01.2020
3736 Clouds 10 1005 71 10000 6.2 280 10:21 31.01.2020
3737 Clouds 10 1005 71 10000 7.2 280 09:57 31.01.2020
3738 Clouds 10 1005 71 10000 7.2 280 09:39 31.01.2020
3739 Clouds 10 1005 71 10000 7.2 280 09:39 31.01.2020
3740 Clouds 10 1004 71 10000 7.7 280 09:19 31.01.2020
3741 Clouds 10 1003 71 10000 7.7 280 08:52 31.01.2020
3742 Clouds 10 1003 76 10000 8.2 280 08:27 31.01.2020
3743 Clouds 10 1002 76 10000 7.7 290 07:54 31.01.2020
3744 Clouds 11 1002 71 10000 8.7 290 07:26 31.01.2020
3745 Clouds 11 1001 76 10000 6.2 270 06:59 31.01.2020
3746 Clouds 11 1001 76 10000 7.7 280 06:20 31.01.2020
3747 Clouds 11 1000 87 8000 6.7 270 05:50 31.01.2020
3748 Rain 11 999 81 6000 7.2 260 04:56 31.01.2020
3749 Clouds 10 999 93 10000 7.7 270 03:26 31.01.2020
3750 Drizzle 9 997 93 4500 9.3 250 01:40 31.01.2020
3751 Clouds 9 997 87 10000 10.3 240 00:46 31.01.2020
3752 Clouds 9 997 87 10000 8.2 240 00:27 31.01.2020
3753 Clouds 8 997 81 10000 5.7 220 23:57 30.01.2020
3754 Clouds 8 998 81 10000 5.7 220 23:26 30.01.2020
3755 Clouds 8 998 81 10000 5.7 210 22:58 30.01.2020
3756 Clouds 8 999 76 10000 5.7 230 22:37 30.01.2020
3757 Clouds 8 999 76 10000 5.7 230 22:37 30.01.2020
3758 Clouds 8 999 76 10000 5.7 230 22:18 30.01.2020
3759 Clouds 8 999 81 10000 6.7 200 21:57 30.01.2020
3760 Clouds 8 1001 70 10000 5.7 210 21:38 30.01.2020
3761 Clouds 7 1001 70 10000 5.7 210 21:18 30.01.2020
3762 Clouds 7 1001 70 10000 5.7 210 21:18 30.01.2020
3763 Clouds 7 1001 70 10000 5.7 210 21:18 30.01.2020
3764 Clouds 8 1002 65 10000 4.6 210 20:42 30.01.2020
3765 Clouds 8 1002 65 10000 4.6 210 20:22 30.01.2020
3766 Clouds 7 1002 70 10000 4.6 210 19:58 30.01.2020
3767 Clouds 7 1003 70 10000 4.1 200 19:40 30.01.2020
3768 Clouds 7 1003 70 10000 4.1 200 19:19 30.01.2020
3769 Clouds 7 1004 70 10000 4.1 220 18:42 30.01.2020
3770 Clouds 7 1004 70 10000 4.6 220 18:24 30.01.2020
3771 Clouds 7 1004 70 10000 5.7 220 17:59 30.01.2020
3772 Clouds 7 1004 70 10000 5.7 220 17:40 30.01.2020
3773 Clouds 8 1005 70 10000 5.1 220 17:19 30.01.2020
3774 Clouds 8 1005 70 10000 4.6 240 16:58 30.01.2020
3775 Clouds 8 1005 70 10000 4.6 240 16:39 30.01.2020
3776 Clouds 8 1005 66 10000 6.2 250 16:21 30.01.2020
3777 Clouds 9 1006 66 10000 6.7 250 15:44 30.01.2020
3778 Clouds 9 1006 66 10000 6.7 260 15:21 30.01.2020
3779 Clouds 9 1007 66 10000 6.7 260 14:57 30.01.2020
3780 Clouds 8 1007 66 10000 6.2 250 14:38 30.01.2020
3781 Clouds 9 1007 66 10000 6.2 250 14:20 30.01.2020
3782 Clouds 8 1007 70 10000 6.7 250 13:41 30.01.2020
3783 Clouds 8 1007 70 10000 6.7 250 13:23 30.01.2020
3784 Clouds 8 1007 75 10000 7.7 250 12:56 30.01.2020
3785 Clouds 8 1007 75 10000 8.2 250 12:38 30.01.2020
3786 Clouds 7 1007 75 10000 8.2 250 12:19 30.01.2020
3787 Clouds 7 1007 75 10000 7.7 250 11:41 30.01.2020
3788 Clouds 7 1007 81 10000 7.7 250 11:22 30.01.2020
3789 Clouds 7 1007 81 10000 9.8 250 10:59 30.01.2020
3790 Clouds 7 1007 75 10000 8.7 260 10:40 30.01.2020
3791 Clouds 7 1007 75 10000 8.7 260 10:20 30.01.2020
3792 Clouds 7 1007 75 10000 8.2 260 09:45 30.01.2020
3793 Clouds 7 1007 75 10000 8.2 260 09:26 30.01.2020
3794 Rain 6 1007 75 10000 6.7 250 08:55 30.01.2020
3795 Rain 6 1007 81 10000 8.2 250 08:36 30.01.2020
3796 Rain 6 1007 81 10000 8.2 250 08:18 30.01.2020
3797 Rain 6 1007 75 10000 8.2 250 07:44 30.01.2020
3798 Clouds 6 1007 75 10000 7.2 250 07:20 30.01.2020
3799 Clouds 6 1006 75 10000 9.8 240 06:46 30.01.2020
3800 Rain 6 1007 75 10000 9.3 250 06:27 30.01.2020
3801 Clouds 5 1006 81 10000 9.3 230 05:43 30.01.2020
3802 Rain 5 1007 81 10000 8.7 250 05:19 30.01.2020
3803 Clouds 5 1007 80 10000 7.7 220 03:52 30.01.2020
3804 Clouds 5 1008 80 10000 6.2 230 03:34 30.01.2020
3805 Clouds 4 1008 86 10000 5.1 220 01:57 30.01.2020
3806 Clouds 4 1009 86 10000 6.2 240 00:38 30.01.2020
3807 Clouds 4 1009 80 10000 6.2 240 00:19 30.01.2020
3808 Clouds 4 1009 86 10000 5.7 230 23:45 29.01.2020
3809 Clouds 4 1009 80 10000 6.2 250 23:21 29.01.2020
3810 Clouds 4 1009 80 10000 6.2 250 23:21 29.01.2020
3811 Clouds 4 1009 80 10000 6.2 250 23:21 29.01.2020
3812 Clouds 3 1009 86 10000 5.1 230 22:56 29.01.2020
3813 Clouds 3 1009 86 10000 6.7 260 22:38 29.01.2020
3814 Clouds 4 1009 86 10000 6.7 260 22:19 29.01.2020
3815 Clouds 4 1009 86 10000 6.7 260 22:19 29.01.2020
3816 Clouds 4 1008 86 10000 5.7 250 21:57 29.01.2020
3817 Clouds 4 1008 86 10000 5.7 250 21:38 29.01.2020
3818 Clouds 4 1008 80 10000 6.2 250 21:19 29.01.2020
3819 Clouds 4 1008 80 10000 6.7 270 20:57 29.01.2020
3820 Clouds 4 1008 80 10000 6.7 270 20:38 29.01.2020
3821 Clouds 4 1007 86 10000 6.2 270 20:19 29.01.2020
3822 Clouds 4 1007 80 10000 5.1 260 19:55 29.01.2020
3823 Rain 4 1007 86 10000 5.7 270 19:37 29.01.2020
3824 Rain 4 1007 86 10000 5.7 270 19:37 29.01.2020
3825 Rain 4 1007 86 10000 5.7 270 19:18 29.01.2020
3826 Clouds 4 1006 86 10000 5.7 270 18:43 29.01.2020
3827 Rain 4 1005 93 10000 6.2 270 18:19 29.01.2020
3828 Rain 4 1005 86 10000 7.2 270 17:56 29.01.2020
3829 Rain 4 1004 86 10000 7.2 270 17:38 29.01.2020
3830 Rain 4 1004 86 10000 7.2 270 17:20 29.01.2020
3831 Rain 4 1004 80 10000 8.2 260 16:41 29.01.2020
3832 Clouds 4 1003 80 10000 8.7 260 16:23 29.01.2020
3833 Clouds 4 1003 80 10000 8.7 260 15:55 29.01.2020
3834 Rain 4 1002 75 10000 9.8 260 15:37 29.01.2020
3835 Rain 4 1002 75 10000 9.8 260 15:18 29.01.2020
3836 Clouds 5 1002 89 10000 9.8 250 14:42 29.01.2020
3837 Clouds 5 1002 75 10000 8.7 260 14:20 29.01.2020
3838 Clouds 6 1002 75 10000 9.3 260 13:54 29.01.2020
3839 Clouds 6 1001 75 10000 9.8 260 13:36 29.01.2020
3840 Clouds 6 1001 70 10000 9.8 260 13:18 29.01.2020
3841 Clouds 6 1001 70 10000 9.8 260 12:54 29.01.2020
3842 Clouds 6 1001 70 10000 8.7 250 12:36 29.01.2020
3843 Clouds 6 1001 70 10000 8.7 250 12:18 29.01.2020
3844 Clouds 6 1001 70 10000 8.7 250 11:44 29.01.2020
3845 Clouds 5 1001 77 10000 8.7 260 11:20 29.01.2020
3846 Clouds 5 1001 77 10000 9.8 260 10:46 29.01.2020
3847 Clouds 5 1000 75 10000 9.3 260 10:25 29.01.2020
3848 Clouds 5 1000 80 10000 8.2 260 09:58 29.01.2020
3849 Clouds 5 1000 80 10000 8.2 260 09:39 29.01.2020
3850 Clouds 4 1000 80 10000 8.2 260 09:19 29.01.2020
3851 Rain 4 999 80 10000 8.2 260 08:46 29.01.2020
3852 Rain 4 999 80 10000 8.2 260 08:27 29.01.2020
3853 Rain 4 999 88 10000 8.7 250 07:46 29.01.2020
3854 Clouds 4 998 88 10000 7.7 250 07:27 29.01.2020
3855 Clouds 4 998 80 10000 8.2 240 06:56 29.01.2020
3856 Rain 4 998 80 10000 8.7 250 06:38 29.01.2020
3857 Rain 4 998 80 10000 7.7 250 06:19 29.01.2020
3858 Clouds 4 998 80 10000 7.2 230 05:52 29.01.2020
3859 Clouds 4 998 80 10000 6.7 250 05:33 29.01.2020
3860 Clouds 4 997 80 10000 7.2 240 04:39 29.01.2020
3861 Clouds 4 997 80 10000 7.7 240 03:59 29.01.2020
3862 Clouds 4 997 80 10000 6.2 250 02:39 29.01.2020
3863 Rain 3 996 86 10000 5.7 250 01:27 29.01.2020
3864 Clouds 3 996 86 10000 7.2 250 00:39 29.01.2020
3865 Rain 4 996 86 10000 7.7 250 00:21 29.01.2020
3866 Clouds 4 995 80 10000 9.3 240 23:41 28.01.2020
3867 Rain 4 996 80 10000 7.7 250 23:20 28.01.2020
3868 Rain 4 995 72 10000 8.2 240 22:57 28.01.2020
3869 Clouds 4 995 69 10000 9.3 260 22:39 28.01.2020
3870 Clouds 4 995 69 10000 9.3 260 22:20 28.01.2020
3871 Clouds 4 995 69 10000 9.3 260 22:20 28.01.2020
3872 Clouds 4 995 69 10000 9.8 260 21:42 28.01.2020
3873 Clouds 4 994 69 10000 8.7 260 21:20 28.01.2020
3874 Clouds 4 994 69 10000 8.7 260 20:57 28.01.2020
3875 Clouds 4 994 69 10000 8.7 260 20:39 28.01.2020
3876 Clouds 4 994 69 10000 10.3 250 20:21 28.01.2020
3877 Clouds 4 993 72 10000 9.8 260 19:39 28.01.2020
3878 Clouds 4 993 72 10000 9.8 260 19:20 28.01.2020
3879 Clouds 4 993 72 10000 8.7 260 18:58 28.01.2020
3880 Clouds 4 993 72 10000 8.7 260 18:39 28.01.2020
3881 Rain 4 992 72 10000 7.2 250 18:21 28.01.2020
3882 Rain 4 992 86 10000 8.7 290 17:57 28.01.2020
3883 Rain 4 992 80 10000 8.7 250 17:37 28.01.2020
3884 Rain 4 992 80 10000 8.7 250 17:19 28.01.2020
3885 Clouds 4 991 75 10000 9.8 260 16:54 28.01.2020
3886 Clouds 5 991 75 10000 9.3 250 16:36 28.01.2020
3887 Clouds 5 991 75 10000 9.3 250 16:18 28.01.2020
3888 Clouds 6 990 75 10000 7.7 240 15:41 28.01.2020
3889 Clouds 6 990 80 10000 6.7 240 15:19 28.01.2020
3890 Clouds 6 990 80 10000 6.7 240 15:19 28.01.2020
3891 Clouds 6 990 80 10000 6.7 240 14:54 28.01.2020
3892 Drizzle 6 989 80 10000 8.2 240 14:36 28.01.2020
3893 Drizzle 6 989 80 10000 8.2 240 14:18 28.01.2020
3894 Rain 6 989 70 10000 6.2 220 13:39 28.01.2020
3895 Rain 6 989 70 10000 6.2 220 13:21 28.01.2020
3896 Clouds 6 989 70 10000 6.7 220 12:42 28.01.2020
3897 Clouds 7 989 70 10000 5.7 200 12:23 28.01.2020
3898 Clouds 7 989 70 10000 5.7 200 12:23 28.01.2020
3899 Rain 7 989 70 10000 4.6 210 11:55 28.01.2020
3900 Rain 7 989 75 10000 5.1 210 11:37 28.01.2020
3901 Clouds 7 989 75 10000 5.1 210 11:18 28.01.2020
3902 Clouds 6 990 75 10000 3.6 190 10:40 28.01.2020
3903 -273 0 0 0 0 0 10:22 28.01.2020
3904 Clouds 6 991 81 10000 4.1 220 09:55 28.01.2020
3905 Clouds 6 991 81 10000 3.1 240 09:37 28.01.2020
3906 Clouds 6 991 81 10000 3.1 240 09:18 28.01.2020
3907 Clouds 6 991 81 10000 5.7 250 08:41 28.01.2020
3908 Drizzle 6 991 75 10000 6.2 220 08:19 28.01.2020
3909 Clouds 6 991 75 10000 6.7 220 07:38 28.01.2020
3910 Rain 6 991 87 10000 4.1 200 06:51 28.01.2020
3911 Rain 6 991 81 10000 4.1 220 06:29 28.01.2020
3912 Rain 6 991 81 10000 4.1 220 06:29 28.01.2020
3913 Clouds 6 992 87 10000 3.6 190 05:55 28.01.2020
3914 Clouds 6 992 87 10000 3.6 170 05:34 28.01.2020
3915 Clouds 6 992 81 10000 6.2 200 04:39 28.01.2020
3916 Clouds 6 994 93 10000 4.1 160 03:36 28.01.2020
3917 Rain 6 995 87 10000 3.1 160 02:32 28.01.2020
3918 Clouds 6 996 93 10000 3.1 140 01:58 28.01.2020
3919 Clouds 6 996 93 10000 3.1 140 01:40 28.01.2020
3920 Clouds 6 997 93 10000 3.6 160 00:51 28.01.2020
3921 Clouds 5 997 87 10000 3.1 150 00:30 28.01.2020
3922 Clouds 6 998 93 10000 1.5 140 23:53 27.01.2020
3923 Drizzle 6 1001 87 10000 2.6 170 23:31 27.01.2020
3924 Drizzle 6 1001 87 10000 2.6 170 23:31 27.01.2020
3925 Drizzle 6 1001 87 10000 2.6 170 22:59 27.01.2020
3926 Drizzle 6 1001 87 10000 2.6 190 22:41 27.01.2020
3927 Drizzle 6 1001 87 10000 2.6 190 22:20 27.01.2020
3928 Rain 6 1001 87 10000 3.1 190 21:57 27.01.2020
3929 Rain 6 1002 87 10000 4.1 190 21:38 27.01.2020
3930 Rain 6 1002 87 10000 4.1 190 21:18 27.01.2020
3931 Rain 6 1002 87 10000 4.1 190 21:18 27.01.2020
3932 Rain 6 1003 87 9000 3.6 200 20:55 27.01.2020
3933 Rain 6 1003 87 10000 4.6 210 20:37 27.01.2020
3934 Rain 6 1003 87 10000 4.6 210 20:18 27.01.2020
3935 Rain 6 1003 87 10000 3.6 200 19:41 27.01.2020
3936 Rain 7 1004 87 10000 3.6 190 19:23 27.01.2020
3937 Rain 7 1004 87 10000 3.6 190 18:57 27.01.2020
3938 Rain 7 1004 87 10000 3.6 190 18:39 27.01.2020
3939 Rain 7 1004 87 10000 3.6 190 18:39 27.01.2020
3940 Rain 7 1004 81 10000 3.1 170 18:20 27.01.2020
3941 Rain 7 1004 81 10000 3.1 170 18:20 27.01.2020
3942 Rain 7 1005 81 10000 4.1 190 17:57 27.01.2020
3943 Clouds 7 1006 70 10000 4.1 200 17:37 27.01.2020
3944 Clouds 8 1006 70 10000 4.1 200 17:18 27.01.2020
3945 Clouds 8 1006 70 10000 4.1 200 16:42 27.01.2020
3946 Clouds 8 1006 70 10000 5.7 210 16:24 27.01.2020
3947 Clouds 8 1006 70 10000 5.1 210 15:56 27.01.2020
3948 Clouds 8 1006 70 10000 4.6 220 15:38 27.01.2020
3949 Clouds 8 1006 70 10000 4.6 220 15:19 27.01.2020
3950 Clouds 8 1006 70 10000 4.6 220 15:19 27.01.2020
3951 Clouds 9 1007 70 10000 5.1 220 14:55 27.01.2020
3952 Clouds 9 1007 70 10000 5.7 220 14:37 27.01.2020
3953 Clouds 9 1007 70 10000 5.7 220 14:18 27.01.2020
3954 Clouds 9 1008 70 10000 5.7 220 13:42 27.01.2020
3955 Clouds 8 1008 70 10000 5.7 220 13:21 27.01.2020
3956 Clouds 8 1008 75 10000 6.7 220 12:56 27.01.2020
3957 Clouds 8 1008 75 10000 6.7 220 12:38 27.01.2020
3958 Clouds 8 1009 75 10000 5.1 210 12:20 27.01.2020
3959 Clouds 7 1009 81 10000 5.1 210 11:42 27.01.2020
3960 Clouds 7 1009 81 10000 4.6 210 11:21 27.01.2020
3961 Clouds 7 1009 81 10000 5.7 210 10:55 27.01.2020
3962 Clouds 6 1009 75 10000 5.7 210 10:36 27.01.2020
3963 Clouds 6 1009 75 10000 5.7 210 10:18 27.01.2020
3964 Rain 6 1010 75 10000 4.6 200 09:39 27.01.2020
3965 Rain 6 1010 75 10000 4.6 200 09:39 27.01.2020
3966 Rain 6 1010 81 10000 3.6 190 09:19 27.01.2020
3967 Rain 5 1010 81 10000 4.6 200 08:48 27.01.2020
3968 Rain 5 1010 81 10000 4.6 200 08:23 27.01.2020
3969 Clouds 5 1010 86 10000 3.6 210 07:56 27.01.2020
3970 Clouds 5 1011 86 10000 3.6 210 07:37 27.01.2020
3971 Clouds 5 1011 86 10000 3.6 210 07:19 27.01.2020
3972 Clouds 4 1010 86 10000 5.7 190 06:37 27.01.2020
3973 Clouds 4 1010 86 10000 4.1 180 05:38 27.01.2020
3974 Clouds 4 1011 86 10000 4.1 180 05:38 27.01.2020
3975 Clouds 4 1011 86 10000 3.1 150 04:37 27.01.2020
3976 Clouds 4 1012 86 10000 3.6 180 03:35 27.01.2020
3977 Clouds 3 1013 93 7000 3.1 180 01:54 27.01.2020
3978 Clouds 3 1013 86 10000 2.1 150 01:25 27.01.2020
3979 Clouds 3 1013 93 7000 3.1 190 00:41 27.01.2020
3980 Clouds 3 1013 93 10000 2.1 150 00:21 27.01.2020
3981 Clouds 2 1013 93 7000 3.1 180 23:43 26.01.2020
3982 Clouds 2 1013 93 10000 2.6 170 23:22 26.01.2020
3983 Clouds 2 1014 93 7000 2.6 200 22:58 26.01.2020
3984 Clouds 2 1014 93 10000 2.6 160 22:38 26.01.2020
3985 Clouds 2 1014 86 10000 2.1 160 22:20 26.01.2020
3986 Clouds 1 1014 93 8000 2.6 170 21:58 26.01.2020
3987 Clouds 1 1014 93 8000 2.6 170 21:58 26.01.2020
3988 Clouds 2 1014 93 10000 3.1 160 21:39 26.01.2020
3989 Clouds 2 1014 86 10000 2.6 170 21:21 26.01.2020
3990 Clouds 2 1014 86 10000 2.6 170 21:21 26.01.2020
3991 Clouds 2 1015 90 8000 1.5 150 20:58 26.01.2020
3992 Clouds 2 1014 86 10000 3.1 160 20:38 26.01.2020
3993 Clouds 2 1014 93 10000 2.1 150 20:19 26.01.2020
3994 Clouds 2 1015 93 10000 1 120 19:59 26.01.2020
3995 Clouds 2 1015 89 10000 1 140 19:38 26.01.2020
3996 Clouds 2 1015 89 10000 1 140 19:20 26.01.2020
3997 Clouds 3 1015 89 10000 1.5 0 18:56 26.01.2020
3998 Clouds 2 1015 89 10000 1.5 150 18:38 26.01.2020
3999 Clouds 2 1015 89 10000 1.5 150 18:20 26.01.2020
4000 Mist 3 1015 89 5000 2.6 140 17:55 26.01.2020
4001 Mist 2 1015 89 5000 2.1 170 17:37 26.01.2020
4002 Mist 3 1015 82 5000 2.1 170 17:18 26.01.2020
4003 Mist 3 1016 93 3500 2.6 150 16:56 26.01.2020
4004 Mist 3 1016 93 3500 2.6 150 16:38 26.01.2020
4005 Clouds 3 1016 93 6000 2.6 140 16:19 26.01.2020
4006 Clouds 3 1014 97 0 0.89 137 15:43 26.01.2020
4007 Clouds 3 1015 95 0 0.89 118 15:21 26.01.2020
4008 Clouds 3 1015 76 0 1.79 296 14:58 26.01.2020
4009 Clouds 2 1016 96 0 0.89 117 14:38 26.01.2020
4010 Clouds 2 1016 95 0 0.45 183 14:19 26.01.2020
4011 Clouds 2 1015 97 0 1.34 137 13:40 26.01.2020
4012 Clouds 2 1016 96 0 0.89 13 13:20 26.01.2020
4013 Clouds 3 1010 93 0 2.24 143 12:56 26.01.2020
4014 Clouds 3 1011 93 0 0.89 124 12:37 26.01.2020
4015 Clouds 2 1017 86 0 0.45 94 12:19 26.01.2020
4016 Clouds 2 1017 86 0 0.45 94 12:19 26.01.2020
4017 Clouds 2 1011 93 0 2.24 120 11:57 26.01.2020
4018 Clouds 2 1017 86 0 0.89 90 11:37 26.01.2020
4019 Fog 1 1019 78 800 1.5 0 11:18 26.01.2020
4020 Fog 1 1019 78 800 1.5 0 10:56 26.01.2020
4021 Fog 1 1019 78 800 1.5 0 10:38 26.01.2020
4022 Fog 1 1019 78 800 1.5 0 10:19 26.01.2020
4023 Fog 1 1019 78 750 1 0 09:56 26.01.2020
4024 Fog 1 1019 78 800 1.5 0 09:37 26.01.2020
4025 Fog 1 1019 78 800 1.5 0 09:19 26.01.2020
4026 Mist 1 1018 100 3000 1.5 180 08:41 26.01.2020
4027 Mist 1 1018 100 3000 1.5 180 08:22 26.01.2020
4028 Drizzle 1 1018 100 2000 1.5 180 07:50 26.01.2020
4029 Clouds 1 1018 73 8000 1 0 07:27 26.01.2020
4030 Drizzle 1 1019 100 1500 2.1 190 06:55 26.01.2020
4031 Mist 1 1019 100 5000 1.5 190 06:25 26.01.2020
4032 Drizzle 1 1019 73 1700 1.5 190 05:29 26.01.2020
4033 Drizzle 0 1019 66 1800 1.5 190 03:57 26.01.2020
4034 Drizzle 0 1019 66 3500 1.5 190 02:38 26.01.2020
4035 Drizzle 0 1020 67 3000 1 200 01:45 26.01.2020
4036 Drizzle 0 1020 67 3500 1 180 01:23 26.01.2020
4037 Mist 0 1020 68 3700 1.5 190 00:43 26.01.2020
4038 Drizzle 0 1020 68 5000 1.5 200 00:25 26.01.2020
4039 Clouds 0 1019 93 0 0.89 313 23:40 25.01.2020
4040 Clouds 0 1019 93 0 1.79 253 23:21 25.01.2020
4041 Clouds 0 1020 93 0 0.45 205 22:56 25.01.2020
4042 Clouds 0 1020 93 0 0.45 205 22:56 25.01.2020
4043 Clouds 0 1018 92 0 2.03 206 22:37 25.01.2020
4044 Clouds 0 1020 93 0 2.24 293 22:18 25.01.2020
4045 Clouds 0 1019 54 0 1.79 56 21:55 25.01.2020
4046 Clouds 0 1020 93 0 0.45 205 21:37 25.01.2020
4047 Clouds 0 1020 93 0 1.34 233 21:19 25.01.2020
4048 Clouds 0 1019 92 0 1.79 272 20:43 25.01.2020
4049 Clouds 0 1020 92 0 0.89 253 20:24 25.01.2020
4050 Clear 0 1021 79 0 1.26 204 19:54 25.01.2020
4051 Clear 0 1020 92 0 1.34 245 19:36 25.01.2020
4052 Clouds 0 1020 93 0 1.34 245 19:18 25.01.2020
4053 Clouds 0 1019 92 0 0.89 275 18:41 25.01.2020
4054 Clouds 0 1020 92 0 0.89 235 18:21 25.01.2020
4055 Clear 0 1019 92 0 0.89 275 17:57 25.01.2020
4056 Clear 0 1020 92 0 0.89 219 17:37 25.01.2020
4057 Clear 0 1020 92 0 1.79 255 17:37 25.01.2020
4058 Clouds 0 1020 93 0 2.24 263 17:18 25.01.2020
4059 Clouds 1 1018 92 0 1.34 273 16:42 25.01.2020
4060 Clouds 1 1018 92 0 1.34 273 16:42 25.01.2020
4061 Clouds 1 1020 91 0 1.34 295 16:23 25.01.2020
4062 Clouds 1 1018 92 0 1.79 270 15:57 25.01.2020
4063 Clouds 1 1018 92 0 0.89 271 15:39 25.01.2020
4064 Clouds 1 1020 90 0 0.89 221 15:20 25.01.2020
4065 Clouds 2 1019 92 0 1.34 239 14:42 25.01.2020
4066 Clear 2 1020 89 0 0.89 233 14:19 25.01.2020
4067 Clear 2 1020 89 0 0.89 163 13:45 25.01.2020
4068 Clear 2 1020 94 0 0.45 237 13:27 25.01.2020
4069 Clouds 2 1022 93 8000 3.1 210 12:58 25.01.2020
4070 Clouds 2 1022 67 8000 3.1 220 12:39 25.01.2020
4071 Clouds 2 1022 67 8000 3.1 220 12:20 25.01.2020
4072 Clouds 1 1022 67 8000 3.1 220 11:40 25.01.2020
4073 Clouds 1 1022 69 9000 2.6 220 11:20 25.01.2020
4074 Clouds 1 1022 69 8000 2.6 210 10:56 25.01.2020
4075 Drizzle 1 1022 69 6000 2.1 210 10:38 25.01.2020
4076 Drizzle 1 1022 69 6000 2.1 210 10:38 25.01.2020
4077 Drizzle 1 1022 69 6000 2.1 210 10:18 25.01.2020
4078 Drizzle 1 1022 69 2900 2.6 220 09:40 25.01.2020
4079 Drizzle 0 1022 69 2300 2.6 220 09:20 25.01.2020
4080 Drizzle 1 1021 69 1600 1.5 210 08:43 25.01.2020
4081 Drizzle 0 1021 78 4500 2.1 230 08:20 25.01.2020
4082 Drizzle 0 1021 72 2000 2.1 200 07:41 25.01.2020
4083 Drizzle 0 1021 72 2000 2.1 210 06:44 25.01.2020
4084 Drizzle 0 1021 72 3700 2.1 240 06:24 25.01.2020
4085 Mist 0 1021 72 2000 1.5 210 05:44 25.01.2020
4086 Clouds 0 1021 76 6000 2.1 230 04:25 25.01.2020
4087 Mist 0 1021 76 1200 2.1 210 03:50 25.01.2020
4088 Mist 0 1021 76 1200 2.1 210 02:48 25.01.2020
4089 Mist 0 1021 74 1200 2.6 220 01:58 25.01.2020
4090 Clouds 0 1022 74 6000 1.5 210 01:35 25.01.2020
4091 Mist 0 1022 77 1200 2.1 210 00:42 25.01.2020
4092 Clouds 0 1022 77 6000 2.6 220 00:23 25.01.2020
4093 Mist 0 1022 77 1200 3.1 210 23:57 24.01.2020
4094 Clouds 0 1022 77 6000 3.1 220 23:38 24.01.2020
4095 Mist 0 1022 77 5000 3.1 220 23:20 24.01.2020
4096 Mist 0 1022 77 1200 3.6 220 22:42 24.01.2020
4097 Clouds 0 1022 77 6000 3.6 260 22:24 24.01.2020
4098 Clouds 0 1022 77 5000 3.1 270 21:42 24.01.2020
4099 Clouds 0 1022 77 5000 3.6 280 21:20 24.01.2020
4100 Clouds 0 1022 77 5000 3.6 290 20:56 24.01.2020
4101 Clouds 0 1022 77 5000 3.6 290 20:38 24.01.2020
4102 Clouds 0 1022 76 6000 3.6 280 20:19 24.01.2020
4103 Clouds 0 1022 76 7000 4.6 280 19:56 24.01.2020
4104 Clouds 0 1022 76 7000 4.6 280 19:38 24.01.2020
4105 Clouds 0 1022 76 8000 3.6 290 19:20 24.01.2020
4106 Clouds 0 1022 76 9000 3.6 290 18:43 24.01.2020
4107 Clouds 0 1022 76 9000 4.1 270 18:23 24.01.2020
4108 Clouds 0 1021 76 9000 4.1 250 17:46 24.01.2020
4109 Clouds 0 1022 65 8000 3.6 260 17:23 24.01.2020
4110 Clouds 0 1021 65 7000 4.6 240 16:59 24.01.2020
4111 Clouds 0 1021 65 7000 4.6 240 16:39 24.01.2020
4112 Clouds 0 1022 65 7000 4.1 270 16:20 24.01.2020
4113 Clouds 0 1022 65 7000 4.6 270 15:43 24.01.2020
4114 Clouds 0 1022 65 7000 4.6 260 15:22 24.01.2020
4115 Clouds 0 1022 65 6000 4.1 260 14:57 24.01.2020
4116 Clouds 0 1022 65 6000 4.1 260 14:38 24.01.2020
4117 Mist 0 1022 64 5000 4.6 240 14:20 24.01.2020
4118 Clouds 0 1022 64 5000 4.6 250 13:42 24.01.2020
4119 Mist 0 1023 65 4300 4.6 270 13:23 24.01.2020
4120 Mist 0 1023 65 4400 4.6 280 12:44 24.01.2020
4121 Mist 0 1023 65 3900 5.1 300 12:22 24.01.2020
4122 Clouds 0 1023 65 5000 4.6 270 11:57 24.01.2020
4123 Clouds 0 1023 65 5000 4.6 270 11:38 24.01.2020
4124 Clouds 0 1023 78 6000 4.6 270 11:18 24.01.2020
4125 Clouds -1 1023 92 6000 4.6 270 10:41 24.01.2020
4126 Clouds -1 1023 92 6000 3.1 250 10:20 24.01.2020
4127 Clear -1 1022 86 6000 2.1 250 09:54 24.01.2020
4128 Clear -1 1023 92 6000 2.6 240 09:36 24.01.2020
4129 Clear -2 1023 92 6000 2.6 240 09:18 24.01.2020
4130 Clear -2 1023 86 7000 4.1 260 08:39 24.01.2020
4131 Clear -2 1023 92 8000 2.6 270 08:18 24.01.2020
4132 Clear -3 1022 92 9000 2.6 250 07:47 24.01.2020
4133 Clear -3 1022 92 8000 2.13 250 07:22 24.01.2020
4134 Mist -2 1023 92 4800 0.5 280 06:45 24.01.2020
4135 Clear -3 1023 92 6000 0.5 200 06:24 24.01.2020
4136 Mist -3 1023 92 4000 0.5 180 05:33 24.01.2020
4137 Fog -3 1024 100 10000 1.98 201 03:47 24.01.2020
4138 Fog -2 1025 92 10000 1.98 201 02:41 24.01.2020
4139 Clear -2 1025 92 6000 2.1 90 02:22 24.01.2020
4140 Clear -2 1025 92 6000 0.5 0 01:39 24.01.2020
4141 Fog -2 1026 92 10000 0.5 170 00:52 24.01.2020
4142 Clear -2 1026 92 7000 1 90 00:19 24.01.2020
4143 Fog -1 1027 100 10000 0.77 214 23:42 23.01.2020
4144 Clear -1 1027 100 7000 1 160 23:23 23.01.2020
4145 Clouds -1 1027 100 10000 1.34 190 22:59 23.01.2020
4146 Clouds -1 1027 92 6000 1.34 190 22:37 23.01.2020
4147 Clouds -1 1027 92 6000 1.34 190 22:18 23.01.2020
4148 Clouds -1 1028 92 7000 1.34 190 21:55 23.01.2020
4149 Clouds 0 1028 92 7000 1.34 190 21:37 23.01.2020
4150 Clouds 0 1028 92 7000 1.34 190 21:19 23.01.2020
4151 Clouds 0 1028 92 9000 1.34 190 20:56 23.01.2020
4152 Clouds 0 1028 86 10000 1.34 190 20:37 23.01.2020
4153 Clouds 0 1028 86 10000 0.92 143 20:19 23.01.2020
4154 Clouds 1 1028 86 10000 0.92 143 19:44 23.01.2020
4155 Clouds 1 1028 80 10000 0.92 143 19:24 23.01.2020
4156 Clouds 2 1028 74 10000 0.92 143 18:59 23.01.2020
4157 Clouds 2 1028 74 10000 0.92 143 18:40 23.01.2020
4158 Clouds 2 1029 91 10000 0.92 143 18:20 23.01.2020
4159 Clouds 3 1029 91 10000 0.5 0 17:58 23.01.2020
4160 Clouds 3 1029 91 10000 0.5 0 17:39 23.01.2020
4161 Clouds 4 1029 81 10000 1.5 0 17:19 23.01.2020
4162 Clouds 4 1030 81 10000 1.5 0 16:55 23.01.2020
4163 Clouds 5 1030 81 10000 0.94 213 16:36 23.01.2020
4164 Clouds 5 1030 81 10000 0.94 213 16:18 23.01.2020
4165 Clouds 5 1030 81 10000 0.94 213 15:54 23.01.2020
4166 Clouds 5 1031 81 10000 0.94 213 15:36 23.01.2020
4167 Clouds 5 1031 81 10000 0.94 213 15:18 23.01.2020
4168 Clouds 5 1031 81 10000 1 0 14:54 23.01.2020
4169 Clouds 6 1031 81 10000 0.94 213 14:36 23.01.2020
4170 Clouds 6 1031 86 10000 1.64 237 14:18 23.01.2020
4171 Clouds 5 1032 86 10000 0.5 0 13:38 23.01.2020
4172 Clouds 5 1032 79 10000 1.73 227 13:19 23.01.2020
4173 Clouds 5 1033 79 10000 1.5 0 12:47 23.01.2020
4174 Clouds 5 1033 75 10000 1.73 227 12:25 23.01.2020
4175 Clouds 5 1033 75 10000 1.73 227 12:25 23.01.2020
4176 Clouds 5 1033 86 10000 1.78 239 11:58 23.01.2020
4177 Clouds 5 1033 86 10000 1.73 227 11:38 23.01.2020
4178 Clouds 4 1034 86 10000 0.5 0 11:19 23.01.2020
4179 Clouds 4 1034 93 9000 1.19 233 10:45 23.01.2020
4180 Clouds 4 1034 93 7000 1 0 10:23 23.01.2020
4181 Clouds 3 1034 86 7000 1.5 250 09:59 23.01.2020
4182 Clouds 3 1034 93 7000 1 260 09:38 23.01.2020
4183 Clouds 3 1034 93 7000 1 260 09:20 23.01.2020
4184 Clouds 3 1034 93 7000 1 0 08:42 23.01.2020
4185 Clouds 3 1034 93 8000 1.5 250 08:24 23.01.2020
4186 Clouds 3 1034 93 7000 1.5 0 07:48 23.01.2020
4187 Clouds 3 1034 93 7000 1.5 0 07:27 23.01.2020
4188 Mist 3 1034 100 3000 1.5 240 06:54 23.01.2020
4189 Mist 3 1034 100 3000 1.5 230 06:23 23.01.2020
4190 Mist 3 1034 100 3000 1 250 05:58 23.01.2020
4191 Mist 3 1035 100 5000 2.1 270 04:24 23.01.2020
4192 Mist 3 1035 100 3500 1.5 230 02:45 23.01.2020
4193 Mist 4 1036 93 4000 1.5 250 01:44 23.01.2020
4194 Clouds 4 1036 100 6000 2.1 260 00:28 23.01.2020
4195 Mist 4 1035 93 4000 2.1 240 23:57 22.01.2020
4196 Clouds 4 1035 100 6000 2.1 270 23:39 22.01.2020
4197 Clouds 4 1036 100 6000 2.1 260 23:20 22.01.2020
4198 Mist 4 1035 93 4000 1.5 250 22:42 22.01.2020
4199 Clouds 4 1035 93 6000 2.1 280 22:23 22.01.2020
4200 Clouds 5 1035 93 6000 2.1 280 21:58 22.01.2020
4201 Clouds 5 1035 93 7000 2.6 270 21:36 22.01.2020
4202 Clouds 4 1035 93 7000 2.6 270 21:18 22.01.2020
4203 Clouds 4 1034 93 7000 2.6 280 20:41 22.01.2020
4204 Clouds 4 1034 93 7000 3.1 280 20:23 22.01.2020
4205 Clouds 4 1034 93 6000 3.1 270 19:58 22.01.2020
4206 Clouds 4 1034 93 6000 3.1 270 19:58 22.01.2020
4207 Clouds 5 1034 93 6000 3.1 270 19:40 22.01.2020
4208 Clouds 5 1034 93 7000 3.6 270 19:20 22.01.2020
4209 Clouds 5 1034 93 6000 3.6 280 18:58 22.01.2020
4210 Clouds 4 1034 93 6000 3.6 280 18:39 22.01.2020
4211 Clouds 5 1033 93 7000 3.6 280 18:20 22.01.2020
4212 Clouds 5 1033 93 8000 3.6 280 17:56 22.01.2020
4213 Clouds 5 1033 93 8000 3.6 280 17:38 22.01.2020
4214 Clouds 5 1033 93 7000 3.6 280 17:19 22.01.2020
4215 Clouds 4 1032 93 7000 4.1 270 16:54 22.01.2020
4216 Clouds 4 1033 93 6000 4.1 270 16:36 22.01.2020
4217 Clouds 4 1033 93 6000 4.1 270 16:18 22.01.2020
4218 Drizzle 4 1033 93 4500 4.1 280 15:41 22.01.2020
4219 Drizzle 4 1033 93 4500 3.6 280 15:23 22.01.2020
4220 Drizzle 4 1033 93 5000 3.6 290 14:59 22.01.2020
4221 Drizzle 4 1033 93 5000 3.6 290 14:38 22.01.2020
4222 Mist 4 1033 93 4800 3.6 290 14:19 22.01.2020
4223 Mist 4 1033 93 4300 4.6 280 13:56 22.01.2020
4224 Mist 4 1033 93 4300 4.6 280 13:56 22.01.2020
4225 Mist 4 1033 93 4300 4.6 280 13:56 22.01.2020
4226 Mist 4 1033 93 2700 4.1 280 13:37 22.01.2020
4227 Mist 4 1033 93 2700 4.1 280 13:19 22.01.2020
4228 Drizzle 4 1033 93 1600 3.6 270 12:56 22.01.2020
4229 Drizzle 4 1033 93 1600 3.6 270 12:56 22.01.2020
4230 Drizzle 4 1033 93 1600 3.6 270 12:38 22.01.2020
4231 Drizzle 3 1033 100 2500 4.1 270 12:19 22.01.2020
4232 Drizzle 3 1034 93 1700 3.6 270 11:56 22.01.2020
4233 Drizzle 3 1034 93 1700 3.6 270 11:38 22.01.2020
4234 Drizzle 3 1033 93 1300 3.6 260 11:19 22.01.2020
4235 Drizzle 3 1033 93 1500 4.6 260 10:45 22.01.2020
4236 Drizzle 3 1033 93 2300 4.6 260 10:21 22.01.2020
4237 Drizzle 2 1033 93 3000 4.6 260 09:58 22.01.2020
4238 Drizzle 2 1033 93 3000 4.6 260 09:40 22.01.2020
4239 Drizzle 2 1033 93 2800 4.1 270 09:21 22.01.2020
4240 Drizzle 2 1033 93 2400 5.1 250 08:55 22.01.2020
4241 Drizzle 2 1033 91 2200 4.6 260 08:37 22.01.2020
4242 Drizzle 2 1033 91 2200 4.6 260 08:19 22.01.2020
4243 Drizzle 2 1033 91 5000 4.1 260 07:44 22.01.2020
4244 Drizzle 2 1033 91 5000 4.6 270 07:26 22.01.2020
4245 Drizzle 2 1033 93 4500 3.6 250 06:34 22.01.2020
4246 Clouds 2 1033 93 7000 4.1 260 05:57 22.01.2020
4247 Clouds 2 1035 86 8000 3.1 250 04:26 22.01.2020
4248 Clouds 2 1035 86 10000 3.6 250 03:27 22.01.2020
4249 Clouds 2 1035 86 10000 4.1 250 02:48 22.01.2020
4250 Clouds 1 1036 88 10000 3.1 230 00:47 22.01.2020
4251 Clouds 1 1037 88 10000 3.1 250 00:28 22.01.2020
4252 Clouds 1 1036 88 10000 3.6 240 23:59 21.01.2020
4253 Clouds 1 1037 88 10000 2.6 250 23:37 21.01.2020
4254 Clouds 1 1037 81 10000 2.6 250 23:19 21.01.2020
4255 Clouds 1 1037 80 10000 2.1 240 22:42 21.01.2020
4256 Clouds 1 1037 81 10000 2.1 280 22:23 21.01.2020
4257 Clouds 1 1037 81 10000 2.1 280 21:58 21.01.2020
4258 Clouds 1 1037 81 10000 2.6 270 21:39 21.01.2020
4259 Clouds 1 1037 81 10000 2.6 270 21:21 21.01.2020
4260 Clouds 1 1037 81 10000 3.1 260 20:58 21.01.2020
4261 Clouds 1 1037 81 10000 3.1 260 20:39 21.01.2020
4262 Clouds 1 1037 80 10000 4.1 250 20:20 21.01.2020
4263 Clouds 2 1037 74 10000 3.6 240 19:58 21.01.2020
4264 Clouds 2 1037 74 10000 3.6 240 19:39 21.01.2020
4265 Clouds 2 1037 80 10000 3.6 240 19:21 21.01.2020
4266 Clouds 2 1037 80 10000 2.6 230 18:57 21.01.2020
4267 Clouds 2 1037 80 10000 2.6 230 18:39 21.01.2020
4268 Clouds 2 1038 74 10000 2.6 270 18:20 21.01.2020
4269 Clouds 2 1038 74 10000 3.1 280 17:57 21.01.2020
4270 Clouds 3 1038 74 10000 3.1 280 17:38 21.01.2020
4271 Clouds 4 1038 69 10000 3.6 260 17:18 21.01.2020
4272 Clouds 4 1038 65 10000 4.1 260 16:38 21.01.2020
4273 Clouds 5 1038 65 10000 4.1 260 16:19 21.01.2020
4274 Clouds 5 1039 65 10000 4.6 250 15:59 21.01.2020
4275 Clouds 5 1039 65 10000 4.6 250 15:39 21.01.2020
4276 Clouds 6 1039 60 10000 4.6 260 15:19 21.01.2020
4277 Clouds 6 1039 60 10000 4.6 260 15:19 21.01.2020
4278 Clouds 6 1039 60 10000 5.1 260 14:40 21.01.2020
4279 Clear 6 1040 68 10000 4.6 260 14:22 21.01.2020
4280 Clear 5 1040 68 10000 5.1 260 13:58 21.01.2020
4281 Clear 5 1040 68 10000 5.1 260 13:38 21.01.2020
4282 Clear 5 1040 67 10000 5.1 260 13:18 21.01.2020
4283 Clear 5 1041 69 10000 5.7 260 12:42 21.01.2020
4284 Clear 4 1041 67 10000 4.6 250 12:24 21.01.2020
4285 Clear 4 1041 74 10000 4.6 250 11:56 21.01.2020
4286 Clear 4 1041 74 10000 4.6 250 11:38 21.01.2020
4287 Clear 3 1041 74 10000 4.6 250 11:19 21.01.2020
4288 Clear 2 1041 80 10000 4.1 250 10:43 21.01.2020
4289 Clear 1 1041 86 10000 3.1 250 10:23 21.01.2020
4290 Clear 1 1041 79 10000 2.6 250 09:57 21.01.2020
4291 Clear 0 1041 79 10000 2.6 250 09:39 21.01.2020
4292 Clear 0 1041 79 10000 2.6 260 09:21 21.01.2020
4293 Clear -1 1041 86 10000 2.6 250 08:45 21.01.2020
4294 Clear 0 1041 79 10000 2.6 270 08:27 21.01.2020
4295 Clear -1 1041 90 10000 3.1 240 07:56 21.01.2020
4296 Clear 0 1041 90 10000 3.1 240 07:37 21.01.2020
4297 Clear 0 1041 90 10000 3.6 250 07:19 21.01.2020
4298 Mist -1 1041 100 4000 1.5 210 06:44 21.01.2020
4299 Clear -1 1042 90 9000 1.5 240 06:23 21.01.2020
4300 Mist -1 1042 90 3200 1.5 230 05:41 21.01.2020
4301 Clear 0 1042 92 10000 2.6 250 04:39 21.01.2020
4302 Fog 0 1043 92 4000 0.5 0 02:34 21.01.2020
4303 Mist 0 1043 92 3000 1 200 01:37 21.01.2020
4304 Mist 1 1044 100 2200 1.5 220 00:52 21.01.2020
4305 Mist 1 1044 93 2500 1.5 220 00:29 21.01.2020
4306 Mist 1 1044 100 3000 1.5 230 23:57 20.01.2020
4307 Mist 1 1044 93 3500 2.1 210 23:36 20.01.2020
4308 Mist 1 1044 93 3500 2.1 210 23:36 20.01.2020
4309 Mist 1 1044 93 3500 2.1 210 23:18 20.01.2020
4310 Mist 1 1044 100 4800 1.5 240 22:56 20.01.2020
4311 Clear 1 1045 93 10000 2.1 220 22:36 20.01.2020
4312 Clear 1 1045 93 10000 2.1 220 22:18 20.01.2020
4313 Clear 2 1045 93 10000 2.1 230 21:55 20.01.2020
4314 Clear 2 1045 93 10000 2.1 250 21:36 20.01.2020
4315 Clear 2 1045 93 10000 2.1 250 21:18 20.01.2020
4316 Clear 2 1045 93 10000 2.6 250 20:54 20.01.2020
4317 Clear 2 1045 86 10000 1.5 240 20:36 20.01.2020
4318 Clouds 3 1045 86 10000 1.5 240 20:18 20.01.2020
4319 Clouds 3 1045 86 10000 1.5 240 20:18 20.01.2020
4320 Clouds 3 1045 80 10000 2.6 230 19:56 20.01.2020
4321 Clouds 3 1045 80 10000 2.6 220 19:37 20.01.2020
4322 Clouds 3 1045 80 10000 2.6 220 19:18 20.01.2020
4323 Clouds 4 1045 80 10000 2.1 230 18:42 20.01.2020
4324 Clouds 4 1045 80 10000 2.6 230 18:21 20.01.2020
4325 Clouds 4 1045 80 10000 2.6 220 17:39 20.01.2020
4326 Clouds 5 1045 80 10000 2.6 250 17:19 20.01.2020
4327 Clouds 5 1045 81 10000 3.1 240 16:58 20.01.2020
4328 Clouds 6 1045 87 10000 3.6 240 16:37 20.01.2020
4329 Clouds 6 1045 87 10000 3.6 240 16:18 20.01.2020
4330 Clouds 6 1045 87 10000 3.6 240 16:18 20.01.2020
4331 Clouds 6 1045 93 10000 3.1 250 15:54 20.01.2020
4332 Clouds 6 1046 93 10000 4.1 250 15:36 20.01.2020
4333 Clouds 6 1046 93 10000 4.1 250 15:18 20.01.2020
4334 Clouds 6 1046 100 10000 2.1 240 14:41 20.01.2020
4335 Clouds 6 1046 93 10000 2.6 240 14:22 20.01.2020
4336 Clouds 6 1046 93 9000 2.1 230 13:58 20.01.2020
4337 Clouds 6 1046 93 9000 2.1 230 13:40 20.01.2020
4338 Mist 5 1047 93 5000 2.6 230 13:21 20.01.2020
4339 Mist 5 1047 100 5000 2.6 240 12:46 20.01.2020
4340 Fog 5 1047 93 900 2.6 270 12:27 20.01.2020
4341 Fog 5 1047 100 600 2.6 250 11:57 20.01.2020
4342 Fog 4 1047 100 600 2.6 250 11:38 20.01.2020
4343 Fog 4 1047 93 450 2.1 240 11:19 20.01.2020
4344 Fog 3 1047 100 800 1.5 240 10:48 20.01.2020
4345 Fog 3 1046 93 400 2.42 250 10:22 20.01.2020
4346 Fog 3 1046 100 300 2.42 250 09:57 20.01.2020
4347 Fog 2 1046 96 500 2.42 250 09:38 20.01.2020
4348 Fog 2 1046 96 500 2.42 250 09:19 20.01.2020
4349 Fog 2 1046 96 700 2.42 250 08:43 20.01.2020
4350 Fog 1 1045 95 500 2.18 255 08:25 20.01.2020
4351 Fog 1 1045 95 450 1.94 259 07:43 20.01.2020
4352 Fog 2 1045 95 400 0.5 0 07:23 20.01.2020
4353 Mist 2 1045 100 2800 1 240 06:46 20.01.2020
4354 Mist 2 1045 100 3000 0.5 260 06:26 20.01.2020
4355 Mist 2 1045 95 5000 1 170 05:42 20.01.2020
4356 Clouds 2 1045 93 6000 0.5 230 05:21 20.01.2020
4357 Clouds 2 1045 100 10000 1.5 250 04:42 20.01.2020
4358 Fog 1 1044 100 3700 1.5 240 02:57 20.01.2020
4359 Fog 1 1044 100 3700 1.5 240 02:57 20.01.2020
4360 Fog 0 1044 92 6000 1 290 01:54 20.01.2020
4361 Fog 1 1044 93 1900 1.5 280 01:35 20.01.2020
4362 Clear 1 1043 92 7000 0.5 260 00:44 20.01.2020
4363 Fog 1 1043 92 10000 2.1 270 00:23 20.01.2020
4364 Clouds 2 1043 92 10000 2.1 270 23:39 19.01.2020
4365 Clouds 2 1043 93 10000 2.1 280 23:20 19.01.2020
4366 Clear 2 1042 93 10000 1 260 22:57 19.01.2020
4367 Clouds 2 1042 93 10000 1.5 270 22:38 19.01.2020
4368 Clouds 2 1042 93 10000 1.5 270 22:20 19.01.2020
4369 Clouds 2 1042 93 10000 1.5 270 21:56 19.01.2020
4370 Clouds 3 1042 93 10000 2.1 280 21:38 19.01.2020
4371 Clouds 2 1041 86 10000 2.1 280 21:20 19.01.2020
4372 Clouds 3 1041 93 10000 1.5 270 20:57 19.01.2020
4373 Clouds 3 1041 93 10000 1.5 260 20:39 19.01.2020
4374 Clouds 3 1041 90 10000 2.1 280 20:20 19.01.2020
4375 Clouds 3 1040 89 10000 2.1 280 19:57 19.01.2020
4376 Clouds 3 1039 86 10000 2.1 290 19:39 19.01.2020
4377 Clouds 3 1039 86 10000 2.1 290 19:20 19.01.2020
4378 Clouds 3 1039 86 10000 2.1 290 19:20 19.01.2020
4379 Clouds 4 1039 86 10000 2.1 280 18:57 19.01.2020
4380 Clouds 3 1039 86 10000 2.1 280 18:39 19.01.2020
4381 Clouds 4 1038 86 10000 2.1 280 18:20 19.01.2020
4382 Clouds 4 1038 80 10000 2.6 280 17:58 19.01.2020
4383 Clouds 4 1038 80 10000 2.6 280 17:58 19.01.2020
4384 Clouds 5 1038 80 10000 2.6 280 17:40 19.01.2020
4385 Clouds 5 1038 86 10000 2.1 260 17:21 19.01.2020
4386 Clouds 5 1037 80 10000 2.1 280 16:59 19.01.2020
4387 Clouds 5 1037 80 10000 2.6 290 16:40 19.01.2020
4388 Clouds 5 1037 80 10000 2.6 290 16:21 19.01.2020
4389 Clouds 5 1036 80 10000 3.1 290 15:59 19.01.2020
4390 Clouds 5 1036 80 10000 3.1 290 15:40 19.01.2020
4391 Clouds 5 1036 75 10000 4.1 310 15:21 19.01.2020
4392 Clouds 6 1036 75 10000 3.6 280 14:59 19.01.2020
4393 Clouds 5 1035 80 10000 2.6 280 14:40 19.01.2020
4394 Clouds 5 1035 80 10000 2.6 280 14:19 19.01.2020
4395 Clouds 5 1035 80 10000 3.1 290 13:58 19.01.2020
4396 Clouds 5 1035 80 10000 3.1 290 13:38 19.01.2020
4397 Clouds 4 1035 86 10000 3.1 280 13:20 19.01.2020
4398 Clouds 4 1035 80 10000 2.6 310 12:58 19.01.2020
4399 Clouds 4 1035 80 10000 2.6 310 12:40 19.01.2020
4400 Clouds 4 1035 86 10000 3.6 310 12:21 19.01.2020
4401 Clouds 4 1034 86 10000 3.6 290 11:56 19.01.2020
4402 Clouds 3 1034 86 10000 3.6 290 11:37 19.01.2020
4403 Clouds 3 1034 86 10000 3.6 290 11:18 19.01.2020
4404 Clouds 3 1033 86 10000 3.1 280 10:39 19.01.2020
4405 Clouds 2 1033 93 10000 2.1 280 10:39 19.01.2020
4406 Clouds 2 1033 93 10000 2.1 280 10:20 19.01.2020
4407 Clouds 2 1033 93 10000 1.5 280 09:57 19.01.2020
4408 Clouds 2 1033 93 10000 1.5 280 09:57 19.01.2020
4409 Clouds 2 1033 93 10000 1.5 280 09:38 19.01.2020
4410 Clouds 2 1032 92 10000 2.1 280 09:19 19.01.2020
4411 Clouds 2 1032 92 8000 1.5 260 08:55 19.01.2020
4412 Rain 2 1031 92 10000 2.1 260 08:32 19.01.2020
4413 Rain 2 1031 100 10000 1.5 290 07:55 19.01.2020
4414 Clouds 2 1031 96 10000 2.1 280 07:29 19.01.2020
4415 Clouds 2 1030 96 10000 2.1 240 06:55 19.01.2020
4416 Clouds 2 1030 96 10000 2.1 260 06:22 19.01.2020
4417 Clouds 3 1028 93 10000 2.1 250 03:58 19.01.2020
4418 Clouds 3 1027 93 10000 4.1 270 02:34 19.01.2020
4419 Clouds 3 1027 86 10000 3.1 250 01:43 19.01.2020
4420 Clouds 3 1027 86 10000 3.6 270 01:20 19.01.2020
4421 Clouds 3 1026 86 10000 2.6 260 00:44 19.01.2020
4422 Clouds 3 1025 86 10000 3.6 250 00:24 19.01.2020
4423 Clouds 3 1025 86 10000 3.6 250 23:55 18.01.2020
4424 Rain 4 1026 86 10000 4.1 270 23:36 18.01.2020
4425 Rain 4 1026 86 10000 4.1 270 23:18 18.01.2020
4426 Clouds 4 1025 86 10000 3.6 250 22:42 18.01.2020
4427 Clouds 4 1025 86 10000 3.6 260 22:24 18.01.2020
4428 Clouds 3 1025 86 10000 2.6 240 21:58 18.01.2020
4429 Clouds 3 1025 86 10000 3.6 250 21:39 18.01.2020
4430 Clouds 4 1025 86 10000 3.6 250 21:21 18.01.2020
4431 Clouds 4 1024 93 10000 1.5 230 20:59 18.01.2020
4432 Clouds 4 1024 93 10000 1.5 230 20:41 18.01.2020
4433 Clouds 4 1025 80 10000 3.1 260 20:19 18.01.2020
4434 Clouds 4 1024 80 10000 5.1 240 19:43 18.01.2020
4435 Rain 4 1024 80 10000 4.6 250 19:25 18.01.2020
4436 Clouds 4 1023 80 10000 4.1 230 18:56 18.01.2020
4437 Clouds 4 1023 75 10000 5.1 250 18:37 18.01.2020
4438 Clouds 5 1023 75 10000 5.1 250 18:19 18.01.2020
4439 Clouds 5 1023 75 10000 5.1 250 17:41 18.01.2020
4440 Clouds 5 1022 75 10000 4.6 260 17:21 18.01.2020
4441 Clouds 5 1022 75 10000 5.1 250 16:57 18.01.2020
4442 Clouds 5 1022 75 10000 5.1 250 16:39 18.01.2020
4443 Clouds 5 1022 77 10000 4.6 250 16:21 18.01.2020
4444 Clouds 6 1022 70 10000 6.2 250 15:57 18.01.2020
4445 Clouds 6 1022 70 10000 6.2 250 15:39 18.01.2020
4446 Clouds 6 1022 70 10000 7.2 250 15:20 18.01.2020
4447 Clouds 6 1022 70 10000 6.2 250 14:42 18.01.2020
4448 Clouds 6 1022 70 10000 6.7 250 14:20 18.01.2020
4449 Clouds 6 1022 70 10000 7.2 260 13:59 18.01.2020
4450 Clouds 6 1022 70 10000 7.2 260 13:41 18.01.2020
4451 Clouds 6 1022 70 10000 5.7 230 13:20 18.01.2020
4452 Clouds 6 1022 70 10000 4.6 240 12:55 18.01.2020
4453 Clouds 6 1022 70 10000 4.6 240 12:55 18.01.2020
4454 Clouds 6 1022 70 10000 5.7 230 12:36 18.01.2020
4455 Clouds 6 1022 70 10000 5.7 230 12:18 18.01.2020
4456 Clouds 6 1022 79 10000 5.1 240 11:43 18.01.2020
4457 Clouds 5 1022 82 10000 5.7 230 11:21 18.01.2020
4458 Clouds 5 1022 75 10000 5.1 240 10:45 18.01.2020
4459 Clouds 5 1021 82 10000 5.7 240 10:23 18.01.2020
4460 Clouds 5 1021 82 10000 4.6 240 09:59 18.01.2020
4461 Clouds 5 1021 82 10000 4.6 240 09:41 18.01.2020
4462 Clouds 4 1021 82 10000 4.6 230 09:20 18.01.2020
4463 Clouds 4 1021 80 10000 6.2 230 08:42 18.01.2020
4464 Clouds 4 1021 80 10000 5.1 230 08:20 18.01.2020
4465 Clouds 4 1020 80 10000 5.1 230 07:59 18.01.2020
4466 Clouds 4 1021 80 10000 3.6 230 07:40 18.01.2020
4467 Clouds 4 1020 80 10000 3.6 220 07:20 18.01.2020
4468 Clouds 4 1020 75 10000 5.1 230 06:45 18.01.2020
4469 Clouds 5 1019 75 10000 4.6 230 05:53 18.01.2020
4470 Clouds 6 1019 70 10000 4.1 250 04:28 18.01.2020
4471 Clouds 6 1018 65 10000 5.7 250 02:49 18.01.2020
4472 Clouds 7 1017 70 10000 7.2 250 01:47 18.01.2020
4473 Clouds 7 1016 75 10000 6.7 260 00:40 18.01.2020
4474 Clouds 7 1016 75 10000 6.7 260 00:21 18.01.2020
4475 Clouds 7 1015 93 10000 4.1 240 23:59 17.01.2020
4476 Clouds 7 1015 81 10000 7.2 240 23:40 17.01.2020
4477 Clouds 7 1015 87 10000 5.7 250 23:19 17.01.2020
4478 Clouds 8 1015 93 9000 4.1 230 22:43 17.01.2020
4479 Rain 8 1015 87 9000 4.1 220 22:21 17.01.2020
4480 Drizzle 8 1015 87 10000 4.1 230 21:58 17.01.2020
4481 Drizzle 8 1015 87 10000 4.1 230 21:58 17.01.2020
4482 Drizzle 8 1015 81 10000 4.6 230 21:40 17.01.2020
4483 Drizzle 8 1015 81 10000 4.6 230 21:22 17.01.2020
4484 Drizzle 8 1015 81 10000 5.1 240 20:57 17.01.2020
4485 Clouds 8 1014 70 10000 6.2 240 20:37 17.01.2020
4486 Clouds 8 1014 70 10000 6.2 240 20:19 17.01.2020
4487 Clouds 9 1014 70 10000 5.1 240 19:55 17.01.2020
4488 Clouds 9 1014 70 10000 4.6 230 19:37 17.01.2020
4489 Clouds 9 1014 70 10000 4.6 230 19:18 17.01.2020
4490 Clouds 9 1014 76 10000 2.6 200 18:47 17.01.2020
4491 Clouds 9 1014 70 10000 3.6 220 18:28 17.01.2020
4492 Clouds 9 1014 81 10000 1.5 220 17:56 17.01.2020
4493 Clouds 9 1014 81 10000 1.5 220 17:38 17.01.2020
4494 Clear 9 1014 75 10000 3.17 205 17:20 17.01.2020
4495 Clear 9 1014 70 10000 1.5 140 16:43 17.01.2020
4496 Clear 10 1014 66 10000 1.5 0 16:20 17.01.2020
4497 Clear 10 1014 71 10000 2.1 150 15:55 17.01.2020
4498 Clear 10 1014 62 10000 1.5 160 15:37 17.01.2020
4499 Clear 10 1014 62 10000 1.5 160 15:19 17.01.2020
4500 Clear 11 1014 62 10000 3.1 170 14:43 17.01.2020
4501 Clouds 11 1014 62 10000 3.1 220 14:23 17.01.2020
4502 Clouds 11 1015 62 10000 3.6 150 13:42 17.01.2020
4503 Clouds 10 1015 66 10000 3.1 150 13:22 17.01.2020
4504 Clouds 10 1016 61 10000 3.6 180 12:47 17.01.2020
4505 Clouds 10 1016 66 10000 3.1 160 12:23 17.01.2020
4506 Clouds 9 1016 70 10000 4.1 150 11:43 17.01.2020
4507 Clouds 8 1017 66 10000 4.6 150 11:20 17.01.2020
4508 Clouds 7 1017 81 10000 3.6 110 10:57 17.01.2020
4509 Clouds 7 1017 81 10000 3.6 110 10:57 17.01.2020
4510 Clouds 7 1018 81 10000 3.6 130 10:39 17.01.2020
4511 Clouds 6 1018 81 10000 3.6 130 10:20 17.01.2020
4512 Clouds 6 1018 86 10000 4.1 110 09:56 17.01.2020
4513 Clouds 5 1019 76 10000 3.6 120 09:37 17.01.2020
4514 Clouds 5 1019 76 10000 3.6 120 09:18 17.01.2020
4515 Clouds 5 1019 86 10000 3.1 130 08:42 17.01.2020
4516 Clouds 5 1019 93 10000 3.6 140 08:23 17.01.2020
4517 Clouds 5 1019 93 10000 3.1 130 07:49 17.01.2020
4518 Clouds 4 1020 87 10000 4.1 110 07:30 17.01.2020
4519 Fog 4 1019 100 10000 2.1 120 06:56 17.01.2020
4520 Clouds 4 1019 87 10000 3.1 150 06:37 17.01.2020
4521 Clouds 4 1020 93 10000 2.1 110 05:22 17.01.2020
4522 Clear 5 1020 66 0 0.89 296 03:38 17.01.2020
4523 Clear 4 1020 94 0 3.1 164 02:43 17.01.2020
4524 Clouds 4 1022 95 0 0.45 225 01:46 17.01.2020
4525 Clouds 4 1021 67 0 1.34 306 01:27 17.01.2020
4526 Clouds 5 1022 95 0 0.89 215 00:44 17.01.2020
4527 Clouds 6 1023 87 10000 2.1 150 00:20 17.01.2020
4528 Clouds 5 1023 87 10000 2.1 150 23:42 16.01.2020
4529 Clear 5 1023 87 10000 2.1 150 23:24 16.01.2020
4530 Clouds 5 1023 86 10000 2.1 120 22:55 16.01.2020
4531 Clear 5 1024 86 10000 2.1 110 22:36 16.01.2020
4532 Clear 5 1024 86 10000 2.1 110 22:18 16.01.2020
4533 Clear 5 1025 93 10000 2.1 110 21:54 16.01.2020
4534 Clear 5 1025 93 10000 2.1 110 21:36 16.01.2020
4535 Clear 5 1025 93 10000 2.1 110 21:18 16.01.2020
4536 Clear 6 1025 93 10000 2.1 120 20:40 16.01.2020
4537 Clear 6 1025 93 10000 2.1 120 20:21 16.01.2020
4538 Clear 6 1025 86 10000 2.1 120 19:58 16.01.2020
4539 Clear 6 1025 86 10000 2.1 120 19:40 16.01.2020
4540 Clear 7 1025 81 10000 2.1 140 19:22 16.01.2020
4541 Clear 7 1025 81 10000 2.6 140 18:57 16.01.2020
4542 Clear 7 1025 81 10000 2.6 140 18:38 16.01.2020
4543 Clear 7 1026 81 10000 3.49 151 18:20 16.01.2020
4544 Clear 7 1026 75 10000 1.5 110 17:59 16.01.2020
4545 Clear 7 1026 75 10000 1.5 110 17:40 16.01.2020
4546 Clear 7 1026 75 10000 1.5 120 17:20 16.01.2020
4547 Clear 8 1026 70 10000 2.6 120 16:42 16.01.2020
4548 Clear 9 1026 61 10000 2.6 140 16:24 16.01.2020
4549 Clear 10 1026 61 10000 3.1 140 15:59 16.01.2020
4550 Clear 10 1026 61 10000 3.1 140 15:40 16.01.2020
4551 Clear 10 1026 61 10000 3.1 140 15:21 16.01.2020
4552 Clear 11 1027 62 10000 2.6 140 14:45 16.01.2020
4553 Clear 10 1027 66 10000 3.1 140 14:24 16.01.2020
4554 Clear 10 1027 66 10000 2.6 190 13:57 16.01.2020
4555 Clear 10 1027 66 10000 2.6 190 13:39 16.01.2020
4556 Clouds 10 1027 61 10000 2.6 240 13:21 16.01.2020
4557 Clouds 10 1027 70 10000 3.6 240 12:45 16.01.2020
4558 Clouds 9 1028 66 10000 3.6 250 12:27 16.01.2020
4559 Clouds 9 1028 70 10000 2.6 250 11:56 16.01.2020
4560 Clouds 8 1028 70 10000 2.1 220 11:37 16.01.2020
4561 Clear 7 1028 70 10000 2.1 220 11:19 16.01.2020
4562 Clear 6 1027 81 10000 2.6 180 10:39 16.01.2020
4563 Clear 6 1027 81 10000 2.6 180 10:21 16.01.2020
4564 Clear 5 1027 80 10000 2.6 170 09:58 16.01.2020
4565 Clear 4 1027 80 10000 2.6 170 09:39 16.01.2020
4566 Clear 4 1027 86 10000 2.6 180 09:21 16.01.2020
4567 Clear 4 1026 86 10000 1.5 0 08:52 16.01.2020
4568 Clear 4 1026 86 10000 1.5 0 08:34 16.01.2020
4569 Clouds 4 1026 86 10000 1.5 210 07:59 16.01.2020
4570 Clouds 4 1026 86 10000 1.5 210 07:39 16.01.2020
4571 Clouds 4 1026 86 10000 2.1 220 07:21 16.01.2020
4572 Clouds 4 1025 93 10000 1 220 06:43 16.01.2020
4573 Clouds 5 1025 86 10000 3.6 220 06:22 16.01.2020
4574 Clouds 5 1024 86 10000 2.6 230 05:46 16.01.2020
4575 Clouds 5 1024 86 10000 3.1 220 04:40 16.01.2020
4576 Clouds 5 1024 86 10000 3.1 220 04:40 16.01.2020
4577 Clouds 6 1023 81 10000 3.6 240 03:28 16.01.2020
4578 Clouds 7 1022 81 10000 2.1 230 02:43 16.01.2020
4579 Rain 8 1021 81 10000 2.6 250 01:24 16.01.2020
4580 Clouds 9 1020 75 10000 5.7 280 00:25 16.01.2020
4581 Clouds 10 1018 71 10000 5.7 270 23:56 15.01.2020
4582 Clouds 10 1019 81 10000 7.2 290 23:38 15.01.2020
4583 Clouds 11 1018 81 10000 6.7 270 23:18 15.01.2020
4584 Clouds 11 1016 66 10000 7.2 240 22:56 15.01.2020
4585 Clouds 11 1016 62 10000 4.6 240 22:36 15.01.2020
4586 Clouds 11 1016 62 10000 4.6 240 22:18 15.01.2020
4587 Clouds 12 1016 58 10000 5.1 230 21:55 15.01.2020
4588 Clouds 12 1015 58 10000 5.7 220 21:36 15.01.2020
4589 Clouds 12 1015 58 10000 5.7 220 21:18 15.01.2020
4590 Clouds 12 1015 58 10000 6.7 210 20:54 15.01.2020
4591 Clouds 12 1014 54 10000 5.7 210 20:36 15.01.2020
4592 Clouds 11 1014 54 10000 5.7 210 20:18 15.01.2020
4593 Clouds 12 1014 54 10000 6.2 220 19:54 15.01.2020
4594 Clouds 11 1014 57 10000 6.2 220 19:36 15.01.2020
4595 Clouds 11 1014 57 10000 6.2 220 19:36 15.01.2020
4596 Clouds 11 1014 57 10000 6.2 220 19:18 15.01.2020
4597 Clouds 11 1013 54 10000 5.1 210 18:55 15.01.2020
4598 Clouds 11 1013 54 10000 5.1 210 18:55 15.01.2020
4599 Clouds 11 1013 50 10000 5.7 220 18:36 15.01.2020
4600 Clouds 12 1013 50 10000 5.7 220 18:18 15.01.2020
4601 Clouds 12 1013 50 10000 5.7 220 18:18 15.01.2020
4602 Clouds 12 1012 50 10000 7.7 210 17:40 15.01.2020
4603 Clear 12 1012 50 10000 6.7 210 17:22 15.01.2020
4604 Clear 12 1012 50 10000 6.7 210 17:22 15.01.2020
4605 Clear 12 1012 47 10000 6.7 210 16:57 15.01.2020
4606 Clear 12 1012 47 10000 7.7 210 16:38 15.01.2020
4607 Clear 12 1012 47 10000 7.7 210 16:20 15.01.2020
4608 Clear 12 1012 47 10000 7.7 210 16:20 15.01.2020
4609 Clear 12 1012 47 10000 7.7 210 16:20 15.01.2020
4610 Clear 13 1012 44 10000 7.7 210 15:43 15.01.2020
4611 Clear 13 1012 44 10000 7.2 230 15:21 15.01.2020
4612 Clear 13 1012 47 10000 7.2 220 14:57 15.01.2020
4613 Clear 13 1012 47 10000 7.2 220 14:39 15.01.2020
4614 Clouds 13 1011 50 10000 9.8 220 14:18 15.01.2020
4615 Clouds 13 1012 47 10000 8.2 230 13:44 15.01.2020
4616 Clouds 13 1012 50 10000 6.2 230 13:24 15.01.2020
4617 Clouds 13 1012 50 10000 8.2 230 12:57 15.01.2020
4618 Clouds 13 1012 50 10000 8.2 230 12:39 15.01.2020
4619 Clouds 13 1012 54 10000 8.2 210 12:19 15.01.2020
4620 Clouds 13 1012 54 10000 5.7 210 11:56 15.01.2020
4621 Clouds 12 1012 62 10000 6.7 220 11:36 15.01.2020
4622 Clouds 12 1012 62 10000 6.7 220 11:18 15.01.2020
4623 Clouds 11 1013 62 10000 7.2 210 10:41 15.01.2020
4624 Clouds 11 1012 66 10000 7.2 220 10:23 15.01.2020
4625 Clouds 11 1012 66 10000 7.7 210 09:42 15.01.2020
4626 Clouds 11 1012 58 10000 8.2 210 09:22 15.01.2020
4627 Clouds 11 1011 58 10000 6.7 220 08:56 15.01.2020
4628 Clouds 11 1011 58 10000 4.6 210 08:37 15.01.2020
4629 Clouds 11 1011 58 10000 4.6 210 08:19 15.01.2020
4630 Clouds 11 1011 62 10000 4.6 210 07:50 15.01.2020
4631 Clouds 11 1011 58 10000 6.2 220 07:29 15.01.2020
4632 Clouds 11 1009 66 10000 4.1 190 06:44 15.01.2020
4633 Clouds 11 1009 71 10000 5.7 200 06:18 15.01.2020
4634 Clouds 11 1008 71 10000 6.2 190 04:34 15.01.2020
4635 Clouds 11 1008 66 10000 6.2 210 02:32 15.01.2020
4636 Clouds 11 1008 71 10000 6.2 210 01:27 15.01.2020
4637 Clouds 11 1008 66 10000 5.1 190 00:45 15.01.2020
4638 Clouds 11 1008 71 10000 6.7 210 00:26 15.01.2020
4639 Clouds 11 1007 66 10000 4.1 190 23:55 14.01.2020
4640 Clouds 11 1007 66 10000 6.2 200 23:36 14.01.2020
4641 Clouds 11 1007 66 10000 6.2 200 23:18 14.01.2020
4642 Clouds 10 1007 62 10000 6.2 210 22:41 14.01.2020
4643 Clouds 11 1008 57 10000 6.7 220 22:19 14.01.2020
4644 Clouds 11 1008 57 10000 7.2 220 21:58 14.01.2020
4645 Clouds 11 1008 57 10000 7.7 210 21:40 14.01.2020
4646 Clouds 11 1008 57 10000 7.7 210 21:21 14.01.2020
4647 Clouds 11 1008 57 10000 7.7 210 21:21 14.01.2020
4648 Clouds 11 1008 57 10000 7.2 220 20:59 14.01.2020
4649 Clouds 11 1008 57 10000 7.2 220 20:40 14.01.2020
4650 Clouds 11 1008 57 10000 6.7 220 20:20 14.01.2020
4651 Clouds 11 1008 57 10000 6.7 220 19:56 14.01.2020
4652 Clouds 11 1008 57 10000 5.1 220 19:38 14.01.2020
4653 Clouds 11 1008 57 10000 5.1 220 19:19 14.01.2020
4654 Clouds 11 1008 61 10000 5.1 210 18:56 14.01.2020
4655 Clouds 11 1008 57 10000 5.7 200 18:37 14.01.2020
4656 Clouds 11 1008 57 10000 5.7 200 18:19 14.01.2020
4657 Clouds 10 1008 57 10000 5.7 200 17:39 14.01.2020
4658 Clouds 10 1008 61 10000 4.1 210 17:19 14.01.2020
4659 Clouds 10 1008 62 10000 4.1 210 16:56 14.01.2020
4660 Clouds 10 1008 62 10000 4.1 210 16:38 14.01.2020
4661 Clouds 10 1008 62 10000 4.6 210 16:19 14.01.2020
4662 Clouds 10 1008 62 10000 4.1 220 15:43 14.01.2020
4663 Clouds 10 1008 66 10000 6.2 240 15:19 14.01.2020
4664 Clouds 10 1008 62 10000 6.7 220 14:59 14.01.2020
4665 Clouds 10 1008 62 10000 6.7 220 14:41 14.01.2020
4666 Clouds 10 1008 62 10000 6.7 210 14:19 14.01.2020
4667 Clouds 10 1008 62 10000 7.2 230 13:42 14.01.2020
4668 Rain 10 1008 62 10000 7.7 230 13:20 14.01.2020
4669 Clouds 10 1008 62 10000 8.2 230 12:57 14.01.2020
4670 Clouds 10 1008 62 10000 8.2 230 12:39 14.01.2020
4671 Clouds 10 1008 62 10000 8.2 230 12:20 14.01.2020
4672 Rain 10 1007 62 10000 8.7 230 11:42 14.01.2020
4673 Clouds 10 1007 62 10000 7.7 220 11:22 14.01.2020
4674 Clouds 10 1007 66 10000 7.2 220 10:57 14.01.2020
4675 Clouds 10 1007 66 10000 7.2 220 10:38 14.01.2020
4676 Clouds 10 1007 66 10000 6.2 210 10:19 14.01.2020
4677 Rain 10 1006 66 10000 7.7 210 09:56 14.01.2020
4678 Rain 10 1006 66 10000 7.7 210 09:38 14.01.2020
4679 Rain 10 1006 66 10000 6.2 210 09:20 14.01.2020
4680 Rain 10 1007 66 10000 7.2 210 08:42 14.01.2020
4681 Clouds 10 1007 66 10000 7.7 220 08:23 14.01.2020
4682 Clouds 9 1007 57 10000 7.2 210 07:53 14.01.2020
4683 Clouds 9 1007 66 10000 8.2 210 07:31 14.01.2020
4684 Clouds 9 1005 76 10000 5.7 170 06:50 14.01.2020
4685 Clouds 9 1005 76 10000 8.2 200 06:23 14.01.2020
4686 Clouds 8 1006 76 10000 6.2 200 05:21 14.01.2020
4687 Clouds 8 1007 75 10000 5.7 190 03:51 14.01.2020
4688 Clouds 7 1008 81 10000 2.1 150 02:42 14.01.2020
4689 Clouds 6 1009 81 10000 3.6 170 01:53 14.01.2020
4690 Clouds 6 1010 80 10000 3.1 160 00:51 14.01.2020
4691 Clouds 6 1010 75 10000 5.7 180 00:32 14.01.2020
4692 Clouds 6 1010 75 10000 5.7 180 00:32 14.01.2020
4693 Clouds 6 1011 86 10000 2.6 160 23:55 13.01.2020
4694 Clouds 5 1011 81 10000 4.1 170 23:37 13.01.2020
4695 Clouds 5 1011 81 10000 4.1 170 23:18 13.01.2020
4696 Clouds 5 1012 80 10000 3.6 150 22:42 13.01.2020
4697 Clouds 5 1013 80 10000 3.1 140 22:21 13.01.2020
4698 Clouds 5 1014 80 10000 2.6 160 21:57 13.01.2020
4699 Clouds 5 1014 80 10000 2.6 160 21:38 13.01.2020
4700 Clouds 5 1014 80 10000 2.6 140 21:38 13.01.2020
4701 Clouds 5 1014 80 10000 2.6 160 21:38 13.01.2020
4702 Clouds 5 1014 80 10000 2.6 140 21:19 13.01.2020
4703 Clouds 5 1014 80 10000 2.6 140 21:19 13.01.2020
4704 Clouds 5 1014 80 10000 2.6 140 20:59 13.01.2020
4705 Clouds 5 1014 80 10000 2.6 140 20:41 13.01.2020
4706 Clouds 5 1015 80 10000 2.1 150 20:22 13.01.2020
4707 Clouds 5 1015 80 10000 1.5 0 19:59 13.01.2020
4708 Clouds 5 1016 86 10000 1.5 160 19:39 13.01.2020
4709 Clouds 5 1016 86 10000 1.5 160 19:20 13.01.2020
4710 Clouds 5 1016 86 10000 1.5 160 19:20 13.01.2020
4711 Clouds 5 1016 90 10000 3.36 184 18:56 13.01.2020
4712 Clouds 5 1016 80 10000 2.1 200 18:37 13.01.2020
4713 Clouds 5 1016 80 10000 2.1 200 18:19 13.01.2020
4714 Clouds 6 1017 80 10000 1.5 210 17:44 13.01.2020
4715 Clouds 6 1016 75 10000 0.5 200 17:25 13.01.2020
4716 Clouds 6 1016 70 10000 3.1 200 16:58 13.01.2020
4717 Clouds 7 1015 88 0 0.89 223 16:38 13.01.2020
4718 Clouds 7 1015 87 0 0.89 173 16:20 13.01.2020
4719 Clouds 7 1016 81 0 1.34 215 15:54 13.01.2020
4720 Clouds 7 1016 80 0 1.79 235 15:36 13.01.2020
4721 Clouds 8 1016 81 0 2.24 193 15:18 13.01.2020
4722 Clouds 8 1016 83 0 4.02 210 14:40 13.01.2020
4723 Clouds 8 1017 83 0 1.34 203 14:22 13.01.2020
4724 Clouds 8 1016 81 0 3.13 206 13:56 13.01.2020
4725 Clouds 8 1017 85 0 2.68 205 13:38 13.01.2020
4726 Clouds 8 1017 86 0 2.68 243 13:20 13.01.2020
4727 Clouds 7 1020 75 10000 3.6 220 12:43 13.01.2020
4728 Clouds 7 1020 75 10000 3.6 220 12:23 13.01.2020
4729 Clouds 7 1020 75 10000 3.6 220 11:59 13.01.2020
4730 Clouds 7 1020 81 10000 3.6 210 11:39 13.01.2020
4731 Clouds 7 1020 81 10000 3.6 210 11:19 13.01.2020
4732 Clouds 6 1020 87 10000 5.1 210 10:56 13.01.2020
4733 Clouds 6 1020 87 10000 3.6 220 10:38 13.01.2020
4734 Clouds 6 1020 87 10000 3.6 220 10:20 13.01.2020
4735 Clouds 6 1020 87 10000 3.6 220 10:20 13.01.2020
4736 Clouds 6 1020 87 10000 3.6 220 09:55 13.01.2020
4737 Drizzle 6 1020 87 10000 4.1 210 09:37 13.01.2020
4738 Drizzle 6 1020 87 10000 4.1 210 09:19 13.01.2020
4739 Clouds 6 1020 81 10000 4.6 220 08:39 13.01.2020
4740 Clouds 6 1020 87 10000 4.1 210 08:20 13.01.2020
4741 Clouds 6 1020 87 10000 4.1 220 07:46 13.01.2020
4742 Clouds 6 1020 87 10000 3.6 210 07:27 13.01.2020
4743 Clouds 6 1020 93 10000 2.6 210 06:42 13.01.2020
4744 Rain 6 1020 93 10000 1.5 190 06:19 13.01.2020
4745 Clouds 5 1020 93 10000 1 0 05:22 13.01.2020
4746 Clouds 6 1020 81 10000 3.1 240 03:52 13.01.2020
4747 Clouds 6 1021 86 10000 2.6 250 03:22 13.01.2020
4748 Clouds 6 1020 81 10000 4.6 250 02:44 13.01.2020
4749 Clouds 6 1020 81 10000 4.6 270 02:24 13.01.2020
4750 Rain 7 1020 81 10000 4.6 260 01:18 13.01.2020
4751 Clouds 7 1019 70 10000 5.7 260 00:41 13.01.2020
4752 Clouds 7 1020 81 10000 6.2 270 00:22 13.01.2020
4753 Clouds 7 1018 76 10000 6.7 260 23:42 12.01.2020
4754 Rain 7 1019 81 10000 7.7 250 23:24 12.01.2020
4755 Clouds 7 1018 76 10000 9.3 230 22:58 12.01.2020
4756 Clouds 7 1018 76 10000 7.7 240 22:39 12.01.2020
4757 Clouds 7 1018 76 10000 7.2 240 22:21 12.01.2020
4758 Drizzle 7 1017 87 10000 6.7 240 21:56 12.01.2020
4759 Rain 6 1018 81 10000 7.7 230 21:38 12.01.2020
4760 Rain 6 1018 81 10000 7.7 230 21:38 12.01.2020
4761 Rain 6 1018 81 10000 7.7 230 21:19 12.01.2020
4762 Drizzle 6 1017 87 10000 7.2 220 20:56 12.01.2020
4763 Clouds 6 1017 81 10000 6.7 230 20:38 12.01.2020
4764 Clouds 6 1018 86 10000 7.2 220 20:20 12.01.2020
4765 Clouds 6 1018 86 10000 7.2 220 19:56 12.01.2020
4766 Clouds 6 1018 80 10000 7.2 220 19:37 12.01.2020
4767 Clouds 6 1018 80 10000 7.2 220 19:18 12.01.2020
4768 Clouds 5 1018 80 10000 7.7 220 18:57 12.01.2020
4769 Clouds 6 1018 80 10000 7.7 220 18:39 12.01.2020
4770 Clouds 6 1018 80 10000 7.7 240 18:21 12.01.2020
4771 Clouds 5 1018 75 10000 7.7 240 17:55 12.01.2020
4772 Rain 5 1018 75 10000 6.7 230 17:37 12.01.2020
4773 Rain 5 1018 75 10000 6.7 230 17:18 12.01.2020
4774 Rain 5 1018 75 10000 6.7 230 16:54 12.01.2020
4775 Clouds 5 1018 77 10000 6.2 220 16:36 12.01.2020
4776 Clouds 5 1018 77 10000 6.2 220 16:18 12.01.2020
4777 Clouds 5 1018 77 10000 7.2 230 15:42 12.01.2020
4778 Clouds 5 1017 77 10000 6.2 230 15:23 12.01.2020
4779 Clouds 5 1018 77 10000 6.7 230 14:56 12.01.2020
4780 Clouds 5 1018 77 10000 8.2 240 14:37 12.01.2020
4781 Clouds 5 1018 68 10000 8.2 240 14:18 12.01.2020
4782 Clouds 5 1019 68 10000 6.2 230 13:42 12.01.2020
4783 Clouds 5 1019 66 10000 6.2 230 13:23 12.01.2020
4784 Clouds 5 1020 69 10000 6.2 230 12:58 12.01.2020
4785 Clouds 5 1020 69 10000 7.7 230 12:39 12.01.2020
4786 Clouds 5 1020 69 10000 7.7 230 12:20 12.01.2020
4787 Clouds 5 1020 69 10000 6.7 230 11:58 12.01.2020
4788 Clouds 4 1020 74 10000 7.2 230 11:38 12.01.2020
4789 Clouds 4 1020 74 10000 7.2 230 11:19 12.01.2020
4790 Clouds 4 1020 74 10000 6.2 230 10:41 12.01.2020
4791 Clouds 4 1021 74 10000 6.2 220 10:41 12.01.2020
4792 Clouds 4 1021 74 10000 6.2 220 10:22 12.01.2020
4793 Clouds 4 1021 74 10000 5.7 230 09:57 12.01.2020
4794 Clouds 3 1021 74 10000 5.7 230 09:38 12.01.2020
4795 Clouds 3 1021 74 10000 5.7 230 09:19 12.01.2020
4796 Clouds 3 1020 80 10000 2.6 180 08:45 12.01.2020
4797 Clouds 3 1020 75 10000 6.2 230 08:20 12.01.2020
4798 Clouds 3 1021 80 10000 3.1 190 07:41 12.01.2020
4799 Clouds 3 1021 75 10000 6.2 220 07:23 12.01.2020
4800 Clouds 3 1021 80 10000 2.1 170 06:48 12.01.2020
4801 Clouds 3 1021 75 10000 6.2 220 06:30 12.01.2020
4802 Clouds 3 1022 75 10000 6.7 240 05:32 12.01.2020
4803 Clouds 3 1022 75 10000 6.7 240 05:32 12.01.2020
4804 Clouds 3 1022 75 10000 5.7 230 04:30 12.01.2020
4805 Clouds 3 1023 75 10000 6.2 230 03:25 12.01.2020
4806 Clouds 3 1023 75 10000 6.7 230 02:34 12.01.2020
4807 Clouds 4 1024 78 10000 3.6 210 01:55 12.01.2020
4808 Clouds 4 1024 75 10000 4.1 230 01:29 12.01.2020
4809 Clouds 4 1024 77 10000 3.6 210 00:42 12.01.2020
4810 Clouds 4 1025 75 10000 4.6 220 00:20 12.01.2020
4811 Clouds 4 1025 77 10000 3.1 200 23:55 11.01.2020
4812 Clouds 4 1025 77 10000 4.1 210 23:37 11.01.2020
4813 Clouds 4 1025 78 10000 4.1 210 23:18 11.01.2020
4814 Clouds 4 1025 78 10000 3.6 200 22:42 11.01.2020
4815 Clouds 4 1026 78 10000 4.1 210 22:21 11.01.2020
4816 Clouds 4 1026 78 10000 4.1 200 21:59 11.01.2020
4817 Clouds 4 1026 78 10000 3.6 200 21:41 11.01.2020
4818 Clouds 4 1027 78 10000 5.1 220 21:18 11.01.2020
4819 Clouds 4 1027 78 10000 5.1 220 20:55 11.01.2020
4820 Clouds 5 1027 65 10000 5.7 230 20:36 11.01.2020
4821 Clouds 5 1027 65 10000 5.7 230 20:18 11.01.2020
4822 Clouds 5 1027 65 10000 5.1 230 19:54 11.01.2020
4823 Clouds 4 1028 81 10000 5.1 220 19:36 11.01.2020
4824 Clouds 4 1028 81 10000 5.1 220 19:18 11.01.2020
4825 Clouds 4 1028 81 10000 4.1 230 18:54 11.01.2020
4826 Clouds 4 1028 81 10000 4.6 230 18:36 11.01.2020
4827 Clouds 4 1028 81 10000 4.6 230 18:18 11.01.2020
4828 Clouds 5 1028 81 10000 4.1 230 17:54 11.01.2020
4829 Clouds 5 1028 81 10000 3.6 230 17:36 11.01.2020
4830 Clouds 5 1028 76 10000 3.6 230 17:18 11.01.2020
4831 Clouds 5 1029 76 10000 4.6 250 16:41 11.01.2020
4832 Clouds 6 1029 76 10000 4.1 240 16:22 11.01.2020
4833 Clouds 6 1029 76 10000 4.6 240 15:42 11.01.2020
4834 Clouds 6 1029 76 10000 6.2 220 15:24 11.01.2020
4835 Clouds 6 1029 70 10000 5.1 220 14:59 11.01.2020
4836 Clouds 6 1029 70 10000 5.1 220 14:41 11.01.2020
4837 Clouds 6 1030 65 10000 5.7 220 14:22 11.01.2020
4838 Clouds 6 1030 70 10000 6.2 230 13:55 11.01.2020
4839 Clouds 6 1030 70 10000 5.7 220 13:37 11.01.2020
4840 Clouds 6 1030 70 10000 5.7 220 13:19 11.01.2020
4841 Clouds 6 1031 75 10000 4.6 230 12:44 11.01.2020
4842 Clouds 6 1031 75 10000 5.1 230 12:26 11.01.2020
4843 Clouds 5 1031 75 10000 5.1 230 11:56 11.01.2020
4844 Clouds 5 1032 80 10000 3.6 230 11:37 11.01.2020
4845 Clouds 4 1032 80 10000 3.6 230 11:18 11.01.2020
4846 Clouds 4 1032 80 10000 3.6 230 11:18 11.01.2020
4847 Clouds 4 1031 80 10000 4.1 230 10:44 11.01.2020
4848 Clouds 3 1031 86 10000 3.6 240 10:24 11.01.2020
4849 Clouds 3 1030 89 10000 2.1 230 09:42 11.01.2020
4850 Clouds 2 1030 89 10000 2.1 230 09:21 11.01.2020
4851 Clouds 2 1030 100 10000 2.1 250 08:43 11.01.2020
4852 Clouds 2 1030 93 10000 2.1 210 08:23 11.01.2020
4853 Clouds 2 1030 100 10000 2.1 220 07:45 11.01.2020
4854 Clouds 2 1030 93 10000 2.6 240 07:27 11.01.2020
4855 Clouds 2 1030 100 10000 1.5 230 06:56 11.01.2020
4856 Clouds 2 1030 93 10000 2.1 250 06:37 11.01.2020
4857 Clouds 3 1030 93 10000 3.1 260 05:22 11.01.2020
4858 Clouds 3 1029 100 10000 3.1 260 04:38 11.01.2020
4859 Clouds 3 1029 100 10000 3.1 260 04:20 11.01.2020
4860 Clouds 4 1028 86 10000 2.6 260 02:46 11.01.2020
4861 Clouds 4 1027 93 10000 3.1 260 01:45 11.01.2020
4862 Clouds 4 1028 93 10000 5.1 280 01:25 11.01.2020
4863 Clouds 4 1027 93 10000 2.6 260 00:52 11.01.2020
4864 Clouds 4 1027 93 10000 5.1 270 00:25 11.01.2020
4865 Clouds 4 1026 86 10000 3.1 260 23:58 10.01.2020
4866 Clouds 4 1026 93 10000 5.7 280 23:39 10.01.2020
4867 Clouds 4 1026 93 10000 5.7 280 23:39 10.01.2020
4868 Clouds 5 1026 93 10000 5.7 280 23:20 10.01.2020
4869 Clouds 5 1023 80 10000 5.1 290 22:41 10.01.2020
4870 Clouds 5 1023 80 10000 5.1 290 22:22 10.01.2020
4871 Clouds 5 1023 80 10000 5.7 310 21:59 10.01.2020
4872 Clouds 5 1023 80 10000 5.7 310 21:41 10.01.2020
4873 Rain 5 1022 80 10000 4.6 310 21:20 10.01.2020
4874 Clouds 5 1022 80 10000 6.2 300 20:59 10.01.2020
4875 Clouds 5 1022 80 10000 6.2 300 20:40 10.01.2020
4876 Clouds 5 1021 80 10000 6.2 290 20:22 10.01.2020
4877 Clouds 5 1020 70 10000 8.2 300 19:41 10.01.2020
4878 Clouds 6 1020 70 10000 8.2 300 19:21 10.01.2020
4879 Clouds 6 1019 75 10000 9.8 300 18:58 10.01.2020
4880 Clouds 6 1019 75 10000 9.8 300 18:40 10.01.2020
4881 Clouds 6 1018 81 10000 7.7 300 18:18 10.01.2020
4882 Rain 7 1018 87 8000 8.2 280 17:57 10.01.2020
4883 Clouds 7 1016 81 10000 5.1 260 17:38 10.01.2020
4884 Clouds 7 1016 81 10000 5.1 260 17:20 10.01.2020
4885 Clouds 8 1017 87 10000 6.2 290 16:55 10.01.2020
4886 Clouds 8 1015 87 10000 5.7 250 16:37 10.01.2020
4887 Clouds 8 1015 87 10000 5.7 250 16:19 10.01.2020
4888 Drizzle 9 1015 87 10000 6.2 250 15:55 10.01.2020
4889 Clouds 9 1014 81 10000 6.2 250 15:36 10.01.2020
4890 Clouds 9 1014 81 10000 6.2 250 15:36 10.01.2020
4891 Clouds 9 1014 81 10000 6.2 250 15:18 10.01.2020
4892 Clouds 9 1014 76 10000 5.7 260 14:54 10.01.2020
4893 Clouds 9 1014 81 10000 3.6 250 14:36 10.01.2020
4894 Clouds 9 1014 81 10000 3.6 250 14:18 10.01.2020
4895 Drizzle 9 1014 76 10000 3.6 260 13:41 10.01.2020
4896 Drizzle 9 1014 76 10000 3.6 260 13:23 10.01.2020
4897 Clouds 10 1014 76 10000 4.6 260 12:58 10.01.2020
4898 Clouds 10 1014 76 10000 5.7 250 12:38 10.01.2020
4899 Clouds 10 1014 76 10000 5.7 250 12:19 10.01.2020
4900 Clouds 10 1014 76 10000 6.2 240 11:55 10.01.2020
4901 Clouds 10 1013 76 10000 5.1 240 11:37 10.01.2020
4902 Rain 10 1013 76 10000 5.1 240 11:18 10.01.2020
4903 Rain 9 1013 81 10000 5.1 250 10:43 10.01.2020
4904 Rain 9 1013 76 10000 5.7 250 10:24 10.01.2020
4905 Rain 9 1012 76 10000 5.1 250 09:59 10.01.2020
4906 Rain 9 1012 76 10000 5.1 250 09:40 10.01.2020
4907 Clouds 9 1012 81 10000 6.2 250 09:22 10.01.2020
4908 Clouds 9 1011 81 10000 6.7 230 08:43 10.01.2020
4909 Clouds 9 1011 81 10000 5.7 230 08:24 10.01.2020
4910 Clouds 9 1011 81 10000 4.6 220 07:46 10.01.2020
4911 Clouds 10 1011 87 10000 3.6 220 07:28 10.01.2020
4912 Clouds 10 1010 81 10000 5.7 230 06:55 10.01.2020
4913 Clouds 10 1010 81 10000 6.2 240 06:27 10.01.2020
4914 Clouds 10 1009 81 10000 5.1 230 05:52 10.01.2020
4915 Rain 10 1009 87 10000 4.1 210 03:47 10.01.2020
4916 Rain 11 1009 93 10000 4.6 220 03:28 10.01.2020
4917 Clouds 11 1008 81 10000 3.6 190 02:51 10.01.2020
4918 -273 0 0 0 0 0 01:52 10.01.2020
4919 Clouds 11 1009 87 10000 3.6 200 01:29 10.01.2020
4920 Clouds 11 1008 87 10000 3.1 190 00:48 10.01.2020
4921 Clouds 11 1009 87 10000 3.6 210 00:30 10.01.2020
4922 Clouds 11 1009 93 10000 2.1 180 23:55 09.01.2020
4923 Rain 11 1009 87 10000 3.1 200 23:36 09.01.2020
4924 Rain 11 1009 87 10000 3.1 200 23:18 09.01.2020
4925 Clouds 11 1009 93 10000 2.6 180 22:54 09.01.2020
4926 Clouds 11 1010 81 10000 4.1 230 22:36 09.01.2020
4927 Clouds 11 1010 81 10000 4.1 230 22:18 09.01.2020
4928 Clouds 11 1010 81 10000 4.1 230 21:54 09.01.2020
4929 Clouds 11 1010 81 10000 4.6 230 21:36 09.01.2020
4930 Clouds 11 1010 81 10000 4.6 230 21:18 09.01.2020
4931 Clouds 11 1010 81 10000 4.1 230 20:54 09.01.2020
4932 Clouds 11 1010 81 10000 4.1 230 20:36 09.01.2020
4933 Clouds 11 1010 81 10000 5.1 240 20:18 09.01.2020
4934 Clouds 11 1010 81 10000 5.7 230 19:39 09.01.2020
4935 Clouds 11 1010 81 10000 5.7 230 19:20 09.01.2020
4936 Clouds 11 1010 81 10000 5.7 230 18:57 09.01.2020
4937 Clouds 11 1010 81 10000 4.1 210 18:39 09.01.2020
4938 Clouds 11 1010 87 10000 5.7 220 18:21 09.01.2020
4939 Clouds 11 1010 87 10000 5.7 220 17:57 09.01.2020
4940 Clouds 11 1010 81 10000 5.1 220 17:39 09.01.2020
4941 Rain 11 1011 81 10000 5.1 220 17:18 09.01.2020
4942 Rain 11 1011 81 10000 5.7 220 16:42 09.01.2020
4943 Rain 11 1011 81 10000 5.1 220 16:21 09.01.2020
4944 Drizzle 11 1011 87 10000 4.6 220 15:43 09.01.2020
4945 Drizzle 11 1011 87 10000 4.6 210 15:23 09.01.2020
4946 Drizzle 11 1011 87 10000 4.6 210 14:59 09.01.2020
4947 Rain 11 1011 87 10000 5.1 210 14:41 09.01.2020
4948 Drizzle 11 1012 81 10000 5.7 210 14:19 09.01.2020
4949 Drizzle 11 1012 81 10000 5.7 210 13:56 09.01.2020
4950 Drizzle 10 1012 81 10000 3.6 210 13:38 09.01.2020
4951 Drizzle 10 1013 81 10000 4.6 200 13:19 09.01.2020
4952 Drizzle 10 1013 81 10000 4.6 200 12:56 09.01.2020
4953 Drizzle 10 1013 81 10000 4.6 210 12:38 09.01.2020
4954 Drizzle 10 1013 81 10000 3.1 190 12:18 09.01.2020
4955 Clouds 10 1014 81 10000 3.1 190 11:42 09.01.2020
4956 Clouds 10 1015 87 10000 2.6 180 11:24 09.01.2020
4957 Clouds 10 1014 81 10000 3.1 190 11:24 09.01.2020
4958 Clouds 9 1015 87 10000 2.6 180 10:59 09.01.2020
4959 Clouds 9 1015 87 10000 2.6 180 10:41 09.01.2020
4960 Clouds 9 1015 93 10000 2.1 120 10:21 09.01.2020
4961 Clouds 9 1016 87 10000 1.5 0 09:49 09.01.2020
4962 Clouds 9 1016 87 10000 1.5 0 09:25 09.01.2020
4963 Clouds 8 1016 87 10000 2.6 170 08:59 09.01.2020
4964 Clouds 8 1016 93 10000 2.1 160 08:40 09.01.2020
4965 Drizzle 8 1017 93 10000 2.1 140 08:22 09.01.2020
4966 Drizzle 8 1017 93 10000 2.1 150 07:55 09.01.2020
4967 Drizzle 8 1017 93 10000 2.1 150 07:35 09.01.2020
4968 Drizzle 8 1018 93 10000 2.1 150 06:54 09.01.2020
4969 Rain 8 1017 93 10000 3.1 160 06:32 09.01.2020
4970 Drizzle 8 1018 93 8000 3.1 170 05:52 09.01.2020
4971 Clouds 8 1018 100 10000 2.6 170 05:28 09.01.2020
4972 Drizzle 8 1020 100 5000 3.1 180 04:41 09.01.2020
4973 Rain 8 1020 93 10000 3.1 180 03:28 09.01.2020
4974 Drizzle 8 1021 100 5000 2.6 190 02:47 09.01.2020
4975 Drizzle 8 1021 100 5000 2.6 190 02:47 09.01.2020
4976 Rain 8 1021 100 8000 2.1 180 01:56 09.01.2020
4977 Rain 8 1021 100 8000 2.1 200 01:34 09.01.2020
4978 Drizzle 9 1022 93 8000 3.6 180 00:40 09.01.2020
4979 Rain 9 1022 93 8000 1.5 200 00:19 09.01.2020
4980 Drizzle 9 1022 93 9000 2.1 190 23:41 08.01.2020
4981 Clouds 9 1022 93 10000 2.6 230 23:23 08.01.2020
4982 Clouds 9 1022 93 10000 2.6 230 22:58 08.01.2020
4983 Clouds 9 1022 93 9000 2.1 210 22:38 08.01.2020
4984 Clouds 9 1022 87 10000 4.1 230 22:20 08.01.2020
4985 Clouds 9 1022 87 10000 4.1 230 21:56 08.01.2020
4986 Clouds 9 1022 93 10000 4.1 230 21:38 08.01.2020
4987 Clouds 9 1022 93 10000 4.1 230 21:19 08.01.2020
4988 Clouds 8 1022 93 10000 4.1 230 20:57 08.01.2020
4989 Clouds 9 1022 87 10000 4.1 230 20:38 08.01.2020
4990 Clouds 8 1023 87 10000 4.1 230 20:20 08.01.2020
4991 Clouds 8 1023 87 10000 4.1 230 19:56 08.01.2020
4992 Clouds 8 1022 87 10000 3.6 220 19:36 08.01.2020
4993 Clouds 8 1022 87 10000 3.6 220 19:36 08.01.2020
4994 Clouds 8 1022 93 10000 4.1 230 19:18 08.01.2020
4995 Clouds 8 1022 93 10000 4.1 230 18:55 08.01.2020
4996 Clouds 8 1022 93 10000 4.1 230 18:55 08.01.2020
4997 Clouds 8 1022 93 10000 4.1 230 18:55 08.01.2020
4998 Clouds 8 1022 87 10000 5.1 230 18:36 08.01.2020
4999 Drizzle 8 1022 87 6000 5.1 230 18:18 08.01.2020
5000 Clouds 8 1022 87 10000 4.1 240 17:47 08.01.2020
5001 Clouds 8 1022 87 10000 5.1 230 17:24 08.01.2020
5002 Clouds 8 1022 87 10000 5.1 230 16:57 08.01.2020
5003 Clouds 8 1022 87 10000 5.7 240 16:39 08.01.2020
5004 Clouds 8 1021 87 10000 6.2 240 16:19 08.01.2020
5005 Clouds 8 1021 87 10000 6.2 240 16:19 08.01.2020
5006 Clouds 8 1021 87 10000 6.2 240 15:58 08.01.2020
5007 Clouds 8 1021 87 10000 6.2 240 15:39 08.01.2020
5008 Clouds 8 1021 87 10000 6.7 240 15:19 08.01.2020
5009 Clouds 8 1021 87 10000 6.7 240 14:55 08.01.2020
5010 Clouds 8 1021 87 10000 6.2 240 14:37 08.01.2020
5011 Clouds 8 1021 87 10000 6.2 240 14:19 08.01.2020
5012 Clouds 8 1021 81 10000 7.2 240 13:39 08.01.2020
5013 Clouds 8 1021 81 8000 6.7 240 13:18 08.01.2020
5014 Clouds 8 1021 81 10000 5.7 230 12:41 08.01.2020
5015 Clouds 8 1021 81 10000 5.1 230 12:19 08.01.2020
5016 Clouds 8 1021 81 10000 5.1 230 12:19 08.01.2020
5017 Clouds 8 1021 81 10000 5.1 230 11:55 08.01.2020
5018 Clouds 7 1021 93 9000 4.6 210 11:37 08.01.2020
5019 Clouds 7 1021 81 10000 6.7 230 11:18 08.01.2020
5020 Clouds 7 1021 81 10000 4.6 240 10:55 08.01.2020
5021 Clouds 7 1021 81 10000 4.6 240 10:37 08.01.2020
5022 Clouds 7 1021 81 10000 4.6 240 10:18 08.01.2020
5023 Clouds 7 1021 81 10000 6.2 240 09:41 08.01.2020
5024 Clouds 7 1021 81 10000 6.2 240 09:19 08.01.2020
5025 Clouds 7 1021 81 10000 6.2 240 08:56 08.01.2020
5026 Clouds 7 1021 81 10000 4.6 230 08:37 08.01.2020
5027 Clouds 7 1020 81 10000 5.1 230 08:19 08.01.2020
5028 Clouds 7 1020 81 10000 5.1 230 08:19 08.01.2020
5029 Clouds 7 1020 75 10000 5.7 240 07:48 08.01.2020
5030 Clouds 7 1020 75 10000 5.7 240 07:29 08.01.2020
5031 Clouds 7 1020 70 10000 3.6 210 06:45 08.01.2020
5032 Clouds 7 1020 75 10000 4.6 220 06:22 08.01.2020
5033 Drizzle 7 1020 70 10000 4.1 210 05:41 08.01.2020
5034 Rain 7 1020 65 10000 4.1 220 04:56 08.01.2020
5035 Rain 7 1020 65 10000 4.6 210 04:25 08.01.2020
5036 Clouds 6 1021 75 10000 4.6 200 02:45 08.01.2020
5037 Clouds 6 1022 75 10000 4.1 200 02:22 08.01.2020
5038 Clouds 6 1022 75 10000 4.1 190 01:50 08.01.2020
5039 Clouds 6 1022 75 10000 3.6 190 01:23 08.01.2020
5040 Clouds 6 1023 81 10000 3.6 180 00:40 08.01.2020
5041 Clouds 6 1023 75 10000 3.1 200 00:20 08.01.2020
5042 Clouds 6 1024 81 10000 3.1 190 23:44 07.01.2020
5043 Clouds 6 1024 75 10000 3.6 210 23:20 07.01.2020
5044 Clouds 6 1024 81 10000 3.6 210 22:41 07.01.2020
5045 Clouds 5 1025 75 10000 2.6 170 22:21 07.01.2020
5046 Clouds 5 1025 75 10000 2.6 170 21:57 07.01.2020
5047 Clouds 5 1025 75 10000 2.6 170 21:39 07.01.2020
5048 Clouds 4 1025 75 10000 3.1 190 21:21 07.01.2020
5049 Clouds 5 1025 75 10000 3.1 190 20:57 07.01.2020
5050 Clouds 4 1025 80 10000 2.6 180 20:39 07.01.2020
5051 Clouds 5 1026 75 10000 4.1 200 20:21 07.01.2020
5052 Clouds 4 1026 80 10000 3.6 220 19:56 07.01.2020
5053 Clouds 5 1026 80 10000 3.6 220 19:37 07.01.2020
5054 Clouds 5 1027 80 10000 3.6 230 19:18 07.01.2020
5055 Clouds 5 1027 80 10000 3.6 230 19:18 07.01.2020
5056 Clouds 5 1027 80 10000 3.6 230 18:55 07.01.2020
5057 Clouds 5 1026 86 10000 3.6 220 18:37 07.01.2020
5058 Clouds 5 1026 80 10000 3.1 220 18:18 07.01.2020
5059 Clouds 5 1026 80 10000 3.1 220 18:18 07.01.2020
5060 Clouds 5 1027 86 10000 4.1 230 17:41 07.01.2020
5061 Clouds 5 1027 86 10000 4.1 230 17:23 07.01.2020
5062 Clouds 5 1027 86 10000 3.6 220 16:58 07.01.2020
5063 Clouds 6 1026 87 10000 3.6 230 16:38 07.01.2020
5064 Clouds 6 1026 87 10000 3.1 220 16:20 07.01.2020
5065 Clouds 6 1026 87 10000 3.1 220 15:59 07.01.2020
5066 Clouds 6 1026 81 10000 5.1 240 15:41 07.01.2020
5067 Clouds 6 1026 81 10000 5.1 240 15:23 07.01.2020
5068 Clouds 6 1026 81 10000 4.1 240 14:58 07.01.2020
5069 Clouds 6 1025 81 10000 4.1 240 14:38 07.01.2020
5070 Clouds 6 1025 87 9000 4.1 240 14:19 07.01.2020
5071 Clouds 6 1025 87 8000 4.6 250 13:44 07.01.2020
5072 Clouds 6 1025 87 8000 4.6 240 13:20 07.01.2020
5073 Clouds 6 1025 87 8000 4.6 240 12:56 07.01.2020
5074 Clouds 6 1025 86 10000 4.6 240 12:37 07.01.2020
5075 Clouds 5 1025 86 10000 4.6 240 12:18 07.01.2020
5076 Clouds 5 1025 86 10000 4.6 250 11:41 07.01.2020
5077 Clouds 5 1025 93 10000 4.6 250 11:22 07.01.2020
5078 Clouds 5 1025 93 10000 4.6 250 10:57 07.01.2020
5079 Clouds 5 1025 86 10000 5.1 250 10:39 07.01.2020
5080 Clouds 4 1024 93 10000 4.1 270 10:20 07.01.2020
5081 Clouds 4 1024 93 8000 3.1 250 09:39 07.01.2020
5082 Drizzle 4 1023 93 6000 3.6 250 09:21 07.01.2020
5083 Drizzle 4 1023 93 6000 3.6 250 09:21 07.01.2020
5084 Drizzle 4 1023 93 6000 3.6 250 08:57 07.01.2020
5085 Drizzle 3 1023 93 4700 3.6 240 08:38 07.01.2020
5086 Drizzle 3 1022 93 3100 3.6 240 08:18 07.01.2020
5087 Drizzle 3 1022 93 3000 3.6 240 07:47 07.01.2020
5088 Drizzle 3 1021 93 3900 3.6 240 07:20 07.01.2020
5089 Drizzle 3 1021 93 7000 3.6 240 06:50 07.01.2020
5090 Drizzle 3 1021 93 7000 3.6 240 06:30 07.01.2020
5091 Drizzle 3 1020 100 3000 2.1 220 05:41 07.01.2020
5092 Clouds 3 1020 83 10000 1.5 220 03:52 07.01.2020
5093 Clouds 3 1020 75 10000 5.1 260 03:25 07.01.2020
5094 Clouds 2 1020 74 10000 3.6 240 02:20 07.01.2020
5095 Clouds 1 1019 81 10000 2.1 210 01:40 07.01.2020
5096 Clouds 1 1019 81 10000 2.1 210 01:40 07.01.2020
5097 Clouds 1 1019 81 10000 2.1 210 01:40 07.01.2020
5098 Clouds 1 1019 81 10000 2.1 210 01:40 07.01.2020
5099 Clouds 1 1019 86 10000 2.1 200 01:18 07.01.2020
5100 Clouds 1 1019 80 10000 2.1 170 00:21 07.01.2020
5101 Clouds 1 1019 80 10000 2.1 170 23:58 06.01.2020
5102 Clouds 0 1019 81 10000 1.5 140 23:39 06.01.2020
5103 Clear 0 1020 86 10000 2.1 100 23:21 06.01.2020
5104 Clear 1 1020 86 10000 2.1 100 22:56 06.01.2020
5105 Clear 1 1020 86 10000 2.1 100 22:37 06.01.2020
5106 Clear 1 1020 86 10000 1.5 0 22:19 06.01.2020
5107 Clear 1 1020 86 10000 1.5 0 21:55 06.01.2020
5108 Clear 1 1021 86 10000 1 110 21:36 06.01.2020
5109 Clear 1 1021 86 10000 1 0 21:18 06.01.2020
5110 Clear 1 1021 86 10000 1 0 20:55 06.01.2020
5111 Clear 1 1022 86 10000 1.5 140 20:37 06.01.2020
5112 Clouds 1 1022 80 10000 1.5 120 20:19 06.01.2020
5113 Clouds 1 1022 80 10000 1.5 120 19:55 06.01.2020
5114 Clouds 2 1022 74 10000 1.5 110 19:36 06.01.2020
5115 Clouds 2 1022 74 10000 1.5 110 19:36 06.01.2020
5116 Clouds 2 1022 74 10000 1.5 0 19:18 06.01.2020
5117 Clouds 3 1023 69 10000 3.1 210 18:44 06.01.2020
5118 Clouds 4 1023 86 10000 4.1 190 18:20 06.01.2020
5119 Clouds 5 1024 86 10000 2.6 190 17:40 06.01.2020
5120 Clouds 5 1024 82 10000 2.1 210 17:20 06.01.2020
5121 Clouds 5 1024 82 10000 2.1 210 16:58 06.01.2020
5122 Clouds 5 1024 82 10000 4.1 220 16:40 06.01.2020
5123 Clouds 5 1024 75 10000 3.1 220 16:22 06.01.2020
5124 Clouds 5 1024 75 10000 3.1 220 15:59 06.01.2020
5125 Clouds 5 1024 75 10000 3.6 220 15:37 06.01.2020
5126 Clouds 5 1025 75 10000 3.6 220 15:18 06.01.2020
5127 Clouds 5 1025 75 10000 3.6 220 15:18 06.01.2020
5128 Clouds 5 1025 75 10000 3.1 220 14:42 06.01.2020
5129 Clouds 5 1025 75 10000 3.1 230 14:22 06.01.2020
5130 Clouds 5 1025 75 10000 3.1 230 14:22 06.01.2020
5131 Clouds 5 1025 75 10000 3.1 230 13:59 06.01.2020
5132 Clouds 5 1026 75 10000 3.6 220 13:39 06.01.2020
5133 Clouds 5 1026 75 10000 3.6 230 13:21 06.01.2020
5134 Clouds 5 1026 75 10000 3.6 230 13:21 06.01.2020
5135 Clouds 5 1026 75 10000 3.6 230 12:58 06.01.2020
5136 Clouds 5 1026 75 10000 3.1 220 12:39 06.01.2020
5137 Clouds 5 1027 75 10000 4.6 220 12:19 06.01.2020
5138 Clouds 5 1027 75 10000 4.1 240 11:43 06.01.2020
5139 Clouds 5 1027 75 10000 4.1 240 11:24 06.01.2020
5140 Clouds 5 1027 75 10000 3.6 230 11:00 06.01.2020
5141 Clouds 5 1028 75 10000 3.6 240 10:41 06.01.2020
5142 Clouds 5 1028 75 10000 4.1 230 10:21 06.01.2020
5143 Clouds 5 1028 75 10000 3.6 230 09:42 06.01.2020
5144 Clouds 5 1028 75 10000 3.1 230 09:24 06.01.2020
5145 Clouds 5 1028 75 10000 3.1 230 08:58 06.01.2020
5146 Clouds 5 1028 75 10000 2.6 250 08:39 06.01.2020
5147 Clouds 5 1028 75 10000 3.6 240 08:21 06.01.2020
5148 Clouds 5 1028 75 10000 3.6 240 07:45 06.01.2020
5149 Clouds 5 1028 75 10000 3.6 230 07:21 06.01.2020
5150 Clouds 5 1028 80 10000 3.1 210 06:38 06.01.2020
5151 Clouds 5 1028 80 10000 3.1 230 05:49 06.01.2020
5152 Clouds 5 1028 80 10000 2.6 230 05:29 06.01.2020
5153 Clouds 5 1029 80 10000 3.6 230 04:25 06.01.2020
5154 Rain 5 1029 80 10000 3.6 230 03:52 06.01.2020
5155 Clouds 5 1029 75 10000 4.1 240 02:32 06.01.2020
5156 Clouds 5 1030 75 8000 3.6 220 01:55 06.01.2020
5157 Clouds 5 1030 75 8000 3.6 220 01:32 06.01.2020
5158 Clouds 5 1030 75 10000 4.1 240 00:57 06.01.2020
5159 Clouds 5 1030 75 8000 3.6 220 00:39 06.01.2020
5160 Clouds 5 1031 75 10000 3.6 230 00:18 06.01.2020
5161 Clouds 5 1030 75 8000 3.6 220 23:40 05.01.2020
5162 Clouds 5 1031 75 10000 3.6 220 23:21 05.01.2020
5163 Clouds 5 1031 75 10000 3.6 220 22:54 05.01.2020
5164 Clouds 5 1031 81 6000 4.1 220 22:36 05.01.2020
5165 Clouds 5 1031 75 10000 4.1 230 22:18 05.01.2020
5166 Mist 5 1031 87 5000 3.1 210 21:41 05.01.2020
5167 Clouds 5 1032 80 10000 4.1 230 21:21 05.01.2020
5168 Clouds 5 1032 80 10000 4.1 230 20:58 05.01.2020
5169 Mist 5 1032 93 5000 3.1 210 20:39 05.01.2020
5170 Clouds 5 1032 86 10000 4.1 220 20:20 05.01.2020
5171 Clouds 5 1032 86 10000 4.1 220 20:20 05.01.2020
5172 Clouds 5 1032 86 10000 4.1 220 19:59 05.01.2020
5173 Clouds 5 1032 86 10000 4.1 230 19:41 05.01.2020
5174 Clouds 5 1032 86 10000 3.6 240 19:21 05.01.2020
5175 Clouds 5 1032 86 10000 3.6 240 18:56 05.01.2020
5176 Clouds 4 1032 93 10000 3.6 250 18:38 05.01.2020
5177 Clouds 5 1032 86 10000 3.1 240 18:19 05.01.2020
5178 Clouds 4 1032 86 10000 3.1 240 17:59 05.01.2020
5179 Clouds 4 1032 93 10000 2.6 240 17:39 05.01.2020
5180 Clouds 4 1033 93 10000 2.1 210 17:20 05.01.2020
5181 Clouds 4 1033 93 10000 2.1 210 16:57 05.01.2020
5182 Clouds 4 1033 93 10000 2.6 200 16:39 05.01.2020
5183 Clouds 4 1033 93 10000 2.6 200 16:20 05.01.2020
5184 Clouds 4 1033 93 10000 2.6 210 15:41 05.01.2020
5185 Mist 4 1033 93 4200 2.1 210 15:22 05.01.2020
5186 Mist 4 1033 93 4200 2.1 210 14:58 05.01.2020
5187 Mist 4 1033 86 4000 2.6 230 14:40 05.01.2020
5188 Mist 4 1033 86 4000 2.6 230 14:40 05.01.2020
5189 Clouds 5 1033 80 10000 3.1 200 14:22 05.01.2020
5190 Clouds 5 1033 80 10000 3.1 200 13:59 05.01.2020
5191 Clouds 4 1033 75 10000 2.6 180 13:39 05.01.2020
5192 Clouds 4 1034 75 10000 1.5 0 13:21 05.01.2020
5193 Clouds 4 1034 75 10000 1.5 0 12:57 05.01.2020
5194 Clouds 4 1034 80 10000 2.1 220 12:38 05.01.2020
5195 Clouds 4 1034 79 10000 2.6 210 12:20 05.01.2020
5196 Clouds 3 1034 79 10000 2.6 210 11:55 05.01.2020
5197 Clouds 3 1034 79 10000 1.5 0 11:37 05.01.2020
5198 Clouds 3 1034 87 10000 2.1 240 11:19 05.01.2020
5199 Clouds 2 1034 87 10000 2.1 240 10:55 05.01.2020
5200 Clear 2 1034 80 10000 2.09 230 10:36 05.01.2020
5201 Clear 1 1034 80 10000 2.09 230 10:18 05.01.2020
5202 Clouds 1 1034 86 10000 2.09 230 09:41 05.01.2020
5203 Clouds 1 1034 86 10000 2.09 230 09:41 05.01.2020
5204 Clouds 0 1033 86 10000 0.5 240 09:21 05.01.2020
5205 Clear 0 1033 92 3200 1 180 08:45 05.01.2020
5206 Clouds 1 1033 87 10000 2.1 240 08:26 05.01.2020
5207 Clouds 1 1033 91 7000 1.5 230 07:55 05.01.2020
5208 Clouds 1 1033 91 10000 2.1 250 07:32 05.01.2020
5209 Clouds 1 1033 91 10000 2.6 260 06:58 05.01.2020
5210 Clouds 2 1033 86 10000 2.1 250 05:55 05.01.2020
5211 Clouds 3 1033 93 10000 1.5 250 05:30 05.01.2020
5212 Clouds 3 1033 93 10000 1.5 250 05:30 05.01.2020
5213 Clouds 3 1033 86 8000 2.1 240 04:34 05.01.2020
5214 Clouds 2 1032 93 8000 2.1 240 03:47 05.01.2020
5215 Clouds 3 1032 93 8000 1.5 270 02:45 05.01.2020
5216 Clouds 2 1032 93 10000 2.1 290 02:20 05.01.2020
5217 Clouds 2 1031 93 7000 2.1 270 01:46 05.01.2020
5218 Clouds 2 1031 86 10000 3.1 280 01:18 05.01.2020
5219 Clouds 3 1030 93 7000 3.1 250 00:41 05.01.2020
5220 Clouds 3 1030 93 7000 3.1 250 00:41 05.01.2020
5221 Clouds 3 1030 86 10000 3.6 280 00:22 05.01.2020
5222 Clouds 3 1030 86 10000 3.6 280 23:59 04.01.2020
5223 Clouds 3 1030 93 7000 2.6 250 23:39 04.01.2020
5224 Rain 3 1030 93 10000 3.6 280 23:19 04.01.2020
5225 Clear 3 1029 93 7000 3.1 260 22:40 04.01.2020
5226 Clear 3 1029 93 7000 3.1 260 22:40 04.01.2020
5227 Clouds 3 1029 93 10000 4.6 280 22:21 04.01.2020
5228 Clouds 3 1029 93 10000 4.6 280 21:57 04.01.2020
5229 Clouds 3 1029 93 10000 4.6 280 21:57 04.01.2020
5230 Clear 2 1028 93 7000 3.1 250 21:39 04.01.2020
5231 Clouds 3 1028 93 10000 4.1 270 21:20 04.01.2020
5232 Clouds 3 1028 93 10000 4.1 270 21:20 04.01.2020
5233 Clouds 3 1028 93 10000 4.1 270 20:58 04.01.2020
5234 Clear 3 1027 93 8000 3.1 260 20:39 04.01.2020
5235 Clear 3 1027 93 8000 3.1 260 20:39 04.01.2020
5236 Clouds 3 1027 93 10000 4.1 280 20:21 04.01.2020
5237 Clouds 3 1027 93 10000 4.1 280 19:56 04.01.2020
5238 Clouds 3 1026 93 8000 3.6 280 19:38 04.01.2020
5239 Clouds 3 1026 93 10000 4.1 290 19:19 04.01.2020
5240 Clouds 4 1025 93 7000 3.1 280 18:54 04.01.2020
5241 Clouds 4 1025 93 7000 3.1 280 18:36 04.01.2020
5242 Clouds 4 1023 86 10000 5.1 300 18:18 04.01.2020
5243 Clouds 4 1023 86 10000 5.1 300 18:18 04.01.2020
5244 Clouds 4 1022 86 10000 5.7 290 17:41 04.01.2020
5245 Clouds 4 1022 86 10000 5.1 290 17:23 04.01.2020
5246 Clouds 4 1022 86 10000 5.1 290 16:58 04.01.2020
5247 Clouds 4 1021 93 10000 5.1 280 16:39 04.01.2020
5248 Clouds 4 1021 86 10000 4.1 320 16:21 04.01.2020
5249 Clouds 5 1021 86 10000 4.1 320 15:54 04.01.2020
5250 Rain 5 1021 86 6000 8.2 310 15:36 04.01.2020
5251 Rain 6 1019 87 9000 9.3 270 15:18 04.01.2020
5252 Rain 6 1019 87 10000 9.3 270 14:42 04.01.2020
5253 Drizzle 6 1020 87 10000 8.2 280 14:20 04.01.2020
5254 Drizzle 6 1020 87 10000 8.2 280 13:59 04.01.2020
5255 Drizzle 6 1020 87 10000 8.2 280 13:59 04.01.2020
5256 Clouds 6 1020 87 10000 8.7 270 13:38 04.01.2020
5257 Rain 5 1020 93 9000 8.2 270 13:19 04.01.2020
5258 Rain 6 1020 93 9000 8.2 270 12:57 04.01.2020
5259 Clouds 5 1020 86 10000 8.2 270 12:39 04.01.2020
5260 Drizzle 5 1020 86 10000 8.7 260 12:19 04.01.2020
5261 Drizzle 5 1020 86 10000 7.7 260 11:57 04.01.2020
5262 Drizzle 5 1020 86 10000 7.7 260 11:38 04.01.2020
5263 Drizzle 5 1020 86 10000 7.7 260 11:38 04.01.2020
5264 Clouds 6 1021 86 10000 7.7 260 11:18 04.01.2020
5265 Rain 6 1021 86 10000 7.2 270 10:41 04.01.2020
5266 Clouds 5 1021 80 10000 7.2 260 10:22 04.01.2020
5267 Clouds 5 1022 80 10000 6.2 260 09:50 04.01.2020
5268 Clouds 5 1022 80 10000 6.2 260 09:26 04.01.2020
5269 Clouds 5 1022 80 10000 6.2 260 09:26 04.01.2020
5270 Clouds 5 1022 80 10000 5.7 260 08:58 04.01.2020
5271 Clouds 5 1022 80 10000 6.2 260 08:39 04.01.2020
5272 Clouds 5 1022 86 10000 6.7 250 08:20 04.01.2020
5273 Clouds 5 1022 86 10000 6.2 260 07:42 04.01.2020
5274 Clouds 5 1022 86 8000 6.7 250 06:52 04.01.2020
5275 Clouds 4 1022 86 10000 6.2 260 06:33 04.01.2020
5276 Clouds 4 1023 86 10000 5.7 260 05:19 04.01.2020
5277 Clouds 4 1022 86 8000 5.7 240 04:34 04.01.2020
5278 Clouds 4 1023 86 8000 4.6 240 03:43 04.01.2020
5279 Clouds 4 1023 86 10000 4.6 260 03:18 04.01.2020
5280 Clouds 5 1023 80 10000 5.1 270 02:21 04.01.2020
5281 Clouds 5 1023 80 10000 5.1 270 02:21 04.01.2020
5282 Clouds 5 1023 80 10000 5.1 270 01:55 04.01.2020
5283 Clouds 5 1023 80 10000 6.2 270 01:31 04.01.2020
5284 Clouds 5 1022 86 7000 4.6 250 00:44 04.01.2020
5285 Clouds 5 1023 86 10000 5.7 270 00:23 04.01.2020
5286 Clouds 5 1021 93 8000 3.6 250 23:46 03.01.2020
5287 Clouds 5 1022 93 10000 4.6 270 23:25 03.01.2020
5288 Rain 5 1020 93 8000 3.6 270 22:54 03.01.2020
5289 Rain 5 1020 93 8000 3.6 270 22:36 03.01.2020
5290 Rain 5 1019 87 10000 5.7 310 22:18 03.01.2020
5291 Rain 5 1019 87 10000 5.7 310 21:54 03.01.2020
5292 Rain 6 1017 87 10000 7.2 320 21:36 03.01.2020
5293 Rain 6 1016 93 10000 5.7 290 21:18 03.01.2020
5294 Rain 7 1015 87 10000 5.7 270 20:42 03.01.2020
5295 Rain 7 1014 93 7000 6.2 240 20:19 03.01.2020
5296 Rain 7 1014 93 7000 6.2 240 19:58 03.01.2020
5297 Rain 7 1014 87 8000 6.2 230 19:39 03.01.2020
5298 Rain 7 1014 87 10000 5.7 220 19:21 03.01.2020
5299 Rain 7 1013 93 1900 3.1 220 18:44 03.01.2020
5300 Rain 7 1013 93 1900 3.1 220 18:44 03.01.2020
5301 Clouds 7 1013 87 10000 6.2 240 18:26 03.01.2020
5302 Clouds 7 1013 87 10000 6.2 240 17:57 03.01.2020
5303 Rain 7 1013 100 9000 3.6 200 17:39 03.01.2020
5304 Clouds 7 1014 81 10000 5.7 220 17:19 03.01.2020
5305 Rain 7 1013 100 1400 4.6 210 16:43 03.01.2020
5306 Clouds 7 1014 81 10000 6.2 230 16:24 03.01.2020
5307 Clouds 7 1014 81 10000 6.2 230 15:59 03.01.2020
5308 Clouds 7 1014 81 10000 6.2 230 15:41 03.01.2020
5309 Clouds 7 1014 75 10000 6.2 230 15:19 03.01.2020
5310 Clouds 7 1014 81 10000 6.7 240 14:39 03.01.2020
5311 Clouds 7 1014 81 10000 6.7 230 14:20 03.01.2020
5312 Clouds 7 1014 81 10000 6.7 230 13:57 03.01.2020
5313 Clouds 7 1014 75 10000 6.7 230 13:38 03.01.2020
5314 Clouds 7 1015 75 10000 6.7 230 13:20 03.01.2020
5315 Clouds 7 1015 75 10000 5.7 230 12:40 03.01.2020
5316 Clouds 7 1015 75 10000 5.7 230 12:22 03.01.2020
5317 Clouds 7 1016 75 10000 6.2 220 11:49 03.01.2020
5318 Clouds 7 1016 75 10000 6.2 220 11:31 03.01.2020
5319 Clouds 6 1016 75 10000 5.7 230 10:58 03.01.2020
5320 Clouds 6 1016 81 10000 6.2 220 10:39 03.01.2020
5321 Clouds 6 1016 81 10000 6.7 220 10:21 03.01.2020
5322 Clouds 6 1016 81 10000 6.7 220 09:55 03.01.2020
5323 Clouds 6 1016 81 10000 5.7 220 09:37 03.01.2020
5324 Clouds 6 1016 75 10000 6.2 220 09:19 03.01.2020
5325 Clouds 6 1016 75 10000 5.7 220 08:44 03.01.2020
5326 Clouds 5 1017 75 10000 5.7 220 08:22 03.01.2020
5327 Clouds 5 1017 75 10000 5.1 220 07:56 03.01.2020
5328 Clouds 5 1017 75 10000 5.1 220 07:37 03.01.2020
5329 Clouds 5 1017 75 10000 5.7 220 07:18 03.01.2020
5330 Clouds 5 1016 80 10000 3.6 190 06:42 03.01.2020
5331 Clouds 4 1017 80 10000 5.1 190 06:22 03.01.2020
5332 Clouds 4 1017 80 10000 5.7 190 05:20 03.01.2020
5333 Clouds 3 1018 86 10000 3.1 170 03:42 03.01.2020
5334 Clouds 3 1019 86 10000 3.6 200 02:54 03.01.2020
5335 Clouds 3 1019 86 10000 4.1 210 01:54 03.01.2020
5336 Clouds 3 1020 80 10000 3.6 200 01:36 03.01.2020
5337 Clear 3 1021 86 10000 4.1 190 00:46 03.01.2020
5338 Clouds 3 1021 80 10000 4.1 210 00:26 03.01.2020
5339 Clouds 3 1021 80 10000 4.6 180 23:55 02.01.2020
5340 Clear 3 1021 86 10000 3.6 180 23:36 02.01.2020
5341 Clouds 3 1021 80 10000 2.1 160 23:18 02.01.2020
5342 Clear 3 1022 86 10000 3.6 170 22:42 02.01.2020
5343 Clouds 3 1022 86 10000 4.1 210 22:20 02.01.2020
5344 Clouds 3 1022 86 10000 4.1 210 21:57 02.01.2020
5345 Clouds 3 1022 86 10000 4.1 210 21:57 02.01.2020
5346 Clouds 3 1023 89 10000 3.6 230 21:38 02.01.2020
5347 Clouds 2 1023 80 10000 2.1 200 21:20 02.01.2020
5348 Clouds 2 1023 80 10000 2.1 200 20:57 02.01.2020
5349 Clouds 2 1023 80 10000 2.1 180 20:38 02.01.2020
5350 Clouds 2 1024 80 10000 1.5 0 20:20 02.01.2020
5351 Clouds 2 1024 80 10000 1.5 0 20:20 02.01.2020
5352 Clouds 1 1024 80 10000 3.6 220 19:55 02.01.2020
5353 Clouds 1 1024 80 10000 3.6 220 19:36 02.01.2020
5354 Clouds 1 1024 80 10000 4.1 240 19:18 02.01.2020
5355 Clouds 1 1024 80 10000 4.1 240 18:56 02.01.2020
5356 Clouds 1 1024 88 10000 4.1 250 18:37 02.01.2020
5357 Clouds 1 1024 88 10000 5.7 240 18:19 02.01.2020
5358 Clouds 1 1024 88 10000 5.7 240 17:55 02.01.2020
5359 Clear 1 1024 88 10000 5.1 240 17:36 02.01.2020
5360 Clear 0 1024 74 10000 5.7 240 17:18 02.01.2020
5361 Clear 0 1024 74 10000 5.7 240 17:18 02.01.2020
5362 Clear 1 1023 69 10000 7.2 240 16:54 02.01.2020
5363 Clear 1 1023 69 10000 7.2 240 16:36 02.01.2020
5364 Clear 1 1023 69 10000 7.2 250 16:18 02.01.2020
5365 Clear 2 1024 64 10000 6.2 250 15:42 02.01.2020
5366 Clear 3 1024 64 10000 5.7 250 15:24 02.01.2020
5367 Clear 3 1024 64 10000 5.7 250 14:58 02.01.2020
5368 Clear 3 1024 65 10000 4.6 270 14:38 02.01.2020
5369 Clear 4 1024 60 10000 4.6 260 14:20 02.01.2020
5370 Clear 4 1025 65 10000 4.6 250 13:58 02.01.2020
5371 Clear 4 1025 65 10000 4.6 250 13:39 02.01.2020
5372 Clear 4 1025 60 10000 4.1 260 13:19 02.01.2020
5373 Clear 4 1025 65 10000 4.6 250 12:42 02.01.2020
5374 Clear 3 1026 69 10000 3.1 260 12:21 02.01.2020
5375 Clear 3 1026 69 10000 3.1 260 11:42 02.01.2020
5376 Clear 2 1026 64 10000 2.1 230 11:23 02.01.2020
5377 Clear 1 1026 62 10000 4.06 224 10:56 02.01.2020
5378 Clear 0 1026 62 10000 4.06 224 10:36 02.01.2020
5379 Clear -1 1027 80 10000 4.06 224 10:18 02.01.2020
5380 Clear -2 1027 85 10000 2.1 100 09:41 02.01.2020
5381 Clear -3 1027 79 10000 4.06 224 09:21 02.01.2020
5382 Clear -2 1027 79 10000 1.5 230 08:41 02.01.2020
5383 Clear -3 1027 85 10000 2.81 215 08:22 02.01.2020
5384 Clear -3 1027 85 10000 2.1 110 07:47 02.01.2020
5385 Clear -3 1027 85 10000 2.1 110 07:27 02.01.2020
5386 Clear -3 1027 100 7000 0.5 40 06:43 02.01.2020
5387 Clear -3 1027 92 10000 0.5 0 05:54 02.01.2020
5388 Clear -2 1028 92 3100 2.49 218 04:38 02.01.2020
5389 Clear -2 1028 92 10000 0.5 0 04:19 02.01.2020
5390 Clear -2 1028 92 10000 0.5 0 02:25 02.01.2020
5391 Clear -2 1029 92 10000 1 110 01:57 02.01.2020
5392 Clear -2 1029 100 10000 1 70 01:32 02.01.2020
5393 -273 0 0 0 0 0 00:52 02.01.2020
5394 Clear -2 1029 92 10000 0.5 0 00:32 02.01.2020
5395 Clear -2 1029 92 5000 1 350 23:48 01.01.2020
5396 Clear -2 1029 92 10000 1 360 23:25 01.01.2020
5397 Clear -1 1029 100 1700 3.77 231 22:55 01.01.2020
5398 Clear -2 1029 100 1700 3.77 231 22:37 01.01.2020
5399 Clear -3 1029 92 10000 0.5 0 22:18 01.01.2020
5400 Clear -1 1030 100 1600 3.77 231 21:42 01.01.2020
5401 Clear -1 1030 86 10000 1 300 21:21 01.01.2020
5402 Clear -1 1030 86 10000 1 300 20:59 01.01.2020
5403 Clear 0 1030 92 4600 0.5 0 20:39 01.01.2020
5404 Clear 0 1030 72 10000 0.5 0 20:21 01.01.2020
5405 Clear 0 1030 72 10000 0.5 0 19:58 01.01.2020
5406 Clear 0 1030 72 10000 0.5 0 19:58 01.01.2020
5407 Clear 0 1030 92 4300 1 150 19:39 01.01.2020
5408 Clear 0 1030 72 10000 2.1 150 19:20 01.01.2020
5409 Clear 0 1030 72 10000 2.1 150 18:59 01.01.2020
5410 Clear 0 1031 100 150 0.5 160 18:39 01.01.2020
5411 Clear 0 1031 72 10000 1 0 18:20 01.01.2020
5412 Clear 1 1031 72 10000 1 0 17:59 01.01.2020
5413 Clear 1 1031 92 100 3.21 208 17:40 01.01.2020
5414 Clear 1 1031 86 10000 1 0 17:20 01.01.2020
5415 Clear 1 1031 86 10000 1 0 16:59 01.01.2020
5416 Clear 2 1031 82 350 0.5 0 16:39 01.01.2020
5417 Clear 2 1031 82 10000 2.6 150 16:20 01.01.2020
5418 Clear 3 1031 82 10000 2.6 150 15:57 01.01.2020
5419 Clear 3 1031 93 2300 1 90 15:39 01.01.2020
5420 Clear 4 1031 82 10000 2.6 160 15:20 01.01.2020
5421 Clear 4 1031 82 10000 2.6 160 14:57 01.01.2020
5422 Clear 4 1032 82 10000 2.1 160 14:39 01.01.2020
5423 Clouds 4 1032 75 10000 2.6 150 14:21 01.01.2020
5424 Clouds 3 1032 75 10000 2.6 150 13:56 01.01.2020
5425 Clouds 3 1032 75 10000 3.1 140 13:37 01.01.2020
5426 Clear 3 1033 73 10000 2.1 140 13:18 01.01.2020
5427 Clear 3 1033 73 10000 2.1 140 12:55 01.01.2020
5428 Clear 3 1033 73 10000 2.6 140 12:37 01.01.2020
5429 Fog 2 1033 100 10000 0.5 0 12:18 01.01.2020
5430 Clear 1 1034 92 50 1.5 120 11:43 01.01.2020
5431 Fog 0 1034 100 100 2.6 90 11:22 01.01.2020
5432 Fog 0 1034 100 100 2.6 90 10:59 01.01.2020
5433 Clouds -1 1034 100 50 1 0 10:40 01.01.2020
5434 Fog -2 1034 92 50 1.5 100 10:20 01.01.2020
5435 Fog -2 1034 92 50 1.5 100 09:56 01.01.2020
5436 Clouds -2 1034 100 50 0.5 30 09:37 01.01.2020
5437 Fog -2 1034 92 50 0.5 350 09:18 01.01.2020
5438 Clouds -2 1034 100 50 2.07 222 08:55 01.01.2020
5439 Clear -2 1034 100 50 1.89 217 08:36 01.01.2020
5440 Fog -2 1034 100 50 0.5 0 08:18 01.01.2020
5441 Clouds -2 1034 100 50 0.5 230 07:51 01.01.2020
5442 Clouds -2 1034 100 50 0.5 230 07:32 01.01.2020
5443 Clouds -2 1034 100 50 0.5 250 06:44 01.01.2020
5444 Fog -2 1034 100 50 1.93 250 06:20 01.01.2020
5445 Fog -1 1034 100 50 0.5 0 05:21 01.01.2020
5446 Clouds 0 1034 92 50 2.1 240 03:43 01.01.2020
5447 Clouds 0 1034 92 200 0.5 290 03:23 01.01.2020
5448 Clouds 0 1034 92 200 0.5 290 02:57 01.01.2020
5449 Clouds 0 1034 92 200 0.5 290 02:34 01.01.2020
5450 Fog 0 1035 100 50 0.5 0 01:56 01.01.2020
5451 Clear 0 1035 100 2000 0.5 230 01:38 01.01.2020
5452 Fog 0 1035 96 800 1 0 01:19 01.01.2020
5453 Clear 0 1035 96 4000 1 270 00:44 01.01.2020
5454 Fog 0 1035 100 1200 0.5 0 00:25 01.01.2020
5455 Clear 1 1035 96 8000 0.5 0 23:41 31.12.2019
5456 Clear 1 1035 93 8000 1 0 23:21 31.12.2019
5457 Clear 2 1035 93 8000 1 0 22:57 31.12.2019
5458 Clear 2 1035 96 8000 1.5 240 22:39 31.12.2019
5459 Clouds 2 1035 100 10000 2.1 280 22:20 31.12.2019
5460 Clouds 3 1035 100 10000 2.1 280 21:57 31.12.2019
5461 Clear 3 1035 93 9000 1.5 250 21:39 31.12.2019
5462 Clouds 3 1035 86 10000 2.1 260 21:20 31.12.2019
5463 Clouds 4 1035 86 10000 2.1 260 20:55 31.12.2019
5464 Clear 4 1034 80 7000 2.1 240 20:37 31.12.2019
5465 Clouds 5 1035 80 10000 2.1 260 20:19 31.12.2019
5466 Clouds 5 1034 80 10000 2.6 270 19:54 31.12.2019
5467 Clouds 5 1034 80 10000 2.6 270 19:36 31.12.2019
5468 Clouds 5 1034 80 10000 2.6 290 19:18 31.12.2019
5469 Clouds 5 1034 80 10000 2.6 290 18:54 31.12.2019
5470 Clouds 5 1033 81 9000 2.1 280 18:36 31.12.2019
5471 Clouds 5 1034 81 10000 2.1 270 18:18 31.12.2019
5472 Clouds 6 1034 81 10000 2.1 270 17:54 31.12.2019
5473 Clouds 6 1034 81 10000 3.1 310 17:36 31.12.2019
5474 Clouds 6 1033 81 10000 3.1 290 17:18 31.12.2019
5475 Clouds 6 1033 75 10000 2.1 260 16:55 31.12.2019
5476 Clouds 6 1033 75 10000 2.1 260 16:36 31.12.2019
5477 Clouds 6 1033 81 10000 4.6 280 16:18 31.12.2019
5478 Clouds 6 1033 81 10000 4.6 280 15:55 31.12.2019
5479 Clouds 7 1032 70 9000 3.1 270 15:37 31.12.2019
5480 Clouds 7 1032 81 10000 3.6 280 15:18 31.12.2019
5481 Clouds 7 1032 75 8000 4.6 280 14:55 31.12.2019
5482 Clouds 7 1032 75 8000 4.6 280 14:36 31.12.2019
5483 Clouds 7 1032 81 10000 4.6 270 14:18 31.12.2019
5484 Clouds 7 1032 81 10000 4.6 270 13:54 31.12.2019
5485 Clouds 7 1032 75 8000 3.1 270 13:36 31.12.2019
5486 Clouds 6 1032 81 10000 4.6 270 13:18 31.12.2019
5487 Clouds 6 1032 81 10000 4.6 270 12:54 31.12.2019
5488 Clouds 6 1031 81 8000 3.6 260 12:36 31.12.2019
5489 Clouds 6 1031 81 8000 3.6 260 12:36 31.12.2019
5490 Clouds 6 1032 93 10000 4.1 270 12:18 31.12.2019
5491 Clouds 6 1032 93 10000 4.1 270 11:54 31.12.2019
5492 Clouds 6 1031 87 7000 3.1 260 11:36 31.12.2019
5493 Clouds 5 1031 93 6000 4.6 270 11:18 31.12.2019
5494 Clouds 5 1030 87 7000 3.1 250 10:54 31.12.2019
5495 Clouds 5 1030 87 7000 3.1 250 10:36 31.12.2019
5496 Mist 5 1031 100 3200 4.1 270 10:18 31.12.2019
5497 Mist 5 1031 100 3200 4.1 270 09:55 31.12.2019
5498 Clouds 4 1030 93 5000 3.6 250 09:37 31.12.2019
5499 Clouds 4 1030 93 5000 3.6 250 09:37 31.12.2019
5500 Mist 4 1030 93 1400 3.6 270 09:18 31.12.2019
5501 Clouds 5 1029 93 4200 3.1 250 08:42 31.12.2019
5502 Mist 5 1029 100 4000 3.1 260 08:22 31.12.2019
5503 Mist 4 1029 100 4000 3.1 260 07:56 31.12.2019
5504 Clouds 5 1028 100 4900 3.1 270 07:37 31.12.2019
5505 Clouds 5 1029 100 6000 4.1 280 07:18 31.12.2019
5506 Drizzle 4 1028 100 4000 4.6 270 06:29 31.12.2019
5507 Drizzle 5 1026 100 2800 4.6 270 04:58 31.12.2019
5508 Clouds 5 1026 80 10000 5.1 270 04:25 31.12.2019
5509 Clouds 5 1025 83 10000 5.1 260 02:59 31.12.2019
5510 Clouds 5 1025 60 10000 5.1 260 02:34 31.12.2019
5511 Clouds 4 1024 52 10000 4.6 250 01:51 31.12.2019
5512 Clouds 4 1024 52 10000 4.6 250 01:32 31.12.2019
5513 Clear 4 1025 45 10000 4.6 260 00:55 31.12.2019
5514 Clear 4 1024 39 10000 4.6 250 00:37 31.12.2019
5515 Clear 5 1025 38 10000 5.1 260 00:18 31.12.2019
5516 Clear 5 1025 38 10000 5.1 260 23:55 30.12.2019
5517 Clear 5 1024 30 10000 5.1 240 23:36 30.12.2019
5518 Clear 5 1025 33 10000 5.1 260 23:18 30.12.2019
5519 Clear 4 1025 33 10000 5.1 260 22:55 30.12.2019
5520 Clear 4 1024 26 10000 3.6 250 22:37 30.12.2019
5521 Clear 3 1024 35 10000 2.1 240 22:18 30.12.2019
5522 Clear 4 1024 35 10000 2.1 240 21:55 30.12.2019
5523 Clear 4 1024 35 10000 2.1 240 21:37 30.12.2019
5524 Clear 4 1024 26 10000 5.7 250 21:18 30.12.2019
5525 Clear 4 1024 35 10000 2.1 240 20:55 30.12.2019
5526 Clear 5 1024 35 10000 2.1 240 20:37 30.12.2019
5527 Clouds 5 1024 28 10000 4.6 240 20:18 30.12.2019
5528 Clouds 5 1024 28 10000 4.6 240 19:55 30.12.2019
5529 Clouds 5 1024 38 10000 3.1 220 19:36 30.12.2019
5530 Clouds 5 1025 26 10000 3.1 240 19:18 30.12.2019
5531 Clouds 5 1025 38 10000 3.1 220 18:42 30.12.2019
5532 Clouds 5 1026 33 10000 4.6 240 18:21 30.12.2019
5533 Clouds 5 1026 33 10000 4.6 240 17:59 30.12.2019
5534 Clouds 5 1026 33 10000 4.6 240 17:59 30.12.2019
5535 Clouds 6 1026 33 10000 4.6 240 17:41 30.12.2019
5536 Clouds 6 1026 33 10000 5.7 240 17:20 30.12.2019
5537 Clouds 6 1026 33 10000 5.7 240 17:00 30.12.2019
5538 Clouds 6 1026 31 10000 5.7 240 16:41 30.12.2019
5539 Clouds 7 1026 31 10000 5.7 240 16:20 30.12.2019
5540 Clouds 7 1026 31 10000 5.7 240 15:57 30.12.2019
5541 Clouds 7 1027 31 10000 5.7 230 15:39 30.12.2019
5542 Clouds 8 1027 33 10000 5.1 240 15:19 30.12.2019
5543 Clouds 8 1027 33 10000 5.1 240 15:19 30.12.2019
5544 Clouds 8 1027 33 10000 5.1 240 14:55 30.12.2019
5545 Clouds 8 1027 31 10000 7.2 240 14:37 30.12.2019
5546 Clouds 8 1027 31 10000 7.2 240 14:37 30.12.2019
5547 Clouds 8 1027 31 10000 6.7 240 14:18 30.12.2019
5548 Clouds 8 1028 26 10000 6.7 240 13:42 30.12.2019
5549 Clouds 8 1028 26 10000 6.7 240 13:24 30.12.2019
5550 Clouds 8 1028 26 10000 6.2 240 12:59 30.12.2019
5551 Clouds 8 1028 26 10000 6.7 240 12:41 30.12.2019
5552 Clouds 7 1029 30 10000 6.2 240 12:19 30.12.2019
5553 Clouds 7 1029 30 10000 6.2 240 11:58 30.12.2019
5554 Clouds 6 1029 30 10000 6.2 240 11:39 30.12.2019
5555 Clouds 6 1029 33 10000 5.1 240 11:19 30.12.2019
5556 Clouds 5 1029 33 10000 4.6 230 10:43 30.12.2019
5557 Clouds 5 1030 35 10000 4.1 240 10:21 30.12.2019
5558 Clouds 5 1030 35 10000 4.1 240 09:57 30.12.2019
5559 Clouds 5 1030 41 10000 4.1 250 09:39 30.12.2019
5560 Clouds 4 1030 38 10000 3.6 250 09:19 30.12.2019
5561 Clouds 4 1030 59 10000 2.1 180 08:50 30.12.2019
5562 Clouds 4 1030 51 10000 2.6 170 08:23 30.12.2019
5563 Clouds 4 1030 55 10000 2.1 200 07:55 30.12.2019
5564 Clouds 4 1030 55 10000 2.1 200 07:34 30.12.2019
5565 Clouds 4 1030 59 10000 2.1 190 06:52 30.12.2019
5566 Clouds 4 1031 51 10000 1.5 160 04:58 30.12.2019
5567 Clouds 3 1031 59 10000 1 80 03:57 30.12.2019
5568 Clouds 2 1032 64 10000 1 0 02:58 30.12.2019
5569 Clouds 3 1032 69 10000 2.1 200 02:40 30.12.2019
5570 Clouds 3 1032 64 10000 1 0 01:55 30.12.2019
5571 Clouds 2 1032 64 10000 1.5 160 01:23 30.12.2019
5572 Clouds 2 1033 69 10000 2.1 180 00:45 30.12.2019
5573 Clouds 2 1033 59 10000 1 150 00:19 30.12.2019
5574 Clouds 3 1033 64 10000 2.1 210 23:39 29.12.2019
5575 Clouds 3 1034 59 10000 2.1 170 23:21 29.12.2019
5576 Clouds 3 1034 59 10000 2.1 170 23:21 29.12.2019
5577 Clouds 3 1034 69 10000 2.6 200 22:56 29.12.2019
5578 Clouds 3 1034 69 10000 2.6 200 22:37 29.12.2019
5579 Clouds 2 1034 59 10000 0.5 0 22:18 29.12.2019
5580 Clouds 2 1034 69 10000 0.5 60 21:43 29.12.2019
5581 Clouds 2 1034 69 10000 1 0 21:21 29.12.2019
5582 Clouds 2 1034 69 10000 1 0 21:21 29.12.2019
5583 Clouds 2 1034 69 10000 1 0 20:58 29.12.2019
5584 Clouds 2 1035 69 10000 0.5 0 20:39 29.12.2019
5585 Clouds 2 1035 59 10000 0.5 0 20:21 29.12.2019
5586 Clouds 2 1035 59 10000 0.5 0 19:59 29.12.2019
5587 Clouds 2 1034 69 10000 2.6 180 19:40 29.12.2019
5588 Clouds 2 1034 69 10000 2.1 150 19:21 29.12.2019
5589 Clouds 2 1034 69 10000 2.1 150 18:58 29.12.2019
5590 Clouds 1 1035 80 10000 1 170 18:40 29.12.2019
5591 Clouds 2 1036 74 10000 0.5 0 18:20 29.12.2019
5592 Clouds 2 1036 74 10000 0.5 0 17:58 29.12.2019
5593 Clouds 2 1036 74 10000 0.5 0 17:39 29.12.2019
5594 Clouds 2 1036 74 10000 2.6 150 17:20 29.12.2019
5595 Clouds 2 1036 74 10000 2.6 150 16:57 29.12.2019
5596 Clouds 2 1036 80 10000 1 340 16:39 29.12.2019
5597 Clouds 2 1036 80 10000 1 340 16:39 29.12.2019
5598 Clouds 2 1036 74 10000 1 0 16:21 29.12.2019
5599 Clouds 2 1036 74 10000 1 0 15:59 29.12.2019
5600 Clouds 2 1036 74 10000 1.5 0 15:40 29.12.2019
5601 Clouds 2 1036 69 10000 1.5 0 15:20 29.12.2019
5602 Clouds 2 1036 69 10000 1.5 0 14:59 29.12.2019
5603 Clouds 2 1036 69 10000 1 0 14:41 29.12.2019
5604 Clouds 2 1037 74 10000 1 0 14:19 29.12.2019
5605 Clouds 2 1037 74 10000 1 0 13:59 29.12.2019
5606 Clouds 2 1037 74 10000 1.5 0 13:40 29.12.2019
5607 Clouds 2 1037 74 10000 2.1 130 13:22 29.12.2019
5608 Clouds 2 1037 74 10000 2.1 130 13:22 29.12.2019
5609 Clouds 2 1037 74 10000 2.1 130 12:58 29.12.2019
5610 Clouds 2 1038 74 10000 3.11 202 12:39 29.12.2019
5611 Clouds 2 1038 74 10000 1 0 12:21 29.12.2019
5612 Clouds 1 1038 59 10000 1.5 0 11:43 29.12.2019
5613 Clouds 1 1038 80 10000 1 0 11:22 29.12.2019
5614 Clouds 0 1038 80 10000 1 0 10:59 29.12.2019
5615 Clouds 0 1038 86 10000 2.45 197 10:40 29.12.2019
5616 Clouds -1 1039 85 10000 2.45 197 10:18 29.12.2019
5617 Clouds -2 1038 100 10000 0.5 120 09:47 29.12.2019
5618 Clouds -2 1038 85 10000 2.1 120 09:28 29.12.2019
5619 Clouds -2 1038 85 10000 2.1 120 09:28 29.12.2019
5620 Clouds -3 1038 85 10000 2.1 120 08:59 29.12.2019
5621 Clouds -3 1038 92 9000 0.5 80 08:41 29.12.2019
5622 Clouds -3 1038 86 10000 1 0 08:23 29.12.2019
5623 Clouds -3 1039 92 10000 1.5 80 07:49 29.12.2019
5624 Clouds -3 1038 86 10000 2.28 189 07:27 29.12.2019
5625 Clouds -3 1038 100 9000 1 60 06:53 29.12.2019
5626 Clouds -2 1038 86 10000 2.1 150 06:23 29.12.2019
5627 Clouds -3 1039 92 10000 1 90 05:48 29.12.2019
5628 Clouds -3 1039 86 0 1 0 04:34 29.12.2019
5629 Clouds -3 1039 92 10000 0.5 140 03:40 29.12.2019
5630 Clouds -2 1039 80 10000 1.5 160 03:19 29.12.2019
5631 Clouds -2 1039 80 10000 2.1 150 02:19 29.12.2019
5632 Clouds -1 1039 86 10000 1 0 01:31 29.12.2019
5633 Clouds -1 1039 86 10000 1 0 01:31 29.12.2019
5634 Clouds -1 1039 86 10000 1 0 01:31 29.12.2019
5635 Clouds -1 1040 86 10000 2.6 120 00:55 29.12.2019
5636 Clouds -1 1040 86 10000 2.6 120 00:36 29.12.2019
5637 Clouds -1 1040 81 10000 2.6 160 00:18 29.12.2019
5638 Clouds -1 1041 86 10000 1.5 100 23:41 28.12.2019
5639 Clouds -1 1041 77 10000 2.1 150 23:18 28.12.2019
5640 Clouds -1 1041 77 10000 2.1 150 23:18 28.12.2019
5641 Clouds -1 1041 92 10000 2.1 130 22:39 28.12.2019
5642 Clouds -1 1041 77 10000 2.6 150 22:20 28.12.2019
5643 Clouds -1 1041 77 10000 2.6 150 22:20 28.12.2019
5644 Clouds -1 1041 77 10000 2.6 150 21:58 28.12.2019
5645 Clouds -1 1042 92 9000 2.6 120 21:39 28.12.2019
5646 Clouds -1 1041 77 10000 2.1 130 21:21 28.12.2019
5647 Clouds -1 1041 77 10000 2.1 130 20:57 28.12.2019
5648 Clouds -1 1042 92 10000 0.5 90 20:37 28.12.2019
5649 Clouds -1 1042 81 10000 0.5 0 20:19 28.12.2019
5650 Clouds -1 1042 81 10000 0.5 0 19:56 28.12.2019
5651 Clouds -1 1041 92 10000 2.1 110 19:38 28.12.2019
5652 Clouds -1 1041 81 10000 1 0 19:19 28.12.2019
5653 Clouds -1 1041 81 10000 1 0 18:57 28.12.2019
5654 Clouds -1 1041 86 10000 2.1 110 18:39 28.12.2019
5655 Clouds -1 1042 86 10000 1 90 18:18 28.12.2019
5656 Clouds -1 1042 86 10000 1 90 17:54 28.12.2019
5657 Clouds -1 1042 86 10000 1 90 17:36 28.12.2019
5658 Clouds 0 1042 86 10000 1 100 17:18 28.12.2019
5659 Clouds 0 1042 86 10000 2.1 100 16:46 28.12.2019
5660 Clouds 0 1042 86 10000 2.1 100 16:25 28.12.2019
5661 Clouds 1 1041 77 10000 2.6 90 15:44 28.12.2019
5662 Clouds 1 1041 80 10000 2.1 90 15:24 28.12.2019
5663 Clouds 1 1041 80 10000 2.1 90 14:59 28.12.2019
5664 Clouds 2 1041 80 10000 2.1 90 14:39 28.12.2019
5665 Clear 2 1042 80 10000 1.5 100 14:20 28.12.2019
5666 Clouds 2 1042 80 10000 2.1 90 13:56 28.12.2019
5667 Clouds 2 1042 80 10000 2.1 90 13:36 28.12.2019
5668 Clouds 1 1042 71 10000 1.5 100 13:18 28.12.2019
5669 Clouds 1 1042 71 10000 0.5 120 12:42 28.12.2019
5670 Clouds 1 1042 92 10000 1.5 110 12:23 28.12.2019
5671 Clouds 1 1042 92 10000 1.5 110 11:56 28.12.2019
5672 Clouds 1 1042 92 10000 1.5 100 11:38 28.12.2019
5673 Clouds 0 1042 92 10000 1.4 95 11:19 28.12.2019
5674 Clouds -1 1042 86 10000 1.4 95 10:44 28.12.2019
5675 Clouds -1 1042 92 10000 1 80 10:22 28.12.2019
5676 Clouds -2 1042 92 10000 1 80 09:57 28.12.2019
5677 Clouds -2 1041 92 10000 1.4 95 09:39 28.12.2019
5678 Clear -3 1041 92 10000 1.4 95 09:20 28.12.2019
5679 Clear -3 1041 100 10000 1.4 95 08:44 28.12.2019
5680 Clouds -3 1041 100 6000 1.5 0 08:26 28.12.2019
5681 Clouds -3 1041 100 9000 1.5 100 07:55 28.12.2019
5682 Clouds -2 1040 100 9000 2.6 80 07:31 28.12.2019
5683 Clouds -2 1040 100 10000 0.5 360 06:41 28.12.2019
5684 Clouds -1 1040 100 10000 2.6 90 04:59 28.12.2019
5685 Clear -1 1040 100 7000 0.5 30 03:47 28.12.2019
5686 Clear 0 1040 100 350 0.5 310 02:49 28.12.2019
5687 Clouds 0 1039 95 10000 1.5 40 02:19 28.12.2019
5688 Clouds 0 1039 100 300 1.75 58 01:42 28.12.2019
5689 Clouds 0 1038 94 10000 2.6 60 01:18 28.12.2019
5690 Clouds 1 1039 100 200 0.5 350 00:40 28.12.2019
5691 Clouds 1 1038 94 10000 2.6 60 00:21 28.12.2019
5692 Clouds 1 1038 92 250 1 260 23:44 27.12.2019
5693 Clouds 1 1038 100 10000 1 0 23:20 27.12.2019
5694 Clouds 1 1038 100 10000 1 0 22:58 27.12.2019
5695 Clouds 1 1037 100 1400 1.47 59 22:39 27.12.2019
5696 Clouds 2 1038 100 10000 2.1 60 22:20 27.12.2019
5697 Clouds 2 1038 100 10000 2.1 60 22:20 27.12.2019
5698 Clouds 2 1038 100 10000 2.1 60 21:59 27.12.2019
5699 Clouds 2 1037 87 6000 0.5 0 21:40 27.12.2019
5700 Clouds 2 1037 87 10000 1 90 21:22 27.12.2019
5701 Clouds 2 1036 93 10000 1.5 20 20:42 27.12.2019
5702 Rain 2 1036 83 10000 1.5 60 20:23 27.12.2019
5703 Rain 2 1036 83 10000 1.5 60 19:55 27.12.2019
5704 Clouds 2 1036 93 10000 1.5 310 19:36 27.12.2019
5705 Rain 2 1036 83 10000 1.5 310 19:18 27.12.2019
5706 Rain 2 1036 83 10000 1.5 310 19:18 27.12.2019
5707 Rain 2 1036 83 10000 1.5 310 19:18 27.12.2019
5708 Clouds 2 1035 93 10000 1.5 320 18:41 27.12.2019
5709 Clouds 2 1033 80 10000 1.41 349 18:23 27.12.2019
5710 Clouds 2 1033 80 10000 1.41 349 17:59 27.12.2019
5711 Clouds 2 1033 80 10000 1.41 349 17:41 27.12.2019
5712 Clouds 2 1033 74 10000 1 0 17:20 27.12.2019
5713 Clouds 3 1033 74 10000 1 0 16:59 27.12.2019
5714 Clouds 3 1033 74 10000 1 0 16:59 27.12.2019
5715 Clouds 3 1033 74 10000 0.5 0 16:41 27.12.2019
5716 Clouds 3 1032 80 10000 1.5 0 16:22 27.12.2019
5717 Clouds 3 1032 80 10000 1.5 0 15:57 27.12.2019
5718 Clouds 3 1032 80 10000 1.5 0 15:37 27.12.2019
5719 Clouds 3 1031 74 10000 1.5 0 15:18 27.12.2019
5720 Clouds 3 1031 74 10000 1.5 0 14:55 27.12.2019
5721 Clouds 3 1031 74 10000 2.1 10 14:37 27.12.2019
5722 Clouds 4 1031 74 10000 1.5 0 14:19 27.12.2019
5723 Clouds 4 1030 69 10000 1 0 13:44 27.12.2019
5724 Clouds 4 1030 74 10000 1.5 0 13:22 27.12.2019
5725 Clouds 4 1030 69 10000 2.1 40 12:48 27.12.2019
5726 Clouds 4 1030 69 10000 2.1 40 12:29 27.12.2019
5727 Clouds 4 1030 78 10000 2.6 0 11:59 27.12.2019
5728 Clouds 4 1029 78 10000 2.1 50 11:41 27.12.2019
5729 Clouds 3 1029 86 10000 2.1 40 11:20 27.12.2019
5730 Clouds 3 1029 86 10000 2.1 40 11:20 27.12.2019
5731 Clouds 3 1028 86 10000 1.5 0 10:47 27.12.2019
5732 Clouds 3 1027 86 10000 1.5 0 10:24 27.12.2019
5733 Clouds 2 1027 86 10000 1.5 0 09:57 27.12.2019
5734 Clouds 2 1027 93 6000 1 0 09:38 27.12.2019
5735 Mist 2 1026 86 4500 1.5 0 09:20 27.12.2019
5736 Clear 1 1027 93 8000 2.6 40 08:46 27.12.2019
5737 Clouds 1 1026 93 10000 2.6 70 08:27 27.12.2019
5738 Clouds 1 1025 100 8000 1.5 20 07:48 27.12.2019
5739 Clouds 1 1025 93 10000 2.6 70 07:25 27.12.2019
5740 Clouds 1 1025 93 10000 0.5 50 06:33 27.12.2019
5741 Clouds 2 1024 93 8000 2.1 40 04:48 27.12.2019
5742 Clouds 3 1023 93 5000 0.5 50 02:35 27.12.2019
5743 Clouds 3 1023 93 7000 1.5 60 01:48 27.12.2019
5744 Clouds 3 1023 93 10000 3.1 80 01:23 27.12.2019
5745 Clouds 4 1023 93 10000 3.1 80 00:52 27.12.2019
5746 Clouds 4 1023 93 7000 1 70 00:34 27.12.2019
5747 Clouds 4 1023 93 7000 1 70 00:34 27.12.2019
5748 Clouds 4 1023 93 10000 2.1 90 23:59 26.12.2019
5749 Clouds 4 1023 93 6000 1 30 23:40 26.12.2019
5750 Clouds 4 1023 93 10000 1 0 23:21 26.12.2019
5751 Clouds 4 1023 100 8000 1 80 22:43 26.12.2019
5752 Clouds 4 1023 86 10000 1 110 22:21 26.12.2019
5753 Clouds 4 1023 86 10000 1 110 21:56 26.12.2019
5754 Clouds 4 1023 100 9000 0.5 120 21:38 26.12.2019
5755 Clouds 4 1023 93 10000 1 100 21:20 26.12.2019
5756 Clouds 4 1023 100 9000 0.51 122 20:45 26.12.2019
5757 Clouds 4 1023 86 10000 1 0 20:23 26.12.2019
5758 Clouds 4 1023 86 10000 1 0 19:59 26.12.2019
5759 Clouds 4 1023 93 9000 0.5 0 19:39 26.12.2019
5760 Clouds 4 1023 86 10000 1 170 19:21 26.12.2019
5761 Clouds 4 1023 86 10000 1 170 18:58 26.12.2019
5762 Clouds 4 1023 100 8000 0.5 240 18:39 26.12.2019
5763 Clouds 4 1023 93 10000 0.5 0 18:19 26.12.2019
5764 Clouds 4 1023 93 10000 0.5 0 17:55 26.12.2019
5765 Clouds 5 1023 93 9000 0.5 180 17:37 26.12.2019
5766 Clouds 5 1023 86 10000 0.5 0 17:18 26.12.2019
5767 Clouds 5 1023 86 10000 1 290 16:41 26.12.2019
5768 Clouds 6 1023 81 10000 1 260 16:22 26.12.2019
5769 Clouds 6 1023 87 10000 2.1 240 15:56 26.12.2019
5770 Clouds 6 1023 87 10000 2.1 240 15:37 26.12.2019
5771 Clouds 6 1023 81 10000 2.1 270 15:18 26.12.2019
5772 Clouds 6 1023 87 10000 2.6 240 14:40 26.12.2019
5773 Clouds 6 1024 81 10000 2.6 260 14:21 26.12.2019
5774 Clouds 7 1023 87 10000 2.6 250 13:43 26.12.2019
5775 Clouds 7 1024 81 10000 2.6 260 13:21 26.12.2019
5776 Clouds 6 1024 81 10000 2.6 260 12:58 26.12.2019
5777 Clouds 6 1024 87 10000 2.1 260 12:39 26.12.2019
5778 Clouds 6 1024 87 10000 2.1 260 12:39 26.12.2019
5779 Rain 6 1024 87 10000 2.6 250 12:20 26.12.2019
5780 Rain 6 1024 87 10000 2.6 250 12:20 26.12.2019
5781 Rain 6 1024 87 10000 2.6 250 11:57 26.12.2019
5782 Clouds 6 1024 100 8000 2.6 230 11:39 26.12.2019
5783 Clouds 5 1024 87 10000 2.6 250 11:20 26.12.2019
5784 Clouds 5 1024 100 6000 2.6 240 10:49 26.12.2019
5785 Rain 5 1024 93 10000 2.6 250 10:20 26.12.2019
5786 Clouds 5 1024 93 5000 1 250 09:54 26.12.2019
5787 Clouds 4 1024 100 10000 1 0 09:32 26.12.2019
5788 Clouds 4 1024 100 10000 2.6 260 08:57 26.12.2019
5789 Clouds 4 1024 100 2300 1.5 200 08:38 26.12.2019
5790 Clouds 4 1024 100 8000 1.5 250 08:20 26.12.2019
5791 Clouds 4 1024 93 650 1.5 0 07:35 26.12.2019
5792 Clouds 4 1024 100 8000 2.1 260 06:57 26.12.2019
5793 Clouds 4 1023 100 900 2.6 240 06:37 26.12.2019
5794 Clouds 4 1024 100 10000 2.6 260 06:19 26.12.2019
5795 Rain 4 1024 100 10000 2.6 250 05:40 26.12.2019
5796 Clouds 4 1023 93 10000 2.6 260 04:33 26.12.2019
5797 Clouds 5 1024 93 10000 2.1 260 03:31 26.12.2019
5798 Clouds 5 1023 93 9000 2.6 250 02:46 26.12.2019
5799 Clouds 5 1024 93 10000 2.1 260 02:27 26.12.2019
5800 Clouds 5 1023 93 8000 2.1 250 01:44 26.12.2019
5801 Clouds 5 1023 100 10000 2.6 260 01:25 26.12.2019
5802 Clouds 5 1023 100 9000 2.6 260 00:44 26.12.2019
5803 Clouds 5 1023 100 10000 2.6 270 00:23 26.12.2019
5804 Clouds 5 1023 100 10000 2.6 270 23:57 25.12.2019
5805 Clouds 5 1023 100 6000 2.6 250 23:37 25.12.2019
5806 Clouds 5 1023 100 10000 3.1 270 23:19 25.12.2019
5807 Clouds 5 1023 100 10000 3.1 270 22:56 25.12.2019
5808 Clouds 6 1022 100 10000 1.5 280 22:37 25.12.2019
5809 Rain 6 1023 93 10000 3.1 270 22:18 25.12.2019
5810 Clouds 6 1022 93 10000 2.6 240 21:55 25.12.2019
5811 Clouds 6 1022 93 10000 2.6 240 21:37 25.12.2019
5812 Clouds 5 1022 93 10000 2.6 270 21:19 25.12.2019
5813 Clouds 6 1022 100 10000 2.1 280 20:40 25.12.2019
5814 Clouds 6 1022 93 10000 3.6 280 20:21 25.12.2019
5815 Clouds 6 1022 93 10000 3.6 280 19:59 25.12.2019
5816 Rain 6 1021 93 9000 2.6 270 19:41 25.12.2019
5817 Clouds 6 1021 93 10000 3.6 280 19:21 25.12.2019
5818 Rain 6 1020 93 10000 2.6 270 18:40 25.12.2019
5819 Clouds 6 1020 93 10000 3.1 290 18:21 25.12.2019
5820 Clouds 6 1020 93 10000 3.1 290 17:59 25.12.2019
5821 Rain 6 1020 100 8000 2.1 270 17:39 25.12.2019
5822 Clouds 6 1020 93 10000 3.6 280 17:18 25.12.2019
5823 Clouds 6 1020 93 10000 3.6 280 16:55 25.12.2019
5824 Clouds 6 1019 93 6000 2.6 290 16:36 25.12.2019
5825 Clouds 6 1019 100 10000 3.1 290 16:18 25.12.2019
5826 Clouds 7 1019 100 10000 3.1 290 15:56 25.12.2019
5827 Clouds 7 1018 93 7000 2.6 260 15:37 25.12.2019
5828 Drizzle 7 1018 93 6000 3.1 280 15:18 25.12.2019
5829 Drizzle 7 1018 93 6000 3.1 280 14:55 25.12.2019
5830 Clouds 7 1017 93 7000 3.1 280 14:37 25.12.2019
5831 Clouds 7 1017 100 7000 4.1 280 14:18 25.12.2019
5832 Clouds 6 1016 93 6000 3.6 270 13:42 25.12.2019
5833 Drizzle 6 1017 93 8000 4.1 280 13:21 25.12.2019
5834 Drizzle 6 1017 93 8000 4.1 280 12:55 25.12.2019
5835 Clouds 6 1016 93 7000 3.1 270 12:36 25.12.2019
5836 Clouds 6 1016 93 10000 5.1 290 12:18 25.12.2019
5837 Clouds 6 1015 93 6000 2.6 280 11:42 25.12.2019
5838 Clouds 6 1015 93 8000 3.1 290 11:22 25.12.2019
5839 Clouds 6 1015 93 8000 3.1 290 10:58 25.12.2019
5840 Rain 6 1014 93 6000 2.1 290 10:36 25.12.2019
5841 Clouds 6 1014 93 8000 3.1 310 10:18 25.12.2019
5842 Rain 6 1013 93 5000 2.1 300 09:43 25.12.2019
5843 Clouds 6 1013 100 8000 2.6 300 09:25 25.12.2019
5844 Clouds 6 1013 100 8000 2.6 300 09:25 25.12.2019
5845 Rain 6 1012 93 5000 1.5 310 08:45 25.12.2019
5846 Rain 6 1012 93 8000 2.6 310 08:25 25.12.2019
5847 Rain 6 1011 93 1900 1.5 330 07:45 25.12.2019
5848 Rain 6 1011 100 8000 3.6 310 07:23 25.12.2019
5849 Rain 7 1010 93 6000 1.5 300 06:47 25.12.2019
5850 Rain 7 1010 93 9000 2.6 290 06:22 25.12.2019
5851 Rain 7 1009 100 5000 1.5 300 04:50 25.12.2019
5852 Clouds 7 1009 93 10000 3.6 270 04:26 25.12.2019
5853 Clouds 7 1009 93 10000 4.1 280 03:58 25.12.2019
5854 Rain 7 1009 100 4300 1 0 03:40 25.12.2019
5855 Rain 7 1008 100 3400 1.5 0 02:39 25.12.2019
5856 Clouds 7 1008 93 10000 4.1 280 01:58 25.12.2019
5857 Clouds 7 1008 93 10000 4.1 270 01:25 25.12.2019
5858 Rain 7 1007 100 2500 2.1 290 00:50 25.12.2019
5859 Clouds 7 1007 93 10000 4.6 280 00:29 25.12.2019
5860 Rain 7 1006 100 1600 1.5 270 23:55 24.12.2019
5861 Rain 7 1006 100 1600 1.5 270 23:37 24.12.2019
5862 Clouds 7 1006 87 10000 5.1 270 23:19 24.12.2019
5863 Rain 7 1006 93 4000 2.6 280 22:40 24.12.2019
5864 Rain 7 1006 93 10000 5.1 270 22:21 24.12.2019
5865 Rain 7 1005 93 8000 4.1 280 21:43 24.12.2019
5866 Rain 7 1005 100 10000 4.1 280 21:23 24.12.2019
5867 Rain 7 1005 100 10000 4.1 280 20:55 24.12.2019
5868 Rain 7 1005 93 5000 3.1 270 20:36 24.12.2019
5869 Rain 8 1005 93 10000 4.1 270 20:18 24.12.2019
5870 Rain 8 1004 93 9000 3.1 270 19:43 24.12.2019
5871 Rain 7 1004 87 10000 6.2 270 19:20 24.12.2019
5872 Rain 7 1003 93 5000 2.6 250 18:43 24.12.2019
5873 Drizzle 7 1003 100 4000 5.7 270 18:24 24.12.2019
5874 Drizzle 7 1003 100 4000 5.7 270 17:59 24.12.2019
5875 Rain 6 1003 100 3800 1.5 170 17:38 24.12.2019
5876 Drizzle 6 1003 93 4000 2.6 180 17:20 24.12.2019
5877 Rain 6 1003 100 2600 3.1 130 16:55 24.12.2019
5878 Rain 6 1003 100 2600 3.1 130 16:37 24.12.2019
5879 Drizzle 6 1003 100 4000 4.1 140 16:19 24.12.2019
5880 Drizzle 6 1003 100 4000 4.1 140 15:55 24.12.2019
5881 Rain 6 1004 87 4000 3.1 150 15:36 24.12.2019
5882 Rain 6 1004 87 10000 3.1 150 15:18 24.12.2019
5883 Rain 6 1004 87 10000 3.1 150 14:56 24.12.2019
5884 Rain 6 1005 93 5000 3.1 170 14:38 24.12.2019
5885 Clouds 6 1006 70 10000 3.6 180 14:20 24.12.2019
5886 Clouds 7 1006 70 10000 3.6 180 13:55 24.12.2019
5887 Clouds 7 1006 70 10000 3.6 180 13:37 24.12.2019
5888 Rain 7 1006 81 10000 2.6 170 13:19 24.12.2019
5889 Rain 7 1006 81 10000 2.6 170 12:55 24.12.2019
5890 Clouds 7 1007 81 10000 3.6 160 12:36 24.12.2019
5891 Clouds 7 1007 81 10000 3.1 160 12:18 24.12.2019
5892 Clouds 7 1007 81 10000 3.1 160 11:55 24.12.2019
5893 Clouds 7 1008 81 10000 3.6 170 11:37 24.12.2019
5894 Clouds 7 1009 81 10000 2.6 160 11:18 24.12.2019
5895 Clouds 7 1009 81 10000 2.6 160 10:56 24.12.2019
5896 Clouds 7 1009 87 9000 2.6 160 10:37 24.12.2019
5897 Clouds 6 1010 81 10000 2.6 160 10:19 24.12.2019
5898 Clouds 6 1010 81 10000 2.6 160 09:55 24.12.2019
5899 Clouds 6 1010 93 8000 3.1 170 09:36 24.12.2019
5900 Clouds 6 1010 87 10000 2.6 180 09:18 24.12.2019
5901 Clouds 6 1011 86 9000 2.1 190 08:44 24.12.2019
5902 Clouds 6 1011 87 10000 2.6 210 08:21 24.12.2019
5903 Clouds 5 1011 86 8000 2.6 200 07:46 24.12.2019
5904 Clouds 5 1011 87 10000 3.1 210 07:26 24.12.2019
5905 Clouds 5 1011 87 10000 3.1 210 07:26 24.12.2019
5906 Clouds 6 1011 87 10000 3.6 220 06:58 24.12.2019
5907 Clouds 6 1012 81 9000 3.6 220 06:38 24.12.2019
5908 Clouds 6 1012 87 10000 3.6 230 06:19 24.12.2019
5909 Clouds 6 1012 81 10000 4.6 220 05:40 24.12.2019
5910 Clouds 6 1012 87 10000 3.6 230 05:18 24.12.2019
5911 Clouds 6 1012 87 9000 4.6 230 03:50 24.12.2019
5912 Clouds 7 1012 87 10000 5.1 240 03:23 24.12.2019
5913 Clouds 6 1012 87 10000 4.6 240 02:25 24.12.2019
5914 Rain 6 1011 87 9000 3.6 230 01:51 24.12.2019
5915 Clouds 6 1012 87 10000 4.6 240 01:23 24.12.2019
5916 Clouds 6 1011 81 9000 4.1 230 00:47 24.12.2019
5917 Clouds 6 1011 87 10000 4.1 240 00:26 24.12.2019
5918 Clouds 6 1011 87 10000 3.6 240 23:59 23.12.2019
5919 Clouds 6 1010 87 10000 3.6 240 23:41 23.12.2019
5920 Clouds 7 1010 93 10000 3.6 240 23:23 23.12.2019
5921 Clouds 7 1010 93 10000 3.6 240 23:23 23.12.2019
5922 Rain 7 1010 81 10000 5.7 240 22:56 23.12.2019
5923 Rain 7 1010 81 10000 5.7 240 22:37 23.12.2019
5924 Clouds 7 1010 93 10000 3.1 250 22:19 23.12.2019
5925 Clouds 7 1010 93 10000 3.1 250 21:55 23.12.2019
5926 Rain 7 1009 81 10000 4.1 250 21:36 23.12.2019
5927 Rain 7 1009 81 10000 4.1 250 21:36 23.12.2019
5928 Clouds 7 1009 87 10000 6.2 270 21:18 23.12.2019
5929 Clouds 7 1009 87 10000 6.2 270 21:18 23.12.2019
5930 Clouds 7 1009 87 10000 6.2 270 20:57 23.12.2019
5931 Rain 7 1008 81 10000 5.7 240 20:39 23.12.2019
5932 Clouds 7 1009 81 10000 5.1 250 20:18 23.12.2019
5933 Clouds 8 1009 81 10000 5.1 250 19:56 23.12.2019
5934 Clouds 8 1008 81 10000 6.2 240 19:38 23.12.2019
5935 Rain 8 1008 81 10000 5.7 250 19:20 23.12.2019
5936 Rain 8 1008 81 10000 5.7 250 18:58 23.12.2019
5937 Clouds 7 1007 81 9000 5.7 240 18:39 23.12.2019
5938 Clouds 7 1007 81 10000 6.2 250 18:20 23.12.2019
5939 Clouds 7 1007 81 10000 6.2 250 18:20 23.12.2019
5940 Clouds 7 1007 81 10000 6.2 250 17:58 23.12.2019
5941 Clouds 7 1007 81 10000 6.2 250 17:39 23.12.2019
5942 Clouds 7 1006 81 10000 5.1 250 17:19 23.12.2019
5943 Clouds 7 1006 81 10000 5.1 250 16:57 23.12.2019
5944 Rain 7 1006 81 10000 5.1 260 16:39 23.12.2019
5945 Rain 7 1006 81 10000 4.1 250 16:18 23.12.2019
5946 Rain 8 1006 81 10000 4.1 250 15:57 23.12.2019
5947 Clouds 8 1005 75 10000 4.1 250 15:37 23.12.2019
5948 Clouds 8 1005 75 10000 4.6 270 15:19 23.12.2019
5949 Clouds 8 1004 81 10000 4.6 270 14:56 23.12.2019
5950 Clouds 8 1005 75 10000 4.6 270 14:56 23.12.2019
5951 Clouds 8 1004 81 10000 4.6 270 14:56 23.12.2019
5952 Clouds 8 1004 81 10000 4.6 270 14:37 23.12.2019
5953 Clouds 8 1004 81 10000 6.2 280 14:18 23.12.2019
5954 Clouds 8 1004 81 10000 6.2 280 13:56 23.12.2019
5955 Clouds 8 1003 81 10000 6.7 270 13:37 23.12.2019
5956 Clouds 8 1003 81 10000 6.2 260 13:19 23.12.2019
5957 Clouds 8 1002 81 10000 5.1 260 12:54 23.12.2019
5958 Clouds 8 1002 81 10000 5.1 260 12:36 23.12.2019
5959 Clouds 8 1002 76 10000 5.1 270 12:18 23.12.2019
5960 Clouds 8 1002 75 10000 5.1 260 11:42 23.12.2019
5961 Clouds 7 1001 75 10000 5.1 270 11:22 23.12.2019
5962 Clouds 7 1001 81 10000 5.7 260 10:56 23.12.2019
5963 Clouds 7 1001 81 10000 5.7 260 10:37 23.12.2019
5964 Clouds 7 1000 81 10000 4.6 260 10:18 23.12.2019
5965 Clouds 7 1000 81 10000 4.6 260 09:58 23.12.2019
5966 Clouds 7 1000 81 10000 4.1 250 09:39 23.12.2019
5967 Clouds 7 1000 75 10000 4.1 250 09:19 23.12.2019
5968 Clouds 7 1000 75 10000 4.1 250 08:55 23.12.2019
5969 Clouds 7 999 87 9000 3.6 220 08:36 23.12.2019
5970 Clouds 7 999 87 10000 4.6 240 08:18 23.12.2019
5971 Rain 7 998 87 9000 4.1 240 07:42 23.12.2019
5972 Clouds 7 998 87 10000 5.1 260 07:19 23.12.2019
5973 Rain 7 997 87 9000 6.7 250 06:45 23.12.2019
5974 Clouds 7 997 87 10000 5.7 260 06:23 23.12.2019
5975 Rain 7 996 93 8000 6.7 240 05:47 23.12.2019
5976 Rain 7 996 93 10000 6.2 260 05:19 23.12.2019
5977 Clouds 7 994 93 10000 5.7 270 04:19 23.12.2019
5978 Rain 7 992 93 6000 5.1 260 02:49 23.12.2019
5979 Rain 7 992 93 10000 7.2 270 02:25 23.12.2019
5980 Rain 7 990 93 1700 5.1 230 01:55 23.12.2019
5981 Rain 7 990 93 1700 5.1 230 01:36 23.12.2019
5982 Drizzle 8 990 93 10000 5.7 250 01:18 23.12.2019
5983 Rain 8 989 93 6000 3.1 210 00:35 23.12.2019
5984 Rain 8 989 93 10000 2.6 230 23:58 22.12.2019
5985 Rain 8 989 93 10000 3.1 200 23:39 22.12.2019
5986 Rain 8 988 93 10000 3.1 210 23:20 22.12.2019
5987 Rain 8 988 93 10000 3.1 210 22:58 22.12.2019
5988 Rain 8 988 93 9000 2.1 170 22:38 22.12.2019
5989 Rain 8 988 87 10000 2.6 180 22:19 22.12.2019
5990 Rain 8 988 87 10000 2.6 180 21:57 22.12.2019
5991 Rain 8 987 93 9000 1.5 0 21:39 22.12.2019
5992 Clouds 8 987 87 10000 3.1 180 21:20 22.12.2019
5993 Clouds 8 987 87 10000 3.1 180 20:57 22.12.2019
5994 Rain 8 987 93 10000 1.5 60 20:38 22.12.2019
5995 Clouds 7 986 87 10000 2.6 150 20:18 22.12.2019
5996 Clouds 8 986 87 10000 2.6 150 19:55 22.12.2019
5997 Clouds 8 987 93 10000 1.5 110 19:37 22.12.2019
5998 Clouds 7 986 81 10000 2.1 160 19:19 22.12.2019
5999 Clouds 8 986 87 10000 2.1 100 18:40 22.12.2019
6000 Clouds 8 986 87 10000 2.1 100 18:40 22.12.2019
6001 Clouds 8 986 87 10000 2.6 120 18:22 22.12.2019
6002 Clouds 8 986 87 10000 2.6 100 17:55 22.12.2019
6003 Clouds 8 986 87 10000 2.6 100 17:37 22.12.2019
6004 Clouds 8 986 87 10000 2.6 90 17:18 22.12.2019
6005 Clouds 8 986 87 10000 2.6 90 17:18 22.12.2019
6006 Clouds 8 986 87 10000 2.6 90 16:57 22.12.2019
6007 Clouds 8 986 87 10000 2.6 90 16:38 22.12.2019
6008 Clouds 8 985 81 10000 2.6 90 16:20 22.12.2019
6009 Clouds 8 985 81 10000 2.6 90 15:56 22.12.2019
6010 Clouds 8 985 81 10000 2.6 90 15:37 22.12.2019
6011 Clouds 8 985 81 10000 3.1 100 15:19 22.12.2019
6012 Clouds 8 985 81 10000 3.1 100 14:55 22.12.2019
6013 Clouds 8 986 87 10000 3.1 100 14:36 22.12.2019
6014 Clouds 8 985 81 10000 3.1 150 14:18 22.12.2019
6015 Clouds 8 985 87 9000 2.6 90 13:55 22.12.2019
6016 Clouds 8 985 87 9000 2.6 90 13:36 22.12.2019
6017 Clouds 7 986 86 10000 0.5 100 13:18 22.12.2019
6018 Clouds 7 986 86 10000 1 130 12:55 22.12.2019
6019 Clouds 7 986 86 10000 1 130 12:55 22.12.2019
6020 Clouds 7 986 86 10000 1 130 12:37 22.12.2019
6021 Clouds 7 986 86 10000 1.5 90 12:18 22.12.2019
6022 Clouds 6 985 81 10000 3.6 160 11:56 22.12.2019
6023 Clouds 6 986 93 9000 2.1 90 11:37 22.12.2019
6024 Clouds 6 986 93 10000 2.6 120 11:18 22.12.2019
6025 Rain 5 986 93 10000 2.1 100 10:55 22.12.2019
6026 Rain 5 986 93 10000 2.1 100 10:36 22.12.2019
6027 Rain 5 986 93 10000 1.5 0 10:18 22.12.2019
6028 Rain 5 986 93 10000 1.5 0 09:56 22.12.2019
6029 Rain 5 986 93 10000 2.6 100 09:37 22.12.2019
6030 Rain 5 986 86 10000 2.6 120 09:19 22.12.2019
6031 Rain 5 985 100 8000 2.6 110 08:42 22.12.2019
6032 Rain 5 985 93 10000 2.6 130 08:21 22.12.2019
6033 Clouds 5 985 93 8000 2.6 120 07:42 22.12.2019
6034 Rain 5 984 86 10000 3.6 120 07:21 22.12.2019
6035 Clouds 4 985 86 10000 2.6 120 06:52 22.12.2019
6036 Rain 4 984 80 10000 4.1 110 06:25 22.12.2019
6037 Clouds 4 985 80 10000 3.6 130 05:32 22.12.2019
6038 Clouds 4 985 86 10000 3.1 100 04:46 22.12.2019
6039 Clouds 4 985 86 10000 3.6 120 04:25 22.12.2019
6040 Clouds 4 986 93 10000 3.1 110 02:45 22.12.2019
6041 Clouds 5 986 86 10000 3.6 150 02:20 22.12.2019
6042 Clouds 5 986 86 10000 4.1 160 01:31 22.12.2019
6043 Clear 4 987 93 10000 2.6 70 00:55 22.12.2019
6044 Clear 5 987 93 10000 2.6 70 00:36 22.12.2019
6045 Clouds 5 987 86 10000 3.1 140 00:18 22.12.2019
6046 Clear 5 988 86 10000 2.1 110 23:40 21.12.2019
6047 Clouds 4 988 93 10000 2.6 110 23:21 21.12.2019
6048 Clear 4 988 86 10000 3.1 120 22:56 21.12.2019
6049 Clear 4 988 86 10000 3.1 120 22:37 21.12.2019
6050 Clear 4 989 80 10000 2.1 130 22:18 21.12.2019
6051 Clear 5 989 80 10000 2.1 130 21:54 21.12.2019
6052 Clear 5 989 80 10000 2.1 130 21:36 21.12.2019
6053 Clear 5 990 75 10000 3.6 140 21:18 21.12.2019
6054 Clear 5 990 80 10000 3.6 150 20:56 21.12.2019
6055 Clear 5 990 80 10000 3.6 150 20:37 21.12.2019
6056 Clouds 5 989 75 10000 2.6 150 20:19 21.12.2019
6057 Clouds 5 989 86 10000 2.1 120 19:55 21.12.2019
6058 Clouds 5 989 86 10000 2.1 120 19:36 21.12.2019
6059 Clouds 6 989 81 10000 3.6 170 19:18 21.12.2019
6060 Clouds 6 990 86 10000 2.1 140 18:41 21.12.2019
6061 Clouds 6 991 80 10000 2.6 110 18:23 21.12.2019
6062 Clouds 6 991 80 10000 2.6 110 17:56 21.12.2019
6063 Clouds 7 991 75 10000 2.1 130 17:38 21.12.2019
6064 Clouds 7 991 75 10000 2.6 150 17:20 21.12.2019
6065 Clouds 7 992 70 10000 2.6 160 16:57 21.12.2019
6066 Clouds 7 992 70 10000 2.6 160 16:38 21.12.2019
6067 Clouds 8 992 70 10000 2.6 160 16:18 21.12.2019
6068 Clouds 8 992 70 10000 2.6 160 15:56 21.12.2019
6069 Clouds 8 991 75 10000 3.6 160 15:37 21.12.2019
6070 Clouds 9 992 66 10000 4.1 210 15:18 21.12.2019
6071 Clouds 9 992 70 10000 4.6 230 14:43 21.12.2019
6072 Clouds 9 992 70 10000 5.7 220 14:24 21.12.2019
6073 Clouds 9 992 70 10000 5.7 220 13:59 21.12.2019
6074 Clouds 9 993 70 10000 4.6 210 13:40 21.12.2019
6075 Clouds 9 993 70 10000 5.7 220 13:20 21.12.2019
6076 Clouds 9 993 70 10000 5.7 220 12:57 21.12.2019
6077 Clouds 9 993 70 10000 4.6 220 12:39 21.12.2019
6078 Clouds 9 993 70 10000 5.1 200 12:21 21.12.2019
6079 Clouds 9 993 70 10000 5.1 200 11:57 21.12.2019
6080 Clouds 9 993 70 10000 3.6 200 11:39 21.12.2019
6081 Clouds 8 993 70 10000 2.6 210 11:21 21.12.2019
6082 Clouds 8 993 70 10000 2.6 200 10:42 21.12.2019
6083 Clouds 7 993 75 10000 2.6 210 10:23 21.12.2019
6084 Clouds 7 993 75 10000 2.6 210 09:59 21.12.2019
6085 Clouds 7 993 75 10000 3.1 200 09:41 21.12.2019
6086 Clouds 7 993 75 10000 2.6 200 09:20 21.12.2019
6087 Clear 7 992 81 10000 2.1 170 08:56 21.12.2019
6088 Clear 7 992 81 10000 2.1 170 08:37 21.12.2019
6089 Clouds 7 992 75 10000 3.1 190 08:18 21.12.2019
6090 Clouds 7 992 81 10000 2.6 180 07:41 21.12.2019
6091 Clouds 7 992 75 10000 4.6 210 07:21 21.12.2019
6092 Clouds 7 992 81 10000 2.6 210 06:43 21.12.2019
6093 Clouds 7 992 75 10000 3.1 210 06:25 21.12.2019
6094 Clouds 7 992 81 10000 2.6 210 05:47 21.12.2019
6095 Clouds 8 992 70 10000 3.6 210 04:57 21.12.2019
6096 Clouds 8 992 75 10000 4.1 220 03:56 21.12.2019
6097 Clouds 8 991 81 10000 2.6 220 02:51 21.12.2019
6098 Clouds 8 991 76 10000 4.1 230 01:57 21.12.2019
6099 Rain 9 990 76 10000 4.6 230 01:27 21.12.2019
6100 Rain 9 990 81 10000 4.1 220 00:52 21.12.2019
6101 Rain 9 990 81 10000 3.6 230 00:32 21.12.2019
6102 Rain 10 989 76 10000 5.1 240 23:57 20.12.2019
6103 Rain 10 989 87 10000 3.6 210 23:37 20.12.2019
6104 Rain 10 989 81 10000 5.1 220 23:18 20.12.2019
6105 Rain 10 989 100 9000 3.6 190 22:40 20.12.2019
6106 Rain 10 989 81 10000 5.1 230 22:21 20.12.2019
6107 Rain 10 989 81 10000 5.1 230 21:59 20.12.2019
6108 Clouds 10 989 81 10000 4.6 210 21:40 20.12.2019
6109 Clouds 10 988 76 10000 4.1 200 21:20 20.12.2019
6110 Clouds 11 988 76 10000 5.1 190 20:41 20.12.2019
6111 Clouds 11 988 66 10000 4.6 180 20:22 20.12.2019
6112 Clouds 11 988 66 10000 4.6 180 19:59 20.12.2019
6113 Clouds 11 988 66 10000 4.6 180 19:59 20.12.2019
6114 Rain 11 988 66 10000 3.6 180 19:40 20.12.2019
6115 Rain 10 988 71 10000 3.1 140 19:20 20.12.2019
6116 Rain 10 988 71 10000 3.1 140 18:58 20.12.2019
6117 Clouds 10 988 81 10000 3.1 110 18:38 20.12.2019
6118 Clouds 9 988 81 10000 3.1 120 18:20 20.12.2019
6119 Clouds 9 989 81 10000 2.1 100 17:54 20.12.2019
6120 Clouds 9 989 81 10000 2.1 100 17:36 20.12.2019
6121 Clouds 9 989 81 10000 2.1 100 17:18 20.12.2019
6122 Clouds 9 989 81 10000 2.6 120 16:40 20.12.2019
6123 Clouds 9 989 76 10000 2.1 90 16:20 20.12.2019
6124 Clouds 9 989 81 10000 0.5 0 15:57 20.12.2019
6125 Clouds 9 990 76 10000 1.82 178 15:39 20.12.2019
6126 Clouds 9 990 76 10000 1.82 178 15:20 20.12.2019
6127 Clouds 9 990 70 10000 2.1 180 14:59 20.12.2019
6128 Clouds 9 990 70 10000 2.1 180 14:41 20.12.2019
6129 Clouds 9 990 70 10000 3.6 180 14:23 20.12.2019
6130 Clouds 9 991 71 10000 1.5 110 13:56 20.12.2019
6131 Clouds 9 990 71 10000 2.6 100 13:37 20.12.2019
6132 Clouds 9 990 71 10000 2.6 100 13:18 20.12.2019
6133 Clouds 9 990 71 10000 2.6 100 13:18 20.12.2019
6134 Clouds 9 992 75 10000 4.6 250 12:55 20.12.2019
6135 Clouds 8 992 70 10000 1.5 0 12:36 20.12.2019
6136 Clouds 8 992 70 10000 1.5 0 12:18 20.12.2019
6137 Clouds 8 992 75 10000 3.1 110 11:57 20.12.2019
6138 Clouds 8 993 81 10000 2.6 110 11:38 20.12.2019
6139 Clouds 7 993 81 10000 2.6 110 11:18 20.12.2019
6140 Clouds 6 994 93 10000 1.5 100 10:55 20.12.2019
6141 Clouds 5 994 93 10000 0.5 0 10:37 20.12.2019
6142 Clouds 5 994 93 10000 0.5 0 10:18 20.12.2019
6143 Clouds 4 995 93 10000 1 0 09:42 20.12.2019
6144 Clouds 3 995 69 10000 2.6 90 09:21 20.12.2019
6145 Clouds 3 996 93 10000 2.1 110 08:54 20.12.2019
6146 Clouds 3 996 100 10000 3.1 110 08:36 20.12.2019
6147 Clouds 3 996 100 10000 3.1 110 08:18 20.12.2019
6148 Clouds 2 996 71 10000 3.1 90 07:55 20.12.2019
6149 Clear 2 997 71 6000 3.1 100 07:36 20.12.2019
6150 Clear 2 997 71 6000 3.1 100 07:18 20.12.2019
6151 Clouds 2 998 71 10000 4.28 127 06:43 20.12.2019
6152 Clouds 3 998 93 10000 1.5 0 06:25 20.12.2019
6153 Clouds 3 998 71 10000 4.28 127 05:47 20.12.2019
6154 Mist 4 999 93 1000 3.1 80 04:57 20.12.2019
6155 Clouds 3 1001 100 10000 2.6 80 03:49 20.12.2019
6156 Mist 3 1002 100 3700 1.5 90 02:55 20.12.2019
6157 Mist 4 1003 93 2800 2.1 90 01:59 20.12.2019
6158 Clouds 4 1003 93 10000 2.6 100 01:35 20.12.2019
6159 Mist 4 1004 100 4000 2.1 110 00:56 20.12.2019
6160 Clouds 4 1004 93 10000 3.6 100 00:35 20.12.2019
6161 Clouds 5 1004 93 7000 2.1 70 23:58 19.12.2019
6162 Clouds 5 1004 93 7000 2.1 70 23:58 19.12.2019
6163 Clouds 5 1004 87 10000 2.1 110 23:40 19.12.2019
6164 Clouds 5 1004 87 10000 3.6 110 23:21 19.12.2019
6165 Clouds 5 1006 93 10000 1 90 22:40 19.12.2019
6166 Clouds 5 1006 93 10000 1 90 22:22 19.12.2019
6167 Clouds 6 1006 93 10000 1.5 100 21:59 19.12.2019
6168 Clouds 6 1006 93 10000 1.5 100 21:59 19.12.2019
6169 Clouds 6 1006 93 10000 1.5 100 21:41 19.12.2019
6170 Clouds 6 1007 86 10000 0.5 0 21:19 19.12.2019
6171 Clouds 6 1008 86 10000 1 0 20:58 19.12.2019
6172 Clouds 6 1008 93 10000 4.1 100 20:38 19.12.2019
6173 Clouds 7 1008 93 10000 4.1 100 20:20 19.12.2019
6174 Clouds 7 1009 87 10000 2.6 100 19:58 19.12.2019
6175 Clouds 7 1009 87 10000 2.1 90 19:40 19.12.2019
6176 Clouds 7 1009 87 10000 2.1 90 19:40 19.12.2019
6177 Clouds 7 1009 87 10000 2.1 90 19:20 19.12.2019
6178 Clouds 7 1009 87 10000 2.1 90 19:20 19.12.2019
6179 Clouds 8 1010 87 10000 0.5 0 18:59 19.12.2019
6180 Clouds 8 1010 87 10000 3 136 18:40 19.12.2019
6181 Clouds 8 1010 87 10000 3 136 18:20 19.12.2019
6182 Clouds 8 1010 87 10000 1.5 0 17:56 19.12.2019
6183 Clouds 8 1010 87 10000 3.1 100 17:38 19.12.2019
6184 Clouds 8 1010 87 10000 3.1 100 17:18 19.12.2019
6185 Clouds 8 1010 81 10000 2.6 140 16:57 19.12.2019
6186 Clouds 8 1010 81 10000 1.5 110 16:38 19.12.2019
6187 Clouds 9 1010 81 10000 1.5 110 16:20 19.12.2019
6188 Clouds 9 1010 76 10000 2.6 90 15:58 19.12.2019
6189 Clouds 9 1011 71 10000 2.1 90 15:38 19.12.2019
6190 Clouds 9 1011 71 10000 2.1 90 15:38 19.12.2019
6191 Clouds 10 1011 71 10000 2.1 90 15:19 19.12.2019
6192 Clouds 9 1011 76 10000 2.6 100 14:57 19.12.2019
6193 Clouds 10 1012 76 10000 2.6 110 14:39 19.12.2019
6194 Clear 10 1012 76 10000 2.6 110 14:18 19.12.2019
6195 Clear 10 1012 81 10000 3.6 110 13:54 19.12.2019
6196 Clear 10 1013 81 10000 2.6 110 13:36 19.12.2019
6197 Clear 10 1013 81 10000 2.6 110 13:18 19.12.2019
6198 Clear 10 1014 81 10000 3.1 110 12:54 19.12.2019
6199 Clear 9 1014 81 10000 2.6 110 12:36 19.12.2019
6200 Clear 9 1014 81 10000 2.6 110 12:18 19.12.2019
6201 Clear 9 1014 81 10000 2.6 110 12:18 19.12.2019
6202 Clear 9 1014 81 10000 2.6 110 12:18 19.12.2019
6203 Clear 9 1014 81 10000 2.6 110 12:18 19.12.2019
6204 Clear 8 1014 93 10000 2.6 120 11:42 19.12.2019
6205 Clear 7 1015 93 10000 2.6 110 11:20 19.12.2019
6206 Clear 6 1015 93 10000 2.6 110 10:59 19.12.2019
6207 Clear 6 1015 93 10000 2.1 110 10:39 19.12.2019
6208 Clear 6 1015 93 10000 2.1 110 10:20 19.12.2019
6209 Clear 5 1015 93 10000 2.1 120 09:59 19.12.2019
6210 Clear 5 1015 100 10000 2.6 120 09:38 19.12.2019
6211 Clear 5 1015 100 10000 2.6 120 09:20 19.12.2019
6212 Clear 5 1015 93 10000 3.1 110 08:57 19.12.2019
6213 Clear 5 1016 93 9000 2.1 100 08:39 19.12.2019
6214 Clouds 4 1016 93 9000 2.1 100 08:18 19.12.2019
6215 Clouds 4 1016 93 10000 2.6 110 07:56 19.12.2019
6216 Clouds 4 1016 93 10000 2.1 110 07:37 19.12.2019
6217 Clouds 4 1016 93 10000 2.1 110 07:19 19.12.2019
6218 Clouds 3 1015 100 7000 3.1 90 06:46 19.12.2019
6219 Clouds 4 1015 93 10000 3.1 90 06:27 19.12.2019
6220 Clouds 4 1016 93 10000 2.6 90 05:52 19.12.2019
6221 Clouds 3 1015 93 10000 2.6 130 05:32 19.12.2019
6222 Clouds 3 1016 93 10000 3.6 120 04:43 19.12.2019
6223 Clouds 3 1017 93 10000 3.1 100 02:48 19.12.2019
6224 Clouds 3 1017 100 10000 2.6 90 01:47 19.12.2019
6225 Clouds 2 1019 90 10000 2.1 90 01:22 19.12.2019
6226 Clouds 2 1019 90 10000 2.6 90 00:40 19.12.2019
6227 Clouds 3 1019 90 10000 2.6 90 00:21 19.12.2019
6228 Clouds 3 1019 90 10000 2.1 100 23:56 18.12.2019
6229 Clouds 3 1019 90 10000 1.5 100 23:38 18.12.2019
6230 Clouds 3 1019 89 10000 1.5 100 23:18 18.12.2019
6231 Clouds 3 1019 89 10000 1.5 100 22:55 18.12.2019
6232 Clouds 3 1019 100 8000 1.5 110 22:36 18.12.2019
6233 Clouds 3 1019 100 8000 1.5 110 22:18 18.12.2019
6234 Clouds 3 1019 93 10000 2.1 110 21:55 18.12.2019
6235 Clouds 3 1019 89 9000 2.1 120 21:37 18.12.2019
6236 Clouds 3 1019 89 9000 2.1 120 21:18 18.12.2019
6237 Clouds 3 1019 93 10000 2.1 110 20:54 18.12.2019
6238 Clouds 3 1019 93 10000 2.1 120 20:36 18.12.2019
6239 Clouds 4 1019 93 10000 2.1 120 20:18 18.12.2019
6240 Clouds 4 1019 93 10000 2.1 90 19:54 18.12.2019
6241 Clouds 4 1019 93 10000 1.5 110 19:36 18.12.2019
6242 Clouds 4 1019 93 10000 1.5 110 19:18 18.12.2019
6243 Clouds 4 1019 86 10000 1.5 90 18:43 18.12.2019
6244 Clouds 4 1019 86 10000 1.5 90 18:25 18.12.2019
6245 Clouds 4 1019 86 10000 1.5 90 18:25 18.12.2019
6246 Clouds 5 1019 87 10000 2.11 175 17:57 18.12.2019
6247 Clouds 5 1018 93 10000 1 0 17:38 18.12.2019
6248 Clouds 6 1019 81 10000 2.93 251 17:19 18.12.2019
6249 Clouds 6 1018 81 10000 2.93 251 16:55 18.12.2019
6250 Clouds 7 1018 81 10000 2.93 251 16:37 18.12.2019
6251 Clouds 8 1018 75 10000 2.93 251 16:18 18.12.2019
6252 Clouds 8 1018 75 10000 2.93 251 15:55 18.12.2019
6253 Clouds 9 1018 75 10000 2.1 260 15:37 18.12.2019
6254 Clouds 9 1018 76 10000 3.1 260 15:18 18.12.2019
6255 Clouds 9 1017 70 10000 3.6 240 14:40 18.12.2019
6256 Clouds 9 1017 70 10000 4.1 240 14:21 18.12.2019
6257 Clouds 9 1017 70 10000 4.1 240 13:57 18.12.2019
6258 Clouds 9 1017 81 10000 2.1 210 13:57 18.12.2019
6259 Clouds 9 1017 81 10000 2.1 210 13:38 18.12.2019
6260 Clouds 9 1017 70 10000 3.6 230 13:19 18.12.2019
6261 Clouds 9 1017 70 10000 3.6 230 12:57 18.12.2019
6262 Clouds 9 1017 70 10000 2.6 220 12:38 18.12.2019
6263 Clouds 9 1017 75 10000 2.6 210 12:19 18.12.2019
6264 Clouds 8 1017 75 10000 2.6 210 11:56 18.12.2019
6265 Clouds 8 1017 75 10000 2.6 230 11:38 18.12.2019
6266 Clouds 7 1016 81 10000 2.6 250 11:19 18.12.2019
6267 Clouds 7 1016 81 10000 2.1 250 10:55 18.12.2019
6268 Clouds 7 1016 81 10000 2.1 250 10:37 18.12.2019
6269 Clouds 6 1015 87 10000 1.5 250 10:19 18.12.2019
6270 Clouds 6 1015 87 10000 1.5 230 09:50 18.12.2019
6271 Clouds 6 1014 87 10000 2.6 250 09:18 18.12.2019
6272 Clouds 6 1014 87 10000 1.5 0 08:41 18.12.2019
6273 Clouds 7 1013 81 10000 3.6 290 08:22 18.12.2019
6274 Clouds 7 1012 81 10000 4.1 300 07:55 18.12.2019
6275 Clouds 7 1012 81 10000 4.1 300 07:36 18.12.2019
6276 Clouds 7 1012 81 10000 4.6 290 07:18 18.12.2019
6277 Clouds 7 1012 81 10000 5.7 290 06:49 18.12.2019
6278 Clouds 8 1011 93 10000 4.6 270 06:22 18.12.2019
6279 Clouds 9 1010 87 10000 4.1 280 05:22 18.12.2019
6280 Clouds 11 1008 87 10000 7.7 260 03:31 18.12.2019
6281 Rain 12 1005 87 10000 6.2 220 02:41 18.12.2019
6282 Rain 12 1006 87 10000 7.7 250 02:23 18.12.2019
6283 Clouds 12 1004 87 10000 4.6 210 01:42 18.12.2019
6284 Rain 12 1004 87 10000 3.6 230 01:24 18.12.2019
6285 Rain 12 1004 87 10000 4.6 220 00:42 18.12.2019
6286 Rain 12 1004 81 10000 5.1 210 00:24 18.12.2019
6287 Rain 12 1004 81 10000 5.1 210 00:24 18.12.2019
6288 Rain 13 1004 81 10000 5.1 210 23:58 17.12.2019
6289 Rain 13 1003 71 10000 7.2 200 23:39 17.12.2019
6290 Clouds 13 1002 62 10000 5.7 190 23:20 17.12.2019
6291 Clouds 13 1002 62 10000 5.7 190 22:57 17.12.2019
6292 Clouds 13 1002 66 10000 4.1 170 22:38 17.12.2019
6293 Clouds 13 1004 58 10000 3.1 160 22:19 17.12.2019
6294 Clouds 13 1004 58 10000 3.1 160 21:57 17.12.2019
6295 Clouds 13 1004 62 10000 3.1 160 21:38 17.12.2019
6296 Clouds 13 1004 62 10000 3.6 160 21:20 17.12.2019
6297 Clouds 12 1004 62 10000 3.6 160 20:58 17.12.2019
6298 Clouds 12 1004 58 10000 3.6 160 20:39 17.12.2019
6299 Clouds 12 1005 58 10000 2.6 160 20:19 17.12.2019
6300 Clouds 12 1005 62 10000 3.1 170 19:56 17.12.2019
6301 Clouds 12 1005 62 10000 3.1 170 19:38 17.12.2019
6302 Clouds 12 1004 58 10000 2.6 150 19:19 17.12.2019
6303 Clouds 12 1003 76 10000 2.6 150 18:56 17.12.2019
6304 Clouds 12 1005 58 10000 2.1 170 18:37 17.12.2019
6305 Clouds 12 1005 58 10000 2.1 170 18:19 17.12.2019
6306 Clouds 12 1005 58 10000 2.1 170 18:19 17.12.2019
6307 Clouds 12 1004 54 10000 3.1 170 17:54 17.12.2019
6308 Clouds 12 1004 54 10000 3.1 170 17:36 17.12.2019
6309 Clouds 12 1004 54 10000 3.6 180 17:18 17.12.2019
6310 Clouds 12 1004 54 10000 3.6 190 16:54 17.12.2019
6311 Clouds 12 1004 54 10000 3.6 190 16:36 17.12.2019
6312 Clouds 13 1004 51 10000 3.1 210 16:18 17.12.2019
6313 Clouds 13 1003 51 10000 3.6 190 15:38 17.12.2019
6314 Clouds 13 1003 51 10000 4.1 200 15:20 17.12.2019
6315 Clouds 14 1003 51 10000 4.1 200 14:56 17.12.2019
6316 Clouds 14 1003 51 10000 5.7 210 14:38 17.12.2019
6317 Clouds 14 1003 48 10000 6.2 220 14:19 17.12.2019
6318 Clouds 14 1003 48 10000 6.2 220 14:19 17.12.2019
6319 Clouds 14 1003 48 10000 6.2 220 13:58 17.12.2019
6320 Clouds 14 1002 62 10000 3.1 180 13:40 17.12.2019
6321 Clouds 14 1003 51 10000 3.6 230 13:19 17.12.2019
6322 Clouds 14 1003 51 10000 3.6 230 12:59 17.12.2019
6323 Clouds 14 1003 54 10000 3.6 230 12:38 17.12.2019
6324 Clouds 13 1003 58 10000 4.6 220 12:18 17.12.2019
6325 Clouds 13 1003 58 10000 4.6 220 12:18 17.12.2019
6326 Clouds 12 1003 58 10000 4.6 220 11:57 17.12.2019
6327 Clouds 12 1003 58 10000 4.6 220 11:37 17.12.2019
6328 Clouds 12 1004 58 10000 4.6 210 11:18 17.12.2019
6329 Clouds 12 1003 58 10000 5.1 200 10:57 17.12.2019
6330 Clouds 12 1003 58 10000 5.1 200 10:39 17.12.2019
6331 Clouds 12 1003 58 10000 5.1 200 10:39 17.12.2019
6332 Clouds 11 1003 71 10000 3.1 250 10:19 17.12.2019
6333 Clouds 10 1003 71 10000 3.1 250 09:56 17.12.2019
6334 Clouds 10 1003 66 10000 2.1 290 09:38 17.12.2019
6335 Clouds 10 1003 66 10000 2.1 290 09:38 17.12.2019
6336 Clouds 10 1002 75 10000 1 0 09:18 17.12.2019
6337 Clouds 9 1002 76 10000 6.45 215 08:55 17.12.2019
6338 Clouds 9 1002 76 10000 6.45 215 08:36 17.12.2019
6339 Clouds 8 1002 81 10000 1.5 100 08:18 17.12.2019
6340 Clouds 7 1002 93 10000 2.1 80 07:42 17.12.2019
6341 Clouds 7 1002 93 10000 2.6 110 07:23 17.12.2019
6342 Fog 7 1001 93 10000 1 60 06:55 17.12.2019
6343 Clouds 8 1001 87 10000 1.5 130 06:32 17.12.2019
6344 Clouds 7 1002 93 4800 1 40 05:52 17.12.2019
6345 Clouds 7 1001 93 10000 2.6 70 05:34 17.12.2019
6346 Clouds 7 1002 93 9000 2.1 110 04:25 17.12.2019
6347 Clouds 5 1003 100 8000 2.6 100 02:33 17.12.2019
6348 Clouds 5 1003 100 8000 2.6 100 02:33 17.12.2019
6349 Clouds 6 1003 100 800 2.1 110 01:50 17.12.2019
6350 Clouds 6 1003 100 8000 3.1 100 00:58 17.12.2019
6351 Clouds 6 1004 100 10000 2.1 90 00:37 17.12.2019
6352 Clouds 6 1004 100 10000 2.1 90 00:18 17.12.2019
6353 Clouds 6 1005 93 5000 1.5 100 23:41 16.12.2019
6354 Clouds 6 1005 93 10000 2.6 100 23:19 16.12.2019
6355 Clouds 6 1005 93 10000 2.6 110 22:56 16.12.2019
6356 Clouds 7 1005 93 10000 2.6 110 22:37 16.12.2019
6357 Clouds 7 1005 93 10000 2.1 110 22:19 16.12.2019
6358 Clouds 7 1005 93 10000 2.1 110 21:55 16.12.2019
6359 Clouds 7 1006 93 10000 2.1 120 21:37 16.12.2019
6360 Clouds 7 1006 93 10000 2.1 120 21:37 16.12.2019
6361 Clouds 8 1006 93 10000 1 110 21:18 16.12.2019
6362 Clouds 8 1006 87 10000 1.5 140 20:56 16.12.2019
6363 Clouds 8 1006 87 10000 1.5 140 20:56 16.12.2019
6364 Clouds 8 1006 87 10000 1.5 140 20:37 16.12.2019
6365 Clouds 8 1006 93 10000 1.5 150 20:19 16.12.2019
6366 Clouds 8 1006 93 10000 1.5 150 19:55 16.12.2019
6367 Clouds 8 1006 87 10000 2.1 160 19:36 16.12.2019
6368 Clouds 8 1006 93 10000 2.1 160 19:18 16.12.2019
6369 Clouds 8 1006 93 10000 2.1 160 19:18 16.12.2019
6370 Clouds 8 1006 93 10000 2.1 160 18:56 16.12.2019
6371 Clouds 8 1006 93 10000 2.1 160 18:37 16.12.2019
6372 Clouds 8 1006 93 10000 1.5 110 18:19 16.12.2019
6373 Clouds 8 1006 93 10000 1.5 110 18:19 16.12.2019
6374 Clouds 8 1006 93 10000 1.5 110 17:57 16.12.2019
6375 Clouds 8 1006 93 10000 2.1 100 17:37 16.12.2019
6376 Clouds 8 1006 87 10000 1.5 120 17:19 16.12.2019
6377 Clouds 8 1006 93 10000 1.5 140 16:55 16.12.2019
6378 Clouds 8 1006 93 10000 1.5 140 16:37 16.12.2019
6379 Clouds 8 1006 87 10000 1.5 120 16:19 16.12.2019
6380 Clouds 8 1006 87 10000 1.5 120 15:57 16.12.2019
6381 Drizzle 8 1006 81 10000 2.3 197 15:38 16.12.2019
6382 Clouds 9 1006 76 10000 1 100 15:20 16.12.2019
6383 Clouds 9 1006 76 10000 1 100 14:55 16.12.2019
6384 Clouds 9 1006 76 10000 2.3 197 14:36 16.12.2019
6385 Clouds 9 1006 76 10000 1.5 0 14:18 16.12.2019
6386 Clouds 9 1006 76 10000 1.5 0 13:56 16.12.2019
6387 Clouds 9 1007 76 10000 1.5 150 13:37 16.12.2019
6388 Clouds 9 1007 81 10000 2.1 150 13:19 16.12.2019
6389 Clouds 8 1007 75 10000 2.1 180 12:56 16.12.2019
6390 Clouds 8 1007 75 10000 2.1 180 12:38 16.12.2019
6391 Clouds 8 1007 75 10000 3.1 170 12:18 16.12.2019
6392 Clouds 8 1007 81 10000 4.1 160 11:57 16.12.2019
6393 Clouds 8 1007 81 10000 4.1 160 11:39 16.12.2019
6394 Clouds 8 1008 81 10000 2.6 160 11:19 16.12.2019
6395 Clouds 8 1008 75 10000 1.5 0 10:54 16.12.2019
6396 Clouds 7 1008 75 10000 1.5 0 10:36 16.12.2019
6397 Clouds 7 1008 81 10000 1.5 0 10:18 16.12.2019
6398 Clouds 7 1007 81 10000 2.1 160 09:44 16.12.2019
6399 Clouds 7 1007 81 10000 2.1 160 09:26 16.12.2019
6400 Clouds 6 1007 80 10000 2.1 150 08:41 16.12.2019
6401 Clouds 5 1007 80 10000 2.1 160 08:21 16.12.2019
6402 Clouds 5 1007 75 10000 2.6 150 07:57 16.12.2019
6403 Clouds 5 1007 75 10000 2.6 150 07:38 16.12.2019
6404 Clouds 5 1007 75 10000 2.1 140 07:19 16.12.2019
6405 Clouds 5 1007 80 10000 3.6 170 06:40 16.12.2019
6406 Clouds 5 1007 80 10000 3.1 160 06:21 16.12.2019
6407 Clouds 5 1007 89 10000 2.1 180 05:44 16.12.2019
6408 Clouds 5 1007 75 10000 3.6 170 05:26 16.12.2019
6409 Clouds 5 1007 75 10000 3.6 180 03:33 16.12.2019
6410 Clouds 5 1007 79 10000 2.1 170 01:57 16.12.2019
6411 Clouds 5 1007 79 10000 2.1 170 01:39 16.12.2019
6412 Clouds 5 1007 75 10000 2.6 210 00:41 16.12.2019
6413 Clouds 5 1007 70 10000 4.6 230 00:23 16.12.2019
6414 Clouds 5 1007 70 10000 4.6 230 23:58 15.12.2019
6415 Clouds 5 1006 70 10000 5.7 230 23:38 15.12.2019
6416 Clouds 6 1006 65 10000 5.7 230 23:19 15.12.2019
6417 Clouds 6 1006 65 10000 4.1 220 22:55 15.12.2019
6418 Clouds 6 1006 65 10000 6.7 230 22:37 15.12.2019
6419 Clouds 6 1005 65 10000 6.2 230 22:18 15.12.2019
6420 Clouds 6 1005 65 10000 6.2 230 21:55 15.12.2019
6421 Clouds 6 1005 65 10000 7.2 230 21:37 15.12.2019
6422 Clouds 6 1005 70 10000 6.2 230 21:19 15.12.2019
6423 Clouds 7 1005 70 10000 6.2 230 20:55 15.12.2019
6424 Clouds 7 1004 65 10000 7.2 220 20:37 15.12.2019
6425 Clear 7 1004 73 10000 5.1 220 20:18 15.12.2019
6426 Clouds 7 1004 75 10000 5.1 220 19:56 15.12.2019
6427 Clouds 7 1004 75 10000 5.1 220 19:38 15.12.2019
6428 Clouds 7 1003 75 10000 6.2 230 19:18 15.12.2019
6429 Clear 7 1003 73 10000 6.7 230 18:55 15.12.2019
6430 Clear 7 1003 73 10000 6.7 230 18:37 15.12.2019
6431 Clouds 7 1002 75 10000 6.2 240 18:18 15.12.2019
6432 Clear 7 1002 73 10000 5.7 230 17:56 15.12.2019
6433 Clear 7 1002 73 10000 5.7 230 17:37 15.12.2019
6434 Clear 7 1001 66 10000 5.7 230 17:18 15.12.2019
6435 Clear 7 1001 66 10000 6.2 230 16:55 15.12.2019
6436 Clear 7 1001 66 10000 6.2 230 16:55 15.12.2019
6437 Clear 7 1001 61 10000 6.2 230 16:37 15.12.2019
6438 Clear 7 1001 61 10000 7.2 240 16:19 15.12.2019
6439 Clear 8 1000 66 10000 8.2 240 15:54 15.12.2019
6440 Clear 8 1000 61 10000 8.2 240 15:36 15.12.2019
6441 Clear 8 999 66 10000 8.7 250 15:18 15.12.2019
6442 Clear 8 999 57 10000 8.7 250 14:55 15.12.2019
6443 Clear 9 999 57 10000 8.7 250 14:36 15.12.2019
6444 Clouds 9 998 61 10000 8.7 250 14:18 15.12.2019
6445 Clouds 9 998 61 10000 8.2 250 13:54 15.12.2019
6446 Clouds 9 998 61 10000 8.2 250 13:36 15.12.2019
6447 Clouds 9 997 61 10000 9.8 250 13:18 15.12.2019
6448 Clouds 9 997 66 10000 8.7 250 12:55 15.12.2019
6449 Clouds 9 997 66 10000 8.7 250 12:37 15.12.2019
6450 Clouds 9 997 61 10000 8.7 250 12:19 15.12.2019
6451 Clouds 8 996 66 10000 7.7 240 11:38 15.12.2019
6452 Rain 8 996 70 10000 7.7 240 11:19 15.12.2019
6453 Clouds 8 994 75 10000 7.7 230 10:58 15.12.2019
6454 Clouds 8 994 75 10000 7.7 230 10:40 15.12.2019
6455 Rain 8 994 81 10000 9.8 240 10:19 15.12.2019
6456 Rain 8 994 81 10000 9.8 240 09:58 15.12.2019
6457 Rain 8 993 81 7000 6.7 220 09:37 15.12.2019
6458 Rain 8 993 81 7000 6.7 220 09:37 15.12.2019
6459 Clouds 8 993 81 10000 4.1 180 09:19 15.12.2019
6460 Rain 7 992 93 4100 2.6 220 08:55 15.12.2019
6461 Rain 7 992 93 4100 2.6 220 08:37 15.12.2019
6462 Rain 7 992 87 10000 4.6 190 08:19 15.12.2019
6463 Rain 7 992 87 10000 5.1 150 07:53 15.12.2019
6464 Rain 6 991 81 10000 5.7 180 07:31 15.12.2019
6465 Rain 6 993 81 10000 5.1 160 06:30 15.12.2019
6466 Clouds 5 994 80 10000 3.6 160 05:49 15.12.2019
6467 Clouds 5 994 80 10000 5.1 160 05:22 15.12.2019
6468 Clouds 4 996 75 10000 5.1 170 04:22 15.12.2019
6469 Clouds 4 997 82 10000 3.6 180 02:59 15.12.2019
6470 Clouds 4 997 80 10000 2.1 170 02:32 15.12.2019
6471 Clouds 4 998 73 10000 4.1 210 01:42 15.12.2019
6472 Clouds 4 998 72 10000 5.7 230 01:19 15.12.2019
6473 Clouds 4 998 80 10000 6.2 220 00:51 15.12.2019
6474 Clouds 4 998 72 10000 6.2 240 00:33 15.12.2019
6475 Clouds 4 998 72 10000 7.2 250 23:56 14.12.2019
6476 Clouds 4 997 80 10000 8.2 250 23:38 14.12.2019
6477 Rain 4 997 80 10000 6.7 240 23:18 14.12.2019
6478 Clouds 3 996 93 10000 4.6 220 22:56 14.12.2019
6479 Rain 3 996 93 10000 6.2 240 22:37 14.12.2019
6480 Clouds 3 995 86 10000 7.2 240 22:19 14.12.2019
6481 Clouds 3 996 93 10000 4.1 240 21:55 14.12.2019
6482 Clouds 3 995 93 10000 5.1 240 21:37 14.12.2019
6483 Rain 3 995 93 10000 5.7 260 21:18 14.12.2019
6484 Drizzle 4 992 86 10000 7.7 270 20:54 14.12.2019
6485 Drizzle 4 991 86 10000 2.6 220 20:36 14.12.2019
6486 Rain 5 991 81 10000 7.7 230 20:18 14.12.2019
6487 Rain 5 991 81 10000 7.7 230 20:18 14.12.2019
6488 Drizzle 5 991 86 10000 2.6 220 19:40 14.12.2019
6489 Clouds 5 992 80 10000 5.1 220 19:21 14.12.2019
6490 Clouds 5 992 80 10000 5.1 220 18:58 14.12.2019
6491 Clouds 6 992 80 10000 5.1 220 18:39 14.12.2019
6492 Clouds 6 992 70 10000 6.2 240 18:21 14.12.2019
6493 Clouds 6 992 70 10000 6.2 240 17:59 14.12.2019
6494 Clouds 6 992 80 10000 5.7 230 17:41 14.12.2019
6495 Clouds 6 991 70 10000 6.2 240 17:22 14.12.2019
6496 Clouds 6 991 70 10000 7.2 240 16:42 14.12.2019
6497 Clouds 6 990 70 10000 8.2 250 16:20 14.12.2019
6498 Clouds 6 990 70 10000 8.2 250 15:58 14.12.2019
6499 Rain 6 989 86 10000 6.7 240 15:39 14.12.2019
6500 Rain 6 989 80 10000 8.7 260 15:20 14.12.2019
6501 Rain 6 989 80 10000 8.7 260 14:57 14.12.2019
6502 Clouds 5 988 80 10000 8.2 250 14:38 14.12.2019
6503 Clouds 5 988 80 10000 8.2 250 14:19 14.12.2019
6504 Clouds 6 988 81 10000 7.2 250 13:45 14.12.2019
6505 Clouds 5 987 80 10000 7.2 260 13:20 14.12.2019
6506 Clouds 5 987 80 10000 7.2 260 12:59 14.12.2019
6507 Clouds 5 987 86 10000 7.2 250 12:40 14.12.2019
6508 Rain 4 986 86 10000 6.7 250 12:21 14.12.2019
6509 Rain 4 986 86 10000 6.7 250 12:21 14.12.2019
6510 Rain 4 986 86 10000 6.7 250 12:21 14.12.2019
6511 Rain 4 986 86 10000 6.7 250 12:21 14.12.2019
6512 Rain 4 985 86 10000 5.1 250 11:59 14.12.2019
6513 Rain 4 985 86 10000 5.1 250 11:39 14.12.2019
6514 Rain 4 985 86 10000 4.6 240 11:20 14.12.2019
6515 Rain 4 984 86 10000 4.1 250 10:59 14.12.2019
6516 Rain 4 984 86 10000 4.1 250 10:40 14.12.2019
6517 Rain 4 983 93 10000 1 0 10:22 14.12.2019
6518 Rain 4 983 93 10000 1 0 09:59 14.12.2019
6519 Rain 4 983 86 10000 1.5 210 09:40 14.12.2019
6520 Rain 4 983 80 10000 3.1 200 09:20 14.12.2019
6521 Rain 4 982 93 9000 3.1 200 08:43 14.12.2019
6522 Rain 4 982 86 10000 5.1 210 08:20 14.12.2019
6523 Clouds 4 982 86 10000 2.6 170 07:55 14.12.2019
6524 Rain 4 982 80 10000 3.6 200 07:36 14.12.2019
6525 Clouds 4 982 80 10000 3.1 210 07:18 14.12.2019
6526 Rain 4 982 80 10000 5.1 200 06:39 14.12.2019
6527 Rain 4 982 80 10000 4.1 200 06:18 14.12.2019
6528 Clouds 4 982 93 8000 2.1 180 05:20 14.12.2019
6529 Mist 3 983 100 4000 2.1 190 02:44 14.12.2019
6530 Clouds 3 983 93 10000 3.6 230 02:22 14.12.2019
6531 Drizzle 3 983 93 4000 2.1 170 01:43 14.12.2019
6532 Drizzle 2 983 100 5000 2.6 220 00:50 14.12.2019
6533 Clouds 2 983 100 10000 2.1 200 00:29 14.12.2019
6534 Rain 2 983 93 10000 2.6 230 23:58 13.12.2019
6535 Rain 2 983 93 10000 3.1 250 23:39 13.12.2019
6536 Drizzle 2 983 93 9000 4.1 260 23:19 13.12.2019
6537 Drizzle 2 983 93 3700 2.1 210 22:55 13.12.2019
6538 Drizzle 2 983 93 3700 2.1 210 22:36 13.12.2019
6539 Drizzle 2 982 93 3000 0.5 190 22:18 13.12.2019
6540 Rain 2 982 93 3000 1 110 21:42 13.12.2019
6541 Clouds 2 982 80 10000 2.1 160 21:21 13.12.2019
6542 Clouds 2 982 80 10000 2.1 160 20:57 13.12.2019
6543 Clouds 2 982 80 10000 2.1 160 20:39 13.12.2019
6544 Clouds 2 981 92 10000 1.72 115 20:19 13.12.2019
6545 Clouds 2 981 92 10000 1.72 115 19:56 13.12.2019
6546 Clouds 2 981 80 10000 2.1 130 19:38 13.12.2019
6547 Clouds 2 981 80 10000 2.1 130 19:19 13.12.2019
6548 Clouds 2 980 92 10000 3.1 110 18:54 13.12.2019
6549 Clouds 2 980 92 10000 3.1 100 18:36 13.12.2019
6550 Clouds 2 980 92 10000 3.1 100 18:18 13.12.2019
6551 Drizzle 2 980 92 10000 3.6 110 17:40 13.12.2019
6552 Drizzle 2 980 95 10000 3.6 110 17:18 13.12.2019
6553 Clouds 2 980 95 10000 3.6 100 16:56 13.12.2019
6554 Drizzle 2 979 80 10000 3.6 100 16:38 13.12.2019
6555 Drizzle 2 979 80 10000 3.6 100 16:20 13.12.2019
6556 Snow 2 979 80 8000 3.1 100 15:43 13.12.2019
6557 Snow 2 979 80 8000 3.6 100 15:22 13.12.2019
6558 Snow 2 979 80 8000 3.1 90 14:57 13.12.2019
6559 Snow 2 979 80 10000 5.1 100 14:39 13.12.2019
6560 Snow 2 979 80 10000 5.1 100 14:19 13.12.2019
6561 Clouds 3 978 80 10000 5.7 110 13:44 13.12.2019
6562 Clouds 3 978 80 10000 5.7 110 13:26 13.12.2019
6563 Clouds 3 978 80 10000 5.7 110 12:59 13.12.2019
6564 Clouds 3 978 80 10000 5.7 110 12:41 13.12.2019
6565 Clouds 2 979 80 10000 5.1 100 12:19 13.12.2019
6566 Clouds 2 979 74 10000 5.7 110 11:57 13.12.2019
6567 Clouds 2 979 80 10000 4.6 100 11:39 13.12.2019
6568 Clouds 2 979 80 10000 4.6 100 11:19 13.12.2019
6569 Clouds 2 980 80 10000 4.1 100 10:41 13.12.2019
6570 Clouds 1 980 80 10000 5.1 100 10:21 13.12.2019
6571 Clouds 1 980 80 10000 5.7 100 09:54 13.12.2019
6572 Clouds 1 980 77 10000 3.6 100 09:36 13.12.2019
6573 Clouds 1 980 77 10000 3.6 100 09:18 13.12.2019
6574 Clouds 1 981 80 10000 4.6 110 08:40 13.12.2019
6575 Clear 1 981 80 10000 4.6 110 08:22 13.12.2019
6576 Clear 1 982 81 10000 3.6 100 07:44 13.12.2019
6577 Clear 1 982 81 10000 3.1 90 07:20 13.12.2019
6578 Clouds 1 982 81 10000 3.6 100 06:50 13.12.2019
6579 Clear 1 982 80 10000 3.1 110 06:28 13.12.2019
6580 Clear 1 982 80 10000 3.6 110 05:44 13.12.2019
6581 Clear 1 983 74 10000 4.6 120 05:24 13.12.2019
6582 Clear 1 984 74 10000 6.2 130 04:35 13.12.2019
6583 Clear 2 986 80 10000 4.1 130 03:31 13.12.2019
6584 Clear 2 987 74 10000 4.1 140 02:32 13.12.2019
6585 Clear 2 991 84 10000 3.1 110 01:43 13.12.2019
6586 Clear 2 991 83 10000 3.1 110 00:55 13.12.2019
6587 Clouds 2 990 74 10000 4.6 150 00:36 13.12.2019
6588 Clear 2 992 83 10000 3.6 140 23:57 12.12.2019
6589 Clear 2 992 83 10000 4.6 150 23:39 12.12.2019
6590 Clouds 3 992 89 10000 4.6 150 23:20 12.12.2019
6591 Clouds 3 995 89 10000 2.6 120 22:55 12.12.2019
6592 Clouds 3 995 89 10000 2.6 120 22:37 12.12.2019
6593 Clouds 3 995 89 10000 2.6 120 22:18 12.12.2019
6594 Clouds 3 995 86 10000 2.6 140 21:55 12.12.2019
6595 Clouds 3 996 86 10000 2.1 130 21:36 12.12.2019
6596 Clouds 3 996 86 10000 2.1 130 21:18 12.12.2019
6597 Clouds 3 996 86 10000 2.1 130 20:55 12.12.2019
6598 Clouds 3 997 80 10000 2.6 140 20:37 12.12.2019
6599 Clouds 4 997 80 10000 2.6 140 20:19 12.12.2019
6600 Clouds 4 997 80 10000 2.1 170 19:42 12.12.2019
6601 Clouds 4 998 75 10000 2.6 160 19:23 12.12.2019
6602 Clouds 4 998 80 10000 2.1 160 18:58 12.12.2019
6603 Clouds 4 998 80 10000 2.1 160 18:40 12.12.2019
6604 Clouds 4 998 75 10000 2.1 180 18:21 12.12.2019
6605 Clouds 4 998 75 10000 3.6 200 17:58 12.12.2019
6606 Clouds 4 999 75 10000 4.1 190 17:40 12.12.2019
6607 Clouds 4 999 75 10000 4.1 190 17:21 12.12.2019
6608 Clouds 4 999 80 10000 4.6 200 16:58 12.12.2019
6609 Clouds 5 999 80 10000 4.6 200 16:40 12.12.2019
6610 Clouds 5 999 80 10000 3.6 200 16:21 12.12.2019
6611 Clouds 5 1000 75 10000 3.6 200 15:58 12.12.2019
6612 Clouds 5 1000 80 10000 2.6 200 15:40 12.12.2019
6613 Clouds 5 1000 80 10000 2.6 200 15:19 12.12.2019
6614 Clouds 5 1000 80 10000 3.1 200 14:56 12.12.2019
6615 Clouds 5 1000 75 10000 3.6 200 14:36 12.12.2019
6616 Clouds 5 1000 75 10000 3.6 200 14:18 12.12.2019
6617 Clouds 5 1001 75 10000 4.6 210 13:54 12.12.2019
6618 Clouds 5 1001 75 10000 4.1 200 13:36 12.12.2019
6619 Clouds 5 1001 75 10000 4.1 200 13:18 12.12.2019
6620 Clouds 5 1001 80 10000 4.1 210 12:41 12.12.2019
6621 Clouds 4 1001 80 10000 4.1 210 12:22 12.12.2019
6622 Clouds 4 1002 86 10000 3.6 210 11:59 12.12.2019
6623 Clouds 5 1002 80 10000 3.6 210 11:40 12.12.2019
6624 Clouds 4 1002 80 10000 3.6 210 11:21 12.12.2019
6625 Clouds 4 1002 80 10000 3.1 200 10:58 12.12.2019
6626 Clouds 3 1002 80 10000 3.1 200 10:40 12.12.2019
6627 Clouds 3 1002 86 10000 2.6 180 10:22 12.12.2019
6628 Clouds 3 1002 86 10000 2.1 160 09:56 12.12.2019
6629 Clouds 3 1002 86 10000 2.1 170 09:38 12.12.2019
6630 Clouds 3 1002 86 10000 2.1 170 09:20 12.12.2019
6631 Clouds 3 1002 86 10000 2.1 200 08:47 12.12.2019
6632 Clouds 3 1002 87 10000 1 0 08:29 12.12.2019
6633 Clouds 3 1002 86 10000 2.6 210 07:56 12.12.2019
6634 Clouds 3 1002 86 10000 2.6 200 07:37 12.12.2019
6635 Clouds 3 1002 86 10000 2.6 200 07:19 12.12.2019
6636 Clouds 3 1001 93 10000 3.1 150 06:41 12.12.2019
6637 Clouds 3 1001 93 9000 2.1 160 06:22 12.12.2019
6638 Clouds 3 1002 93 8000 2.6 170 05:32 12.12.2019
6639 Mist 3 1002 100 4000 1.5 190 04:47 12.12.2019
6640 Mist 2 1003 100 4000 2.6 220 02:43 12.12.2019
6641 Clouds 2 1003 100 7000 2.6 230 02:24 12.12.2019
6642 Mist 3 1003 93 3000 2.6 220 01:59 12.12.2019
6643 Clouds 2 1003 100 7000 3.1 240 01:36 12.12.2019
6644 Drizzle 2 1003 93 2500 2.6 200 00:50 12.12.2019
6645 Clouds 2 1003 93 8000 1.5 230 00:22 12.12.2019
6646 Drizzle 2 1004 100 4500 2.1 200 23:58 11.12.2019
6647 Drizzle 2 1004 93 9000 1.5 200 23:39 11.12.2019
6648 Drizzle 2 1004 93 9000 1.5 200 23:19 11.12.2019
6649 Drizzle 2 1004 100 6000 2.1 190 22:57 11.12.2019
6650 Rain 2 1004 90 10000 3.1 230 22:38 11.12.2019
6651 Rain 2 1004 90 10000 3.1 230 22:19 11.12.2019
6652 Clouds 2 1004 90 10000 3.1 240 21:55 11.12.2019
6653 Clouds 2 1005 90 10000 3.6 230 21:37 11.12.2019
6654 Clouds 2 1005 90 10000 3.6 230 21:19 11.12.2019
6655 Clouds 2 1005 90 10000 4.1 230 20:55 11.12.2019
6656 Clouds 2 1005 93 10000 2.1 210 20:37 11.12.2019
6657 Clouds 2 1005 93 10000 2.1 210 20:18 11.12.2019
6658 Clouds 2 1005 93 10000 2.6 210 19:55 11.12.2019
6659 Rain 2 1005 92 10000 3.1 210 19:36 11.12.2019
6660 Rain 2 1005 92 10000 3.1 210 19:18 11.12.2019
6661 Rain 2 1006 92 10000 4.1 220 18:40 11.12.2019
6662 Rain 2 1006 92 10000 4.1 220 18:21 11.12.2019
6663 Rain 2 1006 86 10000 3.1 200 17:57 11.12.2019
6664 Rain 3 1006 86 10000 3.1 200 17:38 11.12.2019
6665 Rain 3 1006 86 10000 3.1 200 17:18 11.12.2019
6666 Rain 3 1006 86 10000 3.6 200 16:57 11.12.2019
6667 Clouds 3 1006 86 10000 3.1 200 16:38 11.12.2019
6668 Clouds 3 1006 86 10000 3.1 200 16:20 11.12.2019
6669 Drizzle 3 1007 86 8000 3.1 200 15:58 11.12.2019
6670 Drizzle 3 1007 86 8000 3.1 200 15:39 11.12.2019
6671 Drizzle 3 1007 86 7000 3.1 210 15:20 11.12.2019
6672 Drizzle 4 1007 86 8000 3.1 200 14:56 11.12.2019
6673 Rain 3 1008 93 10000 2.6 200 14:37 11.12.2019
6674 Rain 3 1008 93 10000 2.6 200 14:19 11.12.2019
6675 Rain 3 1008 93 10000 3.1 200 13:54 11.12.2019
6676 Clouds 4 1008 93 10000 2.6 180 13:36 11.12.2019
6677 Clouds 4 1008 93 10000 2.6 180 13:36 11.12.2019
6678 Clouds 3 1008 93 10000 2.6 180 13:18 11.12.2019
6679 Drizzle 3 1009 93 8000 3.1 190 12:55 11.12.2019
6680 Rain 4 1009 86 9000 3.6 190 12:37 11.12.2019
6681 Rain 4 1009 86 9000 3.6 190 12:18 11.12.2019
6682 Rain 3 1009 86 9000 4.1 200 11:56 11.12.2019
6683 Rain 4 1010 86 9000 3.6 200 11:37 11.12.2019
6684 Rain 4 1010 86 9000 3.6 200 11:37 11.12.2019
6685 Rain 4 1010 86 9000 3.6 200 11:18 11.12.2019
6686 Rain 3 1010 86 9000 3.6 200 10:44 11.12.2019
6687 Rain 4 1010 86 9000 3.6 200 10:26 11.12.2019
6688 Rain 3 1010 86 9000 3.1 200 09:59 11.12.2019
6689 Rain 3 1010 86 8000 3.6 210 09:38 11.12.2019
6690 Rain 3 1010 86 8000 3.6 210 09:20 11.12.2019
6691 Rain 4 1010 80 10000 2.6 200 08:57 11.12.2019
6692 Drizzle 4 1011 87 10000 4.1 220 08:38 11.12.2019
6693 Drizzle 4 1011 83 10000 4.1 220 08:19 11.12.2019
6694 Rain 4 1011 65 10000 6.7 220 07:46 11.12.2019
6695 Rain 4 1011 60 10000 6.2 220 07:26 11.12.2019
6696 Clouds 4 1010 86 10000 4.1 190 06:59 11.12.2019
6697 Clouds 4 1010 86 10000 4.1 170 06:40 11.12.2019
6698 Clouds 4 1010 86 10000 3.6 190 06:21 11.12.2019
6699 Clouds 5 1010 86 10000 4.1 190 05:41 11.12.2019
6700 Clouds 4 1011 86 10000 5.1 190 05:18 11.12.2019
6701 Rain 5 1011 67 8000 5.7 180 03:50 11.12.2019
6702 Clouds 5 1012 56 10000 6.7 180 02:49 11.12.2019
6703 Clouds 5 1013 60 10000 5.7 180 01:23 11.12.2019
6704 Clouds 5 1014 60 10000 5.7 170 00:47 11.12.2019
6705 Clouds 4 1014 65 10000 5.1 180 00:21 11.12.2019
6706 Clouds 4 1015 69 10000 5.1 160 23:49 10.12.2019<